<?xml version='1.0' encoding='UTF-8'?><gpx version="1.1" creator="JPX - https://github.com/jenetics/jpx" xmlns="http://www.topografix.com/GPX/1/1"><trk><trkseg><trkpt lat="43.85131930470825" lon="10.797567749406022"><ele>15.999999999999998</ele><time>2026-04-25T07:55:45.999Z</time></trkpt><trkpt lat="43.85124052459781" lon="10.797473438943761"><ele>16.0</ele><time>2026-04-25T07:55:48.999Z</time></trkpt><trkpt lat="43.85126347649032" lon="10.797362582015415"><ele>16.0</ele><time>2026-04-25T07:55:51.999Z</time></trkpt><trkpt lat="43.85135101923983" lon="10.797351354238534"><ele>16.0</ele><time>2026-04-25T07:55:54.999Z</time></trkpt><trkpt lat="43.85142903580211" lon="10.797356669240243"><ele>15.999999999999998</ele><time>2026-04-25T07:55:57.999Z</time></trkpt><trkpt lat="43.85149538211119" lon="10.797444701019703"><ele>16.0</ele><time>2026-04-25T07:56:00.999Z</time></trkpt><trkpt lat="43.85148447109176" lon="10.797551405718048"><ele>15.999999999999998</ele><time>2026-04-25T07:56:02.999Z</time></trkpt><trkpt lat="43.85146611528703" lon="10.79765458783659"><ele>16.0</ele><time>2026-04-25T07:56:04.999Z</time></trkpt><trkpt lat="43.85144459666436" lon="10.797764781415493"><ele>16.0</ele><time>2026-04-25T07:56:06.999Z</time></trkpt><trkpt lat="43.85143724837036" lon="10.797877212073782"><ele>16.0</ele><time>2026-04-25T07:56:08.999Z</time></trkpt><trkpt lat="43.85142521104706" lon="10.797997184465215"><ele>15.999999999999998</ele><time>2026-04-25T07:56:10.999Z</time></trkpt><trkpt lat="43.85140703976914" lon="10.79813507362641"><ele>16.0</ele><time>2026-04-25T07:56:12.999Z</time></trkpt><trkpt lat="43.85137538389929" lon="10.798292876621177"><ele>16.0</ele><time>2026-04-25T07:56:14.999Z</time></trkpt><trkpt lat="43.85135913575594" lon="10.798474631166895"><ele>16.0</ele><time>2026-04-25T07:56:16.999Z</time></trkpt><trkpt lat="43.851345293253814" lon="10.798622561368374"><ele>16.0</ele><time>2026-04-25T07:56:18.999Z</time></trkpt><trkpt lat="43.851331523951586" lon="10.798769709310527"><ele>16.0</ele><time>2026-04-25T07:56:20.999Z</time></trkpt><trkpt lat="43.851317271698" lon="10.798917817430082"><ele>16.0</ele><time>2026-04-25T07:56:22.999Z</time></trkpt><trkpt lat="43.85130238830779" lon="10.799071581654573"><ele>16.0</ele><time>2026-04-25T07:56:24.999Z</time></trkpt><trkpt lat="43.85128731973408" lon="10.799227259063908"><ele>16.0</ele><time>2026-04-25T07:56:26.999Z</time></trkpt><trkpt lat="43.85126646484856" lon="10.799385657800538"><ele>16.0</ele><time>2026-04-25T07:56:28.999Z</time></trkpt><trkpt lat="43.851232097279386" lon="10.799538571956928"><ele>15.8</ele><time>2026-04-25T07:56:30.999Z</time></trkpt><trkpt lat="43.85118606915563" lon="10.799683317116015"><ele>15.600000000000001</ele><time>2026-04-25T07:56:32.999Z</time></trkpt><trkpt lat="43.851155816768795" lon="10.799760845842648"><ele>15.4</ele><time>2026-04-25T07:56:33.999Z</time></trkpt><trkpt lat="43.85110281479481" lon="10.799892314256974"><ele>15.2</ele><time>2026-04-25T07:56:35.999Z</time></trkpt><trkpt lat="43.85105918247715" lon="10.799996148730711"><ele>15.0</ele><time>2026-04-25T07:56:37.999Z</time></trkpt><trkpt lat="43.85100615782609" lon="10.800139288509243"><ele>15.4</ele><time>2026-04-25T07:56:39.999Z</time></trkpt><trkpt lat="43.850955705912526" lon="10.80027820836545"><ele>15.8</ele><time>2026-04-25T07:56:41.999Z</time></trkpt><trkpt lat="43.85090251675675" lon="10.800402675577503"><ele>16.2</ele><time>2026-04-25T07:56:43.999Z</time></trkpt><trkpt lat="43.850842811207954" lon="10.800518703022346"><ele>16.6</ele><time>2026-04-25T07:56:45.999Z</time></trkpt><trkpt lat="43.85081223344309" lon="10.800636892175012"><ele>17.0</ele><time>2026-04-25T07:56:47.999Z</time></trkpt><trkpt lat="43.850749040608086" lon="10.80075539190606"><ele>17.0</ele><time>2026-04-25T07:56:49.999Z</time></trkpt><trkpt lat="43.85089281209754" lon="10.800811007327432"><ele>17.0</ele><time>2026-04-25T07:56:50.999Z</time></trkpt><trkpt lat="43.85098790552161" lon="10.800903222648405"><ele>17.0</ele><time>2026-04-25T07:56:52.999Z</time></trkpt><trkpt lat="43.8510436571837" lon="10.800953844737517"><ele>17.0</ele><time>2026-04-25T07:56:53.999Z</time></trkpt><trkpt lat="43.851134446563236" lon="10.801006523985567"><ele>17.0</ele><time>2026-04-25T07:56:55.999Z</time></trkpt><trkpt lat="43.85121341885279" lon="10.801060816074568"><ele>16.666666666666668</ele><time>2026-04-25T07:56:57.999Z</time></trkpt><trkpt lat="43.85121359179407" lon="10.801183960098491"><ele>16.333333333333336</ele><time>2026-04-25T07:56:58.999Z</time></trkpt><trkpt lat="43.851270912749094" lon="10.801309622869299"><ele>16.0</ele><time>2026-04-25T07:57:00.999Z</time></trkpt><trkpt lat="43.85132257732616" lon="10.801360482954808"><ele>15.666666666666668</ele><time>2026-04-25T07:57:01.999Z</time></trkpt><trkpt lat="43.8514481252367" lon="10.801354990455296"><ele>15.333333333333334</ele><time>2026-04-25T07:57:03.999Z</time></trkpt><trkpt lat="43.851500725101594" lon="10.801305244244077"><ele>15.0</ele><time>2026-04-25T07:57:04.999Z</time></trkpt><trkpt lat="43.85152757707104" lon="10.801209789766695"><ele>15.0</ele><time>2026-04-25T07:57:05.999Z</time></trkpt><trkpt lat="43.85153497021972" lon="10.801106698641451"><ele>15.0</ele><time>2026-04-25T07:57:06.999Z</time></trkpt><trkpt lat="43.851541558776205" lon="10.80101780648567"><ele>15.0</ele><time>2026-04-25T07:57:07.999Z</time></trkpt><trkpt lat="43.851487455880935" lon="10.800940404524953"><ele>15.0</ele><time>2026-04-25T07:57:08.999Z</time></trkpt><trkpt lat="43.8515013828287" lon="10.80076979029065"><ele>15.0</ele><time>2026-04-25T07:57:10.999Z</time></trkpt><trkpt lat="43.851507096488334" lon="10.800681649840742"><ele>15.0</ele><time>2026-04-25T07:57:11.999Z</time></trkpt><trkpt lat="43.851520076670596" lon="10.800593985400456"><ele>15.0</ele><time>2026-04-25T07:57:12.999Z</time></trkpt><trkpt lat="43.85153765145743" lon="10.800508756902087"><ele>15.0</ele><time>2026-04-25T07:57:13.999Z</time></trkpt><trkpt lat="43.85156758319875" lon="10.800339396294461"><ele>15.0</ele><time>2026-04-25T07:57:15.999Z</time></trkpt><trkpt lat="43.851601330825595" lon="10.800174475162716"><ele>15.0</ele><time>2026-04-25T07:57:17.999Z</time></trkpt><trkpt lat="43.85162843493202" lon="10.800010149097831"><ele>15.0</ele><time>2026-04-25T07:57:19.999Z</time></trkpt><trkpt lat="43.85164575250442" lon="10.799920641647418"><ele>15.0</ele><time>2026-04-25T07:57:20.999Z</time></trkpt><trkpt lat="43.851670533242356" lon="10.79975437596672"><ele>15.0</ele><time>2026-04-25T07:57:22.999Z</time></trkpt><trkpt lat="43.851685256207865" lon="10.799669379043195"><ele>15.0</ele><time>2026-04-25T07:57:23.999Z</time></trkpt><trkpt lat="43.85169964651698" lon="10.79957906997141"><ele>15.0</ele><time>2026-04-25T07:57:24.998Z</time></trkpt><trkpt lat="43.85172671373062" lon="10.799415768058466"><ele>15.0</ele><time>2026-04-25T07:57:26.998Z</time></trkpt><trkpt lat="43.85175208871294" lon="10.799250586935468"><ele>15.0</ele><time>2026-04-25T07:57:28.998Z</time></trkpt><trkpt lat="43.851771627843235" lon="10.799080933416079"><ele>15.0</ele><time>2026-04-25T07:57:30.998Z</time></trkpt><trkpt lat="43.851795641602166" lon="10.798907355679843"><ele>15.0</ele><time>2026-04-25T07:57:32.998Z</time></trkpt><trkpt lat="43.851803265781285" lon="10.798809721340662"><ele>15.0</ele><time>2026-04-25T07:57:33.998Z</time></trkpt><trkpt lat="43.85181800005201" lon="10.79864628586439"><ele>15.0</ele><time>2026-04-25T07:57:35.998Z</time></trkpt><trkpt lat="43.851835674000995" lon="10.798481139578985"><ele>15.0</ele><time>2026-04-25T07:57:37.998Z</time></trkpt><trkpt lat="43.851843849778696" lon="10.798327581967417"><ele>15.0</ele><time>2026-04-25T07:57:39.998Z</time></trkpt><trkpt lat="43.8518529771037" lon="10.798173693196832"><ele>15.0</ele><time>2026-04-25T07:57:41.998Z</time></trkpt><trkpt lat="43.85186490139986" lon="10.798019420577871"><ele>15.0</ele><time>2026-04-25T07:57:43.998Z</time></trkpt><trkpt lat="43.85187771870025" lon="10.797869335537843"><ele>15.0</ele><time>2026-04-25T07:57:45.998Z</time></trkpt><trkpt lat="43.85188496167088" lon="10.797717824942168"><ele>15.0</ele><time>2026-04-25T07:57:48Z</time></trkpt><trkpt lat="43.851892862501586" lon="10.797561855057333"><ele>15.0</ele><time>2026-04-25T07:57:50Z</time></trkpt><trkpt lat="43.851901801889994" lon="10.797413134452997"><ele>15.0</ele><time>2026-04-25T07:57:52Z</time></trkpt><trkpt lat="43.85190467829316" lon="10.79726126869784"><ele>15.0</ele><time>2026-04-25T07:57:54Z</time></trkpt><trkpt lat="43.85190857778611" lon="10.797115841676588"><ele>15.0</ele><time>2026-04-25T07:57:56Z</time></trkpt><trkpt lat="43.85192178659802" lon="10.796955691258695"><ele>15.25</ele><time>2026-04-25T07:57:58Z</time></trkpt><trkpt lat="43.8519247132465" lon="10.796797870462237"><ele>15.5</ele><time>2026-04-25T07:58:00Z</time></trkpt><trkpt lat="43.851936369473655" lon="10.79664221042597"><ele>15.75</ele><time>2026-04-25T07:58:02Z</time></trkpt><trkpt lat="43.85194727888235" lon="10.796479005987031"><ele>16.0</ele><time>2026-04-25T07:58:04Z</time></trkpt><trkpt lat="43.851953467432125" lon="10.79631549135782"><ele>16.0</ele><time>2026-04-25T07:58:06Z</time></trkpt><trkpt lat="43.8519565792071" lon="10.796222774232033"><ele>16.0</ele><time>2026-04-25T07:58:07Z</time></trkpt><trkpt lat="43.85196314231468" lon="10.796058783497253"><ele>16.0</ele><time>2026-04-25T07:58:09Z</time></trkpt><trkpt lat="43.85197454175358" lon="10.795894303450504"><ele>16.0</ele><time>2026-04-25T07:58:11Z</time></trkpt><trkpt lat="43.85198052688697" lon="10.79572581669236"><ele>16.0</ele><time>2026-04-25T07:58:13Z</time></trkpt><trkpt lat="43.85199077081888" lon="10.795554655795453"><ele>16.166666666666664</ele><time>2026-04-25T07:58:15Z</time></trkpt><trkpt lat="43.8519948523368" lon="10.795383691403988"><ele>16.333333333333332</ele><time>2026-04-25T07:58:17Z</time></trkpt><trkpt lat="43.85200579627054" lon="10.795219265831737"><ele>16.5</ele><time>2026-04-25T07:58:19Z</time></trkpt><trkpt lat="43.85201118308146" lon="10.795132090336399"><ele>16.666666666666668</ele><time>2026-04-25T07:58:20Z</time></trkpt><trkpt lat="43.85201623907784" lon="10.79504303036496"><ele>16.833333333333336</ele><time>2026-04-25T07:58:21Z</time></trkpt><trkpt lat="43.852019182898715" lon="10.794954180658596"><ele>17.0</ele><time>2026-04-25T07:58:22Z</time></trkpt><trkpt lat="43.85202231411732" lon="10.794866560910199"><ele>17.166666666666668</ele><time>2026-04-25T07:58:23Z</time></trkpt><trkpt lat="43.85202481376303" lon="10.794777742634118"><ele>17.333333333333336</ele><time>2026-04-25T07:58:24Z</time></trkpt><trkpt lat="43.852029704318014" lon="10.794685944484023"><ele>17.5</ele><time>2026-04-25T07:58:25Z</time></trkpt><trkpt lat="43.85204310024763" lon="10.794508959957946"><ele>17.666666666666668</ele><time>2026-04-25T07:58:26.999Z</time></trkpt><trkpt lat="43.85204729907819" lon="10.794417568577144"><ele>17.833333333333332</ele><time>2026-04-25T07:58:27.999Z</time></trkpt><trkpt lat="43.85204497314053" lon="10.794330037409793"><ele>18.0</ele><time>2026-04-25T07:58:28.999Z</time></trkpt><trkpt lat="43.852047630032814" lon="10.794241769635889"><ele>18.142857142857146</ele><time>2026-04-25T07:58:29.999Z</time></trkpt><trkpt lat="43.85205575140172" lon="10.794142942407648"><ele>18.285714285714285</ele><time>2026-04-25T07:58:30.999Z</time></trkpt><trkpt lat="43.85205658745952" lon="10.794050368466953"><ele>18.42857142857143</ele><time>2026-04-25T07:58:31.999Z</time></trkpt><trkpt lat="43.85206285690404" lon="10.793957554917368"><ele>18.571428571428573</ele><time>2026-04-25T07:58:32.999Z</time></trkpt><trkpt lat="43.85206766853278" lon="10.79385925241314"><ele>18.714285714285715</ele><time>2026-04-25T07:58:33.999Z</time></trkpt><trkpt lat="43.8520726642461" lon="10.793760112243694"><ele>18.857142857142858</ele><time>2026-04-25T07:58:34.999Z</time></trkpt><trkpt lat="43.85208323037126" lon="10.793668843880075"><ele>19.0</ele><time>2026-04-25T07:58:35.999Z</time></trkpt><trkpt lat="43.852091403441364" lon="10.793572372892621"><ele>18.71428571428571</ele><time>2026-04-25T07:58:36.999Z</time></trkpt><trkpt lat="43.85209089406099" lon="10.793472718731286"><ele>18.42857142857143</ele><time>2026-04-25T07:58:37.999Z</time></trkpt><trkpt lat="43.852093860389864" lon="10.793381716887957"><ele>18.142857142857142</ele><time>2026-04-25T07:58:38.999Z</time></trkpt><trkpt lat="43.852100246133844" lon="10.793285992301568"><ele>17.857142857142854</ele><time>2026-04-25T07:58:39.999Z</time></trkpt><trkpt lat="43.852101860937786" lon="10.7931889543036"><ele>17.57142857142857</ele><time>2026-04-25T07:58:40.999Z</time></trkpt><trkpt lat="43.85210492902558" lon="10.793098484238367"><ele>17.285714285714285</ele><time>2026-04-25T07:58:41.999Z</time></trkpt><trkpt lat="43.852110322435266" lon="10.793006523629435"><ele>17.0</ele><time>2026-04-25T07:58:42.999Z</time></trkpt><trkpt lat="43.852116381810575" lon="10.79291508829975"><ele>16.999999999999996</ele><time>2026-04-25T07:58:43.999Z</time></trkpt><trkpt lat="43.8521182672652" lon="10.792823536172344"><ele>17.0</ele><time>2026-04-25T07:58:44.999Z</time></trkpt><trkpt lat="43.85212052373617" lon="10.792726238893488"><ele>17.0</ele><time>2026-04-25T07:58:45.999Z</time></trkpt><trkpt lat="43.85213248751925" lon="10.792630580647723"><ele>17.0</ele><time>2026-04-25T07:58:46.999Z</time></trkpt><trkpt lat="43.85213431830638" lon="10.792534679687156"><ele>17.0</ele><time>2026-04-25T07:58:47.999Z</time></trkpt><trkpt lat="43.85213697773784" lon="10.792435356946918"><ele>16.999999999999996</ele><time>2026-04-25T07:58:48.999Z</time></trkpt><trkpt lat="43.85214359290507" lon="10.792330807391016"><ele>17.0</ele><time>2026-04-25T07:58:49.999Z</time></trkpt><trkpt lat="43.8521466982609" lon="10.79222749139723"><ele>17.0</ele><time>2026-04-25T07:58:50.999Z</time></trkpt><trkpt lat="43.85214793767392" lon="10.792123955755814"><ele>17.0</ele><time>2026-04-25T07:58:51.999Z</time></trkpt><trkpt lat="43.85215151785828" lon="10.792020408261923"><ele>17.0</ele><time>2026-04-25T07:58:52.999Z</time></trkpt><trkpt lat="43.852156176333885" lon="10.791911826501094"><ele>17.0</ele><time>2026-04-25T07:58:53.999Z</time></trkpt><trkpt lat="43.85216180017507" lon="10.791797978212509"><ele>17.0</ele><time>2026-04-25T07:58:54.999Z</time></trkpt><trkpt lat="43.852166207034685" lon="10.791687412956943"><ele>17.0</ele><time>2026-04-25T07:58:55.999Z</time></trkpt><trkpt lat="43.85217902231729" lon="10.791576518968302"><ele>17.0</ele><time>2026-04-25T07:58:56.999Z</time></trkpt><trkpt lat="43.852186314309485" lon="10.791462013777375"><ele>17.0</ele><time>2026-04-25T07:58:57.999Z</time></trkpt><trkpt lat="43.85220089692635" lon="10.791344518345122"><ele>17.0</ele><time>2026-04-25T07:58:58.999Z</time></trkpt><trkpt lat="43.85223207061059" lon="10.791235646834904"><ele>17.0</ele><time>2026-04-25T07:58:59.999Z</time></trkpt><trkpt lat="43.85227304028016" lon="10.791133037662899"><ele>17.0</ele><time>2026-04-25T07:59:00.999Z</time></trkpt><trkpt lat="43.85229948284512" lon="10.791029006780114"><ele>17.0</ele><time>2026-04-25T07:59:01.999Z</time></trkpt><trkpt lat="43.8522862379171" lon="10.790916933309743"><ele>17.166666666666668</ele><time>2026-04-25T07:59:02.999Z</time></trkpt><trkpt lat="43.85224405664891" lon="10.790819039776537"><ele>17.333333333333336</ele><time>2026-04-25T07:59:03.999Z</time></trkpt><trkpt lat="43.852196288258334" lon="10.790731272172287"><ele>17.5</ele><time>2026-04-25T07:59:04.999Z</time></trkpt><trkpt lat="43.85216656121157" lon="10.790625151005909"><ele>17.666666666666668</ele><time>2026-04-25T07:59:05.999Z</time></trkpt><trkpt lat="43.85216450831507" lon="10.790509328776286"><ele>17.833333333333332</ele><time>2026-04-25T07:59:06.999Z</time></trkpt><trkpt lat="43.85215753077851" lon="10.790391658548756"><ele>18.0</ele><time>2026-04-25T07:59:07.999Z</time></trkpt><trkpt lat="43.85215702979601" lon="10.790267991074224"><ele>18.0</ele><time>2026-04-25T07:59:08.999Z</time></trkpt><trkpt lat="43.85215971554774" lon="10.7901465040873"><ele>18.0</ele><time>2026-04-25T07:59:09.999Z</time></trkpt><trkpt lat="43.85217399939763" lon="10.790024572841656"><ele>18.0</ele><time>2026-04-25T07:59:10.999Z</time></trkpt><trkpt lat="43.85219010009671" lon="10.789900193950734"><ele>18.0</ele><time>2026-04-25T07:59:11.999Z</time></trkpt><trkpt lat="43.8522101646452" lon="10.789742798561324"><ele>18.0</ele><time>2026-04-25T07:59:12.999Z</time></trkpt><trkpt lat="43.85222503675968" lon="10.789546262180597"><ele>18.0</ele><time>2026-04-25T07:59:14.999Z</time></trkpt><trkpt lat="43.85223862775741" lon="10.789433948975686"><ele>18.0</ele><time>2026-04-25T07:59:15.999Z</time></trkpt><trkpt lat="43.85225037065547" lon="10.789323291146763"><ele>18.0</ele><time>2026-04-25T07:59:16.999Z</time></trkpt><trkpt lat="43.85226219277583" lon="10.789210954936024"><ele>18.0</ele><time>2026-04-25T07:59:17.999Z</time></trkpt><trkpt lat="43.85227034473224" lon="10.789102446154033"><ele>18.0</ele><time>2026-04-25T07:59:18.999Z</time></trkpt><trkpt lat="43.85228215918401" lon="10.788992426476538"><ele>18.0</ele><time>2026-04-25T07:59:19.999Z</time></trkpt><trkpt lat="43.85229121843997" lon="10.788889440509681"><ele>17.666666666666668</ele><time>2026-04-25T07:59:20.999Z</time></trkpt><trkpt lat="43.8523025056003" lon="10.788781871763558"><ele>17.333333333333332</ele><time>2026-04-25T07:59:21.999Z</time></trkpt><trkpt lat="43.85231096792866" lon="10.788665328980857"><ele>17.0</ele><time>2026-04-25T07:59:22.999Z</time></trkpt><trkpt lat="43.8523170751335" lon="10.788568771395289"><ele>16.666666666666664</ele><time>2026-04-25T07:59:23.999Z</time></trkpt><trkpt lat="43.85232691262145" lon="10.788467605001179"><ele>16.333333333333332</ele><time>2026-04-25T07:59:24.999Z</time></trkpt><trkpt lat="43.852343662771794" lon="10.788361861940228"><ele>16.0</ele><time>2026-04-25T07:59:25.999Z</time></trkpt><trkpt lat="43.85235580676564" lon="10.788253173769492"><ele>15.833333333333332</ele><time>2026-04-25T07:59:26.999Z</time></trkpt><trkpt lat="43.85236647969253" lon="10.788153850160379"><ele>15.666666666666666</ele><time>2026-04-25T07:59:27.999Z</time></trkpt><trkpt lat="43.85237764153261" lon="10.788047791110248"><ele>15.5</ele><time>2026-04-25T07:59:28.999Z</time></trkpt><trkpt lat="43.85238810903225" lon="10.787943619721233"><ele>15.333333333333332</ele><time>2026-04-25T07:59:29.999Z</time></trkpt><trkpt lat="43.85239905675835" lon="10.787845540842284"><ele>15.166666666666666</ele><time>2026-04-25T07:59:30.998Z</time></trkpt><trkpt lat="43.852411537241714" lon="10.787738331271466"><ele>15.0</ele><time>2026-04-25T07:59:31.998Z</time></trkpt><trkpt lat="43.85242410419716" lon="10.787630658087247"><ele>15.333333333333334</ele><time>2026-04-25T07:59:32.998Z</time></trkpt><trkpt lat="43.85243510775349" lon="10.787526584358533"><ele>15.666666666666668</ele><time>2026-04-25T07:59:33.998Z</time></trkpt><trkpt lat="43.8524419312706" lon="10.787427729901552"><ele>16.0</ele><time>2026-04-25T07:59:34.998Z</time></trkpt><trkpt lat="43.852454761548444" lon="10.787323221591066"><ele>16.333333333333336</ele><time>2026-04-25T07:59:35.998Z</time></trkpt><trkpt lat="43.85246709238482" lon="10.787212889258877"><ele>16.666666666666668</ele><time>2026-04-25T07:59:36.998Z</time></trkpt><trkpt lat="43.85247477962628" lon="10.787114111045021"><ele>17.0</ele><time>2026-04-25T07:59:37.998Z</time></trkpt><trkpt lat="43.85248119362788" lon="10.78701223801144"><ele>16.999999999999996</ele><time>2026-04-25T07:59:38.998Z</time></trkpt><trkpt lat="43.852492487201765" lon="10.786902614040544"><ele>17.0</ele><time>2026-04-25T07:59:39.998Z</time></trkpt><trkpt lat="43.852501332524845" lon="10.786800437425144"><ele>17.0</ele><time>2026-04-25T07:59:40.998Z</time></trkpt><trkpt lat="43.8525110026797" lon="10.786698123038484"><ele>17.0</ele><time>2026-04-25T07:59:41.998Z</time></trkpt><trkpt lat="43.852520573163126" lon="10.786596610694868"><ele>17.0</ele><time>2026-04-25T07:59:42.998Z</time></trkpt><trkpt lat="43.85253101981583" lon="10.786498412579563"><ele>16.999999999999996</ele><time>2026-04-25T07:59:43.998Z</time></trkpt><trkpt lat="43.8525461556889" lon="10.786396943952049"><ele>17.0</ele><time>2026-04-25T07:59:44.998Z</time></trkpt><trkpt lat="43.85255599427415" lon="10.78629970320748"><ele>17.166666666666668</ele><time>2026-04-25T07:59:45.998Z</time></trkpt><trkpt lat="43.85257136980667" lon="10.786197371360577"><ele>17.333333333333336</ele><time>2026-04-25T07:59:46.998Z</time></trkpt><trkpt lat="43.85258779877797" lon="10.786102028773872"><ele>17.5</ele><time>2026-04-25T07:59:47.998Z</time></trkpt><trkpt lat="43.85260863533924" lon="10.786003917105043"><ele>17.666666666666668</ele><time>2026-04-25T07:59:48.998Z</time></trkpt><trkpt lat="43.852648623508166" lon="10.78587569672353"><ele>17.833333333333332</ele><time>2026-04-25T07:59:49.998Z</time></trkpt><trkpt lat="43.852683785758266" lon="10.785703794570926"><ele>18.0</ele><time>2026-04-25T07:59:51.998Z</time></trkpt><trkpt lat="43.852710398178175" lon="10.785607402119473"><ele>17.571428571428573</ele><time>2026-04-25T07:59:53Z</time></trkpt><trkpt lat="43.852743027518265" lon="10.78551455679953"><ele>17.142857142857142</ele><time>2026-04-25T07:59:54Z</time></trkpt><trkpt lat="43.85277489911621" lon="10.785418986496328"><ele>16.714285714285715</ele><time>2026-04-25T07:59:55Z</time></trkpt><trkpt lat="43.85280377569026" lon="10.785324776211947"><ele>16.285714285714285</ele><time>2026-04-25T07:59:56Z</time></trkpt><trkpt lat="43.85283530014695" lon="10.78523196272476"><ele>15.857142857142858</ele><time>2026-04-25T07:59:57Z</time></trkpt><trkpt lat="43.85286178371136" lon="10.78514383306626"><ele>15.428571428571429</ele><time>2026-04-25T07:59:58Z</time></trkpt><trkpt lat="43.85289258821162" lon="10.78505271042934"><ele>15.0</ele><time>2026-04-25T07:59:59Z</time></trkpt><trkpt lat="43.852921876774225" lon="10.784962725091178"><ele>15.0</ele><time>2026-04-25T08:00:00Z</time></trkpt><trkpt lat="43.85295030313843" lon="10.784871150242541"><ele>15.0</ele><time>2026-04-25T08:00:01Z</time></trkpt><trkpt lat="43.852977271955076" lon="10.784781271461325"><ele>15.0</ele><time>2026-04-25T08:00:02Z</time></trkpt><trkpt lat="43.85300607431667" lon="10.784686501466872"><ele>15.0</ele><time>2026-04-25T08:00:03Z</time></trkpt><trkpt lat="43.853033771868645" lon="10.784595246882512"><ele>15.0</ele><time>2026-04-25T08:00:04Z</time></trkpt><trkpt lat="43.85306894263181" lon="10.784503747974034"><ele>15.0</ele><time>2026-04-25T08:00:05Z</time></trkpt><trkpt lat="43.85310042864797" lon="10.784408406587426"><ele>15.0</ele><time>2026-04-25T08:00:06Z</time></trkpt><trkpt lat="43.85313075894955" lon="10.784311648867568"><ele>15.0</ele><time>2026-04-25T08:00:07Z</time></trkpt><trkpt lat="43.85315813631775" lon="10.784216264941723"><ele>15.0</ele><time>2026-04-25T08:00:08Z</time></trkpt><trkpt lat="43.853191022485674" lon="10.784114155678422"><ele>15.0</ele><time>2026-04-25T08:00:09Z</time></trkpt><trkpt lat="43.853224202926164" lon="10.784021983162488"><ele>15.0</ele><time>2026-04-25T08:00:10Z</time></trkpt><trkpt lat="43.853257915867104" lon="10.783924226862577"><ele>15.0</ele><time>2026-04-25T08:00:11Z</time></trkpt><trkpt lat="43.85329300943226" lon="10.783822920558862"><ele>15.0</ele><time>2026-04-25T08:00:12Z</time></trkpt><trkpt lat="43.85332595240468" lon="10.783729708514516"><ele>15.0</ele><time>2026-04-25T08:00:13Z</time></trkpt><trkpt lat="43.85335950621809" lon="10.783632342538278"><ele>15.0</ele><time>2026-04-25T08:00:14Z</time></trkpt><trkpt lat="43.853390436108846" lon="10.783534021648533"><ele>15.0</ele><time>2026-04-25T08:00:15Z</time></trkpt><trkpt lat="43.85342200929377" lon="10.783433888858282"><ele>15.0</ele><time>2026-04-25T08:00:16Z</time></trkpt><trkpt lat="43.85345437995174" lon="10.78333388477454"><ele>15.0</ele><time>2026-04-25T08:00:17Z</time></trkpt><trkpt lat="43.85348207775518" lon="10.78323743666434"><ele>15.0</ele><time>2026-04-25T08:00:18Z</time></trkpt><trkpt lat="43.85351001766357" lon="10.783142686472031"><ele>15.0</ele><time>2026-04-25T08:00:19Z</time></trkpt><trkpt lat="43.85353662782068" lon="10.783042721950164"><ele>15.0</ele><time>2026-04-25T08:00:20Z</time></trkpt><trkpt lat="43.85357026330042" lon="10.782944307753127"><ele>15.0</ele><time>2026-04-25T08:00:21Z</time></trkpt><trkpt lat="43.853604540292146" lon="10.78284661258965"><ele>15.0</ele><time>2026-04-25T08:00:22Z</time></trkpt><trkpt lat="43.8536361470892" lon="10.782753354221532"><ele>15.0</ele><time>2026-04-25T08:00:23Z</time></trkpt><trkpt lat="43.853664275775216" lon="10.782653572203543"><ele>15.0</ele><time>2026-04-25T08:00:24Z</time></trkpt><trkpt lat="43.853698788927076" lon="10.782552165133087"><ele>15.0</ele><time>2026-04-25T08:00:25Z</time></trkpt><trkpt lat="43.853732448172835" lon="10.782456886231415"><ele>15.0</ele><time>2026-04-25T08:00:26Z</time></trkpt><trkpt lat="43.85375965004046" lon="10.782358350564937"><ele>15.0</ele><time>2026-04-25T08:00:27Z</time></trkpt><trkpt lat="43.8537986124076" lon="10.78226415585543"><ele>15.0</ele><time>2026-04-25T08:00:28Z</time></trkpt><trkpt lat="43.853831006128544" lon="10.782173582971254"><ele>15.0</ele><time>2026-04-25T08:00:29Z</time></trkpt><trkpt lat="43.85385907134279" lon="10.782067801814497"><ele>15.0</ele><time>2026-04-25T08:00:30Z</time></trkpt><trkpt lat="43.853892435802365" lon="10.781970662870656"><ele>15.0</ele><time>2026-04-25T08:00:31Z</time></trkpt><trkpt lat="43.853927832157" lon="10.781872035454658"><ele>15.0</ele><time>2026-04-25T08:00:32Z</time></trkpt><trkpt lat="43.85396296131149" lon="10.781771618388895"><ele>15.0</ele><time>2026-04-25T08:00:32.999Z</time></trkpt><trkpt lat="43.85399344851162" lon="10.781668374394474"><ele>15.0</ele><time>2026-04-25T08:00:33.999Z</time></trkpt><trkpt lat="43.85402402692933" lon="10.781577885180313"><ele>15.0</ele><time>2026-04-25T08:00:34.999Z</time></trkpt><trkpt lat="43.85405499338551" lon="10.781477671160413"><ele>15.0</ele><time>2026-04-25T08:00:35.999Z</time></trkpt><trkpt lat="43.85408661949734" lon="10.781387617881409"><ele>15.333333333333334</ele><time>2026-04-25T08:00:36.999Z</time></trkpt><trkpt lat="43.85411708518952" lon="10.781283527001712"><ele>15.666666666666668</ele><time>2026-04-25T08:00:37.999Z</time></trkpt><trkpt lat="43.854153498846976" lon="10.781187026541874"><ele>16.0</ele><time>2026-04-25T08:00:38.999Z</time></trkpt><trkpt lat="43.854190341770554" lon="10.781092010346935"><ele>16.333333333333336</ele><time>2026-04-25T08:00:39.999Z</time></trkpt><trkpt lat="43.85421970314393" lon="10.78099425042835"><ele>16.666666666666668</ele><time>2026-04-25T08:00:40.999Z</time></trkpt><trkpt lat="43.85424954201252" lon="10.780896191650525"><ele>17.0</ele><time>2026-04-25T08:00:41.999Z</time></trkpt><trkpt lat="43.854279433048184" lon="10.780806013107881"><ele>16.5</ele><time>2026-04-25T08:00:42.999Z</time></trkpt><trkpt lat="43.85430940306274" lon="10.780707610311152"><ele>16.0</ele><time>2026-04-25T08:00:43.999Z</time></trkpt><trkpt lat="43.85434150082214" lon="10.780609773556751"><ele>15.5</ele><time>2026-04-25T08:00:44.999Z</time></trkpt><trkpt lat="43.854372588512156" lon="10.780515945246222"><ele>15.0</ele><time>2026-04-25T08:00:45.999Z</time></trkpt><trkpt lat="43.85440463043035" lon="10.78042097688429"><ele>14.500000000000002</ele><time>2026-04-25T08:00:46.999Z</time></trkpt><trkpt lat="43.854439759469805" lon="10.780327859320842"><ele>14.0</ele><time>2026-04-25T08:00:47.999Z</time></trkpt><trkpt lat="43.85447156822257" lon="10.780230406091533"><ele>14.166666666666668</ele><time>2026-04-25T08:00:48.999Z</time></trkpt><trkpt lat="43.85450184678361" lon="10.780131715580675"><ele>14.333333333333334</ele><time>2026-04-25T08:00:49.999Z</time></trkpt><trkpt lat="43.85453249035308" lon="10.780032967869428"><ele>14.5</ele><time>2026-04-25T08:00:50.999Z</time></trkpt><trkpt lat="43.85456617684828" lon="10.77994122142969"><ele>14.666666666666668</ele><time>2026-04-25T08:00:51.999Z</time></trkpt><trkpt lat="43.85460284626902" lon="10.779836364605291"><ele>14.833333333333334</ele><time>2026-04-25T08:00:52.999Z</time></trkpt><trkpt lat="43.85463244905409" lon="10.779741283017124"><ele>15.0</ele><time>2026-04-25T08:00:53.999Z</time></trkpt><trkpt lat="43.85466565648894" lon="10.779643360789548"><ele>15.0</ele><time>2026-04-25T08:00:54.999Z</time></trkpt><trkpt lat="43.85469711103343" lon="10.779545731617638"><ele>15.0</ele><time>2026-04-25T08:00:55.999Z</time></trkpt><trkpt lat="43.85472854695461" lon="10.779451943722643"><ele>15.0</ele><time>2026-04-25T08:00:56.999Z</time></trkpt><trkpt lat="43.8547611076623" lon="10.77935389152005"><ele>15.0</ele><time>2026-04-25T08:00:57.999Z</time></trkpt><trkpt lat="43.85479385968711" lon="10.779257925275784"><ele>15.0</ele><time>2026-04-25T08:00:58.999Z</time></trkpt><trkpt lat="43.85482395780984" lon="10.779160077432111"><ele>15.0</ele><time>2026-04-25T08:00:59.999Z</time></trkpt><trkpt lat="43.854854264131596" lon="10.779062786302276"><ele>15.0</ele><time>2026-04-25T08:01:00.999Z</time></trkpt><trkpt lat="43.85488530999031" lon="10.778970585160055"><ele>15.0</ele><time>2026-04-25T08:01:01.999Z</time></trkpt><trkpt lat="43.8549194948351" lon="10.77887016238355"><ele>15.0</ele><time>2026-04-25T08:01:02.999Z</time></trkpt><trkpt lat="43.85494833978551" lon="10.778778328729533"><ele>15.0</ele><time>2026-04-25T08:01:03.999Z</time></trkpt><trkpt lat="43.854977267891" lon="10.77868274900665"><ele>15.0</ele><time>2026-04-25T08:01:04.999Z</time></trkpt><trkpt lat="43.85500659278815" lon="10.778591539359345"><ele>15.0</ele><time>2026-04-25T08:01:05.999Z</time></trkpt><trkpt lat="43.85504044472779" lon="10.778493269555426"><ele>15.0</ele><time>2026-04-25T08:01:06.999Z</time></trkpt><trkpt lat="43.855071433853055" lon="10.778396950201104"><ele>15.0</ele><time>2026-04-25T08:01:07.999Z</time></trkpt><trkpt lat="43.85510268607933" lon="10.778295446288492"><ele>15.0</ele><time>2026-04-25T08:01:08.999Z</time></trkpt><trkpt lat="43.855132377584546" lon="10.778209878095065"><ele>15.0</ele><time>2026-04-25T08:01:09.999Z</time></trkpt><trkpt lat="43.85516942421341" lon="10.778113847378089"><ele>15.0</ele><time>2026-04-25T08:01:10.999Z</time></trkpt><trkpt lat="43.85520475070889" lon="10.778016683523253"><ele>15.0</ele><time>2026-04-25T08:01:11.999Z</time></trkpt><trkpt lat="43.85523553158372" lon="10.777917188369013"><ele>14.666666666666666</ele><time>2026-04-25T08:01:12.999Z</time></trkpt><trkpt lat="43.85526709718788" lon="10.77781649331293"><ele>14.333333333333332</ele><time>2026-04-25T08:01:13.999Z</time></trkpt><trkpt lat="43.85529551382971" lon="10.777721422548717"><ele>14.0</ele><time>2026-04-25T08:01:14.999Z</time></trkpt><trkpt lat="43.85532677664752" lon="10.777624951073367"><ele>13.666666666666666</ele><time>2026-04-25T08:01:15.999Z</time></trkpt><trkpt lat="43.85535968047914" lon="10.777523888933972"><ele>13.333333333333332</ele><time>2026-04-25T08:01:16.999Z</time></trkpt><trkpt lat="43.855393758804645" lon="10.777428833460487"><ele>13.0</ele><time>2026-04-25T08:01:17.999Z</time></trkpt><trkpt lat="43.855425061176135" lon="10.777330691678458"><ele>12.999999999999998</ele><time>2026-04-25T08:01:18.999Z</time></trkpt><trkpt lat="43.855455609568246" lon="10.777234456156062"><ele>13.0</ele><time>2026-04-25T08:01:19.999Z</time></trkpt><trkpt lat="43.85548836754965" lon="10.777136793940166"><ele>13.0</ele><time>2026-04-25T08:01:20.999Z</time></trkpt><trkpt lat="43.85551852057727" lon="10.777042794155799"><ele>13.0</ele><time>2026-04-25T08:01:21.999Z</time></trkpt><trkpt lat="43.85554817961546" lon="10.77694491226158"><ele>12.999999999999998</ele><time>2026-04-25T08:01:22.999Z</time></trkpt><trkpt lat="43.85558078573824" lon="10.77684965698812"><ele>13.0</ele><time>2026-04-25T08:01:23.999Z</time></trkpt><trkpt lat="43.85561320095083" lon="10.776754371184287"><ele>12.999999999999998</ele><time>2026-04-25T08:01:24.999Z</time></trkpt><trkpt lat="43.855645685136196" lon="10.77665809852377"><ele>13.0</ele><time>2026-04-25T08:01:25.999Z</time></trkpt><trkpt lat="43.85567454224766" lon="10.77656218117533"><ele>13.0</ele><time>2026-04-25T08:01:26.999Z</time></trkpt><trkpt lat="43.85570639613046" lon="10.77646865934648"><ele>13.0</ele><time>2026-04-25T08:01:27.999Z</time></trkpt><trkpt lat="43.85573728351772" lon="10.776373095123391"><ele>12.999999999999998</ele><time>2026-04-25T08:01:28.999Z</time></trkpt><trkpt lat="43.85577114143194" lon="10.776274629272477"><ele>13.0</ele><time>2026-04-25T08:01:29.999Z</time></trkpt><trkpt lat="43.855801153990356" lon="10.77618378163406"><ele>12.999999999999998</ele><time>2026-04-25T08:01:30.999Z</time></trkpt><trkpt lat="43.85583029833142" lon="10.776076788676354"><ele>13.0</ele><time>2026-04-25T08:01:31.999Z</time></trkpt><trkpt lat="43.85586111543861" lon="10.775984121997213"><ele>13.0</ele><time>2026-04-25T08:01:32.999Z</time></trkpt><trkpt lat="43.85589368550037" lon="10.775893656660456"><ele>13.0</ele><time>2026-04-25T08:01:33.999Z</time></trkpt><trkpt lat="43.85592528755896" lon="10.7757928514605"><ele>12.999999999999998</ele><time>2026-04-25T08:01:34.999Z</time></trkpt><trkpt lat="43.85594968872832" lon="10.775692083302136"><ele>13.0</ele><time>2026-04-25T08:01:35.999Z</time></trkpt><trkpt lat="43.85598552160123" lon="10.775593105398983"><ele>12.999999999999998</ele><time>2026-04-25T08:01:36.998Z</time></trkpt><trkpt lat="43.85601833727996" lon="10.775498717838882"><ele>13.0</ele><time>2026-04-25T08:01:37.998Z</time></trkpt><trkpt lat="43.85605097575911" lon="10.775404128584197"><ele>13.0</ele><time>2026-04-25T08:01:38.998Z</time></trkpt><trkpt lat="43.85608198443734" lon="10.77530829832138"><ele>13.0</ele><time>2026-04-25T08:01:39.998Z</time></trkpt><trkpt lat="43.856114463911695" lon="10.775212097794295"><ele>12.999999999999998</ele><time>2026-04-25T08:01:40.998Z</time></trkpt><trkpt lat="43.85614620194256" lon="10.775114956934685"><ele>13.0</ele><time>2026-04-25T08:01:41.998Z</time></trkpt><trkpt lat="43.856180928093" lon="10.775022402227343"><ele>13.428571428571427</ele><time>2026-04-25T08:01:42.998Z</time></trkpt><trkpt lat="43.85621009787802" lon="10.774919435791618"><ele>13.857142857142858</ele><time>2026-04-25T08:01:43.998Z</time></trkpt><trkpt lat="43.856242003187546" lon="10.774828222487576"><ele>14.285714285714285</ele><time>2026-04-25T08:01:44.998Z</time></trkpt><trkpt lat="43.856275162319065" lon="10.774731916649932"><ele>14.714285714285714</ele><time>2026-04-25T08:01:45.998Z</time></trkpt><trkpt lat="43.8563036610536" lon="10.774634539537715"><ele>15.142857142857142</ele><time>2026-04-25T08:01:46.998Z</time></trkpt><trkpt lat="43.85633616197404" lon="10.774541194796644"><ele>15.571428571428571</ele><time>2026-04-25T08:01:47.998Z</time></trkpt><trkpt lat="43.85636488018928" lon="10.774459523287483"><ele>16.0</ele><time>2026-04-25T08:01:48.998Z</time></trkpt><trkpt lat="43.856397882209315" lon="10.774356808405633"><ele>16.142857142857142</ele><time>2026-04-25T08:01:49.998Z</time></trkpt><trkpt lat="43.85642565149221" lon="10.774267414316242"><ele>16.285714285714285</ele><time>2026-04-25T08:01:50.998Z</time></trkpt><trkpt lat="43.85645620635661" lon="10.774180590688115"><ele>16.428571428571427</ele><time>2026-04-25T08:01:51.998Z</time></trkpt><trkpt lat="43.856486118039" lon="10.774086205214457"><ele>16.57142857142857</ele><time>2026-04-25T08:01:52.998Z</time></trkpt><trkpt lat="43.856515548796175" lon="10.773993874540091"><ele>16.714285714285715</ele><time>2026-04-25T08:01:53.998Z</time></trkpt><trkpt lat="43.85654538523935" lon="10.773904128687326"><ele>16.857142857142854</ele><time>2026-04-25T08:01:54.998Z</time></trkpt><trkpt lat="43.85657352103655" lon="10.773819560488919"><ele>17.0</ele><time>2026-04-25T08:01:55.998Z</time></trkpt><trkpt lat="43.8566033042905" lon="10.773731255289963"><ele>16.999999999999996</ele><time>2026-04-25T08:01:56.998Z</time></trkpt><trkpt lat="43.856632563762815" lon="10.773642911055816"><ele>17.0</ele><time>2026-04-25T08:01:57.998Z</time></trkpt><trkpt lat="43.856661252764" lon="10.77355398220612"><ele>17.0</ele><time>2026-04-25T08:01:59Z</time></trkpt><trkpt lat="43.8566909289161" lon="10.773462228109226"><ele>17.0</ele><time>2026-04-25T08:02:00Z</time></trkpt><trkpt lat="43.85671473374198" lon="10.773374433233235"><ele>17.0</ele><time>2026-04-25T08:02:01Z</time></trkpt><trkpt lat="43.85674226617496" lon="10.773284304219962"><ele>16.999999999999996</ele><time>2026-04-25T08:02:02Z</time></trkpt><trkpt lat="43.85677494906935" lon="10.773191363404349"><ele>17.0</ele><time>2026-04-25T08:02:03Z</time></trkpt><trkpt lat="43.8567983125717" lon="10.773107573840573"><ele>16.999999999999996</ele><time>2026-04-25T08:02:04Z</time></trkpt><trkpt lat="43.856824748444524" lon="10.773019048751044"><ele>17.0</ele><time>2026-04-25T08:02:05Z</time></trkpt><trkpt lat="43.85685143250358" lon="10.772936486792817"><ele>17.0</ele><time>2026-04-25T08:02:06Z</time></trkpt><trkpt lat="43.856886018580916" lon="10.772841451073353"><ele>17.0</ele><time>2026-04-25T08:02:07Z</time></trkpt><trkpt lat="43.85691527975949" lon="10.772756493556797"><ele>17.0</ele><time>2026-04-25T08:02:08Z</time></trkpt><trkpt lat="43.85694519967977" lon="10.772656860847052"><ele>16.999999999999996</ele><time>2026-04-25T08:02:09Z</time></trkpt><trkpt lat="43.856975373060614" lon="10.77256195844241"><ele>17.0</ele><time>2026-04-25T08:02:10Z</time></trkpt><trkpt lat="43.85700737690829" lon="10.77246463272837"><ele>17.0</ele><time>2026-04-25T08:02:11Z</time></trkpt><trkpt lat="43.857040394720784" lon="10.772365696138174"><ele>17.0</ele><time>2026-04-25T08:02:12Z</time></trkpt><trkpt lat="43.85707263305368" lon="10.772260637158107"><ele>17.0</ele><time>2026-04-25T08:02:13Z</time></trkpt><trkpt lat="43.8571033647888" lon="10.772161462713509"><ele>17.0</ele><time>2026-04-25T08:02:14Z</time></trkpt><trkpt lat="43.857139672743095" lon="10.772051203814842"><ele>17.0</ele><time>2026-04-25T08:02:15Z</time></trkpt><trkpt lat="43.85717165893673" lon="10.771950067978182"><ele>17.0</ele><time>2026-04-25T08:02:16Z</time></trkpt><trkpt lat="43.85720749958438" lon="10.771843648869538"><ele>17.166666666666668</ele><time>2026-04-25T08:02:17Z</time></trkpt><trkpt lat="43.857241811493985" lon="10.771738434912963"><ele>17.333333333333336</ele><time>2026-04-25T08:02:18Z</time></trkpt><trkpt lat="43.85727834443623" lon="10.77163102048609"><ele>17.5</ele><time>2026-04-25T08:02:19Z</time></trkpt><trkpt lat="43.85731941013318" lon="10.77151573871103"><ele>17.666666666666668</ele><time>2026-04-25T08:02:20Z</time></trkpt><trkpt lat="43.857347220288744" lon="10.771416067660619"><ele>17.833333333333332</ele><time>2026-04-25T08:02:21Z</time></trkpt><trkpt lat="43.85738061627277" lon="10.771302248964927"><ele>18.0</ele><time>2026-04-25T08:02:22Z</time></trkpt><trkpt lat="43.857410977339086" lon="10.771195556628227"><ele>18.0</ele><time>2026-04-25T08:02:23Z</time></trkpt><trkpt lat="43.85742869654699" lon="10.77108240329034"><ele>18.0</ele><time>2026-04-25T08:02:24Z</time></trkpt><trkpt lat="43.85746057741595" lon="10.770964686875418"><ele>18.0</ele><time>2026-04-25T08:02:25Z</time></trkpt><trkpt lat="43.857481549747575" lon="10.770848729469881"><ele>18.0</ele><time>2026-04-25T08:02:26Z</time></trkpt><trkpt lat="43.85749943849188" lon="10.770727514570154"><ele>18.0</ele><time>2026-04-25T08:02:27Z</time></trkpt><trkpt lat="43.85751400252338" lon="10.770606137247329"><ele>18.0</ele><time>2026-04-25T08:02:28Z</time></trkpt><trkpt lat="43.857528863326664" lon="10.770482492528972"><ele>18.0</ele><time>2026-04-25T08:02:29Z</time></trkpt><trkpt lat="43.85753153895169" lon="10.77035048760941"><ele>18.0</ele><time>2026-04-25T08:02:30Z</time></trkpt><trkpt lat="43.85753888311494" lon="10.770224444351795"><ele>18.0</ele><time>2026-04-25T08:02:31Z</time></trkpt><trkpt lat="43.85753340003887" lon="10.77010569636098"><ele>18.0</ele><time>2026-04-25T08:02:32Z</time></trkpt><trkpt lat="43.85753156806581" lon="10.769980816229511"><ele>18.0</ele><time>2026-04-25T08:02:33Z</time></trkpt><trkpt lat="43.85753110474434" lon="10.769860906727125"><ele>18.0</ele><time>2026-04-25T08:02:34Z</time></trkpt><trkpt lat="43.85753455801682" lon="10.769742996480742"><ele>18.0</ele><time>2026-04-25T08:02:35Z</time></trkpt><trkpt lat="43.85753542037178" lon="10.769629271690306"><ele>18.0</ele><time>2026-04-25T08:02:36Z</time></trkpt><trkpt lat="43.85753222423444" lon="10.769515241013455"><ele>18.0</ele><time>2026-04-25T08:02:37Z</time></trkpt><trkpt lat="43.857527239728256" lon="10.769401700220131"><ele>18.0</ele><time>2026-04-25T08:02:38Z</time></trkpt><trkpt lat="43.85753176280994" lon="10.769286788944399"><ele>18.0</ele><time>2026-04-25T08:02:39Z</time></trkpt><trkpt lat="43.85753739069179" lon="10.76917721231004"><ele>18.0</ele><time>2026-04-25T08:02:40Z</time></trkpt><trkpt lat="43.857542166234275" lon="10.769063591386296"><ele>17.833333333333332</ele><time>2026-04-25T08:02:41Z</time></trkpt><trkpt lat="43.857536965160044" lon="10.768956147396304"><ele>17.666666666666668</ele><time>2026-04-25T08:02:41.999Z</time></trkpt><trkpt lat="43.85753713896417" lon="10.768845437476482"><ele>17.5</ele><time>2026-04-25T08:02:42.999Z</time></trkpt><trkpt lat="43.85754563761599" lon="10.768740060834558"><ele>17.333333333333336</ele><time>2026-04-25T08:02:43.999Z</time></trkpt><trkpt lat="43.85754691967056" lon="10.768619918878368"><ele>17.166666666666668</ele><time>2026-04-25T08:02:44.999Z</time></trkpt><trkpt lat="43.85754769210408" lon="10.76851105444528"><ele>17.0</ele><time>2026-04-25T08:02:45.999Z</time></trkpt><trkpt lat="43.85754837246221" lon="10.768405351858666"><ele>16.999999999999996</ele><time>2026-04-25T08:02:46.999Z</time></trkpt><trkpt lat="43.85754924861284" lon="10.76829711819154"><ele>17.0</ele><time>2026-04-25T08:02:47.999Z</time></trkpt><trkpt lat="43.8575483101729" lon="10.768198580859337"><ele>17.0</ele><time>2026-04-25T08:02:48.999Z</time></trkpt><trkpt lat="43.85755099720434" lon="10.768098934158434"><ele>17.0</ele><time>2026-04-25T08:02:49.999Z</time></trkpt><trkpt lat="43.85754873161578" lon="10.768000303998807"><ele>17.0</ele><time>2026-04-25T08:02:50.999Z</time></trkpt><trkpt lat="43.8575461437894" lon="10.767901657679397"><ele>16.999999999999996</ele><time>2026-04-25T08:02:51.999Z</time></trkpt><trkpt lat="43.85755460965208" lon="10.767795741529401"><ele>17.0</ele><time>2026-04-25T08:02:52.999Z</time></trkpt><trkpt lat="43.85756767952369" lon="10.76770559788916"><ele>17.142857142857142</ele><time>2026-04-25T08:02:53.999Z</time></trkpt><trkpt lat="43.85758689567992" lon="10.767614020603013"><ele>17.285714285714285</ele><time>2026-04-25T08:02:54.999Z</time></trkpt><trkpt lat="43.857610305584636" lon="10.767522855374242"><ele>17.42857142857143</ele><time>2026-04-25T08:02:55.999Z</time></trkpt><trkpt lat="43.857639679856256" lon="10.767436226343193"><ele>17.57142857142857</ele><time>2026-04-25T08:02:56.999Z</time></trkpt><trkpt lat="43.85766985904455" lon="10.767352486496701"><ele>17.714285714285715</ele><time>2026-04-25T08:02:57.999Z</time></trkpt><trkpt lat="43.857693317475345" lon="10.767263678615356"><ele>17.857142857142858</ele><time>2026-04-25T08:02:58.999Z</time></trkpt><trkpt lat="43.85769650952187" lon="10.767164428049384"><ele>18.0</ele><time>2026-04-25T08:02:59.999Z</time></trkpt><trkpt lat="43.85766100011221" lon="10.767074517804689"><ele>18.000000000000004</ele><time>2026-04-25T08:03:00.999Z</time></trkpt><trkpt lat="43.85760159961285" lon="10.76700801086311"><ele>18.0</ele><time>2026-04-25T08:03:01.999Z</time></trkpt><trkpt lat="43.85752661176466" lon="10.76698816055302"><ele>18.0</ele><time>2026-04-25T08:03:02.999Z</time></trkpt><trkpt lat="43.85744989865586" lon="10.767013980331303"><ele>18.0</ele><time>2026-04-25T08:03:03.999Z</time></trkpt><trkpt lat="43.85738531034702" lon="10.767068754889337"><ele>18.0</ele><time>2026-04-25T08:03:04.999Z</time></trkpt><trkpt lat="43.85733282024995" lon="10.767136365235377"><ele>18.000000000000004</ele><time>2026-04-25T08:03:05.999Z</time></trkpt><trkpt lat="43.857274810067445" lon="10.767191714191135"><ele>18.0</ele><time>2026-04-25T08:03:06.999Z</time></trkpt><trkpt lat="43.857207549301556" lon="10.76722990602735"><ele>18.000000000000004</ele><time>2026-04-25T08:03:07.999Z</time></trkpt><trkpt lat="43.85713743208204" lon="10.767268710150825"><ele>18.0</ele><time>2026-04-25T08:03:08.999Z</time></trkpt><trkpt lat="43.8570697962919" lon="10.76731019107093"><ele>18.0</ele><time>2026-04-25T08:03:09.999Z</time></trkpt><trkpt lat="43.857000865562036" lon="10.767350272167349"><ele>18.0</ele><time>2026-04-25T08:03:10.999Z</time></trkpt><trkpt lat="43.856932021799366" lon="10.767387682913954"><ele>18.0</ele><time>2026-04-25T08:03:11.999Z</time></trkpt><trkpt lat="43.85686221468525" lon="10.767423784879355"><ele>18.000000000000004</ele><time>2026-04-25T08:03:12.999Z</time></trkpt><trkpt lat="43.85678953601867" lon="10.767444373207766"><ele>18.0</ele><time>2026-04-25T08:03:13.999Z</time></trkpt><trkpt lat="43.856713212242475" lon="10.767460709041627"><ele>17.833333333333332</ele><time>2026-04-25T08:03:14.999Z</time></trkpt><trkpt lat="43.85663758822625" lon="10.767476817938636"><ele>17.666666666666668</ele><time>2026-04-25T08:03:15.999Z</time></trkpt><trkpt lat="43.85656118869988" lon="10.767486478551545"><ele>17.5</ele><time>2026-04-25T08:03:16.999Z</time></trkpt><trkpt lat="43.856484514367246" lon="10.767495431912025"><ele>17.333333333333336</ele><time>2026-04-25T08:03:17.999Z</time></trkpt><trkpt lat="43.85640377968829" lon="10.767509156937408"><ele>17.166666666666668</ele><time>2026-04-25T08:03:18.999Z</time></trkpt><trkpt lat="43.85632731476791" lon="10.767526080892349"><ele>17.0</ele><time>2026-04-25T08:03:19.999Z</time></trkpt><trkpt lat="43.85625173277854" lon="10.767532375183098"><ele>17.0</ele><time>2026-04-25T08:03:20.999Z</time></trkpt><trkpt lat="43.856174753838935" lon="10.767536977672762"><ele>17.0</ele><time>2026-04-25T08:03:21.999Z</time></trkpt><trkpt lat="43.8560984455822" lon="10.767547641424178"><ele>17.0</ele><time>2026-04-25T08:03:22.999Z</time></trkpt><trkpt lat="43.856022444997514" lon="10.76755821582272"><ele>17.0</ele><time>2026-04-25T08:03:23.999Z</time></trkpt><trkpt lat="43.8559474711307" lon="10.767565929831443"><ele>17.0</ele><time>2026-04-25T08:03:24.999Z</time></trkpt><trkpt lat="43.85587202774986" lon="10.767568931873377"><ele>17.0</ele><time>2026-04-25T08:03:25.999Z</time></trkpt><trkpt lat="43.855797679812355" lon="10.767573470015863"><ele>16.999999999999996</ele><time>2026-04-25T08:03:26.999Z</time></trkpt><trkpt lat="43.85572224348599" lon="10.76758054620517"><ele>17.0</ele><time>2026-04-25T08:03:27.999Z</time></trkpt><trkpt lat="43.85564811846533" lon="10.767589505949374"><ele>17.0</ele><time>2026-04-25T08:03:28.999Z</time></trkpt><trkpt lat="43.85557391431647" lon="10.767600627414113"><ele>17.0</ele><time>2026-04-25T08:03:29.999Z</time></trkpt><trkpt lat="43.85550011756988" lon="10.767611906275656"><ele>17.0</ele><time>2026-04-25T08:03:30.999Z</time></trkpt><trkpt lat="43.85542768649624" lon="10.76762098554522"><ele>16.999999999999996</ele><time>2026-04-25T08:03:31.999Z</time></trkpt><trkpt lat="43.855353419782936" lon="10.767626356367575"><ele>17.0</ele><time>2026-04-25T08:03:32.999Z</time></trkpt><trkpt lat="43.85527580890099" lon="10.7676319483586"><ele>16.999999999999996</ele><time>2026-04-25T08:03:33.999Z</time></trkpt><trkpt lat="43.85520461372865" lon="10.767639388531014"><ele>17.0</ele><time>2026-04-25T08:03:34.999Z</time></trkpt><trkpt lat="43.855130830365084" lon="10.767644192521603"><ele>17.0</ele><time>2026-04-25T08:03:35.999Z</time></trkpt><trkpt lat="43.855059088521045" lon="10.767654060910704"><ele>17.0</ele><time>2026-04-25T08:03:36.999Z</time></trkpt><trkpt lat="43.85498308606234" lon="10.767661539629959"><ele>17.0</ele><time>2026-04-25T08:03:37.999Z</time></trkpt><trkpt lat="43.85491123521526" lon="10.767672792032155"><ele>16.999999999999996</ele><time>2026-04-25T08:03:38.999Z</time></trkpt><trkpt lat="43.85484082059783" lon="10.767681748799385"><ele>17.0</ele><time>2026-04-25T08:03:39.999Z</time></trkpt><trkpt lat="43.85476753970889" lon="10.767688358403499"><ele>16.57142857142857</ele><time>2026-04-25T08:03:40.999Z</time></trkpt><trkpt lat="43.85469181611246" lon="10.767695580496277"><ele>16.142857142857142</ele><time>2026-04-25T08:03:41.999Z</time></trkpt><trkpt lat="43.854619758597245" lon="10.767703460334543"><ele>15.714285714285714</ele><time>2026-04-25T08:03:42.999Z</time></trkpt><trkpt lat="43.854544686802164" lon="10.767709524269206"><ele>15.285714285714285</ele><time>2026-04-25T08:03:43.999Z</time></trkpt><trkpt lat="43.85447254629223" lon="10.767717855608076"><ele>14.857142857142858</ele><time>2026-04-25T08:03:44.999Z</time></trkpt><trkpt lat="43.85439903280295" lon="10.767722062876356"><ele>14.428571428571429</ele><time>2026-04-25T08:03:45.999Z</time></trkpt><trkpt lat="43.8543313885237" lon="10.76772797123493"><ele>14.0</ele><time>2026-04-25T08:03:46.998Z</time></trkpt><trkpt lat="43.85425879841828" lon="10.76772180301087"><ele>13.833333333333334</ele><time>2026-04-25T08:03:47.998Z</time></trkpt><trkpt lat="43.85418666017315" lon="10.767698086691816"><ele>13.666666666666668</ele><time>2026-04-25T08:03:48.998Z</time></trkpt><trkpt lat="43.854126210316586" lon="10.767669436784848"><ele>13.5</ele><time>2026-04-25T08:03:49.998Z</time></trkpt><trkpt lat="43.854065075789485" lon="10.767633263249182"><ele>13.333333333333332</ele><time>2026-04-25T08:03:50.998Z</time></trkpt><trkpt lat="43.85394429779078" lon="10.767571872078078"><ele>13.166666666666666</ele><time>2026-04-25T08:03:52.998Z</time></trkpt><trkpt lat="43.85388205686614" lon="10.767548134986981"><ele>13.0</ele><time>2026-04-25T08:03:53.998Z</time></trkpt><trkpt lat="43.85381709267576" lon="10.767533247784774"><ele>13.571428571428571</ele><time>2026-04-25T08:03:54.998Z</time></trkpt><trkpt lat="43.85374924842095" lon="10.767525348140115"><ele>14.142857142857142</ele><time>2026-04-25T08:03:55.998Z</time></trkpt><trkpt lat="43.853678113884925" lon="10.767519123780216"><ele>14.714285714285714</ele><time>2026-04-25T08:03:56.998Z</time></trkpt><trkpt lat="43.853606609584325" lon="10.767517311416766"><ele>15.285714285714285</ele><time>2026-04-25T08:03:57.998Z</time></trkpt><trkpt lat="43.85353946807051" lon="10.767512096225486"><ele>15.857142857142858</ele><time>2026-04-25T08:03:58.998Z</time></trkpt><trkpt lat="43.85346642058143" lon="10.767499506010383"><ele>16.428571428571427</ele><time>2026-04-25T08:03:59.998Z</time></trkpt><trkpt lat="43.85339902796372" lon="10.767492636922663"><ele>17.0</ele><time>2026-04-25T08:04:00.998Z</time></trkpt><trkpt lat="43.85332697164098" lon="10.767483658049281"><ele>16.999999999999996</ele><time>2026-04-25T08:04:01.998Z</time></trkpt><trkpt lat="43.8532562000226" lon="10.767480853525468"><ele>17.0</ele><time>2026-04-25T08:04:02.998Z</time></trkpt><trkpt lat="43.853184549360236" lon="10.767476380110839"><ele>17.0</ele><time>2026-04-25T08:04:03.998Z</time></trkpt><trkpt lat="43.85311478598269" lon="10.767470611317476"><ele>17.0</ele><time>2026-04-25T08:04:05Z</time></trkpt><trkpt lat="43.85304162982234" lon="10.767461212240452"><ele>17.0</ele><time>2026-04-25T08:04:06Z</time></trkpt><trkpt lat="43.852969705172" lon="10.76745155255081"><ele>16.999999999999996</ele><time>2026-04-25T08:04:07Z</time></trkpt><trkpt lat="43.85289741100656" lon="10.76744214398641"><ele>17.0</ele><time>2026-04-25T08:04:08Z</time></trkpt><trkpt lat="43.85282507152065" lon="10.76743293022268"><ele>16.999999999999996</ele><time>2026-04-25T08:04:09Z</time></trkpt><trkpt lat="43.85275106429363" lon="10.767427059922658"><ele>17.0</ele><time>2026-04-25T08:04:10Z</time></trkpt><trkpt lat="43.85267797582435" lon="10.767423522264602"><ele>17.0</ele><time>2026-04-25T08:04:11Z</time></trkpt><trkpt lat="43.85260521279837" lon="10.76741808141643"><ele>17.0</ele><time>2026-04-25T08:04:12Z</time></trkpt><trkpt lat="43.85252936715386" lon="10.76741144936429"><ele>17.0</ele><time>2026-04-25T08:04:13Z</time></trkpt><trkpt lat="43.85245507364686" lon="10.767404235463507"><ele>16.999999999999996</ele><time>2026-04-25T08:04:14Z</time></trkpt><trkpt lat="43.852382039706164" lon="10.767397978122323"><ele>17.0</ele><time>2026-04-25T08:04:15Z</time></trkpt><trkpt lat="43.85230925592454" lon="10.767389706843675"><ele>16.71428571428571</ele><time>2026-04-25T08:04:16Z</time></trkpt><trkpt lat="43.8522361810502" lon="10.767385710315759"><ele>16.428571428571427</ele><time>2026-04-25T08:04:17Z</time></trkpt><trkpt lat="43.85216213512147" lon="10.767381296164155"><ele>16.142857142857142</ele><time>2026-04-25T08:04:18Z</time></trkpt><trkpt lat="43.85208923835546" lon="10.767374043085445"><ele>15.857142857142856</ele><time>2026-04-25T08:04:19Z</time></trkpt><trkpt lat="43.85201608187322" lon="10.76736917091863"><ele>15.57142857142857</ele><time>2026-04-25T08:04:20Z</time></trkpt><trkpt lat="43.85194550421765" lon="10.76736283564629"><ele>15.285714285714286</ele><time>2026-04-25T08:04:21Z</time></trkpt><trkpt lat="43.851874035742256" lon="10.76736116575612"><ele>15.0</ele><time>2026-04-25T08:04:22Z</time></trkpt><trkpt lat="43.85179865299447" lon="10.767360074309819"><ele>15.142857142857142</ele><time>2026-04-25T08:04:23Z</time></trkpt><trkpt lat="43.85172647289597" lon="10.76735653515361"><ele>15.285714285714285</ele><time>2026-04-25T08:04:24Z</time></trkpt><trkpt lat="43.85165528616619" lon="10.76734960985153"><ele>15.428571428571427</ele><time>2026-04-25T08:04:25Z</time></trkpt><trkpt lat="43.85158568596238" lon="10.76734407249224"><ele>15.571428571428571</ele><time>2026-04-25T08:04:26Z</time></trkpt><trkpt lat="43.85151898338134" lon="10.767315851561857"><ele>15.714285714285712</ele><time>2026-04-25T08:04:27Z</time></trkpt><trkpt lat="43.85147192622295" lon="10.767237983588073"><ele>15.857142857142856</ele><time>2026-04-25T08:04:28Z</time></trkpt><trkpt lat="43.85146067918696" lon="10.767126888313264"><ele>16.0</ele><time>2026-04-25T08:04:29Z</time></trkpt><trkpt lat="43.85146262139495" lon="10.767017858633121"><ele>15.999999999999998</ele><time>2026-04-25T08:04:30Z</time></trkpt><trkpt lat="43.851448798534875" lon="10.766915186056835"><ele>16.0</ele><time>2026-04-25T08:04:31Z</time></trkpt><trkpt lat="43.85142579695494" lon="10.766813191529709"><ele>16.0</ele><time>2026-04-25T08:04:32Z</time></trkpt><trkpt lat="43.85140327628018" lon="10.766710094954622"><ele>16.0</ele><time>2026-04-25T08:04:33Z</time></trkpt><trkpt lat="43.85138660364259" lon="10.766605555499238"><ele>15.999999999999998</ele><time>2026-04-25T08:04:34Z</time></trkpt><trkpt lat="43.85136761306987" lon="10.766502772931252"><ele>16.0</ele><time>2026-04-25T08:04:35Z</time></trkpt><trkpt lat="43.85134894437321" lon="10.766401804105769"><ele>15.999999999999998</ele><time>2026-04-25T08:04:36Z</time></trkpt><trkpt lat="43.851326125351456" lon="10.76629952073788"><ele>16.0</ele><time>2026-04-25T08:04:37Z</time></trkpt><trkpt lat="43.85130563023467" lon="10.766195675844097"><ele>16.0</ele><time>2026-04-25T08:04:38Z</time></trkpt><trkpt lat="43.851282900735654" lon="10.766092706177051"><ele>16.0</ele><time>2026-04-25T08:04:39Z</time></trkpt><trkpt lat="43.85125964943873" lon="10.765989755176477"><ele>15.999999999999998</ele><time>2026-04-25T08:04:40Z</time></trkpt><trkpt lat="43.851237282023554" lon="10.765880449800308"><ele>16.0</ele><time>2026-04-25T08:04:41Z</time></trkpt><trkpt lat="43.85121390412897" lon="10.765779907151792"><ele>15.999999999999998</ele><time>2026-04-25T08:04:42Z</time></trkpt><trkpt lat="43.851191253899295" lon="10.765673436716058"><ele>16.0</ele><time>2026-04-25T08:04:43Z</time></trkpt><trkpt lat="43.851169392995" lon="10.765571485025484"><ele>16.0</ele><time>2026-04-25T08:04:44Z</time></trkpt><trkpt lat="43.85114757382224" lon="10.765463406393394"><ele>16.0</ele><time>2026-04-25T08:04:45Z</time></trkpt><trkpt lat="43.85113047087026" lon="10.765359391318402"><ele>15.999999999999998</ele><time>2026-04-25T08:04:46Z</time></trkpt><trkpt lat="43.851112241556784" lon="10.765255211521001"><ele>16.0</ele><time>2026-04-25T08:04:47Z</time></trkpt><trkpt lat="43.851092171862724" lon="10.765152604464417"><ele>15.999999999999998</ele><time>2026-04-25T08:04:48Z</time></trkpt><trkpt lat="43.851068085449555" lon="10.765052293735849"><ele>16.0</ele><time>2026-04-25T08:04:48.999Z</time></trkpt><trkpt lat="43.85104675242213" lon="10.764952316917217"><ele>16.0</ele><time>2026-04-25T08:04:49.999Z</time></trkpt><trkpt lat="43.85102979603874" lon="10.764847110798915"><ele>16.0</ele><time>2026-04-25T08:04:50.999Z</time></trkpt><trkpt lat="43.85102038086449" lon="10.764740571234066"><ele>15.999999999999998</ele><time>2026-04-25T08:04:51.999Z</time></trkpt><trkpt lat="43.85100199102833" lon="10.764636605237467"><ele>16.0</ele><time>2026-04-25T08:04:52.999Z</time></trkpt><trkpt lat="43.85097977636063" lon="10.764532558506517"><ele>15.999999999999998</ele><time>2026-04-25T08:04:53.999Z</time></trkpt><trkpt lat="43.85095811410233" lon="10.764427828533359"><ele>16.0</ele><time>2026-04-25T08:04:54.999Z</time></trkpt><trkpt lat="43.85093698986213" lon="10.764323836346476"><ele>16.0</ele><time>2026-04-25T08:04:55.999Z</time></trkpt><trkpt lat="43.850919230527076" lon="10.764217576936701"><ele>16.0</ele><time>2026-04-25T08:04:56.999Z</time></trkpt><trkpt lat="43.850896657069505" lon="10.764107794301603"><ele>15.999999999999998</ele><time>2026-04-25T08:04:57.999Z</time></trkpt><trkpt lat="43.85087865814293" lon="10.764004520404116"><ele>16.0</ele><time>2026-04-25T08:04:58.999Z</time></trkpt><trkpt lat="43.850858514071746" lon="10.763899944885152"><ele>15.833333333333332</ele><time>2026-04-25T08:04:59.999Z</time></trkpt><trkpt lat="43.8508351299671" lon="10.76379415927016"><ele>15.666666666666666</ele><time>2026-04-25T08:05:00.999Z</time></trkpt><trkpt lat="43.85081504982968" lon="10.763687888666507"><ele>15.5</ele><time>2026-04-25T08:05:01.999Z</time></trkpt><trkpt lat="43.85079109556338" lon="10.763580846424652"><ele>15.333333333333332</ele><time>2026-04-25T08:05:02.999Z</time></trkpt><trkpt lat="43.85076833004887" lon="10.763479264905325"><ele>15.166666666666666</ele><time>2026-04-25T08:05:03.999Z</time></trkpt><trkpt lat="43.85074831557747" lon="10.763366602338479"><ele>15.0</ele><time>2026-04-25T08:05:04.999Z</time></trkpt><trkpt lat="43.850730421211125" lon="10.763263469131008"><ele>15.0</ele><time>2026-04-25T08:05:05.999Z</time></trkpt><trkpt lat="43.85071240737622" lon="10.763159142050016"><ele>15.0</ele><time>2026-04-25T08:05:06.999Z</time></trkpt><trkpt lat="43.85068670872702" lon="10.763054118308341"><ele>15.0</ele><time>2026-04-25T08:05:07.999Z</time></trkpt><trkpt lat="43.850655574423534" lon="10.762954491125063"><ele>15.0</ele><time>2026-04-25T08:05:08.999Z</time></trkpt><trkpt lat="43.85062253968484" lon="10.76285613766431"><ele>15.0</ele><time>2026-04-25T08:05:09.999Z</time></trkpt><trkpt lat="43.85057677796124" lon="10.762766771304296"><ele>15.0</ele><time>2026-04-25T08:05:10.999Z</time></trkpt><trkpt lat="43.85052921080701" lon="10.762678258934473"><ele>15.0</ele><time>2026-04-25T08:05:11.999Z</time></trkpt><trkpt lat="43.850476342231936" lon="10.762595559878996"><ele>15.0</ele><time>2026-04-25T08:05:12.999Z</time></trkpt><trkpt lat="43.85042442379509" lon="10.762510788585944"><ele>15.0</ele><time>2026-04-25T08:05:13.999Z</time></trkpt><trkpt lat="43.85036907907838" lon="10.76242871743256"><ele>15.0</ele><time>2026-04-25T08:05:14.999Z</time></trkpt><trkpt lat="43.85031283634998" lon="10.762352319687547"><ele>15.0</ele><time>2026-04-25T08:05:15.999Z</time></trkpt><trkpt lat="43.85025361858715" lon="10.762273965475735"><ele>15.0</ele><time>2026-04-25T08:05:16.999Z</time></trkpt><trkpt lat="43.850196927779805" lon="10.76219681092628"><ele>15.0</ele><time>2026-04-25T08:05:17.999Z</time></trkpt><trkpt lat="43.85014037865565" lon="10.762116487373168"><ele>15.0</ele><time>2026-04-25T08:05:18.999Z</time></trkpt><trkpt lat="43.850085370527715" lon="10.762035759115456"><ele>15.0</ele><time>2026-04-25T08:05:19.999Z</time></trkpt><trkpt lat="43.850030097579676" lon="10.761957152220809"><ele>15.0</ele><time>2026-04-25T08:05:20.999Z</time></trkpt><trkpt lat="43.84997246287594" lon="10.761877795046885"><ele>15.0</ele><time>2026-04-25T08:05:21.999Z</time></trkpt><trkpt lat="43.849913577040425" lon="10.761800519597966"><ele>15.0</ele><time>2026-04-25T08:05:22.999Z</time></trkpt><trkpt lat="43.84985989182801" lon="10.76172418945203"><ele>15.0</ele><time>2026-04-25T08:05:23.999Z</time></trkpt><trkpt lat="43.84980495172351" lon="10.761646433886998"><ele>15.0</ele><time>2026-04-25T08:05:24.999Z</time></trkpt><trkpt lat="43.84975316684536" lon="10.761570144445468"><ele>15.0</ele><time>2026-04-25T08:05:25.999Z</time></trkpt><trkpt lat="43.84969657353616" lon="10.761492887020047"><ele>15.0</ele><time>2026-04-25T08:05:26.999Z</time></trkpt><trkpt lat="43.849644741127655" lon="10.761416927962946"><ele>15.0</ele><time>2026-04-25T08:05:27.999Z</time></trkpt><trkpt lat="43.84959053051723" lon="10.761340476377136"><ele>15.0</ele><time>2026-04-25T08:05:28.999Z</time></trkpt><trkpt lat="43.84953654964702" lon="10.761266644592297"><ele>15.0</ele><time>2026-04-25T08:05:29.999Z</time></trkpt><trkpt lat="43.849480872859466" lon="10.761191958444986"><ele>15.0</ele><time>2026-04-25T08:05:30.999Z</time></trkpt><trkpt lat="43.84942633061205" lon="10.76111647133821"><ele>15.0</ele><time>2026-04-25T08:05:31.999Z</time></trkpt><trkpt lat="43.84937153139808" lon="10.761038857209247"><ele>15.0</ele><time>2026-04-25T08:05:32.999Z</time></trkpt><trkpt lat="43.849317457894635" lon="10.760968626033836"><ele>15.0</ele><time>2026-04-25T08:05:33.999Z</time></trkpt><trkpt lat="43.84926273667334" lon="10.760898565369715"><ele>15.0</ele><time>2026-04-25T08:05:34.999Z</time></trkpt><trkpt lat="43.84920792998106" lon="10.760825069255663"><ele>15.0</ele><time>2026-04-25T08:05:35.999Z</time></trkpt><trkpt lat="43.84915567850137" lon="10.760754125733401"><ele>15.0</ele><time>2026-04-25T08:05:36.999Z</time></trkpt><trkpt lat="43.84910280228294" lon="10.760678723442393"><ele>15.0</ele><time>2026-04-25T08:05:37.999Z</time></trkpt><trkpt lat="43.84904148150665" lon="10.760617281238543"><ele>15.0</ele><time>2026-04-25T08:05:38.999Z</time></trkpt><trkpt lat="43.84898786373021" lon="10.760541862062913"><ele>15.0</ele><time>2026-04-25T08:05:39.999Z</time></trkpt><trkpt lat="43.84893488696428" lon="10.76046740289068"><ele>15.0</ele><time>2026-04-25T08:05:40.999Z</time></trkpt><trkpt lat="43.84887768158621" lon="10.76039961051209"><ele>15.0</ele><time>2026-04-25T08:05:41.999Z</time></trkpt><trkpt lat="43.8488237174914" lon="10.760328453743611"><ele>15.0</ele><time>2026-04-25T08:05:42.999Z</time></trkpt><trkpt lat="43.848765432536005" lon="10.760256701909741"><ele>15.0</ele><time>2026-04-25T08:05:43.999Z</time></trkpt><trkpt lat="43.84871403035435" lon="10.76018779504934"><ele>15.0</ele><time>2026-04-25T08:05:44.999Z</time></trkpt><trkpt lat="43.84865823418696" lon="10.76012071654863"><ele>15.0</ele><time>2026-04-25T08:05:45.999Z</time></trkpt><trkpt lat="43.84860398522144" lon="10.76005795252206"><ele>15.0</ele><time>2026-04-25T08:05:46.999Z</time></trkpt><trkpt lat="43.84854740607407" lon="10.759981425731162"><ele>15.0</ele><time>2026-04-25T08:05:47.999Z</time></trkpt><trkpt lat="43.848492714520305" lon="10.759908853461514"><ele>14.833333333333334</ele><time>2026-04-25T08:05:48.999Z</time></trkpt><trkpt lat="43.84843779261777" lon="10.759845551078639"><ele>14.666666666666668</ele><time>2026-04-25T08:05:49.999Z</time></trkpt><trkpt lat="43.848378623498505" lon="10.759776968615169"><ele>14.5</ele><time>2026-04-25T08:05:50.999Z</time></trkpt><trkpt lat="43.84832167975227" lon="10.759702037875767"><ele>14.333333333333334</ele><time>2026-04-25T08:05:51.999Z</time></trkpt><trkpt lat="43.84826744847515" lon="10.759632155231333"><ele>14.166666666666668</ele><time>2026-04-25T08:05:52.999Z</time></trkpt><trkpt lat="43.848209721516696" lon="10.759561688225784"><ele>14.0</ele><time>2026-04-25T08:05:53.999Z</time></trkpt><trkpt lat="43.848153846632364" lon="10.75949022736485"><ele>14.0</ele><time>2026-04-25T08:05:54.998Z</time></trkpt><trkpt lat="43.848098992929074" lon="10.759420274588877"><ele>14.0</ele><time>2026-04-25T08:05:55.998Z</time></trkpt><trkpt lat="43.848045017676974" lon="10.759347209739682"><ele>14.0</ele><time>2026-04-25T08:05:56.998Z</time></trkpt><trkpt lat="43.8479918412304" lon="10.759275553754492"><ele>14.0</ele><time>2026-04-25T08:05:57.998Z</time></trkpt><trkpt lat="43.847934992838724" lon="10.759208013457938"><ele>14.0</ele><time>2026-04-25T08:05:58.998Z</time></trkpt><trkpt lat="43.84787277470053" lon="10.759147057422325"><ele>14.0</ele><time>2026-04-25T08:05:59.998Z</time></trkpt><trkpt lat="43.84781650078943" lon="10.759083272413235"><ele>14.0</ele><time>2026-04-25T08:06:00.998Z</time></trkpt><trkpt lat="43.84776118949381" lon="10.759009913840744"><ele>14.285714285714285</ele><time>2026-04-25T08:06:01.998Z</time></trkpt><trkpt lat="43.84770863937202" lon="10.75893751947178"><ele>14.571428571428571</ele><time>2026-04-25T08:06:02.998Z</time></trkpt><trkpt lat="43.84765935783182" lon="10.758875121286726"><ele>14.857142857142858</ele><time>2026-04-25T08:06:03.998Z</time></trkpt><trkpt lat="43.84760586667737" lon="10.758803482567053"><ele>15.142857142857142</ele><time>2026-04-25T08:06:04.998Z</time></trkpt><trkpt lat="43.847536238646015" lon="10.758769749768394"><ele>15.428571428571427</ele><time>2026-04-25T08:06:05.998Z</time></trkpt><trkpt lat="43.84746480886636" lon="10.758790675331152"><ele>15.714285714285714</ele><time>2026-04-25T08:06:06.998Z</time></trkpt><trkpt lat="43.84739343747893" lon="10.758825652296755"><ele>16.0</ele><time>2026-04-25T08:06:07.998Z</time></trkpt><trkpt lat="43.847323249513835" lon="10.758863027118926"><ele>16.142857142857142</ele><time>2026-04-25T08:06:08.998Z</time></trkpt><trkpt lat="43.84725820197499" lon="10.758887189414581"><ele>16.285714285714285</ele><time>2026-04-25T08:06:09.998Z</time></trkpt><trkpt lat="43.84718476841637" lon="10.758910178393421"><ele>16.428571428571427</ele><time>2026-04-25T08:06:11Z</time></trkpt><trkpt lat="43.8471157418697" lon="10.758929642683334"><ele>16.57142857142857</ele><time>2026-04-25T08:06:12Z</time></trkpt><trkpt lat="43.84704095471617" lon="10.75894532719912"><ele>16.714285714285715</ele><time>2026-04-25T08:06:13Z</time></trkpt><trkpt lat="43.846968853550784" lon="10.758979418702618"><ele>16.857142857142854</ele><time>2026-04-25T08:06:14Z</time></trkpt><trkpt lat="43.846900943660025" lon="10.759015582044963"><ele>17.0</ele><time>2026-04-25T08:06:15Z</time></trkpt><trkpt lat="43.846832465557796" lon="10.759046224502281"><ele>16.999999999999996</ele><time>2026-04-25T08:06:16Z</time></trkpt><trkpt lat="43.84676422469318" lon="10.759084834793931"><ele>17.0</ele><time>2026-04-25T08:06:17Z</time></trkpt><trkpt lat="43.84668821115481" lon="10.759122635521692"><ele>17.0</ele><time>2026-04-25T08:06:18Z</time></trkpt><trkpt lat="43.84662375240676" lon="10.759135769321755"><ele>17.0</ele><time>2026-04-25T08:06:19Z</time></trkpt><trkpt lat="43.846551165799674" lon="10.75915643870523"><ele>17.0</ele><time>2026-04-25T08:06:20Z</time></trkpt><trkpt lat="43.84648127325965" lon="10.759184426859052"><ele>16.999999999999996</ele><time>2026-04-25T08:06:21Z</time></trkpt><trkpt lat="43.84640971453792" lon="10.759206729108731"><ele>17.0</ele><time>2026-04-25T08:06:22Z</time></trkpt><trkpt lat="43.84634077841584" lon="10.759228276552063"><ele>16.999999999999996</ele><time>2026-04-25T08:06:23Z</time></trkpt><trkpt lat="43.846268999431096" lon="10.759260990678477"><ele>17.0</ele><time>2026-04-25T08:06:24Z</time></trkpt><trkpt lat="43.84620243507006" lon="10.75929628049002"><ele>17.0</ele><time>2026-04-25T08:06:25Z</time></trkpt><trkpt lat="43.846133031679045" lon="10.759326883783707"><ele>17.0</ele><time>2026-04-25T08:06:26Z</time></trkpt><trkpt lat="43.84606112786532" lon="10.759353052756321"><ele>17.0</ele><time>2026-04-25T08:06:27Z</time></trkpt><trkpt lat="43.84598880413857" lon="10.759384114598614"><ele>16.999999999999996</ele><time>2026-04-25T08:06:28Z</time></trkpt><trkpt lat="43.8459172031102" lon="10.759413479252952"><ele>17.0</ele><time>2026-04-25T08:06:29Z</time></trkpt><trkpt lat="43.8458469842436" lon="10.759448604678475"><ele>16.999999999999996</ele><time>2026-04-25T08:06:30Z</time></trkpt><trkpt lat="43.84577773039013" lon="10.759482584854075"><ele>17.0</ele><time>2026-04-25T08:06:31Z</time></trkpt><trkpt lat="43.845707833428236" lon="10.759516688243727"><ele>17.0</ele><time>2026-04-25T08:06:32Z</time></trkpt><trkpt lat="43.84563984232275" lon="10.759550504056614"><ele>17.0</ele><time>2026-04-25T08:06:33Z</time></trkpt><trkpt lat="43.845568403134855" lon="10.759579030747844"><ele>17.0</ele><time>2026-04-25T08:06:34Z</time></trkpt><trkpt lat="43.8454969834415" lon="10.759604250435812"><ele>16.999999999999996</ele><time>2026-04-25T08:06:35Z</time></trkpt><trkpt lat="43.84542288494186" lon="10.759626590376838"><ele>17.0</ele><time>2026-04-25T08:06:36Z</time></trkpt><trkpt lat="43.84535283783055" lon="10.759648513679478"><ele>17.0</ele><time>2026-04-25T08:06:37Z</time></trkpt><trkpt lat="43.84528440260716" lon="10.759676346247781"><ele>17.0</ele><time>2026-04-25T08:06:38Z</time></trkpt><trkpt lat="43.845212070705216" lon="10.75970879811265"><ele>17.0</ele><time>2026-04-25T08:06:39Z</time></trkpt><trkpt lat="43.84514425959928" lon="10.759740192155897"><ele>17.0</ele><time>2026-04-25T08:06:40Z</time></trkpt><trkpt lat="43.84506819573761" lon="10.759772683163067"><ele>17.0</ele><time>2026-04-25T08:06:41Z</time></trkpt><trkpt lat="43.84499663302771" lon="10.75980563891668"><ele>17.0</ele><time>2026-04-25T08:06:42Z</time></trkpt><trkpt lat="43.84492316394796" lon="10.759832047912575"><ele>17.0</ele><time>2026-04-25T08:06:43Z</time></trkpt><trkpt lat="43.844847086749105" lon="10.759861795985262"><ele>17.0</ele><time>2026-04-25T08:06:44Z</time></trkpt><trkpt lat="43.84477363992474" lon="10.759894168450542"><ele>17.0</ele><time>2026-04-25T08:06:45Z</time></trkpt><trkpt lat="43.8447007963002" lon="10.759925258172435"><ele>17.0</ele><time>2026-04-25T08:06:46Z</time></trkpt><trkpt lat="43.84462537384229" lon="10.759953033358725"><ele>17.0</ele><time>2026-04-25T08:06:47Z</time></trkpt><trkpt lat="43.844551571613785" lon="10.75997710985667"><ele>17.0</ele><time>2026-04-25T08:06:48Z</time></trkpt><trkpt lat="43.844479398502514" lon="10.760004517469998"><ele>17.0</ele><time>2026-04-25T08:06:49Z</time></trkpt><trkpt lat="43.84440090537803" lon="10.760025135078884"><ele>17.0</ele><time>2026-04-25T08:06:50Z</time></trkpt><trkpt lat="43.84432610804641" lon="10.760049302241338"><ele>17.0</ele><time>2026-04-25T08:06:51Z</time></trkpt><trkpt lat="43.84425599039871" lon="10.760078746317498"><ele>17.0</ele><time>2026-04-25T08:06:52Z</time></trkpt><trkpt lat="43.84418419154861" lon="10.760116972960914"><ele>17.0</ele><time>2026-04-25T08:06:53Z</time></trkpt><trkpt lat="43.84411492697307" lon="10.76015247782637"><ele>17.0</ele><time>2026-04-25T08:06:54Z</time></trkpt><trkpt lat="43.84403226119257" lon="10.760166176906667"><ele>16.666666666666668</ele><time>2026-04-25T08:06:55Z</time></trkpt><trkpt lat="43.84396555995722" lon="10.76020458684429"><ele>16.333333333333336</ele><time>2026-04-25T08:06:56Z</time></trkpt><trkpt lat="43.84388776261302" lon="10.76022778806363"><ele>16.0</ele><time>2026-04-25T08:06:57Z</time></trkpt><trkpt lat="43.843819163388" lon="10.760256737516196"><ele>15.666666666666668</ele><time>2026-04-25T08:06:57.999Z</time></trkpt><trkpt lat="43.84374769749908" lon="10.760285739811119"><ele>15.333333333333334</ele><time>2026-04-25T08:06:58.999Z</time></trkpt><trkpt lat="43.84361313660307" lon="10.760347305544533"><ele>15.0</ele><time>2026-04-25T08:07:00.999Z</time></trkpt><trkpt lat="43.84354060952521" lon="10.760383357618691"><ele>15.0</ele><time>2026-04-25T08:07:01.999Z</time></trkpt><trkpt lat="43.84346969083483" lon="10.760411828237393"><ele>15.0</ele><time>2026-04-25T08:07:02.999Z</time></trkpt><trkpt lat="43.843398071790666" lon="10.760442591257195"><ele>15.0</ele><time>2026-04-25T08:07:03.999Z</time></trkpt><trkpt lat="43.84333030647869" lon="10.760473645210517"><ele>15.0</ele><time>2026-04-25T08:07:04.999Z</time></trkpt><trkpt lat="43.843258905274475" lon="10.760503050132355"><ele>15.0</ele><time>2026-04-25T08:07:05.999Z</time></trkpt><trkpt lat="43.843188512072516" lon="10.760530373076737"><ele>15.0</ele><time>2026-04-25T08:07:06.999Z</time></trkpt><trkpt lat="43.84311556616923" lon="10.760557444177232"><ele>15.0</ele><time>2026-04-25T08:07:07.999Z</time></trkpt><trkpt lat="43.84303876079327" lon="10.760590223229062"><ele>15.0</ele><time>2026-04-25T08:07:08.999Z</time></trkpt><trkpt lat="43.842972709984934" lon="10.760602037970985"><ele>15.0</ele><time>2026-04-25T08:07:09.999Z</time></trkpt><trkpt lat="43.842904062491684" lon="10.76064216768312"><ele>15.0</ele><time>2026-04-25T08:07:10.999Z</time></trkpt><trkpt lat="43.84283479667046" lon="10.760677936432112"><ele>15.0</ele><time>2026-04-25T08:07:11.999Z</time></trkpt><trkpt lat="43.842760093763324" lon="10.760709428357277"><ele>15.0</ele><time>2026-04-25T08:07:12.999Z</time></trkpt><trkpt lat="43.84269026445275" lon="10.7607371274673"><ele>15.0</ele><time>2026-04-25T08:07:13.999Z</time></trkpt><trkpt lat="43.842626854081644" lon="10.760776394412563"><ele>15.0</ele><time>2026-04-25T08:07:14.999Z</time></trkpt><trkpt lat="43.84254451543804" lon="10.76079743572354"><ele>15.0</ele><time>2026-04-25T08:07:15.999Z</time></trkpt><trkpt lat="43.84246775341385" lon="10.760820414123947"><ele>15.0</ele><time>2026-04-25T08:07:16.999Z</time></trkpt><trkpt lat="43.84239727427844" lon="10.760857508505914"><ele>15.0</ele><time>2026-04-25T08:07:17.999Z</time></trkpt><trkpt lat="43.84232315644702" lon="10.760891615361523"><ele>15.0</ele><time>2026-04-25T08:07:18.999Z</time></trkpt><trkpt lat="43.84224528135609" lon="10.760918814523885"><ele>15.0</ele><time>2026-04-25T08:07:19.999Z</time></trkpt><trkpt lat="43.84217177873056" lon="10.760948016862331"><ele>15.0</ele><time>2026-04-25T08:07:20.999Z</time></trkpt><trkpt lat="43.842093304186285" lon="10.760985194830585"><ele>15.0</ele><time>2026-04-25T08:07:21.999Z</time></trkpt><trkpt lat="43.84201973148478" lon="10.761011784582944"><ele>15.0</ele><time>2026-04-25T08:07:22.999Z</time></trkpt><trkpt lat="43.841945632372685" lon="10.761039002224733"><ele>15.0</ele><time>2026-04-25T08:07:23.999Z</time></trkpt><trkpt lat="43.841883058517375" lon="10.761075861131618"><ele>15.0</ele><time>2026-04-25T08:07:24.999Z</time></trkpt><trkpt lat="43.8417972638474" lon="10.76110222255391"><ele>15.0</ele><time>2026-04-25T08:07:25.999Z</time></trkpt><trkpt lat="43.84171887557741" lon="10.761139168903147"><ele>15.0</ele><time>2026-04-25T08:07:26.999Z</time></trkpt><trkpt lat="43.841651004671455" lon="10.761167792020066"><ele>15.0</ele><time>2026-04-25T08:07:27.999Z</time></trkpt><trkpt lat="43.84156888131259" lon="10.761196576790013"><ele>15.0</ele><time>2026-04-25T08:07:28.999Z</time></trkpt><trkpt lat="43.84149480859331" lon="10.761231308605927"><ele>15.0</ele><time>2026-04-25T08:07:29.999Z</time></trkpt><trkpt lat="43.84141969113972" lon="10.761256055896885"><ele>15.0</ele><time>2026-04-25T08:07:30.999Z</time></trkpt><trkpt lat="43.84134339072116" lon="10.761288187933545"><ele>15.0</ele><time>2026-04-25T08:07:31.999Z</time></trkpt><trkpt lat="43.84126533637499" lon="10.761318723287623"><ele>15.0</ele><time>2026-04-25T08:07:32.999Z</time></trkpt><trkpt lat="43.84119366204732" lon="10.76134904659135"><ele>15.0</ele><time>2026-04-25T08:07:33.999Z</time></trkpt><trkpt lat="43.84112029303794" lon="10.761381955708579"><ele>15.0</ele><time>2026-04-25T08:07:34.999Z</time></trkpt><trkpt lat="43.84104794351471" lon="10.761415226008227"><ele>15.0</ele><time>2026-04-25T08:07:35.999Z</time></trkpt><trkpt lat="43.84097014901717" lon="10.761438427465222"><ele>15.0</ele><time>2026-04-25T08:07:36.999Z</time></trkpt><trkpt lat="43.840897580206466" lon="10.761470056632085"><ele>15.0</ele><time>2026-04-25T08:07:37.999Z</time></trkpt><trkpt lat="43.840822477584176" lon="10.761498372964718"><ele>15.0</ele><time>2026-04-25T08:07:38.999Z</time></trkpt><trkpt lat="43.840749926578546" lon="10.761529592946502"><ele>15.0</ele><time>2026-04-25T08:07:39.999Z</time></trkpt><trkpt lat="43.84067990035713" lon="10.761558117617202"><ele>15.0</ele><time>2026-04-25T08:07:40.999Z</time></trkpt><trkpt lat="43.8406068702368" lon="10.761586608999947"><ele>15.0</ele><time>2026-04-25T08:07:41.999Z</time></trkpt><trkpt lat="43.840532143513336" lon="10.761616366193675"><ele>15.0</ele><time>2026-04-25T08:07:42.999Z</time></trkpt><trkpt lat="43.84045832392938" lon="10.761642428011159"><ele>15.0</ele><time>2026-04-25T08:07:43.999Z</time></trkpt><trkpt lat="43.840387009261754" lon="10.76167207321145"><ele>15.0</ele><time>2026-04-25T08:07:44.999Z</time></trkpt><trkpt lat="43.84031525679681" lon="10.761701183677543"><ele>15.0</ele><time>2026-04-25T08:07:45.999Z</time></trkpt><trkpt lat="43.840243827619936" lon="10.761732679052649"><ele>15.0</ele><time>2026-04-25T08:07:46.999Z</time></trkpt><trkpt lat="43.840165742703185" lon="10.761764690759243"><ele>15.0</ele><time>2026-04-25T08:07:47.999Z</time></trkpt><trkpt lat="43.84009395185058" lon="10.76178673581035"><ele>15.0</ele><time>2026-04-25T08:07:48.999Z</time></trkpt><trkpt lat="43.840024103836235" lon="10.761812651183503"><ele>15.0</ele><time>2026-04-25T08:07:49.999Z</time></trkpt><trkpt lat="43.8399455969231" lon="10.761840373130104"><ele>15.0</ele><time>2026-04-25T08:07:50.999Z</time></trkpt><trkpt lat="43.83987755969777" lon="10.761863892947453"><ele>15.166666666666666</ele><time>2026-04-25T08:07:51.999Z</time></trkpt><trkpt lat="43.839796919820465" lon="10.761881290461279"><ele>15.333333333333332</ele><time>2026-04-25T08:07:52.999Z</time></trkpt><trkpt lat="43.83972918458312" lon="10.76190738717021"><ele>15.5</ele><time>2026-04-25T08:07:53.999Z</time></trkpt><trkpt lat="43.83965536314979" lon="10.761930775363442"><ele>15.666666666666666</ele><time>2026-04-25T08:07:54.999Z</time></trkpt><trkpt lat="43.839578494984195" lon="10.7619478086003"><ele>15.833333333333332</ele><time>2026-04-25T08:07:55.999Z</time></trkpt><trkpt lat="43.83950598234654" lon="10.761971145331996"><ele>16.0</ele><time>2026-04-25T08:07:56.999Z</time></trkpt><trkpt lat="43.83942813353291" lon="10.761990261697848"><ele>16.0</ele><time>2026-04-25T08:07:57.999Z</time></trkpt><trkpt lat="43.83936284200495" lon="10.762007041242788"><ele>15.999999999999998</ele><time>2026-04-25T08:07:58.999Z</time></trkpt><trkpt lat="43.83928243047601" lon="10.762027121792064"><ele>16.0</ele><time>2026-04-25T08:07:59.999Z</time></trkpt><trkpt lat="43.83921102847592" lon="10.762044907667878"><ele>16.0</ele><time>2026-04-25T08:08:00.999Z</time></trkpt><trkpt lat="43.839139445716654" lon="10.762056630007178"><ele>15.999999999999998</ele><time>2026-04-25T08:08:01.998Z</time></trkpt><trkpt lat="43.839062549332795" lon="10.76207451970076"><ele>16.0</ele><time>2026-04-25T08:08:02.998Z</time></trkpt><trkpt lat="43.83898503138306" lon="10.7620847466392"><ele>16.0</ele><time>2026-04-25T08:08:03.998Z</time></trkpt><trkpt lat="43.83891389167725" lon="10.762099817629295"><ele>15.666666666666666</ele><time>2026-04-25T08:08:04.998Z</time></trkpt><trkpt lat="43.83881832241873" lon="10.762147831505601"><ele>15.333333333333332</ele><time>2026-04-25T08:08:05.998Z</time></trkpt><trkpt lat="43.8387549631382" lon="10.762139711090152"><ele>15.0</ele><time>2026-04-25T08:08:06.998Z</time></trkpt><trkpt lat="43.83868269862523" lon="10.762152715119297"><ele>14.666666666666668</ele><time>2026-04-25T08:08:07.998Z</time></trkpt><trkpt lat="43.83861292050095" lon="10.762173933198865"><ele>14.333333333333334</ele><time>2026-04-25T08:08:08.998Z</time></trkpt><trkpt lat="43.83854049301319" lon="10.762181832134058"><ele>14.0</ele><time>2026-04-25T08:08:09.998Z</time></trkpt><trkpt lat="43.838457520363214" lon="10.762198390512081"><ele>14.666666666666668</ele><time>2026-04-25T08:08:10.998Z</time></trkpt><trkpt lat="43.83838967157341" lon="10.762211315930145"><ele>15.333333333333334</ele><time>2026-04-25T08:08:11.998Z</time></trkpt><trkpt lat="43.83831446884313" lon="10.762228314609834"><ele>16.0</ele><time>2026-04-25T08:08:12.998Z</time></trkpt><trkpt lat="43.83824768203963" lon="10.762248896935006"><ele>16.666666666666668</ele><time>2026-04-25T08:08:13.998Z</time></trkpt><trkpt lat="43.838167538543146" lon="10.762259120270151"><ele>17.333333333333332</ele><time>2026-04-25T08:08:14.998Z</time></trkpt><trkpt lat="43.83808622201093" lon="10.762277267279499"><ele>18.0</ele><time>2026-04-25T08:08:15.998Z</time></trkpt><trkpt lat="43.83801294933" lon="10.762288479601162"><ele>18.000000000000004</ele><time>2026-04-25T08:08:17Z</time></trkpt><trkpt lat="43.83793597830757" lon="10.762302013363767"><ele>18.0</ele><time>2026-04-25T08:08:18Z</time></trkpt><trkpt lat="43.83786354276641" lon="10.762317210630547"><ele>18.0</ele><time>2026-04-25T08:08:19Z</time></trkpt><trkpt lat="43.837790274378484" lon="10.762327864154685"><ele>18.0</ele><time>2026-04-25T08:08:20Z</time></trkpt><trkpt lat="43.837717853759656" lon="10.762333905424827"><ele>18.0</ele><time>2026-04-25T08:08:21Z</time></trkpt><trkpt lat="43.83764484735478" lon="10.762337857353769"><ele>18.000000000000004</ele><time>2026-04-25T08:08:22Z</time></trkpt><trkpt lat="43.83757050082674" lon="10.762341957560222"><ele>18.0</ele><time>2026-04-25T08:08:23Z</time></trkpt><trkpt lat="43.83749383530196" lon="10.762333027503304"><ele>17.833333333333332</ele><time>2026-04-25T08:08:24Z</time></trkpt><trkpt lat="43.837417810619364" lon="10.76232331669486"><ele>17.666666666666668</ele><time>2026-04-25T08:08:25Z</time></trkpt><trkpt lat="43.837339021799686" lon="10.762319063125473"><ele>17.5</ele><time>2026-04-25T08:08:26Z</time></trkpt><trkpt lat="43.83726143278356" lon="10.762299103499377"><ele>17.333333333333336</ele><time>2026-04-25T08:08:27Z</time></trkpt><trkpt lat="43.837189682254085" lon="10.762281898858404"><ele>17.166666666666668</ele><time>2026-04-25T08:08:28Z</time></trkpt><trkpt lat="43.83711098932867" lon="10.762269048093534"><ele>17.0</ele><time>2026-04-25T08:08:29Z</time></trkpt><trkpt lat="43.83696936791724" lon="10.762265316946383"><ele>17.0</ele><time>2026-04-25T08:08:31Z</time></trkpt><trkpt lat="43.83688891854327" lon="10.762256981478382"><ele>17.0</ele><time>2026-04-25T08:08:32Z</time></trkpt><trkpt lat="43.83681911162797" lon="10.762264464346972"><ele>17.0</ele><time>2026-04-25T08:08:33Z</time></trkpt><trkpt lat="43.83673216770576" lon="10.762270194669902"><ele>17.0</ele><time>2026-04-25T08:08:34Z</time></trkpt><trkpt lat="43.83665840152556" lon="10.762283151810623"><ele>17.0</ele><time>2026-04-25T08:08:35Z</time></trkpt><trkpt lat="43.8365762629026" lon="10.762288464213052"><ele>17.0</ele><time>2026-04-25T08:08:36Z</time></trkpt><trkpt lat="43.83649891623101" lon="10.762290548326861"><ele>17.0</ele><time>2026-04-25T08:08:37Z</time></trkpt><trkpt lat="43.83642315327947" lon="10.762291639567193"><ele>17.0</ele><time>2026-04-25T08:08:38Z</time></trkpt><trkpt lat="43.83634782647512" lon="10.762295644534497"><ele>17.0</ele><time>2026-04-25T08:08:39Z</time></trkpt><trkpt lat="43.836280095703884" lon="10.762310729736061"><ele>17.0</ele><time>2026-04-25T08:08:40Z</time></trkpt><trkpt lat="43.83621422573118" lon="10.762310775676395"><ele>17.0</ele><time>2026-04-25T08:08:41Z</time></trkpt><trkpt lat="43.8361506440391" lon="10.762409269999038"><ele>17.0</ele><time>2026-04-25T08:08:43Z</time></trkpt><trkpt lat="43.83622344643314" lon="10.76255428081021"><ele>17.0</ele><time>2026-04-25T08:08:45Z</time></trkpt><trkpt lat="43.83628279481239" lon="10.762691776137002"><ele>17.0</ele><time>2026-04-25T08:08:47Z</time></trkpt><trkpt lat="43.8363282457824" lon="10.762855366773168"><ele>17.0</ele><time>2026-04-25T08:08:49Z</time></trkpt><trkpt lat="43.8363533425032" lon="10.76294068984579"><ele>17.0</ele><time>2026-04-25T08:08:50Z</time></trkpt><trkpt lat="43.836378946150894" lon="10.763025428264639"><ele>17.0</ele><time>2026-04-25T08:08:51Z</time></trkpt><trkpt lat="43.83640926978738" lon="10.763108418635722"><ele>17.0</ele><time>2026-04-25T08:08:52Z</time></trkpt><trkpt lat="43.836475430284615" lon="10.763264229278786"><ele>16.999999999999996</ele><time>2026-04-25T08:08:54Z</time></trkpt><trkpt lat="43.83651176655872" lon="10.763348387777622"><ele>17.0</ele><time>2026-04-25T08:08:55Z</time></trkpt><trkpt lat="43.836544762881886" lon="10.763433150354128"><ele>17.0</ele><time>2026-04-25T08:08:56Z</time></trkpt><trkpt lat="43.83657640300996" lon="10.763519064943209"><ele>17.0</ele><time>2026-04-25T08:08:57Z</time></trkpt><trkpt lat="43.83661024679969" lon="10.763606037078322"><ele>17.0</ele><time>2026-04-25T08:08:58Z</time></trkpt><trkpt lat="43.8366404515296" lon="10.763692542312386"><ele>16.999999999999996</ele><time>2026-04-25T08:08:59Z</time></trkpt><trkpt lat="43.836677285496165" lon="10.763777185981278"><ele>17.0</ele><time>2026-04-25T08:09:00Z</time></trkpt><trkpt lat="43.83671136146402" lon="10.763862172717511"><ele>16.999999999999996</ele><time>2026-04-25T08:09:01Z</time></trkpt><trkpt lat="43.836739624970434" lon="10.763953832980448"><ele>17.0</ele><time>2026-04-25T08:09:02Z</time></trkpt><trkpt lat="43.83676650055589" lon="10.764043751232617"><ele>17.0</ele><time>2026-04-25T08:09:02.999Z</time></trkpt><trkpt lat="43.83678851643102" lon="10.764144107880004"><ele>17.0</ele><time>2026-04-25T08:09:03.999Z</time></trkpt><trkpt lat="43.836806481332225" lon="10.764242197275568"><ele>17.0</ele><time>2026-04-25T08:09:04.999Z</time></trkpt><trkpt lat="43.836820459320094" lon="10.764341615613995"><ele>16.999999999999996</ele><time>2026-04-25T08:09:05.999Z</time></trkpt><trkpt lat="43.83683620696942" lon="10.76444104272953"><ele>17.0</ele><time>2026-04-25T08:09:06.999Z</time></trkpt><trkpt lat="43.836851206072566" lon="10.76453951517982"><ele>16.857142857142854</ele><time>2026-04-25T08:09:07.999Z</time></trkpt><trkpt lat="43.836864574234596" lon="10.764641109579756"><ele>16.714285714285715</ele><time>2026-04-25T08:09:08.999Z</time></trkpt><trkpt lat="43.83687844019533" lon="10.76474118799228"><ele>16.57142857142857</ele><time>2026-04-25T08:09:09.999Z</time></trkpt><trkpt lat="43.83689420756898" lon="10.764843513201807"><ele>16.428571428571427</ele><time>2026-04-25T08:09:10.999Z</time></trkpt><trkpt lat="43.83690917844476" lon="10.764943642077172"><ele>16.285714285714285</ele><time>2026-04-25T08:09:11.999Z</time></trkpt><trkpt lat="43.83692324874247" lon="10.76504099489821"><ele>16.142857142857142</ele><time>2026-04-25T08:09:12.999Z</time></trkpt><trkpt lat="43.83693326049787" lon="10.765144313700443"><ele>16.0</ele><time>2026-04-25T08:09:13.999Z</time></trkpt><trkpt lat="43.836941658846236" lon="10.765249391458575"><ele>15.999999999999998</ele><time>2026-04-25T08:09:14.999Z</time></trkpt><trkpt lat="43.83695105065427" lon="10.765353556584722"><ele>16.0</ele><time>2026-04-25T08:09:15.999Z</time></trkpt><trkpt lat="43.83696310111116" lon="10.765458769808852"><ele>16.0</ele><time>2026-04-25T08:09:16.999Z</time></trkpt><trkpt lat="43.83697925540956" lon="10.765562988832372"><ele>16.0</ele><time>2026-04-25T08:09:17.999Z</time></trkpt><trkpt lat="43.83699178869408" lon="10.76566445570829"><ele>15.999999999999998</ele><time>2026-04-25T08:09:18.999Z</time></trkpt><trkpt lat="43.837002408034316" lon="10.765768993236405"><ele>16.0</ele><time>2026-04-25T08:09:19.999Z</time></trkpt><trkpt lat="43.83701460034169" lon="10.765873312597428"><ele>15.999999999999998</ele><time>2026-04-25T08:09:20.999Z</time></trkpt><trkpt lat="43.83702845493035" lon="10.765979136617839"><ele>16.0</ele><time>2026-04-25T08:09:21.999Z</time></trkpt><trkpt lat="43.837043019997715" lon="10.76608092231269"><ele>16.0</ele><time>2026-04-25T08:09:22.999Z</time></trkpt><trkpt lat="43.83705454377746" lon="10.766186207812687"><ele>16.0</ele><time>2026-04-25T08:09:23.999Z</time></trkpt><trkpt lat="43.837069882432324" lon="10.766290374449547"><ele>15.999999999999998</ele><time>2026-04-25T08:09:24.999Z</time></trkpt><trkpt lat="43.837082066374904" lon="10.766391348536231"><ele>16.0</ele><time>2026-04-25T08:09:25.999Z</time></trkpt><trkpt lat="43.83709402596376" lon="10.766495488095812"><ele>15.999999999999998</ele><time>2026-04-25T08:09:26.999Z</time></trkpt><trkpt lat="43.83710739642983" lon="10.766600390941036"><ele>16.0</ele><time>2026-04-25T08:09:27.999Z</time></trkpt><trkpt lat="43.837120198579846" lon="10.766705302316192"><ele>16.0</ele><time>2026-04-25T08:09:28.999Z</time></trkpt><trkpt lat="43.837132035037484" lon="10.766807667385345"><ele>16.0</ele><time>2026-04-25T08:09:29.999Z</time></trkpt><trkpt lat="43.83714883733581" lon="10.76691233822915"><ele>15.999999999999998</ele><time>2026-04-25T08:09:30.999Z</time></trkpt><trkpt lat="43.83716142601236" lon="10.767015375661193"><ele>16.0</ele><time>2026-04-25T08:09:31.999Z</time></trkpt><trkpt lat="43.83717142544424" lon="10.767123673162482"><ele>15.999999999999998</ele><time>2026-04-25T08:09:32.999Z</time></trkpt><trkpt lat="43.83718605445633" lon="10.767222923491744"><ele>16.0</ele><time>2026-04-25T08:09:33.999Z</time></trkpt><trkpt lat="43.837202579557065" lon="10.767328979598712"><ele>16.0</ele><time>2026-04-25T08:09:34.999Z</time></trkpt><trkpt lat="43.83722529548168" lon="10.767439313381157"><ele>16.0</ele><time>2026-04-25T08:09:35.999Z</time></trkpt><trkpt lat="43.83724248114616" lon="10.7675375706721"><ele>15.999999999999998</ele><time>2026-04-25T08:09:36.999Z</time></trkpt><trkpt lat="43.83725831345706" lon="10.767644996436282"><ele>16.0</ele><time>2026-04-25T08:09:37.999Z</time></trkpt><trkpt lat="43.837269708218784" lon="10.767766529375528"><ele>15.999999999999998</ele><time>2026-04-25T08:09:38.999Z</time></trkpt><trkpt lat="43.83728318254722" lon="10.76786623653509"><ele>16.0</ele><time>2026-04-25T08:09:39.999Z</time></trkpt><trkpt lat="43.83728954314164" lon="10.767984142220486"><ele>16.0</ele><time>2026-04-25T08:09:40.999Z</time></trkpt><trkpt lat="43.83729557919232" lon="10.768089951516114"><ele>16.0</ele><time>2026-04-25T08:09:41.999Z</time></trkpt><trkpt lat="43.83730062663728" lon="10.768203934547055"><ele>15.999999999999998</ele><time>2026-04-25T08:09:42.999Z</time></trkpt><trkpt lat="43.83731049556753" lon="10.768315585658007"><ele>16.0</ele><time>2026-04-25T08:09:43.999Z</time></trkpt><trkpt lat="43.83732545984401" lon="10.768414838656355"><ele>15.999999999999998</ele><time>2026-04-25T08:09:44.999Z</time></trkpt><trkpt lat="43.83733951207254" lon="10.768528548890599"><ele>16.0</ele><time>2026-04-25T08:09:45.999Z</time></trkpt><trkpt lat="43.83735377243727" lon="10.768636108641344"><ele>16.0</ele><time>2026-04-25T08:09:46.999Z</time></trkpt><trkpt lat="43.83736762999471" lon="10.768738529655119"><ele>16.0</ele><time>2026-04-25T08:09:47.999Z</time></trkpt><trkpt lat="43.83737776842998" lon="10.768845895047654"><ele>15.999999999999998</ele><time>2026-04-25T08:09:48.999Z</time></trkpt><trkpt lat="43.837392590415426" lon="10.768956388798376"><ele>16.0</ele><time>2026-04-25T08:09:49.999Z</time></trkpt><trkpt lat="43.83740725280072" lon="10.769055435021517"><ele>15.999999999999998</ele><time>2026-04-25T08:09:50.999Z</time></trkpt><trkpt lat="43.83741816562381" lon="10.769161219074904"><ele>16.0</ele><time>2026-04-25T08:09:51.999Z</time></trkpt><trkpt lat="43.837426889993516" lon="10.769270034660392"><ele>16.0</ele><time>2026-04-25T08:09:52.999Z</time></trkpt><trkpt lat="43.83742997710265" lon="10.769374641321816"><ele>16.0</ele><time>2026-04-25T08:09:53.999Z</time></trkpt><trkpt lat="43.837425650359286" lon="10.769476106790274"><ele>15.999999999999998</ele><time>2026-04-25T08:09:54.999Z</time></trkpt><trkpt lat="43.83740335179726" lon="10.769583174988151"><ele>16.0</ele><time>2026-04-25T08:09:55.999Z</time></trkpt><trkpt lat="43.83736836288544" lon="10.769669677431125"><ele>16.166666666666664</ele><time>2026-04-25T08:09:56.999Z</time></trkpt><trkpt lat="43.83731214742317" lon="10.769750277923196"><ele>16.333333333333332</ele><time>2026-04-25T08:09:57.999Z</time></trkpt><trkpt lat="43.83725459799589" lon="10.769821801871375"><ele>16.5</ele><time>2026-04-25T08:09:58.999Z</time></trkpt><trkpt lat="43.837179105626724" lon="10.7698680151816"><ele>16.666666666666668</ele><time>2026-04-25T08:09:59.999Z</time></trkpt><trkpt lat="43.83709888349281" lon="10.769886715501622"><ele>16.833333333333336</ele><time>2026-04-25T08:10:00.999Z</time></trkpt><trkpt lat="43.837023413834814" lon="10.769914671662113"><ele>17.0</ele><time>2026-04-25T08:10:01.999Z</time></trkpt><trkpt lat="43.83694959483739" lon="10.769946365947083"><ele>17.0</ele><time>2026-04-25T08:10:02.999Z</time></trkpt><trkpt lat="43.836871447097785" lon="10.769971748068626"><ele>17.0</ele><time>2026-04-25T08:10:03.999Z</time></trkpt><trkpt lat="43.8367961790359" lon="10.769992699950949"><ele>17.0</ele><time>2026-04-25T08:10:04.998Z</time></trkpt><trkpt lat="43.836716222828926" lon="10.770014833517823"><ele>17.0</ele><time>2026-04-25T08:10:05.998Z</time></trkpt><trkpt lat="43.83664216768607" lon="10.770041068680639"><ele>17.0</ele><time>2026-04-25T08:10:06.998Z</time></trkpt><trkpt lat="43.83656166259132" lon="10.7700637094299"><ele>17.0</ele><time>2026-04-25T08:10:07.998Z</time></trkpt><trkpt lat="43.83648414771889" lon="10.770084453772999"><ele>16.8</ele><time>2026-04-25T08:10:08.998Z</time></trkpt><trkpt lat="43.83641028193223" lon="10.770109312476272"><ele>16.6</ele><time>2026-04-25T08:10:09.998Z</time></trkpt><trkpt lat="43.83626089415241" lon="10.770172034859334"><ele>16.400000000000002</ele><time>2026-04-25T08:10:11.998Z</time></trkpt><trkpt lat="43.83618656748417" lon="10.770201909207586"><ele>16.2</ele><time>2026-04-25T08:10:12.998Z</time></trkpt><trkpt lat="43.836112187879706" lon="10.770230692441865"><ele>16.0</ele><time>2026-04-25T08:10:13.998Z</time></trkpt><trkpt lat="43.83603691559468" lon="10.77025449688454"><ele>15.999999999999998</ele><time>2026-04-25T08:10:14.998Z</time></trkpt><trkpt lat="43.835957504990596" lon="10.770283644447776"><ele>16.0</ele><time>2026-04-25T08:10:15.998Z</time></trkpt><trkpt lat="43.83588018146788" lon="10.770299188502998"><ele>16.0</ele><time>2026-04-25T08:10:16.998Z</time></trkpt><trkpt lat="43.83580117935835" lon="10.770319360722867"><ele>16.0</ele><time>2026-04-25T08:10:17.998Z</time></trkpt><trkpt lat="43.83572362254205" lon="10.770338490155131"><ele>15.999999999999998</ele><time>2026-04-25T08:10:18.998Z</time></trkpt><trkpt lat="43.835657891766544" lon="10.770364121278384"><ele>16.0</ele><time>2026-04-25T08:10:19.998Z</time></trkpt><trkpt lat="43.83557549544153" lon="10.770402686222656"><ele>15.999999999999998</ele><time>2026-04-25T08:10:20.998Z</time></trkpt><trkpt lat="43.83550064408717" lon="10.770430213198503"><ele>16.0</ele><time>2026-04-25T08:10:21.998Z</time></trkpt><trkpt lat="43.83542107556979" lon="10.770450872996568"><ele>16.0</ele><time>2026-04-25T08:10:23Z</time></trkpt><trkpt lat="43.835346495393836" lon="10.770481286032915"><ele>16.0</ele><time>2026-04-25T08:10:24Z</time></trkpt><trkpt lat="43.83527066336638" lon="10.770511082346443"><ele>15.999999999999998</ele><time>2026-04-25T08:10:25Z</time></trkpt><trkpt lat="43.83519621730596" lon="10.77053572078755"><ele>16.0</ele><time>2026-04-25T08:10:26Z</time></trkpt><trkpt lat="43.835120238724144" lon="10.770556147159285"><ele>15.833333333333332</ele><time>2026-04-25T08:10:27Z</time></trkpt><trkpt lat="43.83504444905193" lon="10.77058437612034"><ele>15.666666666666666</ele><time>2026-04-25T08:10:28Z</time></trkpt><trkpt lat="43.8349734627647" lon="10.77061164909212"><ele>15.5</ele><time>2026-04-25T08:10:29Z</time></trkpt><trkpt lat="43.83489943672179" lon="10.770636937751908"><ele>15.333333333333332</ele><time>2026-04-25T08:10:30Z</time></trkpt><trkpt lat="43.834824758950376" lon="10.770666542331714"><ele>15.166666666666666</ele><time>2026-04-25T08:10:31Z</time></trkpt><trkpt lat="43.83474969347558" lon="10.770693754959902"><ele>15.0</ele><time>2026-04-25T08:10:32Z</time></trkpt><trkpt lat="43.83467667683382" lon="10.770720654687036"><ele>15.0</ele><time>2026-04-25T08:10:33Z</time></trkpt><trkpt lat="43.8346045119617" lon="10.770754031806732"><ele>15.0</ele><time>2026-04-25T08:10:34Z</time></trkpt><trkpt lat="43.834536108776156" lon="10.770799149087376"><ele>15.0</ele><time>2026-04-25T08:10:35Z</time></trkpt><trkpt lat="43.834481524804914" lon="10.770867877679308"><ele>15.0</ele><time>2026-04-25T08:10:36Z</time></trkpt><trkpt lat="43.83444887226183" lon="10.770970678334601"><ele>15.0</ele><time>2026-04-25T08:10:37Z</time></trkpt><trkpt lat="43.83445586415215" lon="10.771086586405678"><ele>15.0</ele><time>2026-04-25T08:10:38Z</time></trkpt><trkpt lat="43.83448703871148" lon="10.771201626704274"><ele>15.0</ele><time>2026-04-25T08:10:39Z</time></trkpt><trkpt lat="43.83451444861141" lon="10.771296098856817"><ele>15.0</ele><time>2026-04-25T08:10:40Z</time></trkpt><trkpt lat="43.83451603429069" lon="10.771410416960833"><ele>15.0</ele><time>2026-04-25T08:10:41Z</time></trkpt><trkpt lat="43.83451915724849" lon="10.771522225959062"><ele>15.0</ele><time>2026-04-25T08:10:42Z</time></trkpt><trkpt lat="43.83453036141947" lon="10.771633581847368"><ele>15.0</ele><time>2026-04-25T08:10:43Z</time></trkpt><trkpt lat="43.83453511098779" lon="10.771743114304046"><ele>15.0</ele><time>2026-04-25T08:10:44Z</time></trkpt><trkpt lat="43.83453332347334" lon="10.771853956278527"><ele>15.0</ele><time>2026-04-25T08:10:45Z</time></trkpt><trkpt lat="43.83451990982899" lon="10.771960572961666"><ele>15.0</ele><time>2026-04-25T08:10:46Z</time></trkpt><trkpt lat="43.83447762277016" lon="10.77205420064176"><ele>15.0</ele><time>2026-04-25T08:10:47Z</time></trkpt><trkpt lat="43.83440358479985" lon="10.772110801217746"><ele>15.0</ele><time>2026-04-25T08:10:48Z</time></trkpt><trkpt lat="43.83431809793149" lon="10.772134072005846"><ele>15.0</ele><time>2026-04-25T08:10:49Z</time></trkpt><trkpt lat="43.83423347679724" lon="10.772144771514148"><ele>15.0</ele><time>2026-04-25T08:10:50Z</time></trkpt><trkpt lat="43.834159570259416" lon="10.77216305291772"><ele>14.833333333333334</ele><time>2026-04-25T08:10:51Z</time></trkpt><trkpt lat="43.83408434731107" lon="10.772182747529222"><ele>14.666666666666668</ele><time>2026-04-25T08:10:52Z</time></trkpt><trkpt lat="43.83400621155434" lon="10.772204237023885"><ele>14.5</ele><time>2026-04-25T08:10:53Z</time></trkpt><trkpt lat="43.83393185947416" lon="10.772239606870691"><ele>14.333333333333334</ele><time>2026-04-25T08:10:54Z</time></trkpt><trkpt lat="43.83385750412954" lon="10.772268608608236"><ele>14.166666666666668</ele><time>2026-04-25T08:10:55Z</time></trkpt><trkpt lat="43.83377936287469" lon="10.772290867935677"><ele>14.0</ele><time>2026-04-25T08:10:56Z</time></trkpt><trkpt lat="43.83370612352002" lon="10.772321618615779"><ele>14.000000000000002</ele><time>2026-04-25T08:10:57Z</time></trkpt><trkpt lat="43.833629868364476" lon="10.772351220973707"><ele>14.0</ele><time>2026-04-25T08:10:58Z</time></trkpt><trkpt lat="43.83356447819747" lon="10.772378666387903"><ele>14.0</ele><time>2026-04-25T08:10:59Z</time></trkpt><trkpt lat="43.8334887161046" lon="10.772417121102192"><ele>14.0</ele><time>2026-04-25T08:11:00Z</time></trkpt><trkpt lat="43.83341506508261" lon="10.772446366298192"><ele>14.000000000000002</ele><time>2026-04-25T08:11:01Z</time></trkpt><trkpt lat="43.83334323970276" lon="10.772473021496685"><ele>14.0</ele><time>2026-04-25T08:11:02Z</time></trkpt><trkpt lat="43.833267549375144" lon="10.772501051561816"><ele>14.000000000000002</ele><time>2026-04-25T08:11:03Z</time></trkpt><trkpt lat="43.83319397372177" lon="10.77252560793468"><ele>14.0</ele><time>2026-04-25T08:11:04Z</time></trkpt><trkpt lat="43.833121652569595" lon="10.772553531881698"><ele>14.0</ele><time>2026-04-25T08:11:05Z</time></trkpt><trkpt lat="43.83304721666771" lon="10.772582826449804"><ele>14.0</ele><time>2026-04-25T08:11:06Z</time></trkpt><trkpt lat="43.83297997891262" lon="10.772610249968803"><ele>14.000000000000002</ele><time>2026-04-25T08:11:07Z</time></trkpt><trkpt lat="43.83290316875926" lon="10.77263971579464"><ele>14.0</ele><time>2026-04-25T08:11:08Z</time></trkpt><trkpt lat="43.832833380786056" lon="10.772662544979811"><ele>14.000000000000002</ele><time>2026-04-25T08:11:08.999Z</time></trkpt><trkpt lat="43.83276268013329" lon="10.772687254461024"><ele>14.0</ele><time>2026-04-25T08:11:09.999Z</time></trkpt><trkpt lat="43.83268851880934" lon="10.772710866075343"><ele>14.0</ele><time>2026-04-25T08:11:10.999Z</time></trkpt><trkpt lat="43.832618532009" lon="10.772739110622009"><ele>14.0</ele><time>2026-04-25T08:11:11.999Z</time></trkpt><trkpt lat="43.832543994082194" lon="10.772769212223803"><ele>14.000000000000002</ele><time>2026-04-25T08:11:12.999Z</time></trkpt><trkpt lat="43.83247106861916" lon="10.772798013873915"><ele>14.0</ele><time>2026-04-25T08:11:13.999Z</time></trkpt><trkpt lat="43.83239399358644" lon="10.772825435267405"><ele>14.000000000000002</ele><time>2026-04-25T08:11:14.999Z</time></trkpt><trkpt lat="43.832318294697686" lon="10.772848701141658"><ele>14.0</ele><time>2026-04-25T08:11:15.999Z</time></trkpt><trkpt lat="43.83224313446852" lon="10.772876781501914"><ele>14.0</ele><time>2026-04-25T08:11:16.999Z</time></trkpt><trkpt lat="43.83217261737204" lon="10.77290140758393"><ele>14.0</ele><time>2026-04-25T08:11:17.999Z</time></trkpt><trkpt lat="43.83209632878461" lon="10.772928988237826"><ele>14.000000000000002</ele><time>2026-04-25T08:11:18.999Z</time></trkpt><trkpt lat="43.83202429590861" lon="10.772957738043642"><ele>14.0</ele><time>2026-04-25T08:11:19.999Z</time></trkpt><trkpt lat="43.831948611856134" lon="10.77298417172472"><ele>14.000000000000002</ele><time>2026-04-25T08:11:20.999Z</time></trkpt><trkpt lat="43.83187260651119" lon="10.773011952688991"><ele>14.0</ele><time>2026-04-25T08:11:21.999Z</time></trkpt><trkpt lat="43.83179285026245" lon="10.773039157588121"><ele>14.0</ele><time>2026-04-25T08:11:22.999Z</time></trkpt><trkpt lat="43.831721638242605" lon="10.773073610139285"><ele>14.0</ele><time>2026-04-25T08:11:23.999Z</time></trkpt><trkpt lat="43.83164511251482" lon="10.773102286686294"><ele>14.000000000000002</ele><time>2026-04-25T08:11:24.999Z</time></trkpt><trkpt lat="43.83157206450032" lon="10.773131805210532"><ele>14.0</ele><time>2026-04-25T08:11:25.999Z</time></trkpt><trkpt lat="43.83150048412396" lon="10.773166509304547"><ele>14.166666666666668</ele><time>2026-04-25T08:11:26.999Z</time></trkpt><trkpt lat="43.831428637853165" lon="10.773198653406954"><ele>14.333333333333334</ele><time>2026-04-25T08:11:27.999Z</time></trkpt><trkpt lat="43.83135466729866" lon="10.773228948438984"><ele>14.5</ele><time>2026-04-25T08:11:28.999Z</time></trkpt><trkpt lat="43.83128250706206" lon="10.773262314388479"><ele>14.666666666666668</ele><time>2026-04-25T08:11:29.999Z</time></trkpt><trkpt lat="43.83121378835602" lon="10.773288007290375"><ele>14.833333333333334</ele><time>2026-04-25T08:11:30.999Z</time></trkpt><trkpt lat="43.83113911949605" lon="10.773311115526575"><ele>15.0</ele><time>2026-04-25T08:11:31.999Z</time></trkpt><trkpt lat="43.83106084003471" lon="10.77336401423827"><ele>15.0</ele><time>2026-04-25T08:11:32.999Z</time></trkpt><trkpt lat="43.83098794406623" lon="10.773378702553899"><ele>15.0</ele><time>2026-04-25T08:11:33.999Z</time></trkpt><trkpt lat="43.83091665643808" lon="10.77339807070514"><ele>15.0</ele><time>2026-04-25T08:11:34.999Z</time></trkpt><trkpt lat="43.830845813600625" lon="10.773427630450893"><ele>15.0</ele><time>2026-04-25T08:11:35.999Z</time></trkpt><trkpt lat="43.830778400979874" lon="10.773450839545198"><ele>15.0</ele><time>2026-04-25T08:11:36.999Z</time></trkpt><trkpt lat="43.83070517787615" lon="10.773478785636039"><ele>15.0</ele><time>2026-04-25T08:11:37.999Z</time></trkpt><trkpt lat="43.830638680912664" lon="10.773505375407838"><ele>15.0</ele><time>2026-04-25T08:11:38.999Z</time></trkpt><trkpt lat="43.83056283226588" lon="10.773537444563015"><ele>15.0</ele><time>2026-04-25T08:11:39.999Z</time></trkpt><trkpt lat="43.83049559539973" lon="10.773558630386368"><ele>15.0</ele><time>2026-04-25T08:11:40.999Z</time></trkpt><trkpt lat="43.830424614114555" lon="10.773585429154835"><ele>15.0</ele><time>2026-04-25T08:11:41.999Z</time></trkpt><trkpt lat="43.83035781376703" lon="10.773612782036105"><ele>15.0</ele><time>2026-04-25T08:11:42.999Z</time></trkpt><trkpt lat="43.83028471792322" lon="10.773642301389078"><ele>15.0</ele><time>2026-04-25T08:11:43.999Z</time></trkpt><trkpt lat="43.830213401330795" lon="10.773667439745108"><ele>15.0</ele><time>2026-04-25T08:11:44.999Z</time></trkpt><trkpt lat="43.83013653124052" lon="10.773700764872583"><ele>15.0</ele><time>2026-04-25T08:11:45.999Z</time></trkpt><trkpt lat="43.83006049149975" lon="10.773735226522595"><ele>14.666666666666666</ele><time>2026-04-25T08:11:46.999Z</time></trkpt><trkpt lat="43.82999378678063" lon="10.773759234987176"><ele>14.333333333333332</ele><time>2026-04-25T08:11:47.999Z</time></trkpt><trkpt lat="43.82985851547972" lon="10.773809231801367"><ele>14.0</ele><time>2026-04-25T08:11:49.999Z</time></trkpt><trkpt lat="43.829782123431016" lon="10.773842333677583"><ele>13.666666666666666</ele><time>2026-04-25T08:11:50.999Z</time></trkpt><trkpt lat="43.82970989588545" lon="10.773865431529316"><ele>13.333333333333332</ele><time>2026-04-25T08:11:51.999Z</time></trkpt><trkpt lat="43.829636937232266" lon="10.77389547111549"><ele>13.0</ele><time>2026-04-25T08:11:52.999Z</time></trkpt><trkpt lat="43.82956111065129" lon="10.773922997003824"><ele>12.999999999999998</ele><time>2026-04-25T08:11:53.999Z</time></trkpt><trkpt lat="43.82948774049961" lon="10.773952077059677"><ele>13.0</ele><time>2026-04-25T08:11:54.999Z</time></trkpt><trkpt lat="43.82941826080185" lon="10.773981710687499"><ele>13.0</ele><time>2026-04-25T08:11:55.999Z</time></trkpt><trkpt lat="43.8293400072198" lon="10.774012693765364"><ele>13.0</ele><time>2026-04-25T08:11:56.999Z</time></trkpt><trkpt lat="43.829263127495956" lon="10.774039156258254"><ele>12.999999999999998</ele><time>2026-04-25T08:11:57.999Z</time></trkpt><trkpt lat="43.829188293472555" lon="10.774066589969634"><ele>13.0</ele><time>2026-04-25T08:11:58.999Z</time></trkpt><trkpt lat="43.8291128906958" lon="10.774096747488327"><ele>13.333333333333332</ele><time>2026-04-25T08:11:59.999Z</time></trkpt><trkpt lat="43.829035245220865" lon="10.774125792067425"><ele>13.666666666666666</ele><time>2026-04-25T08:12:00.999Z</time></trkpt><trkpt lat="43.82896143973204" lon="10.774154063025723"><ele>14.0</ele><time>2026-04-25T08:12:01.999Z</time></trkpt><trkpt lat="43.82888002898269" lon="10.774182134623326"><ele>14.333333333333332</ele><time>2026-04-25T08:12:02.999Z</time></trkpt><trkpt lat="43.828807548259384" lon="10.774214415354184"><ele>14.666666666666666</ele><time>2026-04-25T08:12:03.999Z</time></trkpt><trkpt lat="43.82873006619624" lon="10.774245596557563"><ele>15.0</ele><time>2026-04-25T08:12:04.999Z</time></trkpt><trkpt lat="43.828655624470414" lon="10.77427414411736"><ele>15.0</ele><time>2026-04-25T08:12:05.999Z</time></trkpt><trkpt lat="43.82857290924364" lon="10.774308816391235"><ele>15.0</ele><time>2026-04-25T08:12:06.999Z</time></trkpt><trkpt lat="43.828499793099915" lon="10.774335661798322"><ele>15.0</ele><time>2026-04-25T08:12:07.999Z</time></trkpt><trkpt lat="43.828425678438705" lon="10.77436633495766"><ele>15.0</ele><time>2026-04-25T08:12:08.999Z</time></trkpt><trkpt lat="43.82834981969301" lon="10.774395688732636"><ele>15.0</ele><time>2026-04-25T08:12:09.998Z</time></trkpt><trkpt lat="43.82827569943726" lon="10.774423059057574"><ele>15.0</ele><time>2026-04-25T08:12:10.998Z</time></trkpt><trkpt lat="43.828199970092314" lon="10.77445028213641"><ele>14.8</ele><time>2026-04-25T08:12:11.998Z</time></trkpt><trkpt lat="43.82805941925882" lon="10.774510406076814"><ele>14.6</ele><time>2026-04-25T08:12:13.998Z</time></trkpt><trkpt lat="43.827986635900764" lon="10.77454373736655"><ele>14.399999999999999</ele><time>2026-04-25T08:12:14.998Z</time></trkpt><trkpt lat="43.827911937505654" lon="10.77456860965801"><ele>14.2</ele><time>2026-04-25T08:12:15.998Z</time></trkpt><trkpt lat="43.82783734658276" lon="10.774601745070315"><ele>14.0</ele><time>2026-04-25T08:12:16.998Z</time></trkpt><trkpt lat="43.827762708927466" lon="10.774633275653274"><ele>14.000000000000002</ele><time>2026-04-25T08:12:17.998Z</time></trkpt><trkpt lat="43.8276883529641" lon="10.774660935577716"><ele>14.0</ele><time>2026-04-25T08:12:18.998Z</time></trkpt><trkpt lat="43.82761838730646" lon="10.774694506664705"><ele>14.0</ele><time>2026-04-25T08:12:19.998Z</time></trkpt><trkpt lat="43.827546960370974" lon="10.774720244162221"><ele>14.0</ele><time>2026-04-25T08:12:20.998Z</time></trkpt><trkpt lat="43.82746987299344" lon="10.774747875769997"><ele>14.000000000000002</ele><time>2026-04-25T08:12:21.998Z</time></trkpt><trkpt lat="43.82739899329239" lon="10.77477984443644"><ele>14.0</ele><time>2026-04-25T08:12:22.998Z</time></trkpt><trkpt lat="43.82732994767443" lon="10.774813252559529"><ele>14.000000000000002</ele><time>2026-04-25T08:12:23.998Z</time></trkpt><trkpt lat="43.82725627130262" lon="10.774842630345125"><ele>14.0</ele><time>2026-04-25T08:12:24.998Z</time></trkpt><trkpt lat="43.8271843547761" lon="10.774869467447488"><ele>14.0</ele><time>2026-04-25T08:12:25.998Z</time></trkpt><trkpt lat="43.82711065160395" lon="10.774902309301838"><ele>14.0</ele><time>2026-04-25T08:12:26.998Z</time></trkpt><trkpt lat="43.82703991055675" lon="10.77492971615052"><ele>14.000000000000002</ele><time>2026-04-25T08:12:27.998Z</time></trkpt><trkpt lat="43.82696718737388" lon="10.77496007166758"><ele>14.0</ele><time>2026-04-25T08:12:29Z</time></trkpt><trkpt lat="43.82689455434584" lon="10.774991034113558"><ele>14.000000000000002</ele><time>2026-04-25T08:12:30Z</time></trkpt><trkpt lat="43.826819746951635" lon="10.775019502466872"><ele>14.0</ele><time>2026-04-25T08:12:31Z</time></trkpt><trkpt lat="43.82674787338704" lon="10.775039935008195"><ele>14.0</ele><time>2026-04-25T08:12:32Z</time></trkpt><trkpt lat="43.826672957334345" lon="10.775058360286096"><ele>14.0</ele><time>2026-04-25T08:12:33Z</time></trkpt><trkpt lat="43.82659761947839" lon="10.775080643198327"><ele>14.000000000000002</ele><time>2026-04-25T08:12:34Z</time></trkpt><trkpt lat="43.82652596622871" lon="10.77510117699814"><ele>14.0</ele><time>2026-04-25T08:12:35Z</time></trkpt><trkpt lat="43.826449966423986" lon="10.775113648184576"><ele>14.000000000000002</ele><time>2026-04-25T08:12:36Z</time></trkpt><trkpt lat="43.826372478212434" lon="10.77512717109234"><ele>14.0</ele><time>2026-04-25T08:12:37Z</time></trkpt><trkpt lat="43.82629685577811" lon="10.775142077790733"><ele>14.0</ele><time>2026-04-25T08:12:38Z</time></trkpt><trkpt lat="43.826220727410416" lon="10.775157891166705"><ele>14.0</ele><time>2026-04-25T08:12:39Z</time></trkpt><trkpt lat="43.82614426240629" lon="10.775172030591731"><ele>14.000000000000002</ele><time>2026-04-25T08:12:40Z</time></trkpt><trkpt lat="43.82606777857446" lon="10.77518731986416"><ele>14.0</ele><time>2026-04-25T08:12:41Z</time></trkpt><trkpt lat="43.82599039592495" lon="10.775207611529396"><ele>14.166666666666668</ele><time>2026-04-25T08:12:42Z</time></trkpt><trkpt lat="43.82591560048832" lon="10.775217487378288"><ele>14.333333333333334</ele><time>2026-04-25T08:12:43Z</time></trkpt><trkpt lat="43.82583586420244" lon="10.775233603457412"><ele>14.5</ele><time>2026-04-25T08:12:44Z</time></trkpt><trkpt lat="43.825761310835034" lon="10.775251635803802"><ele>14.666666666666668</ele><time>2026-04-25T08:12:45Z</time></trkpt><trkpt lat="43.82568539020718" lon="10.7752718729002"><ele>14.833333333333334</ele><time>2026-04-25T08:12:46Z</time></trkpt><trkpt lat="43.82560915481281" lon="10.775296872594742"><ele>15.0</ele><time>2026-04-25T08:12:47Z</time></trkpt><trkpt lat="43.825532925617985" lon="10.77532609123422"><ele>15.0</ele><time>2026-04-25T08:12:48Z</time></trkpt><trkpt lat="43.825459128378476" lon="10.775354712520318"><ele>15.0</ele><time>2026-04-25T08:12:49Z</time></trkpt><trkpt lat="43.82538103209131" lon="10.775374227731833"><ele>15.0</ele><time>2026-04-25T08:12:50Z</time></trkpt><trkpt lat="43.82530779940905" lon="10.775396686189305"><ele>15.0</ele><time>2026-04-25T08:12:51Z</time></trkpt><trkpt lat="43.825211534113784" lon="10.775426466781472"><ele>15.0</ele><time>2026-04-25T08:12:52Z</time></trkpt><trkpt lat="43.82514049334538" lon="10.775458088703086"><ele>15.0</ele><time>2026-04-25T08:12:53Z</time></trkpt><trkpt lat="43.825073019843906" lon="10.775474620851789"><ele>14.833333333333334</ele><time>2026-04-25T08:12:54Z</time></trkpt><trkpt lat="43.825000047530544" lon="10.775491849671328"><ele>14.666666666666668</ele><time>2026-04-25T08:12:55Z</time></trkpt><trkpt lat="43.82492030143939" lon="10.775486982813025"><ele>14.5</ele><time>2026-04-25T08:12:56Z</time></trkpt><trkpt lat="43.82484178599122" lon="10.77544916447667"><ele>14.333333333333334</ele><time>2026-04-25T08:12:57Z</time></trkpt><trkpt lat="43.82477903356705" lon="10.77537663647204"><ele>14.166666666666668</ele><time>2026-04-25T08:12:58Z</time></trkpt><trkpt lat="43.8247370547006" lon="10.775281003437202"><ele>14.0</ele><time>2026-04-25T08:12:59Z</time></trkpt><trkpt lat="43.82472087014071" lon="10.775168838507543"><ele>14.000000000000002</ele><time>2026-04-25T08:13:00Z</time></trkpt><trkpt lat="43.82472241924272" lon="10.77505574674074"><ele>14.0</ele><time>2026-04-25T08:13:01Z</time></trkpt><trkpt lat="43.824716440232" lon="10.774953330588895"><ele>14.0</ele><time>2026-04-25T08:13:02Z</time></trkpt><trkpt lat="43.82469309522682" lon="10.774852645460738"><ele>14.0</ele><time>2026-04-25T08:13:03Z</time></trkpt><trkpt lat="43.824667531512034" lon="10.774752921992325"><ele>14.000000000000002</ele><time>2026-04-25T08:13:04Z</time></trkpt><trkpt lat="43.82465413128677" lon="10.774646484481753"><ele>14.0</ele><time>2026-04-25T08:13:05Z</time></trkpt><trkpt lat="43.8246410396822" lon="10.774545262965228"><ele>14.000000000000002</ele><time>2026-04-25T08:13:06Z</time></trkpt><trkpt lat="43.82462782272834" lon="10.774440590168451"><ele>14.0</ele><time>2026-04-25T08:13:07Z</time></trkpt><trkpt lat="43.82460848062967" lon="10.774338872661922"><ele>14.0</ele><time>2026-04-25T08:13:08Z</time></trkpt><trkpt lat="43.8245818469144" lon="10.774236920986167"><ele>14.0</ele><time>2026-04-25T08:13:09Z</time></trkpt><trkpt lat="43.824549265389706" lon="10.774139596076191"><ele>14.000000000000002</ele><time>2026-04-25T08:13:10Z</time></trkpt><trkpt lat="43.824515166826814" lon="10.774051021053985"><ele>14.0</ele><time>2026-04-25T08:13:11Z</time></trkpt><trkpt lat="43.82446780117901" lon="10.773966355083655"><ele>14.166666666666668</ele><time>2026-04-25T08:13:12Z</time></trkpt><trkpt lat="43.82441729227833" lon="10.773886098449164"><ele>14.333333333333334</ele><time>2026-04-25T08:13:12.999Z</time></trkpt><trkpt lat="43.82436409282799" lon="10.773809572112503"><ele>14.5</ele><time>2026-04-25T08:13:13.999Z</time></trkpt><trkpt lat="43.824307224760204" lon="10.773738070248378"><ele>14.666666666666668</ele><time>2026-04-25T08:13:14.999Z</time></trkpt><trkpt lat="43.82425032921586" lon="10.773672058972252"><ele>14.833333333333334</ele><time>2026-04-25T08:13:15.999Z</time></trkpt><trkpt lat="43.82418639981037" lon="10.773611694330599"><ele>15.0</ele><time>2026-04-25T08:13:16.999Z</time></trkpt><trkpt lat="43.82412389423835" lon="10.773550452330634"><ele>15.0</ele><time>2026-04-25T08:13:17.999Z</time></trkpt><trkpt lat="43.82406631528734" lon="10.773480076841093"><ele>15.0</ele><time>2026-04-25T08:13:18.999Z</time></trkpt><trkpt lat="43.82401038247899" lon="10.77340902566718"><ele>15.0</ele><time>2026-04-25T08:13:19.999Z</time></trkpt><trkpt lat="43.82394932891239" lon="10.773339962494555"><ele>15.0</ele><time>2026-04-25T08:13:20.999Z</time></trkpt><trkpt lat="43.82389380689324" lon="10.773271552893934"><ele>15.0</ele><time>2026-04-25T08:13:21.999Z</time></trkpt><trkpt lat="43.82383667211968" lon="10.773203940774593"><ele>15.0</ele><time>2026-04-25T08:13:22.999Z</time></trkpt><trkpt lat="43.823780224824624" lon="10.77313018820548"><ele>15.0</ele><time>2026-04-25T08:13:23.999Z</time></trkpt><trkpt lat="43.82372688002232" lon="10.773056124129967"><ele>15.0</ele><time>2026-04-25T08:13:24.999Z</time></trkpt><trkpt lat="43.82367216777255" lon="10.772982580937155"><ele>15.0</ele><time>2026-04-25T08:13:25.999Z</time></trkpt><trkpt lat="43.823617468962226" lon="10.772911986169815"><ele>15.0</ele><time>2026-04-25T08:13:26.999Z</time></trkpt><trkpt lat="43.82356381777291" lon="10.772838460786113"><ele>15.0</ele><time>2026-04-25T08:13:27.999Z</time></trkpt><trkpt lat="43.82351180321146" lon="10.772756844227779"><ele>15.0</ele><time>2026-04-25T08:13:28.999Z</time></trkpt><trkpt lat="43.82345800906458" lon="10.772682496929345"><ele>15.166666666666666</ele><time>2026-04-25T08:13:29.999Z</time></trkpt><trkpt lat="43.82340729180292" lon="10.772604981877734"><ele>15.333333333333332</ele><time>2026-04-25T08:13:30.999Z</time></trkpt><trkpt lat="43.823353777602435" lon="10.77252715953741"><ele>15.5</ele><time>2026-04-25T08:13:31.999Z</time></trkpt><trkpt lat="43.823303369632654" lon="10.772450495034702"><ele>15.666666666666666</ele><time>2026-04-25T08:13:32.999Z</time></trkpt><trkpt lat="43.82325188150013" lon="10.772372837343429"><ele>15.833333333333332</ele><time>2026-04-25T08:13:33.999Z</time></trkpt><trkpt lat="43.82320303667609" lon="10.772293841701641"><ele>16.0</ele><time>2026-04-25T08:13:34.999Z</time></trkpt><trkpt lat="43.823151070509304" lon="10.7722169184823"><ele>15.999999999999998</ele><time>2026-04-25T08:13:35.999Z</time></trkpt><trkpt lat="43.82309724261185" lon="10.772145230135589"><ele>16.0</ele><time>2026-04-25T08:13:36.999Z</time></trkpt><trkpt lat="43.82304412904233" lon="10.772068354910157"><ele>16.0</ele><time>2026-04-25T08:13:37.999Z</time></trkpt><trkpt lat="43.82299422445145" lon="10.771989945484332"><ele>16.0</ele><time>2026-04-25T08:13:38.999Z</time></trkpt><trkpt lat="43.82294082722278" lon="10.771909481457422"><ele>15.999999999999998</ele><time>2026-04-25T08:13:39.999Z</time></trkpt><trkpt lat="43.82288971184853" lon="10.771833391285004"><ele>16.0</ele><time>2026-04-25T08:13:40.999Z</time></trkpt><trkpt lat="43.82283686811661" lon="10.771754322281353"><ele>15.833333333333332</ele><time>2026-04-25T08:13:41.999Z</time></trkpt><trkpt lat="43.82278207094578" lon="10.771674967743781"><ele>15.666666666666666</ele><time>2026-04-25T08:13:42.999Z</time></trkpt><trkpt lat="43.82273010144375" lon="10.771599956680204"><ele>15.5</ele><time>2026-04-25T08:13:43.999Z</time></trkpt><trkpt lat="43.822678905847155" lon="10.771521199849767"><ele>15.333333333333332</ele><time>2026-04-25T08:13:44.999Z</time></trkpt><trkpt lat="43.82262733670296" lon="10.771439665998857"><ele>15.166666666666666</ele><time>2026-04-25T08:13:45.999Z</time></trkpt><trkpt lat="43.82257673048861" lon="10.771363685113819"><ele>15.0</ele><time>2026-04-25T08:13:46.999Z</time></trkpt><trkpt lat="43.822520946143534" lon="10.77128801916825"><ele>15.0</ele><time>2026-04-25T08:13:47.999Z</time></trkpt><trkpt lat="43.822470513988705" lon="10.771208734992639"><ele>15.0</ele><time>2026-04-25T08:13:48.999Z</time></trkpt><trkpt lat="43.822423428124715" lon="10.77112833142042"><ele>15.0</ele><time>2026-04-25T08:13:49.999Z</time></trkpt><trkpt lat="43.822368665181706" lon="10.77104804492908"><ele>15.0</ele><time>2026-04-25T08:13:50.999Z</time></trkpt><trkpt lat="43.82231623461999" lon="10.770970167790914"><ele>15.0</ele><time>2026-04-25T08:13:51.999Z</time></trkpt><trkpt lat="43.822264158238276" lon="10.77089292753084"><ele>15.0</ele><time>2026-04-25T08:13:52.999Z</time></trkpt><trkpt lat="43.82221164179858" lon="10.770813772416204"><ele>15.0</ele><time>2026-04-25T08:13:53.999Z</time></trkpt><trkpt lat="43.8221595839884" lon="10.770737140625664"><ele>15.0</ele><time>2026-04-25T08:13:54.999Z</time></trkpt><trkpt lat="43.82210987298283" lon="10.77065968145975"><ele>15.0</ele><time>2026-04-25T08:13:55.999Z</time></trkpt><trkpt lat="43.82205826921971" lon="10.770590912699415"><ele>15.0</ele><time>2026-04-25T08:13:56.999Z</time></trkpt><trkpt lat="43.822011760654206" lon="10.77052352054524"><ele>15.0</ele><time>2026-04-25T08:13:57.999Z</time></trkpt><trkpt lat="43.82196717842321" lon="10.770456495202199"><ele>15.0</ele><time>2026-04-25T08:13:58.999Z</time></trkpt><trkpt lat="43.82192358220522" lon="10.770392380802944"><ele>15.0</ele><time>2026-04-25T08:13:59.999Z</time></trkpt><trkpt lat="43.821880793413214" lon="10.770327455409605"><ele>14.75</ele><time>2026-04-25T08:14:00.999Z</time></trkpt><trkpt lat="43.82180256299558" lon="10.77021177127582"><ele>14.5</ele><time>2026-04-25T08:14:02.999Z</time></trkpt><trkpt lat="43.821723423288134" lon="10.770092939001167"><ele>14.25</ele><time>2026-04-25T08:14:04.999Z</time></trkpt><trkpt lat="43.82163715363312" lon="10.76996741811919"><ele>14.0</ele><time>2026-04-25T08:14:06.999Z</time></trkpt><trkpt lat="43.82158464277387" lon="10.769818412041701"><ele>14.000000000000002</ele><time>2026-04-25T08:14:08.999Z</time></trkpt><trkpt lat="43.82156975479034" lon="10.769639994789049"><ele>14.0</ele><time>2026-04-25T08:14:10.999Z</time></trkpt><trkpt lat="43.821571055775216" lon="10.76954334805042"><ele>14.0</ele><time>2026-04-25T08:14:11.999Z</time></trkpt><trkpt lat="43.821576556671104" lon="10.769442486125987"><ele>14.0</ele><time>2026-04-25T08:14:12.998Z</time></trkpt><trkpt lat="43.82157738651804" lon="10.769337054681454"><ele>14.000000000000002</ele><time>2026-04-25T08:14:13.998Z</time></trkpt><trkpt lat="43.821574310567634" lon="10.769224147811492"><ele>14.0</ele><time>2026-04-25T08:14:14.998Z</time></trkpt><trkpt lat="43.821566004647785" lon="10.769111550316238"><ele>14.000000000000002</ele><time>2026-04-25T08:14:15.998Z</time></trkpt><trkpt lat="43.82155950494856" lon="10.76899581869972"><ele>14.0</ele><time>2026-04-25T08:14:16.998Z</time></trkpt><trkpt lat="43.8215464624231" lon="10.768882701764712"><ele>14.0</ele><time>2026-04-25T08:14:17.998Z</time></trkpt><trkpt lat="43.82153108924469" lon="10.768776687341866"><ele>14.0</ele><time>2026-04-25T08:14:18.998Z</time></trkpt><trkpt lat="43.8215174671621" lon="10.768659544662201"><ele>14.000000000000002</ele><time>2026-04-25T08:14:19.998Z</time></trkpt><trkpt lat="43.82150050875192" lon="10.768556237367802"><ele>14.0</ele><time>2026-04-25T08:14:20.998Z</time></trkpt><trkpt lat="43.82148583432226" lon="10.768439878124846"><ele>13.833333333333334</ele><time>2026-04-25T08:14:21.998Z</time></trkpt><trkpt lat="43.82146706773918" lon="10.768329837711875"><ele>13.666666666666668</ele><time>2026-04-25T08:14:22.998Z</time></trkpt><trkpt lat="43.82145537585731" lon="10.76821903334405"><ele>13.5</ele><time>2026-04-25T08:14:23.998Z</time></trkpt><trkpt lat="43.82144395811627" lon="10.768111942800859"><ele>13.333333333333332</ele><time>2026-04-25T08:14:24.998Z</time></trkpt><trkpt lat="43.821428391575274" lon="10.767996693523234"><ele>13.166666666666666</ele><time>2026-04-25T08:14:25.998Z</time></trkpt><trkpt lat="43.821416258669196" lon="10.767889945076801"><ele>13.0</ele><time>2026-04-25T08:14:26.998Z</time></trkpt><trkpt lat="43.821406097906795" lon="10.767784218265662"><ele>13.333333333333332</ele><time>2026-04-25T08:14:27.998Z</time></trkpt><trkpt lat="43.82139419620513" lon="10.76767677587022"><ele>13.666666666666666</ele><time>2026-04-25T08:14:28.998Z</time></trkpt><trkpt lat="43.821382648479755" lon="10.76756521925453"><ele>14.0</ele><time>2026-04-25T08:14:29.998Z</time></trkpt><trkpt lat="43.821370523534085" lon="10.767463817640984"><ele>14.333333333333332</ele><time>2026-04-25T08:14:30.998Z</time></trkpt><trkpt lat="43.8213517170048" lon="10.76737430804788"><ele>14.666666666666666</ele><time>2026-04-25T08:14:31.998Z</time></trkpt><trkpt lat="43.821333032151756" lon="10.767257743228141"><ele>15.0</ele><time>2026-04-25T08:14:32.998Z</time></trkpt><trkpt lat="43.8213193182254" lon="10.767150966359118"><ele>15.0</ele><time>2026-04-25T08:14:33.998Z</time></trkpt><trkpt lat="43.821303383848814" lon="10.767040562013594"><ele>15.0</ele><time>2026-04-25T08:14:35Z</time></trkpt><trkpt lat="43.82128904179699" lon="10.766939759533813"><ele>15.0</ele><time>2026-04-25T08:14:36Z</time></trkpt><trkpt lat="43.821276934320416" lon="10.76683087205344"><ele>15.0</ele><time>2026-04-25T08:14:37Z</time></trkpt><trkpt lat="43.8212645159197" lon="10.76672836696383"><ele>15.0</ele><time>2026-04-25T08:14:38Z</time></trkpt><trkpt lat="43.821244646825924" lon="10.76662706806343"><ele>15.0</ele><time>2026-04-25T08:14:39Z</time></trkpt><trkpt lat="43.82124109493792" lon="10.766517245514928"><ele>14.857142857142858</ele><time>2026-04-25T08:14:40Z</time></trkpt><trkpt lat="43.82123077571225" lon="10.766411826902338"><ele>14.714285714285714</ele><time>2026-04-25T08:14:41Z</time></trkpt><trkpt lat="43.82121726875702" lon="10.766314736356888"><ele>14.571428571428571</ele><time>2026-04-25T08:14:42Z</time></trkpt><trkpt lat="43.82120570090249" lon="10.766213321304667"><ele>14.428571428571429</ele><time>2026-04-25T08:14:43Z</time></trkpt><trkpt lat="43.82119579791359" lon="10.766106597939979"><ele>14.285714285714285</ele><time>2026-04-25T08:14:44Z</time></trkpt><trkpt lat="43.821184444665946" lon="10.76600366289656"><ele>14.142857142857142</ele><time>2026-04-25T08:14:45Z</time></trkpt><trkpt lat="43.82117338088212" lon="10.765904127568719"><ele>14.0</ele><time>2026-04-25T08:14:46Z</time></trkpt><trkpt lat="43.82115351238904" lon="10.765803696252918"><ele>14.000000000000002</ele><time>2026-04-25T08:14:47Z</time></trkpt><trkpt lat="43.82114038299721" lon="10.765700388167362"><ele>14.0</ele><time>2026-04-25T08:14:48Z</time></trkpt><trkpt lat="43.82112623355299" lon="10.76559541034391"><ele>14.0</ele><time>2026-04-25T08:14:49Z</time></trkpt><trkpt lat="43.82111351017823" lon="10.765495119804841"><ele>14.0</ele><time>2026-04-25T08:14:50Z</time></trkpt><trkpt lat="43.82110123920887" lon="10.76539364096481"><ele>14.000000000000002</ele><time>2026-04-25T08:14:51Z</time></trkpt><trkpt lat="43.82108967790679" lon="10.765291499223462"><ele>14.0</ele><time>2026-04-25T08:14:52Z</time></trkpt><trkpt lat="43.82107444046269" lon="10.765185293028994"><ele>13.833333333333334</ele><time>2026-04-25T08:14:53Z</time></trkpt><trkpt lat="43.8210614176235" lon="10.765085042970341"><ele>13.666666666666668</ele><time>2026-04-25T08:14:54Z</time></trkpt><trkpt lat="43.82104296049544" lon="10.764982943358234"><ele>13.5</ele><time>2026-04-25T08:14:55Z</time></trkpt><trkpt lat="43.82102802053222" lon="10.764878914721086"><ele>13.333333333333332</ele><time>2026-04-25T08:14:56Z</time></trkpt><trkpt lat="43.821013541936274" lon="10.764773895694782"><ele>13.166666666666666</ele><time>2026-04-25T08:14:57Z</time></trkpt><trkpt lat="43.82099769779378" lon="10.76466788772068"><ele>13.0</ele><time>2026-04-25T08:14:58Z</time></trkpt><trkpt lat="43.82098347983597" lon="10.764561956692937"><ele>13.166666666666666</ele><time>2026-04-25T08:14:59Z</time></trkpt><trkpt lat="43.82096850666684" lon="10.76445496947684"><ele>13.333333333333332</ele><time>2026-04-25T08:15:00Z</time></trkpt><trkpt lat="43.820955001785215" lon="10.764349381273853"><ele>13.5</ele><time>2026-04-25T08:15:01Z</time></trkpt><trkpt lat="43.820942794546106" lon="10.764244381535104"><ele>13.666666666666668</ele><time>2026-04-25T08:15:02Z</time></trkpt><trkpt lat="43.820929053198135" lon="10.76413877030065"><ele>13.833333333333334</ele><time>2026-04-25T08:15:03Z</time></trkpt><trkpt lat="43.820916342362885" lon="10.764028999322608"><ele>14.0</ele><time>2026-04-25T08:15:04Z</time></trkpt><trkpt lat="43.82090315742724" lon="10.763922403530183"><ele>14.166666666666668</ele><time>2026-04-25T08:15:05Z</time></trkpt><trkpt lat="43.82088830501518" lon="10.763817121215878"><ele>14.333333333333334</ele><time>2026-04-25T08:15:06Z</time></trkpt><trkpt lat="43.82087354616149" lon="10.76371750346195"><ele>14.5</ele><time>2026-04-25T08:15:07Z</time></trkpt><trkpt lat="43.8208630560409" lon="10.763602809393744"><ele>14.666666666666668</ele><time>2026-04-25T08:15:08Z</time></trkpt><trkpt lat="43.82084963551297" lon="10.763499805482553"><ele>14.833333333333334</ele><time>2026-04-25T08:15:09Z</time></trkpt><trkpt lat="43.82083299376175" lon="10.763389248313295"><ele>15.0</ele><time>2026-04-25T08:15:10Z</time></trkpt><trkpt lat="43.82081661431397" lon="10.763287385049763"><ele>15.166666666666666</ele><time>2026-04-25T08:15:11Z</time></trkpt><trkpt lat="43.82079385461722" lon="10.763183627921405"><ele>15.333333333333332</ele><time>2026-04-25T08:15:12Z</time></trkpt><trkpt lat="43.8207740306649" lon="10.763075934919268"><ele>15.5</ele><time>2026-04-25T08:15:13Z</time></trkpt><trkpt lat="43.820768066614896" lon="10.762969981998886"><ele>15.666666666666666</ele><time>2026-04-25T08:15:14Z</time></trkpt><trkpt lat="43.820784646400554" lon="10.762865545565905"><ele>15.833333333333332</ele><time>2026-04-25T08:15:15Z</time></trkpt><trkpt lat="43.820825344821436" lon="10.762772976363832"><ele>16.0</ele><time>2026-04-25T08:15:16Z</time></trkpt><trkpt lat="43.820897521890615" lon="10.76270734660631"><ele>16.166666666666664</ele><time>2026-04-25T08:15:17Z</time></trkpt><trkpt lat="43.820971375797505" lon="10.762668373244445"><ele>16.333333333333332</ele><time>2026-04-25T08:15:18Z</time></trkpt><trkpt lat="43.821040832056134" lon="10.76261621877224"><ele>16.5</ele><time>2026-04-25T08:15:19Z</time></trkpt><trkpt lat="43.82109428107417" lon="10.762540284339394"><ele>16.666666666666668</ele><time>2026-04-25T08:15:20Z</time></trkpt><trkpt lat="43.82114541184568" lon="10.762462341544797"><ele>16.833333333333336</ele><time>2026-04-25T08:15:20.999Z</time></trkpt><trkpt lat="43.82120432766764" lon="10.762394538900288"><ele>17.0</ele><time>2026-04-25T08:15:21.999Z</time></trkpt><trkpt lat="43.821266187896015" lon="10.762326310053911"><ele>17.0</ele><time>2026-04-25T08:15:22.999Z</time></trkpt><trkpt lat="43.821327551256815" lon="10.762260362380648"><ele>17.0</ele><time>2026-04-25T08:15:23.999Z</time></trkpt><trkpt lat="43.821384929827175" lon="10.762198479840473"><ele>17.0</ele><time>2026-04-25T08:15:24.999Z</time></trkpt><trkpt lat="43.821445525896095" lon="10.762127420257334"><ele>17.0</ele><time>2026-04-25T08:15:25.999Z</time></trkpt><trkpt lat="43.8215061297478" lon="10.762057333478475"><ele>17.0</ele><time>2026-04-25T08:15:26.999Z</time></trkpt><trkpt lat="43.82156565209769" lon="10.761978616942523"><ele>17.0</ele><time>2026-04-25T08:15:27.999Z</time></trkpt><trkpt lat="43.821624388356526" lon="10.761903154884845"><ele>16.999999999999996</ele><time>2026-04-25T08:15:28.999Z</time></trkpt><trkpt lat="43.821675649233775" lon="10.761835669674634"><ele>17.0</ele><time>2026-04-25T08:15:29.999Z</time></trkpt><trkpt lat="43.82173121282179" lon="10.76176984684644"><ele>17.0</ele><time>2026-04-25T08:15:30.999Z</time></trkpt><trkpt lat="43.82179798983692" lon="10.76171675995104"><ele>17.0</ele><time>2026-04-25T08:15:31.999Z</time></trkpt><trkpt lat="43.821863379645244" lon="10.761661241011508"><ele>17.0</ele><time>2026-04-25T08:15:32.999Z</time></trkpt><trkpt lat="43.82191002120606" lon="10.76158637080618"><ele>16.999999999999996</ele><time>2026-04-25T08:15:33.999Z</time></trkpt><trkpt lat="43.82191131962101" lon="10.761477090164771"><ele>17.0</ele><time>2026-04-25T08:15:34.999Z</time></trkpt><trkpt lat="43.82187488971688" lon="10.761362752636213"><ele>17.0</ele><time>2026-04-25T08:15:35.999Z</time></trkpt><trkpt lat="43.821837876355325" lon="10.761269619862647"><ele>17.0</ele><time>2026-04-25T08:15:36.999Z</time></trkpt><trkpt lat="43.82179799043385" lon="10.761185201027374"><ele>17.0</ele><time>2026-04-25T08:15:37.999Z</time></trkpt><trkpt lat="43.821762690079574" lon="10.761093753483461"><ele>17.0</ele><time>2026-04-25T08:15:38.999Z</time></trkpt><trkpt lat="43.82173634408082" lon="10.761000598029058"><ele>17.0</ele><time>2026-04-25T08:15:39.999Z</time></trkpt><trkpt lat="43.8217101979663" lon="10.760897976358505"><ele>17.0</ele><time>2026-04-25T08:15:40.999Z</time></trkpt><trkpt lat="43.82167791810412" lon="10.760803404842274"><ele>17.333333333333336</ele><time>2026-04-25T08:15:41.999Z</time></trkpt><trkpt lat="43.82164621299181" lon="10.760704500648425"><ele>17.666666666666668</ele><time>2026-04-25T08:15:42.999Z</time></trkpt><trkpt lat="43.82161721122244" lon="10.760600860517165"><ele>18.0</ele><time>2026-04-25T08:15:43.999Z</time></trkpt><trkpt lat="43.82157747667079" lon="10.76050470230825"><ele>18.333333333333332</ele><time>2026-04-25T08:15:44.999Z</time></trkpt><trkpt lat="43.82154328546774" lon="10.760401097219493"><ele>18.666666666666664</ele><time>2026-04-25T08:15:45.999Z</time></trkpt><trkpt lat="43.82152303706251" lon="10.760291292750063"><ele>19.0</ele><time>2026-04-25T08:15:46.999Z</time></trkpt><trkpt lat="43.821475740554256" lon="10.760204226540194"><ele>18.833333333333332</ele><time>2026-04-25T08:15:47.999Z</time></trkpt><trkpt lat="43.82146216561436" lon="10.760115564748576"><ele>18.666666666666664</ele><time>2026-04-25T08:15:48.999Z</time></trkpt><trkpt lat="43.82151241245668" lon="10.760030110671952"><ele>18.5</ele><time>2026-04-25T08:15:49.999Z</time></trkpt><trkpt lat="43.82159767781005" lon="10.75998526339414"><ele>18.333333333333332</ele><time>2026-04-25T08:15:50.999Z</time></trkpt><trkpt lat="43.82167672311217" lon="10.759967013938049"><ele>18.166666666666668</ele><time>2026-04-25T08:15:51.999Z</time></trkpt><trkpt lat="43.821744893960286" lon="10.75993017234934"><ele>18.0</ele><time>2026-04-25T08:15:52.999Z</time></trkpt><trkpt lat="43.821816588346366" lon="10.759881581543695"><ele>18.0</ele><time>2026-04-25T08:15:53.999Z</time></trkpt><trkpt lat="43.82188514038698" lon="10.759824007612957"><ele>18.0</ele><time>2026-04-25T08:15:54.999Z</time></trkpt><trkpt lat="43.82195260540782" lon="10.759772715580906"><ele>18.0</ele><time>2026-04-25T08:15:55.999Z</time></trkpt><trkpt lat="43.822019013498945" lon="10.759721751697802"><ele>18.0</ele><time>2026-04-25T08:15:56.999Z</time></trkpt><trkpt lat="43.822081973511324" lon="10.759672626478258"><ele>18.0</ele><time>2026-04-25T08:15:57.999Z</time></trkpt><trkpt lat="43.822148452911165" lon="10.75962345412134"><ele>18.0</ele><time>2026-04-25T08:15:58.999Z</time></trkpt><trkpt lat="43.82221201736339" lon="10.759584700779278"><ele>18.000000000000004</ele><time>2026-04-25T08:15:59.999Z</time></trkpt><trkpt lat="43.82227728865835" lon="10.75953325128165"><ele>18.0</ele><time>2026-04-25T08:16:00.999Z</time></trkpt><trkpt lat="43.822345805470555" lon="10.759488968923922"><ele>18.0</ele><time>2026-04-25T08:16:01.999Z</time></trkpt><trkpt lat="43.82240803917492" lon="10.759443071041565"><ele>18.0</ele><time>2026-04-25T08:16:02.999Z</time></trkpt><trkpt lat="43.82247509587236" lon="10.759402168514098"><ele>18.0</ele><time>2026-04-25T08:16:03.999Z</time></trkpt><trkpt lat="43.82254065913508" lon="10.759356427945093"><ele>18.000000000000004</ele><time>2026-04-25T08:16:04.999Z</time></trkpt><trkpt lat="43.82260272629396" lon="10.759297109938123"><ele>18.0</ele><time>2026-04-25T08:16:05.999Z</time></trkpt><trkpt lat="43.82265915331376" lon="10.759257384478538"><ele>17.857142857142858</ele><time>2026-04-25T08:16:06.999Z</time></trkpt><trkpt lat="43.822702472627505" lon="10.759193349524713"><ele>17.714285714285715</ele><time>2026-04-25T08:16:07.999Z</time></trkpt><trkpt lat="43.82269263792318" lon="10.759095046719601"><ele>17.57142857142857</ele><time>2026-04-25T08:16:08.999Z</time></trkpt><trkpt lat="43.822639046483104" lon="10.759011762900471"><ele>17.42857142857143</ele><time>2026-04-25T08:16:09.999Z</time></trkpt><trkpt lat="43.822588082210714" lon="10.758939563673994"><ele>17.285714285714285</ele><time>2026-04-25T08:16:10.999Z</time></trkpt><trkpt lat="43.82255393908612" lon="10.758848192300478"><ele>17.142857142857142</ele><time>2026-04-25T08:16:11.999Z</time></trkpt><trkpt lat="43.822517562827066" lon="10.758767131258086"><ele>17.0</ele><time>2026-04-25T08:16:12.999Z</time></trkpt><trkpt lat="43.82248982342234" lon="10.758682071305048"><ele>16.999999999999996</ele><time>2026-04-25T08:16:13.999Z</time></trkpt><trkpt lat="43.82247464928876" lon="10.758576145846098"><ele>17.0</ele><time>2026-04-25T08:16:14.999Z</time></trkpt><trkpt lat="43.822454860787055" lon="10.758481954269723"><ele>17.0</ele><time>2026-04-25T08:16:15.999Z</time></trkpt><trkpt lat="43.8224352356294" lon="10.758391311905854"><ele>17.0</ele><time>2026-04-25T08:16:16.999Z</time></trkpt><trkpt lat="43.822415636101645" lon="10.758291561406772"><ele>17.0</ele><time>2026-04-25T08:16:17.999Z</time></trkpt><trkpt lat="43.822384108835905" lon="10.758195162754035"><ele>16.999999999999996</ele><time>2026-04-25T08:16:18.999Z</time></trkpt><trkpt lat="43.82235074312176" lon="10.758105659915474"><ele>17.0</ele><time>2026-04-25T08:16:19.999Z</time></trkpt><trkpt lat="43.822323427614144" lon="10.758012178537356"><ele>16.857142857142854</ele><time>2026-04-25T08:16:20.998Z</time></trkpt><trkpt lat="43.82229187294614" lon="10.757916207727526"><ele>16.714285714285715</ele><time>2026-04-25T08:16:21.998Z</time></trkpt><trkpt lat="43.82226306559714" lon="10.757818665017371"><ele>16.57142857142857</ele><time>2026-04-25T08:16:22.998Z</time></trkpt><trkpt lat="43.82223729281265" lon="10.75772431176909"><ele>16.428571428571427</ele><time>2026-04-25T08:16:23.998Z</time></trkpt><trkpt lat="43.82220511216126" lon="10.757630633354474"><ele>16.285714285714285</ele><time>2026-04-25T08:16:24.998Z</time></trkpt><trkpt lat="43.822170441674515" lon="10.757540207202329"><ele>16.142857142857142</ele><time>2026-04-25T08:16:25.998Z</time></trkpt><trkpt lat="43.82213875166507" lon="10.757446498901109"><ele>16.0</ele><time>2026-04-25T08:16:26.998Z</time></trkpt><trkpt lat="43.82211797650913" lon="10.757346555795985"><ele>15.999999999999998</ele><time>2026-04-25T08:16:27.998Z</time></trkpt><trkpt lat="43.82209175354283" lon="10.757248834821937"><ele>16.0</ele><time>2026-04-25T08:16:28.998Z</time></trkpt><trkpt lat="43.82206164857276" lon="10.757154491008764"><ele>16.0</ele><time>2026-04-25T08:16:29.998Z</time></trkpt><trkpt lat="43.822029362545415" lon="10.757061171298538"><ele>16.0</ele><time>2026-04-25T08:16:30.998Z</time></trkpt><trkpt lat="43.82199448402549" lon="10.756967999495865"><ele>15.999999999999998</ele><time>2026-04-25T08:16:31.998Z</time></trkpt><trkpt lat="43.82196281990812" lon="10.756874148425752"><ele>16.0</ele><time>2026-04-25T08:16:32.998Z</time></trkpt><trkpt lat="43.8219305551641" lon="10.75677786053405"><ele>15.999999999999998</ele><time>2026-04-25T08:16:33.998Z</time></trkpt><trkpt lat="43.8219022868063" lon="10.75667984962766"><ele>16.0</ele><time>2026-04-25T08:16:34.998Z</time></trkpt><trkpt lat="43.82187420600816" lon="10.756583577171916"><ele>16.0</ele><time>2026-04-25T08:16:35.998Z</time></trkpt><trkpt lat="43.82184304301689" lon="10.75648835654364"><ele>16.0</ele><time>2026-04-25T08:16:36.998Z</time></trkpt><trkpt lat="43.82181593466365" lon="10.756389170947122"><ele>15.999999999999998</ele><time>2026-04-25T08:16:37.998Z</time></trkpt><trkpt lat="43.82180398462976" lon="10.756284925096553"><ele>16.0</ele><time>2026-04-25T08:16:38.998Z</time></trkpt><trkpt lat="43.821815103909266" lon="10.756173257096266"><ele>15.999999999999998</ele><time>2026-04-25T08:16:39.998Z</time></trkpt><trkpt lat="43.821840002809736" lon="10.756078101067413"><ele>16.0</ele><time>2026-04-25T08:16:41Z</time></trkpt><trkpt lat="43.821886628055026" lon="10.755985548215918"><ele>16.0</ele><time>2026-04-25T08:16:42Z</time></trkpt><trkpt lat="43.821941790736886" lon="10.755911637498587"><ele>16.0</ele><time>2026-04-25T08:16:43Z</time></trkpt><trkpt lat="43.82199705652875" lon="10.755835854295443"><ele>15.999999999999998</ele><time>2026-04-25T08:16:44Z</time></trkpt><trkpt lat="43.82203816794153" lon="10.755718601980407"><ele>16.0</ele><time>2026-04-25T08:16:45Z</time></trkpt><trkpt lat="43.822098723669775" lon="10.755682763841628"><ele>16.142857142857142</ele><time>2026-04-25T08:16:46Z</time></trkpt><trkpt lat="43.82215305985885" lon="10.755612113936525"><ele>16.285714285714285</ele><time>2026-04-25T08:16:47Z</time></trkpt><trkpt lat="43.822204899199235" lon="10.755540323167363"><ele>16.428571428571427</ele><time>2026-04-25T08:16:48Z</time></trkpt><trkpt lat="43.822257413303404" lon="10.755463888172779"><ele>16.57142857142857</ele><time>2026-04-25T08:16:49Z</time></trkpt><trkpt lat="43.82231045370009" lon="10.755394184298869"><ele>16.714285714285715</ele><time>2026-04-25T08:16:50Z</time></trkpt><trkpt lat="43.82236195025477" lon="10.755323217125186"><ele>16.857142857142854</ele><time>2026-04-25T08:16:51Z</time></trkpt><trkpt lat="43.82241363997224" lon="10.755254233454465"><ele>17.0</ele><time>2026-04-25T08:16:52Z</time></trkpt><trkpt lat="43.822463889135996" lon="10.755186682319142"><ele>16.857142857142854</ele><time>2026-04-25T08:16:53Z</time></trkpt><trkpt lat="43.8225213977707" lon="10.755115985876484"><ele>16.714285714285715</ele><time>2026-04-25T08:16:54Z</time></trkpt><trkpt lat="43.822575774213654" lon="10.755039790872111"><ele>16.57142857142857</ele><time>2026-04-25T08:16:55Z</time></trkpt><trkpt lat="43.82263126183955" lon="10.754986071189077"><ele>16.428571428571427</ele><time>2026-04-25T08:16:56Z</time></trkpt><trkpt lat="43.82268427409644" lon="10.754916316769576"><ele>16.285714285714285</ele><time>2026-04-25T08:16:57Z</time></trkpt><trkpt lat="43.822739884354256" lon="10.754850345148792"><ele>16.142857142857142</ele><time>2026-04-25T08:16:58Z</time></trkpt><trkpt lat="43.82278981295713" lon="10.754779292924985"><ele>16.0</ele><time>2026-04-25T08:16:59Z</time></trkpt><trkpt lat="43.822836229143434" lon="10.754709129050646"><ele>16.0</ele><time>2026-04-25T08:17:00Z</time></trkpt><trkpt lat="43.82289216137261" lon="10.754638682762556"><ele>15.999999999999998</ele><time>2026-04-25T08:17:01Z</time></trkpt><trkpt lat="43.82294489675039" lon="10.75457628052323"><ele>16.0</ele><time>2026-04-25T08:17:02Z</time></trkpt><trkpt lat="43.822988341110374" lon="10.754508399937114"><ele>16.0</ele><time>2026-04-25T08:17:03Z</time></trkpt><trkpt lat="43.823047325306206" lon="10.754436229899847"><ele>15.999999999999998</ele><time>2026-04-25T08:17:04Z</time></trkpt><trkpt lat="43.823099082928614" lon="10.754363739861825"><ele>16.0</ele><time>2026-04-25T08:17:05Z</time></trkpt><trkpt lat="43.823156599742134" lon="10.7542952299665"><ele>16.0</ele><time>2026-04-25T08:17:06Z</time></trkpt><trkpt lat="43.823212580006434" lon="10.75422738127393"><ele>15.857142857142856</ele><time>2026-04-25T08:17:07Z</time></trkpt><trkpt lat="43.823267304622725" lon="10.754162499700087"><ele>15.714285714285712</ele><time>2026-04-25T08:17:08Z</time></trkpt><trkpt lat="43.823318921714105" lon="10.75409006788888"><ele>15.571428571428571</ele><time>2026-04-25T08:17:09Z</time></trkpt><trkpt lat="43.823376914571874" lon="10.754020553835153"><ele>15.428571428571427</ele><time>2026-04-25T08:17:10Z</time></trkpt><trkpt lat="43.823429086313986" lon="10.753950569440876"><ele>15.285714285714285</ele><time>2026-04-25T08:17:11Z</time></trkpt><trkpt lat="43.823485000415744" lon="10.753881837212072"><ele>15.142857142857142</ele><time>2026-04-25T08:17:12Z</time></trkpt><trkpt lat="43.82354119356325" lon="10.753815224244393"><ele>15.0</ele><time>2026-04-25T08:17:13Z</time></trkpt><trkpt lat="43.82359586897439" lon="10.753747244557212"><ele>15.0</ele><time>2026-04-25T08:17:14Z</time></trkpt><trkpt lat="43.82365216339262" lon="10.753679552452343"><ele>15.0</ele><time>2026-04-25T08:17:15Z</time></trkpt><trkpt lat="43.823713344687874" lon="10.75361491533527"><ele>15.0</ele><time>2026-04-25T08:17:16Z</time></trkpt><trkpt lat="43.82377921736276" lon="10.753555953926677"><ele>15.0</ele><time>2026-04-25T08:17:17Z</time></trkpt><trkpt lat="43.82384299369612" lon="10.753506622475253"><ele>15.0</ele><time>2026-04-25T08:17:18Z</time></trkpt><trkpt lat="43.82391558658871" lon="10.7534647955496"><ele>15.0</ele><time>2026-04-25T08:17:19Z</time></trkpt><trkpt lat="43.82398584003368" lon="10.753426516958273"><ele>14.833333333333334</ele><time>2026-04-25T08:17:20Z</time></trkpt><trkpt lat="43.82406010343339" lon="10.753396731601075"><ele>14.666666666666668</ele><time>2026-04-25T08:17:21Z</time></trkpt><trkpt lat="43.82413567044014" lon="10.753366005224626"><ele>14.5</ele><time>2026-04-25T08:17:22Z</time></trkpt><trkpt lat="43.82421501261288" lon="10.753338026506903"><ele>14.333333333333334</ele><time>2026-04-25T08:17:23Z</time></trkpt><trkpt lat="43.82429266967224" lon="10.753316816237614"><ele>14.166666666666668</ele><time>2026-04-25T08:17:24Z</time></trkpt><trkpt lat="43.82436249504737" lon="10.753303679294618"><ele>14.0</ele><time>2026-04-25T08:17:25Z</time></trkpt><trkpt lat="43.82443967438901" lon="10.753280220580853"><ele>14.333333333333334</ele><time>2026-04-25T08:17:26Z</time></trkpt><trkpt lat="43.8245182980744" lon="10.753273271480621"><ele>14.666666666666668</ele><time>2026-04-25T08:17:26.999Z</time></trkpt><trkpt lat="43.824594211233055" lon="10.753257650919958"><ele>15.0</ele><time>2026-04-25T08:17:27.999Z</time></trkpt><trkpt lat="43.824671401574015" lon="10.753230652801356"><ele>15.333333333333332</ele><time>2026-04-25T08:17:28.999Z</time></trkpt><trkpt lat="43.824750291320285" lon="10.753206558705944"><ele>15.666666666666666</ele><time>2026-04-25T08:17:29.999Z</time></trkpt><trkpt lat="43.824829105414175" lon="10.753177206242334"><ele>16.0</ele><time>2026-04-25T08:17:30.999Z</time></trkpt><trkpt lat="43.82490579756089" lon="10.753161190943903"><ele>15.999999999999998</ele><time>2026-04-25T08:17:31.999Z</time></trkpt><trkpt lat="43.82498389482167" lon="10.75314502736284"><ele>16.0</ele><time>2026-04-25T08:17:32.999Z</time></trkpt><trkpt lat="43.82505858874921" lon="10.753120695060373"><ele>16.0</ele><time>2026-04-25T08:17:33.999Z</time></trkpt><trkpt lat="43.825132959580195" lon="10.753072051945354"><ele>16.0</ele><time>2026-04-25T08:17:34.999Z</time></trkpt><trkpt lat="43.82518300584536" lon="10.752991749643362"><ele>15.999999999999998</ele><time>2026-04-25T08:17:35.999Z</time></trkpt><trkpt lat="43.825195856188785" lon="10.752900105053339"><ele>16.0</ele><time>2026-04-25T08:17:36.999Z</time></trkpt><trkpt lat="43.8251735905591" lon="10.752797760639988"><ele>16.0</ele><time>2026-04-25T08:17:37.999Z</time></trkpt><trkpt lat="43.82514902176303" lon="10.752710512381556"><ele>15.999999999999998</ele><time>2026-04-25T08:17:38.999Z</time></trkpt><trkpt lat="43.82513302048542" lon="10.752622801908162"><ele>16.0</ele><time>2026-04-25T08:17:39.999Z</time></trkpt><trkpt lat="43.82511481693351" lon="10.752537722850445"><ele>16.0</ele><time>2026-04-25T08:17:40.999Z</time></trkpt><trkpt lat="43.82510060843464" lon="10.752425214317292"><ele>15.999999999999998</ele><time>2026-04-25T08:17:41.999Z</time></trkpt><trkpt lat="43.82510949389569" lon="10.752314483773734"><ele>16.0</ele><time>2026-04-25T08:17:42.999Z</time></trkpt><trkpt lat="43.82510222927765" lon="10.752208377280077"><ele>16.0</ele><time>2026-04-25T08:17:43.999Z</time></trkpt><trkpt lat="43.82508510960482" lon="10.752101789752519"><ele>15.833333333333332</ele><time>2026-04-25T08:17:44.999Z</time></trkpt><trkpt lat="43.82506385512991" lon="10.751990670639044"><ele>15.666666666666666</ele><time>2026-04-25T08:17:45.999Z</time></trkpt><trkpt lat="43.825046229853825" lon="10.751881943077796"><ele>15.5</ele><time>2026-04-25T08:17:46.999Z</time></trkpt><trkpt lat="43.825035354359535" lon="10.75177775068735"><ele>15.333333333333332</ele><time>2026-04-25T08:17:47.999Z</time></trkpt><trkpt lat="43.82502453770494" lon="10.751670692808673"><ele>15.166666666666666</ele><time>2026-04-25T08:17:48.999Z</time></trkpt><trkpt lat="43.82502072718979" lon="10.751562941923902"><ele>15.0</ele><time>2026-04-25T08:17:49.999Z</time></trkpt><trkpt lat="43.82501789967133" lon="10.751454177258406"><ele>15.0</ele><time>2026-04-25T08:17:50.999Z</time></trkpt><trkpt lat="43.82501253069641" lon="10.751341058454791"><ele>15.0</ele><time>2026-04-25T08:17:51.999Z</time></trkpt><trkpt lat="43.825001889662644" lon="10.75123036361643"><ele>15.0</ele><time>2026-04-25T08:17:52.999Z</time></trkpt><trkpt lat="43.82498456178911" lon="10.751125353295961"><ele>15.0</ele><time>2026-04-25T08:17:53.999Z</time></trkpt><trkpt lat="43.82496636812795" lon="10.751017530406854"><ele>15.0</ele><time>2026-04-25T08:17:54.999Z</time></trkpt><trkpt lat="43.82495043579531" lon="10.750913642342901"><ele>15.0</ele><time>2026-04-25T08:17:55.999Z</time></trkpt><trkpt lat="43.82493464486443" lon="10.750805223751133"><ele>15.0</ele><time>2026-04-25T08:17:56.999Z</time></trkpt><trkpt lat="43.824926359364945" lon="10.750702926123495"><ele>15.0</ele><time>2026-04-25T08:17:57.999Z</time></trkpt><trkpt lat="43.82492155145887" lon="10.75059274044089"><ele>15.0</ele><time>2026-04-25T08:17:58.999Z</time></trkpt><trkpt lat="43.824912109015884" lon="10.750485050006027"><ele>15.0</ele><time>2026-04-25T08:17:59.999Z</time></trkpt><trkpt lat="43.82489995799626" lon="10.750379090564438"><ele>15.0</ele><time>2026-04-25T08:18:00.999Z</time></trkpt><trkpt lat="43.82488725954781" lon="10.750273714856405"><ele>15.0</ele><time>2026-04-25T08:18:01.999Z</time></trkpt><trkpt lat="43.82487716144199" lon="10.750168582452083"><ele>15.0</ele><time>2026-04-25T08:18:02.999Z</time></trkpt><trkpt lat="43.82486746458268" lon="10.75006439642689"><ele>15.0</ele><time>2026-04-25T08:18:03.999Z</time></trkpt><trkpt lat="43.8248548312609" lon="10.74995889123844"><ele>15.0</ele><time>2026-04-25T08:18:04.999Z</time></trkpt><trkpt lat="43.8248435463016" lon="10.749855544329431"><ele>15.0</ele><time>2026-04-25T08:18:05.999Z</time></trkpt><trkpt lat="43.824830317693255" lon="10.74975208063607"><ele>15.0</ele><time>2026-04-25T08:18:06.999Z</time></trkpt><trkpt lat="43.82482167526003" lon="10.749649721485554"><ele>15.0</ele><time>2026-04-25T08:18:07.999Z</time></trkpt><trkpt lat="43.824812468567835" lon="10.749544200792402"><ele>15.0</ele><time>2026-04-25T08:18:08.999Z</time></trkpt><trkpt lat="43.824800871985104" lon="10.749439016700357"><ele>15.0</ele><time>2026-04-25T08:18:09.999Z</time></trkpt><trkpt lat="43.824787911118136" lon="10.74933565383146"><ele>15.0</ele><time>2026-04-25T08:18:10.999Z</time></trkpt><trkpt lat="43.82477578854162" lon="10.749230582668279"><ele>15.0</ele><time>2026-04-25T08:18:11.999Z</time></trkpt><trkpt lat="43.82476194201264" lon="10.749125368082563"><ele>15.0</ele><time>2026-04-25T08:18:12.999Z</time></trkpt><trkpt lat="43.824750696941535" lon="10.749024823047108"><ele>15.0</ele><time>2026-04-25T08:18:13.999Z</time></trkpt><trkpt lat="43.8247417744582" lon="10.748916241054447"><ele>15.0</ele><time>2026-04-25T08:18:14.999Z</time></trkpt><trkpt lat="43.82473195701193" lon="10.748814813692077"><ele>15.0</ele><time>2026-04-25T08:18:15.999Z</time></trkpt><trkpt lat="43.82471982764177" lon="10.74871445407603"><ele>15.0</ele><time>2026-04-25T08:18:16.999Z</time></trkpt><trkpt lat="43.824711763765556" lon="10.748610186932508"><ele>15.0</ele><time>2026-04-25T08:18:17.999Z</time></trkpt><trkpt lat="43.82469896601418" lon="10.748502211763228"><ele>15.0</ele><time>2026-04-25T08:18:18.999Z</time></trkpt><trkpt lat="43.82469094949674" lon="10.748398211170702"><ele>15.0</ele><time>2026-04-25T08:18:19.999Z</time></trkpt><trkpt lat="43.824686932043356" lon="10.748297522681819"><ele>15.0</ele><time>2026-04-25T08:18:20.999Z</time></trkpt><trkpt lat="43.824680083564736" lon="10.748184737970828"><ele>15.0</ele><time>2026-04-25T08:18:21.999Z</time></trkpt><trkpt lat="43.82467546922522" lon="10.748083539095772"><ele>15.0</ele><time>2026-04-25T08:18:22.999Z</time></trkpt><trkpt lat="43.82465429202265" lon="10.74797784301645"><ele>15.0</ele><time>2026-04-25T08:18:23.999Z</time></trkpt><trkpt lat="43.82464169517478" lon="10.747870274198997"><ele>15.0</ele><time>2026-04-25T08:18:24.999Z</time></trkpt><trkpt lat="43.8246281255461" lon="10.74776145963399"><ele>15.0</ele><time>2026-04-25T08:18:25.999Z</time></trkpt><trkpt lat="43.824608878637214" lon="10.74766608362335"><ele>15.0</ele><time>2026-04-25T08:18:26.998Z</time></trkpt><trkpt lat="43.82458723395634" lon="10.747559660933677"><ele>15.0</ele><time>2026-04-25T08:18:27.998Z</time></trkpt><trkpt lat="43.82456957304989" lon="10.747454386161007"><ele>15.0</ele><time>2026-04-25T08:18:28.998Z</time></trkpt><trkpt lat="43.82456533030727" lon="10.747340460833843"><ele>15.0</ele><time>2026-04-25T08:18:29.998Z</time></trkpt><trkpt lat="43.82455473760526" lon="10.747231689979946"><ele>15.0</ele><time>2026-04-25T08:18:30.998Z</time></trkpt><trkpt lat="43.82454395796985" lon="10.747121187659726"><ele>15.0</ele><time>2026-04-25T08:18:31.998Z</time></trkpt><trkpt lat="43.82453487730948" lon="10.747003659659706"><ele>15.0</ele><time>2026-04-25T08:18:32.998Z</time></trkpt><trkpt lat="43.82451845264411" lon="10.7468928378386"><ele>15.0</ele><time>2026-04-25T08:18:33.998Z</time></trkpt><trkpt lat="43.82450671273812" lon="10.746776023247733"><ele>15.0</ele><time>2026-04-25T08:18:34.998Z</time></trkpt><trkpt lat="43.82449388929977" lon="10.74667225620501"><ele>15.0</ele><time>2026-04-25T08:18:35.998Z</time></trkpt><trkpt lat="43.824483485824196" lon="10.746560155995237"><ele>15.0</ele><time>2026-04-25T08:18:36.998Z</time></trkpt><trkpt lat="43.82447282205422" lon="10.746453020655307"><ele>15.0</ele><time>2026-04-25T08:18:37.998Z</time></trkpt><trkpt lat="43.824456200912586" lon="10.74632566345536"><ele>15.0</ele><time>2026-04-25T08:18:38.998Z</time></trkpt><trkpt lat="43.82444948231453" lon="10.746223896331527"><ele>15.0</ele><time>2026-04-25T08:18:39.998Z</time></trkpt><trkpt lat="43.824433585119614" lon="10.746109943796615"><ele>15.0</ele><time>2026-04-25T08:18:40.998Z</time></trkpt><trkpt lat="43.82442566739239" lon="10.746000806812269"><ele>15.0</ele><time>2026-04-25T08:18:41.998Z</time></trkpt><trkpt lat="43.824411336359034" lon="10.745886973343401"><ele>15.0</ele><time>2026-04-25T08:18:42.998Z</time></trkpt><trkpt lat="43.82439160809207" lon="10.745782322364748"><ele>15.0</ele><time>2026-04-25T08:18:43.998Z</time></trkpt><trkpt lat="43.82437671836248" lon="10.745675977003296"><ele>15.0</ele><time>2026-04-25T08:18:44.998Z</time></trkpt><trkpt lat="43.82437262040802" lon="10.745563556904942"><ele>15.0</ele><time>2026-04-25T08:18:45.998Z</time></trkpt><trkpt lat="43.82435992724642" lon="10.745457141492993"><ele>15.0</ele><time>2026-04-25T08:18:47Z</time></trkpt><trkpt lat="43.8243470456619" lon="10.74534227380433"><ele>15.0</ele><time>2026-04-25T08:18:48Z</time></trkpt><trkpt lat="43.82433267139501" lon="10.745240775588195"><ele>15.0</ele><time>2026-04-25T08:18:49Z</time></trkpt><trkpt lat="43.82431388235773" lon="10.745132423433585"><ele>15.0</ele><time>2026-04-25T08:18:50Z</time></trkpt><trkpt lat="43.824312519575884" lon="10.74502638696157"><ele>15.333333333333334</ele><time>2026-04-25T08:18:51Z</time></trkpt><trkpt lat="43.82430309788194" lon="10.744923989086068"><ele>15.666666666666668</ele><time>2026-04-25T08:18:52Z</time></trkpt><trkpt lat="43.82429470358437" lon="10.744813777852661"><ele>16.0</ele><time>2026-04-25T08:18:53Z</time></trkpt><trkpt lat="43.82427852443081" lon="10.74471360492479"><ele>16.333333333333336</ele><time>2026-04-25T08:18:54Z</time></trkpt><trkpt lat="43.82426631058357" lon="10.744613728292986"><ele>16.666666666666668</ele><time>2026-04-25T08:18:55Z</time></trkpt><trkpt lat="43.824262523345816" lon="10.744503703064028"><ele>17.0</ele><time>2026-04-25T08:18:56Z</time></trkpt><trkpt lat="43.824254874752924" lon="10.744397565076053"><ele>16.833333333333336</ele><time>2026-04-25T08:18:57Z</time></trkpt><trkpt lat="43.82425367039571" lon="10.74429318871182"><ele>16.666666666666668</ele><time>2026-04-25T08:18:58Z</time></trkpt><trkpt lat="43.824237225905975" lon="10.744189024794494"><ele>16.5</ele><time>2026-04-25T08:18:59Z</time></trkpt><trkpt lat="43.82423190145618" lon="10.74408926823059"><ele>16.333333333333332</ele><time>2026-04-25T08:19:00Z</time></trkpt><trkpt lat="43.82421616738935" lon="10.743994220361401"><ele>16.166666666666664</ele><time>2026-04-25T08:19:01Z</time></trkpt><trkpt lat="43.82420693986995" lon="10.743886190379865"><ele>16.0</ele><time>2026-04-25T08:19:02Z</time></trkpt><trkpt lat="43.82419715496578" lon="10.743773643835345"><ele>16.0</ele><time>2026-04-25T08:19:03Z</time></trkpt><trkpt lat="43.824190096073444" lon="10.743671724722509"><ele>15.999999999999998</ele><time>2026-04-25T08:19:04Z</time></trkpt><trkpt lat="43.824173919933024" lon="10.743573656166284"><ele>16.0</ele><time>2026-04-25T08:19:05Z</time></trkpt><trkpt lat="43.82416118885401" lon="10.74346709345028"><ele>16.0</ele><time>2026-04-25T08:19:06Z</time></trkpt><trkpt lat="43.82415054749137" lon="10.74336966792772"><ele>15.999999999999998</ele><time>2026-04-25T08:19:07Z</time></trkpt><trkpt lat="43.8241303265412" lon="10.743266991453684"><ele>16.0</ele><time>2026-04-25T08:19:08Z</time></trkpt><trkpt lat="43.82411692256094" lon="10.743163576203562"><ele>16.0</ele><time>2026-04-25T08:19:09Z</time></trkpt><trkpt lat="43.824105935387685" lon="10.743065371819865"><ele>15.999999999999998</ele><time>2026-04-25T08:19:10Z</time></trkpt><trkpt lat="43.824091618856166" lon="10.742961878658988"><ele>16.0</ele><time>2026-04-25T08:19:11Z</time></trkpt><trkpt lat="43.82407876953246" lon="10.74285998944516"><ele>16.0</ele><time>2026-04-25T08:19:12Z</time></trkpt><trkpt lat="43.82406784829769" lon="10.742754701186437"><ele>16.0</ele><time>2026-04-25T08:19:13Z</time></trkpt><trkpt lat="43.82406047674726" lon="10.74266582582928"><ele>15.999999999999998</ele><time>2026-04-25T08:19:14Z</time></trkpt><trkpt lat="43.82404472088859" lon="10.742555191541427"><ele>16.0</ele><time>2026-04-25T08:19:15Z</time></trkpt><trkpt lat="43.824044750165356" lon="10.742427788204568"><ele>16.2</ele><time>2026-04-25T08:19:16Z</time></trkpt><trkpt lat="43.82404190663512" lon="10.74233097662626"><ele>16.400000000000002</ele><time>2026-04-25T08:19:17Z</time></trkpt><trkpt lat="43.82403099989505" lon="10.742225473864158"><ele>16.6</ele><time>2026-04-25T08:19:18Z</time></trkpt><trkpt lat="43.824014179456285" lon="10.742120269682669"><ele>16.8</ele><time>2026-04-25T08:19:19Z</time></trkpt><trkpt lat="43.82398303767371" lon="10.741915458642271"><ele>17.0</ele><time>2026-04-25T08:19:21Z</time></trkpt><trkpt lat="43.82397747492917" lon="10.74180914482985"><ele>17.166666666666668</ele><time>2026-04-25T08:19:22Z</time></trkpt><trkpt lat="43.82396599056947" lon="10.74169741105387"><ele>17.333333333333336</ele><time>2026-04-25T08:19:23Z</time></trkpt><trkpt lat="43.823950728666496" lon="10.741591892397953"><ele>17.5</ele><time>2026-04-25T08:19:24Z</time></trkpt><trkpt lat="43.82393876240824" lon="10.74148693722148"><ele>17.666666666666668</ele><time>2026-04-25T08:19:25Z</time></trkpt><trkpt lat="43.823932246941325" lon="10.74137794388076"><ele>17.833333333333332</ele><time>2026-04-25T08:19:26Z</time></trkpt><trkpt lat="43.823924696874116" lon="10.741266693774596"><ele>18.0</ele><time>2026-04-25T08:19:27Z</time></trkpt><trkpt lat="43.823916911441835" lon="10.741178369710463"><ele>17.833333333333332</ele><time>2026-04-25T08:19:28Z</time></trkpt><trkpt lat="43.82390553337528" lon="10.74104666424963"><ele>17.666666666666668</ele><time>2026-04-25T08:19:29Z</time></trkpt><trkpt lat="43.823892676693106" lon="10.740933324001837"><ele>17.5</ele><time>2026-04-25T08:19:29.999Z</time></trkpt><trkpt lat="43.82388191215754" lon="10.74083090822136"><ele>17.333333333333336</ele><time>2026-04-25T08:19:30.999Z</time></trkpt><trkpt lat="43.823864899965294" lon="10.740715082265837"><ele>17.166666666666668</ele><time>2026-04-25T08:19:31.999Z</time></trkpt><trkpt lat="43.82384636156201" lon="10.74060133609226"><ele>17.0</ele><time>2026-04-25T08:19:32.999Z</time></trkpt><trkpt lat="43.823832051765656" lon="10.740488549961912"><ele>17.0</ele><time>2026-04-25T08:19:33.999Z</time></trkpt><trkpt lat="43.823823588483386" lon="10.740377380070235"><ele>17.0</ele><time>2026-04-25T08:19:34.999Z</time></trkpt><trkpt lat="43.82381050083762" lon="10.740272564172255"><ele>17.0</ele><time>2026-04-25T08:19:35.999Z</time></trkpt><trkpt lat="43.82380595495165" lon="10.740156841243984"><ele>17.0</ele><time>2026-04-25T08:19:36.999Z</time></trkpt><trkpt lat="43.82379092180295" lon="10.740051579181289"><ele>17.0</ele><time>2026-04-25T08:19:37.999Z</time></trkpt><trkpt lat="43.823777318216294" lon="10.739941523481361"><ele>17.0</ele><time>2026-04-25T08:19:38.999Z</time></trkpt><trkpt lat="43.82376222065299" lon="10.739825916493924"><ele>16.833333333333336</ele><time>2026-04-25T08:19:39.999Z</time></trkpt><trkpt lat="43.82375465751441" lon="10.73971726105815"><ele>16.666666666666668</ele><time>2026-04-25T08:19:40.999Z</time></trkpt><trkpt lat="43.823738250731" lon="10.73960322105206"><ele>16.5</ele><time>2026-04-25T08:19:41.999Z</time></trkpt><trkpt lat="43.82372142694051" lon="10.7394949335675"><ele>16.333333333333332</ele><time>2026-04-25T08:19:42.999Z</time></trkpt><trkpt lat="43.823710684584775" lon="10.739384415399511"><ele>16.166666666666664</ele><time>2026-04-25T08:19:43.999Z</time></trkpt><trkpt lat="43.823693883929266" lon="10.739275595462322"><ele>16.0</ele><time>2026-04-25T08:19:44.999Z</time></trkpt><trkpt lat="43.823686309136455" lon="10.739162027713258"><ele>15.833333333333332</ele><time>2026-04-25T08:19:45.999Z</time></trkpt><trkpt lat="43.823673761450344" lon="10.739052737928704"><ele>15.666666666666666</ele><time>2026-04-25T08:19:46.999Z</time></trkpt><trkpt lat="43.823666332905574" lon="10.738938151061166"><ele>15.5</ele><time>2026-04-25T08:19:47.999Z</time></trkpt><trkpt lat="43.823648726865315" lon="10.73883100958304"><ele>15.333333333333332</ele><time>2026-04-25T08:19:48.999Z</time></trkpt><trkpt lat="43.8236380567508" lon="10.738722085455827"><ele>15.166666666666666</ele><time>2026-04-25T08:19:49.999Z</time></trkpt><trkpt lat="43.82362187199891" lon="10.73861416669456"><ele>15.0</ele><time>2026-04-25T08:19:50.999Z</time></trkpt><trkpt lat="43.823606844560146" lon="10.738505799225955"><ele>15.0</ele><time>2026-04-25T08:19:51.999Z</time></trkpt><trkpt lat="43.82359168011424" lon="10.738394749696946"><ele>15.0</ele><time>2026-04-25T08:19:52.999Z</time></trkpt><trkpt lat="43.82357602758792" lon="10.73828984197578"><ele>15.0</ele><time>2026-04-25T08:19:53.999Z</time></trkpt><trkpt lat="43.82355767707415" lon="10.738178094141343"><ele>15.0</ele><time>2026-04-25T08:19:54.999Z</time></trkpt><trkpt lat="43.82355491919574" lon="10.738064953803667"><ele>15.0</ele><time>2026-04-25T08:19:55.999Z</time></trkpt><trkpt lat="43.82355045118136" lon="10.737957645868038"><ele>15.0</ele><time>2026-04-25T08:19:56.999Z</time></trkpt><trkpt lat="43.823526157044974" lon="10.73784254515875"><ele>15.0</ele><time>2026-04-25T08:19:57.999Z</time></trkpt><trkpt lat="43.8235108735339" lon="10.737721099399145"><ele>15.0</ele><time>2026-04-25T08:19:58.999Z</time></trkpt><trkpt lat="43.82350156803757" lon="10.737613762120873"><ele>15.0</ele><time>2026-04-25T08:19:59.999Z</time></trkpt><trkpt lat="43.82348762665698" lon="10.73751048075258"><ele>15.0</ele><time>2026-04-25T08:20:00.999Z</time></trkpt><trkpt lat="43.823473179117784" lon="10.737397844418616"><ele>15.0</ele><time>2026-04-25T08:20:01.999Z</time></trkpt><trkpt lat="43.823470899438746" lon="10.737295510776992"><ele>15.0</ele><time>2026-04-25T08:20:02.999Z</time></trkpt><trkpt lat="43.82345692555149" lon="10.737179975487674"><ele>14.833333333333334</ele><time>2026-04-25T08:20:03.999Z</time></trkpt><trkpt lat="43.823443245970914" lon="10.737072772260193"><ele>14.666666666666668</ele><time>2026-04-25T08:20:04.999Z</time></trkpt><trkpt lat="43.82343123990572" lon="10.736964875149974"><ele>14.5</ele><time>2026-04-25T08:20:05.999Z</time></trkpt><trkpt lat="43.823419931887244" lon="10.736857232513726"><ele>14.333333333333334</ele><time>2026-04-25T08:20:06.999Z</time></trkpt><trkpt lat="43.82340791588552" lon="10.736745319870568"><ele>14.166666666666668</ele><time>2026-04-25T08:20:07.999Z</time></trkpt><trkpt lat="43.823395513313464" lon="10.736636184285334"><ele>14.0</ele><time>2026-04-25T08:20:08.999Z</time></trkpt><trkpt lat="43.82338227841208" lon="10.736532434416402"><ele>14.000000000000002</ele><time>2026-04-25T08:20:09.999Z</time></trkpt><trkpt lat="43.82337357999563" lon="10.73642202771339"><ele>14.0</ele><time>2026-04-25T08:20:10.999Z</time></trkpt><trkpt lat="43.82336584971841" lon="10.736314328516235"><ele>14.0</ele><time>2026-04-25T08:20:11.999Z</time></trkpt><trkpt lat="43.823357444232684" lon="10.73620942641773"><ele>14.0</ele><time>2026-04-25T08:20:12.999Z</time></trkpt><trkpt lat="43.82334737976348" lon="10.736104042103225"><ele>14.000000000000002</ele><time>2026-04-25T08:20:13.999Z</time></trkpt><trkpt lat="43.823337372152345" lon="10.736000629411162"><ele>14.0</ele><time>2026-04-25T08:20:14.999Z</time></trkpt><trkpt lat="43.8233272484547" lon="10.7358958279929"><ele>14.000000000000002</ele><time>2026-04-25T08:20:15.999Z</time></trkpt><trkpt lat="43.82332463589292" lon="10.73580018115114"><ele>14.0</ele><time>2026-04-25T08:20:16.999Z</time></trkpt><trkpt lat="43.82330935975779" lon="10.735685619586338"><ele>14.0</ele><time>2026-04-25T08:20:17.999Z</time></trkpt><trkpt lat="43.82329769160338" lon="10.735582467512533"><ele>14.0</ele><time>2026-04-25T08:20:18.999Z</time></trkpt><trkpt lat="43.82328592844211" lon="10.735480285865158"><ele>14.000000000000002</ele><time>2026-04-25T08:20:19.999Z</time></trkpt><trkpt lat="43.82327528141975" lon="10.735377437881478"><ele>14.0</ele><time>2026-04-25T08:20:20.999Z</time></trkpt><trkpt lat="43.82326524394981" lon="10.735275859172107"><ele>14.142857142857142</ele><time>2026-04-25T08:20:21.999Z</time></trkpt><trkpt lat="43.823251883349755" lon="10.735173148332834"><ele>14.285714285714285</ele><time>2026-04-25T08:20:22.999Z</time></trkpt><trkpt lat="43.82324150721004" lon="10.735070235669292"><ele>14.428571428571429</ele><time>2026-04-25T08:20:23.999Z</time></trkpt><trkpt lat="43.82323931186959" lon="10.734973391006463"><ele>14.571428571428571</ele><time>2026-04-25T08:20:24.999Z</time></trkpt><trkpt lat="43.82322928164823" lon="10.73487272044745"><ele>14.714285714285714</ele><time>2026-04-25T08:20:25.999Z</time></trkpt><trkpt lat="43.823217454763494" lon="10.734764546073869"><ele>14.857142857142858</ele><time>2026-04-25T08:20:26.999Z</time></trkpt><trkpt lat="43.82320404079967" lon="10.734660039356854"><ele>15.0</ele><time>2026-04-25T08:20:27.999Z</time></trkpt><trkpt lat="43.823169023495815" lon="10.734556051335478"><ele>15.0</ele><time>2026-04-25T08:20:28.999Z</time></trkpt><trkpt lat="43.82316600996718" lon="10.734449057069378"><ele>15.0</ele><time>2026-04-25T08:20:29.998Z</time></trkpt><trkpt lat="43.82316529999977" lon="10.734344218757602"><ele>15.0</ele><time>2026-04-25T08:20:30.998Z</time></trkpt><trkpt lat="43.823156562766286" lon="10.734241983319036"><ele>15.0</ele><time>2026-04-25T08:20:31.998Z</time></trkpt><trkpt lat="43.82314576562671" lon="10.734135460666181"><ele>15.0</ele><time>2026-04-25T08:20:32.998Z</time></trkpt><trkpt lat="43.823135264493224" lon="10.734030501442628"><ele>15.0</ele><time>2026-04-25T08:20:33.998Z</time></trkpt><trkpt lat="43.82312137100945" lon="10.73392728249809"><ele>15.0</ele><time>2026-04-25T08:20:34.998Z</time></trkpt><trkpt lat="43.8231089202421" lon="10.733826113520328"><ele>15.0</ele><time>2026-04-25T08:20:35.998Z</time></trkpt><trkpt lat="43.82309806970635" lon="10.733719321081923"><ele>15.0</ele><time>2026-04-25T08:20:36.998Z</time></trkpt><trkpt lat="43.82308522751112" lon="10.733612576683083"><ele>15.0</ele><time>2026-04-25T08:20:37.998Z</time></trkpt><trkpt lat="43.82307281368627" lon="10.733511459767257"><ele>15.0</ele><time>2026-04-25T08:20:38.998Z</time></trkpt><trkpt lat="43.82306098958383" lon="10.733404454876869"><ele>15.0</ele><time>2026-04-25T08:20:39.998Z</time></trkpt><trkpt lat="43.82305523260185" lon="10.733299111374661"><ele>15.0</ele><time>2026-04-25T08:20:40.998Z</time></trkpt><trkpt lat="43.8230471916061" lon="10.733191929306722"><ele>15.0</ele><time>2026-04-25T08:20:41.998Z</time></trkpt><trkpt lat="43.82303528058532" lon="10.733083825663472"><ele>15.0</ele><time>2026-04-25T08:20:42.998Z</time></trkpt><trkpt lat="43.82302169141322" lon="10.732984172577185"><ele>15.0</ele><time>2026-04-25T08:20:43.998Z</time></trkpt><trkpt lat="43.823008304121196" lon="10.7328822103285"><ele>15.0</ele><time>2026-04-25T08:20:44.998Z</time></trkpt><trkpt lat="43.82299894160804" lon="10.732792514472072"><ele>15.0</ele><time>2026-04-25T08:20:45.998Z</time></trkpt><trkpt lat="43.82302059269229" lon="10.732648053813039"><ele>15.0</ele><time>2026-04-25T08:20:47.998Z</time></trkpt><trkpt lat="43.823084983423335" lon="10.73260352317846"><ele>15.0</ele><time>2026-04-25T08:20:48.998Z</time></trkpt><trkpt lat="43.823163209538286" lon="10.732580411780724"><ele>15.0</ele><time>2026-04-25T08:20:49.998Z</time></trkpt><trkpt lat="43.823240077577374" lon="10.732563937362244"><ele>15.0</ele><time>2026-04-25T08:20:50.998Z</time></trkpt><trkpt lat="43.82332084814332" lon="10.732547808094298"><ele>15.0</ele><time>2026-04-25T08:20:51.998Z</time></trkpt><trkpt lat="43.82338400082225" lon="10.732510613182807"><ele>15.0</ele><time>2026-04-25T08:20:53Z</time></trkpt><trkpt lat="43.82345606377536" lon="10.732489517867243"><ele>14.833333333333334</ele><time>2026-04-25T08:20:54Z</time></trkpt><trkpt lat="43.82353030394891" lon="10.73246495996712"><ele>14.666666666666668</ele><time>2026-04-25T08:20:55Z</time></trkpt><trkpt lat="43.82360123559793" lon="10.73242517364715"><ele>14.5</ele><time>2026-04-25T08:20:56Z</time></trkpt><trkpt lat="43.823671386451934" lon="10.732398856011441"><ele>14.333333333333334</ele><time>2026-04-25T08:20:57Z</time></trkpt><trkpt lat="43.82374603850146" lon="10.732371095479818"><ele>14.166666666666668</ele><time>2026-04-25T08:20:58Z</time></trkpt><trkpt lat="43.82381771183963" lon="10.73234179407159"><ele>14.0</ele><time>2026-04-25T08:20:59Z</time></trkpt><trkpt lat="43.823887862660634" lon="10.732311424725944"><ele>14.0</ele><time>2026-04-25T08:21:00Z</time></trkpt><trkpt lat="43.82395872855881" lon="10.732281026980164"><ele>14.0</ele><time>2026-04-25T08:21:01Z</time></trkpt><trkpt lat="43.82403145319021" lon="10.732241964673964"><ele>14.0</ele><time>2026-04-25T08:21:02Z</time></trkpt><trkpt lat="43.824100272365925" lon="10.732211844620535"><ele>14.0</ele><time>2026-04-25T08:21:03Z</time></trkpt><trkpt lat="43.824169667417024" lon="10.73217832116143"><ele>14.0</ele><time>2026-04-25T08:21:04Z</time></trkpt><trkpt lat="43.82423847033044" lon="10.732148054292091"><ele>14.0</ele><time>2026-04-25T08:21:05Z</time></trkpt><trkpt lat="43.82431078512882" lon="10.732126948066263"><ele>14.0</ele><time>2026-04-25T08:21:06Z</time></trkpt><trkpt lat="43.82438285555187" lon="10.732112068017209"><ele>14.285714285714285</ele><time>2026-04-25T08:21:07Z</time></trkpt><trkpt lat="43.82445628455981" lon="10.732084669872341"><ele>14.571428571428571</ele><time>2026-04-25T08:21:08Z</time></trkpt><trkpt lat="43.82452565771902" lon="10.732047223246973"><ele>14.857142857142858</ele><time>2026-04-25T08:21:09Z</time></trkpt><trkpt lat="43.82459581025443" lon="10.732016195041393"><ele>15.142857142857142</ele><time>2026-04-25T08:21:10Z</time></trkpt><trkpt lat="43.82466634812458" lon="10.731984849452378"><ele>15.428571428571427</ele><time>2026-04-25T08:21:11Z</time></trkpt><trkpt lat="43.82473778790182" lon="10.731957763036181"><ele>15.714285714285714</ele><time>2026-04-25T08:21:12Z</time></trkpt><trkpt lat="43.82480791051824" lon="10.731930303932904"><ele>16.0</ele><time>2026-04-25T08:21:13Z</time></trkpt><trkpt lat="43.824879638787046" lon="10.731901325966094"><ele>16.0</ele><time>2026-04-25T08:21:14Z</time></trkpt><trkpt lat="43.824954005737965" lon="10.731868272830772"><ele>15.999999999999998</ele><time>2026-04-25T08:21:15Z</time></trkpt><trkpt lat="43.82501872971414" lon="10.731841093766564"><ele>16.0</ele><time>2026-04-25T08:21:16Z</time></trkpt><trkpt lat="43.82509528446253" lon="10.73182175261678"><ele>16.0</ele><time>2026-04-25T08:21:17Z</time></trkpt><trkpt lat="43.82516889104408" lon="10.731805931817664"><ele>15.999999999999998</ele><time>2026-04-25T08:21:18Z</time></trkpt><trkpt lat="43.82524148554939" lon="10.731786701362484"><ele>16.0</ele><time>2026-04-25T08:21:19Z</time></trkpt><trkpt lat="43.82531297333313" lon="10.731772113583695"><ele>16.0</ele><time>2026-04-25T08:21:20Z</time></trkpt><trkpt lat="43.82538864494196" lon="10.731756136602034"><ele>15.857142857142856</ele><time>2026-04-25T08:21:21Z</time></trkpt><trkpt lat="43.825459070458734" lon="10.731740380229114"><ele>15.714285714285712</ele><time>2026-04-25T08:21:22Z</time></trkpt><trkpt lat="43.82553168975411" lon="10.731721342356309"><ele>15.571428571428571</ele><time>2026-04-25T08:21:23Z</time></trkpt><trkpt lat="43.82560251945296" lon="10.731701540198634"><ele>15.428571428571427</ele><time>2026-04-25T08:21:24Z</time></trkpt><trkpt lat="43.82567240643674" lon="10.73168468310005"><ele>15.285714285714285</ele><time>2026-04-25T08:21:25Z</time></trkpt><trkpt lat="43.825743500895825" lon="10.731670909898128"><ele>15.142857142857142</ele><time>2026-04-25T08:21:26Z</time></trkpt><trkpt lat="43.8258169232249" lon="10.73165744366665"><ele>15.0</ele><time>2026-04-25T08:21:27Z</time></trkpt><trkpt lat="43.8258843690161" lon="10.731643848441966"><ele>15.0</ele><time>2026-04-25T08:21:28Z</time></trkpt><trkpt lat="43.82595868433199" lon="10.731619535662865"><ele>15.0</ele><time>2026-04-25T08:21:29Z</time></trkpt><trkpt lat="43.82603000403016" lon="10.73160465267712"><ele>15.0</ele><time>2026-04-25T08:21:30Z</time></trkpt><trkpt lat="43.82609884531047" lon="10.731583341982342"><ele>15.0</ele><time>2026-04-25T08:21:31Z</time></trkpt><trkpt lat="43.8261698682708" lon="10.731559195977196"><ele>15.0</ele><time>2026-04-25T08:21:32Z</time></trkpt><trkpt lat="43.82624209809991" lon="10.73154247424116"><ele>15.0</ele><time>2026-04-25T08:21:32.999Z</time></trkpt><trkpt lat="43.826314193331264" lon="10.7315238353082"><ele>15.0</ele><time>2026-04-25T08:21:33.999Z</time></trkpt><trkpt lat="43.826387776916455" lon="10.731494522292095"><ele>15.166666666666666</ele><time>2026-04-25T08:21:34.999Z</time></trkpt><trkpt lat="43.82646178623615" lon="10.731468838233388"><ele>15.333333333333332</ele><time>2026-04-25T08:21:35.999Z</time></trkpt><trkpt lat="43.82653799595265" lon="10.7314409135729"><ele>15.5</ele><time>2026-04-25T08:21:36.999Z</time></trkpt><trkpt lat="43.82660979092464" lon="10.731410286410275"><ele>15.666666666666666</ele><time>2026-04-25T08:21:37.999Z</time></trkpt><trkpt lat="43.82667800255063" lon="10.731379683994314"><ele>15.833333333333332</ele><time>2026-04-25T08:21:38.999Z</time></trkpt><trkpt lat="43.826755697721644" lon="10.731349239595925"><ele>16.0</ele><time>2026-04-25T08:21:39.999Z</time></trkpt><trkpt lat="43.826828439714205" lon="10.731323176804672"><ele>15.666666666666666</ele><time>2026-04-25T08:21:40.999Z</time></trkpt><trkpt lat="43.82690495720213" lon="10.73130392442633"><ele>15.333333333333332</ele><time>2026-04-25T08:21:41.999Z</time></trkpt><trkpt lat="43.82698063630905" lon="10.731284325505674"><ele>15.0</ele><time>2026-04-25T08:21:42.999Z</time></trkpt><trkpt lat="43.82705593846563" lon="10.731262303586496"><ele>14.666666666666668</ele><time>2026-04-25T08:21:43.999Z</time></trkpt><trkpt lat="43.82712694623423" lon="10.731232403216389"><ele>14.333333333333334</ele><time>2026-04-25T08:21:44.999Z</time></trkpt><trkpt lat="43.8271973950371" lon="10.73119749014229"><ele>14.0</ele><time>2026-04-25T08:21:45.999Z</time></trkpt><trkpt lat="43.82727109696867" lon="10.731175562659192"><ele>14.000000000000002</ele><time>2026-04-25T08:21:46.999Z</time></trkpt><trkpt lat="43.82734373023113" lon="10.731153063092451"><ele>14.0</ele><time>2026-04-25T08:21:47.999Z</time></trkpt><trkpt lat="43.827417354815964" lon="10.731128546235487"><ele>14.0</ele><time>2026-04-25T08:21:48.999Z</time></trkpt><trkpt lat="43.827493531027024" lon="10.731114869892066"><ele>14.0</ele><time>2026-04-25T08:21:49.999Z</time></trkpt><trkpt lat="43.82756770179817" lon="10.731102661545059"><ele>14.000000000000002</ele><time>2026-04-25T08:21:50.999Z</time></trkpt><trkpt lat="43.82764495576982" lon="10.731081043382913"><ele>14.0</ele><time>2026-04-25T08:21:51.999Z</time></trkpt><trkpt lat="43.827717389066045" lon="10.731050369783054"><ele>14.333333333333334</ele><time>2026-04-25T08:21:52.999Z</time></trkpt><trkpt lat="43.82779639990523" lon="10.731019397793409"><ele>14.666666666666668</ele><time>2026-04-25T08:21:53.999Z</time></trkpt><trkpt lat="43.827871573070205" lon="10.730992481620987"><ele>15.0</ele><time>2026-04-25T08:21:54.999Z</time></trkpt><trkpt lat="43.82794886201802" lon="10.730972838069567"><ele>15.333333333333332</ele><time>2026-04-25T08:21:55.999Z</time></trkpt><trkpt lat="43.82802585556826" lon="10.730956528264374"><ele>15.666666666666666</ele><time>2026-04-25T08:21:56.999Z</time></trkpt><trkpt lat="43.828103984399796" lon="10.73093891844544"><ele>16.0</ele><time>2026-04-25T08:21:57.999Z</time></trkpt><trkpt lat="43.82818222447149" lon="10.730914491940295"><ele>15.999999999999998</ele><time>2026-04-25T08:21:58.999Z</time></trkpt><trkpt lat="43.82826002723166" lon="10.73088432589225"><ele>16.0</ele><time>2026-04-25T08:21:59.999Z</time></trkpt><trkpt lat="43.8283380397444" lon="10.730851831713315"><ele>16.0</ele><time>2026-04-25T08:22:00.999Z</time></trkpt><trkpt lat="43.828417157853714" lon="10.730827647215392"><ele>16.0</ele><time>2026-04-25T08:22:01.999Z</time></trkpt><trkpt lat="43.82849479246685" lon="10.730801970623945"><ele>15.999999999999998</ele><time>2026-04-25T08:22:02.999Z</time></trkpt><trkpt lat="43.82857463488273" lon="10.7307820777177"><ele>16.0</ele><time>2026-04-25T08:22:03.999Z</time></trkpt><trkpt lat="43.82865038368768" lon="10.730763210485794"><ele>16.333333333333332</ele><time>2026-04-25T08:22:04.999Z</time></trkpt><trkpt lat="43.828729759992356" lon="10.730735371275557"><ele>16.666666666666664</ele><time>2026-04-25T08:22:05.999Z</time></trkpt><trkpt lat="43.82880636494374" lon="10.730712639429209"><ele>17.0</ele><time>2026-04-25T08:22:06.999Z</time></trkpt><trkpt lat="43.82888414496598" lon="10.730693172685761"><ele>17.333333333333332</ele><time>2026-04-25T08:22:07.999Z</time></trkpt><trkpt lat="43.82896164498622" lon="10.730670701282817"><ele>17.666666666666668</ele><time>2026-04-25T08:22:08.999Z</time></trkpt><trkpt lat="43.82903793226628" lon="10.730652510383473"><ele>18.0</ele><time>2026-04-25T08:22:09.999Z</time></trkpt><trkpt lat="43.829116132320145" lon="10.730634531715328"><ele>18.0</ele><time>2026-04-25T08:22:10.999Z</time></trkpt><trkpt lat="43.829194274408636" lon="10.730611114288202"><ele>18.0</ele><time>2026-04-25T08:22:11.999Z</time></trkpt><trkpt lat="43.82926802999296" lon="10.730580222782695"><ele>18.0</ele><time>2026-04-25T08:22:12.999Z</time></trkpt><trkpt lat="43.82934243500086" lon="10.730542813190832"><ele>18.0</ele><time>2026-04-25T08:22:13.999Z</time></trkpt><trkpt lat="43.82941533345203" lon="10.730509189098074"><ele>18.0</ele><time>2026-04-25T08:22:14.999Z</time></trkpt><trkpt lat="43.829490788243355" lon="10.73048662303926"><ele>18.0</ele><time>2026-04-25T08:22:15.999Z</time></trkpt><trkpt lat="43.82956582111433" lon="10.730473959333985"><ele>18.166666666666668</ele><time>2026-04-25T08:22:16.999Z</time></trkpt><trkpt lat="43.829636917043544" lon="10.730452299107771"><ele>18.333333333333332</ele><time>2026-04-25T08:22:17.999Z</time></trkpt><trkpt lat="43.829688216095484" lon="10.730394037775746"><ele>18.5</ele><time>2026-04-25T08:22:18.999Z</time></trkpt><trkpt lat="43.82970140617169" lon="10.730300682846616"><ele>18.666666666666664</ele><time>2026-04-25T08:22:19.999Z</time></trkpt><trkpt lat="43.829671074411614" lon="10.730208023772677"><ele>18.833333333333332</ele><time>2026-04-25T08:22:20.999Z</time></trkpt><trkpt lat="43.829626606514395" lon="10.7301347406916"><ele>19.0</ele><time>2026-04-25T08:22:21.999Z</time></trkpt><trkpt lat="43.82956940955415" lon="10.729986680065057"><ele>19.0</ele><time>2026-04-25T08:22:23.999Z</time></trkpt><trkpt lat="43.829547488828695" lon="10.729900520006996"><ele>19.0</ele><time>2026-04-25T08:22:24.999Z</time></trkpt><trkpt lat="43.82952705058128" lon="10.729812345821234"><ele>19.0</ele><time>2026-04-25T08:22:25.999Z</time></trkpt><trkpt lat="43.8295037198325" lon="10.729723250594652"><ele>19.0</ele><time>2026-04-25T08:22:26.999Z</time></trkpt><trkpt lat="43.829476267233105" lon="10.729633991954985"><ele>19.0</ele><time>2026-04-25T08:22:27.999Z</time></trkpt><trkpt lat="43.82945079613362" lon="10.729543599566282"><ele>19.0</ele><time>2026-04-25T08:22:28.999Z</time></trkpt><trkpt lat="43.82942988638163" lon="10.729449255734366"><ele>19.0</ele><time>2026-04-25T08:22:29.999Z</time></trkpt><trkpt lat="43.82940509593846" lon="10.729357414785294"><ele>19.0</ele><time>2026-04-25T08:22:30.999Z</time></trkpt><trkpt lat="43.82937963268215" lon="10.729264925456333"><ele>19.0</ele><time>2026-04-25T08:22:31.999Z</time></trkpt><trkpt lat="43.82935534981882" lon="10.729175860785066"><ele>19.0</ele><time>2026-04-25T08:22:32.999Z</time></trkpt><trkpt lat="43.82933173581497" lon="10.72907666302967"><ele>19.0</ele><time>2026-04-25T08:22:33.998Z</time></trkpt><trkpt lat="43.829308662976985" lon="10.728982332788698"><ele>19.0</ele><time>2026-04-25T08:22:34.998Z</time></trkpt><trkpt lat="43.82928389735191" lon="10.728887406425569"><ele>19.0</ele><time>2026-04-25T08:22:35.998Z</time></trkpt><trkpt lat="43.829259929045826" lon="10.728790281479409"><ele>19.0</ele><time>2026-04-25T08:22:36.998Z</time></trkpt><trkpt lat="43.829233357083396" lon="10.728695857613054"><ele>18.71428571428571</ele><time>2026-04-25T08:22:37.998Z</time></trkpt><trkpt lat="43.8292050461909" lon="10.72860130411929"><ele>18.42857142857143</ele><time>2026-04-25T08:22:38.998Z</time></trkpt><trkpt lat="43.82917609123718" lon="10.72850414408613"><ele>18.142857142857142</ele><time>2026-04-25T08:22:39.998Z</time></trkpt><trkpt lat="43.82914188353551" lon="10.72841369497928"><ele>17.857142857142854</ele><time>2026-04-25T08:22:40.998Z</time></trkpt><trkpt lat="43.82911167876929" lon="10.728318996762619"><ele>17.57142857142857</ele><time>2026-04-25T08:22:41.998Z</time></trkpt><trkpt lat="43.82908549404669" lon="10.728225709686555"><ele>17.285714285714285</ele><time>2026-04-25T08:22:42.998Z</time></trkpt><trkpt lat="43.829057633075564" lon="10.728131309189036"><ele>17.0</ele><time>2026-04-25T08:22:43.998Z</time></trkpt><trkpt lat="43.829029108351975" lon="10.728037750061374"><ele>17.0</ele><time>2026-04-25T08:22:44.998Z</time></trkpt><trkpt lat="43.82900059269971" lon="10.727942391970913"><ele>17.0</ele><time>2026-04-25T08:22:45.998Z</time></trkpt><trkpt lat="43.8289794573938" lon="10.72784316925986"><ele>17.0</ele><time>2026-04-25T08:22:46.998Z</time></trkpt><trkpt lat="43.828959369723734" lon="10.727740799390158"><ele>17.0</ele><time>2026-04-25T08:22:47.998Z</time></trkpt><trkpt lat="43.828934503344364" lon="10.72764181069528"><ele>17.0</ele><time>2026-04-25T08:22:48.998Z</time></trkpt><trkpt lat="43.828904799955936" lon="10.727543785685723"><ele>17.0</ele><time>2026-04-25T08:22:49.998Z</time></trkpt><trkpt lat="43.82887775758884" lon="10.72744626914715"><ele>16.833333333333336</ele><time>2026-04-25T08:22:50.998Z</time></trkpt><trkpt lat="43.8288484514691" lon="10.72734809995718"><ele>16.666666666666668</ele><time>2026-04-25T08:22:51.998Z</time></trkpt><trkpt lat="43.82881437124123" lon="10.727251848139307"><ele>16.5</ele><time>2026-04-25T08:22:52.998Z</time></trkpt><trkpt lat="43.8287854730933" lon="10.727153776067965"><ele>16.333333333333332</ele><time>2026-04-25T08:22:53.998Z</time></trkpt><trkpt lat="43.82875892222589" lon="10.72705434802695"><ele>16.166666666666664</ele><time>2026-04-25T08:22:54.998Z</time></trkpt><trkpt lat="43.828733222695774" lon="10.726958062846752"><ele>16.0</ele><time>2026-04-25T08:22:55.998Z</time></trkpt><trkpt lat="43.82870342301309" lon="10.726858868631231"><ele>15.999999999999998</ele><time>2026-04-25T08:22:56.998Z</time></trkpt><trkpt lat="43.82867206872127" lon="10.726763611675514"><ele>16.0</ele><time>2026-04-25T08:22:57.998Z</time></trkpt><trkpt lat="43.82863901126142" lon="10.72666766861186"><ele>16.0</ele><time>2026-04-25T08:22:59Z</time></trkpt><trkpt lat="43.82860732508438" lon="10.726576297753539"><ele>16.0</ele><time>2026-04-25T08:23:00Z</time></trkpt><trkpt lat="43.82856916734172" lon="10.726476491559373"><ele>15.999999999999998</ele><time>2026-04-25T08:23:01Z</time></trkpt><trkpt lat="43.82852361356164" lon="10.726390958157332"><ele>16.0</ele><time>2026-04-25T08:23:02Z</time></trkpt><trkpt lat="43.82847321021979" lon="10.726307855896325"><ele>16.166666666666664</ele><time>2026-04-25T08:23:03Z</time></trkpt><trkpt lat="43.82842324914966" lon="10.726226944595401"><ele>16.333333333333332</ele><time>2026-04-25T08:23:04Z</time></trkpt><trkpt lat="43.82837465017049" lon="10.726145473054078"><ele>16.5</ele><time>2026-04-25T08:23:05Z</time></trkpt><trkpt lat="43.82831276536309" lon="10.72607180404331"><ele>16.666666666666668</ele><time>2026-04-25T08:23:06Z</time></trkpt><trkpt lat="43.82825368783255" lon="10.72600270653868"><ele>16.833333333333336</ele><time>2026-04-25T08:23:07Z</time></trkpt><trkpt lat="43.828197706638655" lon="10.725927694386398"><ele>17.0</ele><time>2026-04-25T08:23:08Z</time></trkpt><trkpt lat="43.828144236440046" lon="10.725851281397086"><ele>17.333333333333336</ele><time>2026-04-25T08:23:09Z</time></trkpt><trkpt lat="43.828094411216384" lon="10.725777732647694"><ele>17.666666666666668</ele><time>2026-04-25T08:23:10Z</time></trkpt><trkpt lat="43.82804072218967" lon="10.725698510699432"><ele>18.0</ele><time>2026-04-25T08:23:11Z</time></trkpt><trkpt lat="43.827988688526" lon="10.725625093661467"><ele>18.333333333333332</ele><time>2026-04-25T08:23:12Z</time></trkpt><trkpt lat="43.8279308397179" lon="10.725551462211769"><ele>18.666666666666664</ele><time>2026-04-25T08:23:13Z</time></trkpt><trkpt lat="43.827875668440704" lon="10.72548058955934"><ele>19.0</ele><time>2026-04-25T08:23:14Z</time></trkpt><trkpt lat="43.82782714611578" lon="10.72540137848047"><ele>19.0</ele><time>2026-04-25T08:23:15Z</time></trkpt><trkpt lat="43.827783677608245" lon="10.725313197973247"><ele>19.0</ele><time>2026-04-25T08:23:16Z</time></trkpt><trkpt lat="43.827735170964786" lon="10.72522731123291"><ele>19.0</ele><time>2026-04-25T08:23:17Z</time></trkpt><trkpt lat="43.82769191358333" lon="10.725136189940297"><ele>19.0</ele><time>2026-04-25T08:23:18Z</time></trkpt><trkpt lat="43.82765501072979" lon="10.725041616709142"><ele>19.0</ele><time>2026-04-25T08:23:19Z</time></trkpt><trkpt lat="43.82762079710607" lon="10.724939583735443"><ele>19.0</ele><time>2026-04-25T08:23:20Z</time></trkpt><trkpt lat="43.8275823727923" lon="10.72484896321126"><ele>19.0</ele><time>2026-04-25T08:23:21Z</time></trkpt><trkpt lat="43.82754834613012" lon="10.724753790307538"><ele>19.0</ele><time>2026-04-25T08:23:22Z</time></trkpt><trkpt lat="43.827508649291026" lon="10.72466135204086"><ele>19.0</ele><time>2026-04-25T08:23:23Z</time></trkpt><trkpt lat="43.827462092412496" lon="10.724576359623057"><ele>19.0</ele><time>2026-04-25T08:23:24Z</time></trkpt><trkpt lat="43.82742852904047" lon="10.724489998047671"><ele>19.0</ele><time>2026-04-25T08:23:25Z</time></trkpt><trkpt lat="43.82739336151042" lon="10.724350109671997"><ele>19.0</ele><time>2026-04-25T08:23:27Z</time></trkpt><trkpt lat="43.82733599389858" lon="10.724232983879064"><ele>19.0</ele><time>2026-04-25T08:23:30Z</time></trkpt><trkpt lat="43.82730158450894" lon="10.724094993765522"><ele>19.0</ele><time>2026-04-25T08:23:32Z</time></trkpt><trkpt lat="43.827240751095445" lon="10.72395100216459"><ele>19.0</ele><time>2026-04-25T08:23:34Z</time></trkpt><trkpt lat="43.827205529042715" lon="10.723876341543372"><ele>19.0</ele><time>2026-04-25T08:23:35Z</time></trkpt><trkpt lat="43.827172957406155" lon="10.723796097971245"><ele>19.0</ele><time>2026-04-25T08:23:36Z</time></trkpt><trkpt lat="43.82714239926904" lon="10.72371190648837"><ele>19.0</ele><time>2026-04-25T08:23:36.999Z</time></trkpt><trkpt lat="43.827119385376996" lon="10.723620635908832"><ele>18.71428571428571</ele><time>2026-04-25T08:23:37.999Z</time></trkpt><trkpt lat="43.827087952789" lon="10.723536323056585"><ele>18.42857142857143</ele><time>2026-04-25T08:23:38.999Z</time></trkpt><trkpt lat="43.827054235030836" lon="10.723454362919032"><ele>18.142857142857142</ele><time>2026-04-25T08:23:39.999Z</time></trkpt><trkpt lat="43.82702211835183" lon="10.723371338449024"><ele>17.857142857142854</ele><time>2026-04-25T08:23:40.999Z</time></trkpt><trkpt lat="43.8269921150633" lon="10.723290377626855"><ele>17.57142857142857</ele><time>2026-04-25T08:23:41.999Z</time></trkpt><trkpt lat="43.826961936897845" lon="10.723201017320907"><ele>17.285714285714285</ele><time>2026-04-25T08:23:42.999Z</time></trkpt><trkpt lat="43.82693097184397" lon="10.723115983084623"><ele>17.0</ele><time>2026-04-25T08:23:43.999Z</time></trkpt><trkpt lat="43.826901346713306" lon="10.723028762825292"><ele>17.0</ele><time>2026-04-25T08:23:44.999Z</time></trkpt><trkpt lat="43.826873760858135" lon="10.722940778605656"><ele>17.0</ele><time>2026-04-25T08:23:45.999Z</time></trkpt><trkpt lat="43.82684114464754" lon="10.722858113809325"><ele>17.0</ele><time>2026-04-25T08:23:46.999Z</time></trkpt><trkpt lat="43.826817353338505" lon="10.722773893783726"><ele>17.0</ele><time>2026-04-25T08:23:47.999Z</time></trkpt><trkpt lat="43.82677393798392" lon="10.722617463692455"><ele>17.0</ele><time>2026-04-25T08:23:49.999Z</time></trkpt><trkpt lat="43.82671652958671" lon="10.722462196880956"><ele>17.0</ele><time>2026-04-25T08:23:51.999Z</time></trkpt><trkpt lat="43.82669403948344" lon="10.722372517111426"><ele>17.285714285714285</ele><time>2026-04-25T08:23:52.999Z</time></trkpt><trkpt lat="43.826669643270776" lon="10.722279658925725"><ele>17.57142857142857</ele><time>2026-04-25T08:23:53.999Z</time></trkpt><trkpt lat="43.82665386463497" lon="10.722177667032001"><ele>17.857142857142854</ele><time>2026-04-25T08:23:54.999Z</time></trkpt><trkpt lat="43.826636874894646" lon="10.722078638348112"><ele>18.142857142857142</ele><time>2026-04-25T08:23:55.999Z</time></trkpt><trkpt lat="43.82662425107825" lon="10.72197626841587"><ele>18.42857142857143</ele><time>2026-04-25T08:23:56.999Z</time></trkpt><trkpt lat="43.82661249840586" lon="10.72187318348874"><ele>18.71428571428571</ele><time>2026-04-25T08:23:57.999Z</time></trkpt><trkpt lat="43.8266022068385" lon="10.721768482801954"><ele>19.0</ele><time>2026-04-25T08:23:58.999Z</time></trkpt><trkpt lat="43.826593770867" lon="10.721670274958308"><ele>19.0</ele><time>2026-04-25T08:23:59.999Z</time></trkpt><trkpt lat="43.826592650323114" lon="10.721568984599513"><ele>19.0</ele><time>2026-04-25T08:24:00.999Z</time></trkpt><trkpt lat="43.8265960426199" lon="10.721466178041585"><ele>19.0</ele><time>2026-04-25T08:24:01.999Z</time></trkpt><trkpt lat="43.82659613183547" lon="10.721366239801624"><ele>19.0</ele><time>2026-04-25T08:24:02.999Z</time></trkpt><trkpt lat="43.82659647963161" lon="10.72126197305818"><ele>19.0</ele><time>2026-04-25T08:24:03.999Z</time></trkpt><trkpt lat="43.82659535594639" lon="10.721164563682839"><ele>19.0</ele><time>2026-04-25T08:24:04.999Z</time></trkpt><trkpt lat="43.82659621885717" lon="10.721064778680041"><ele>19.0</ele><time>2026-04-25T08:24:05.999Z</time></trkpt><trkpt lat="43.82659602384015" lon="10.720964750634613"><ele>19.0</ele><time>2026-04-25T08:24:06.999Z</time></trkpt><trkpt lat="43.82659076248639" lon="10.720865490420673"><ele>19.0</ele><time>2026-04-25T08:24:07.999Z</time></trkpt><trkpt lat="43.8265857522239" lon="10.72076768284006"><ele>19.0</ele><time>2026-04-25T08:24:08.999Z</time></trkpt><trkpt lat="43.82658612667431" lon="10.720665767660709"><ele>19.0</ele><time>2026-04-25T08:24:09.999Z</time></trkpt><trkpt lat="43.826589235987875" lon="10.720567372527885"><ele>19.0</ele><time>2026-04-25T08:24:10.999Z</time></trkpt><trkpt lat="43.826588122190486" lon="10.720464795197579"><ele>19.0</ele><time>2026-04-25T08:24:11.999Z</time></trkpt><trkpt lat="43.82658420807909" lon="10.720366457949908"><ele>19.0</ele><time>2026-04-25T08:24:12.999Z</time></trkpt><trkpt lat="43.8265797671731" lon="10.720262274811548"><ele>18.71428571428571</ele><time>2026-04-25T08:24:13.999Z</time></trkpt><trkpt lat="43.82657923269431" lon="10.720160387516325"><ele>18.42857142857143</ele><time>2026-04-25T08:24:14.999Z</time></trkpt><trkpt lat="43.82658032934521" lon="10.720057443246578"><ele>18.142857142857142</ele><time>2026-04-25T08:24:15.999Z</time></trkpt><trkpt lat="43.82658070021415" lon="10.719953934875292"><ele>17.857142857142854</ele><time>2026-04-25T08:24:16.999Z</time></trkpt><trkpt lat="43.826580025997586" lon="10.719849108478758"><ele>17.57142857142857</ele><time>2026-04-25T08:24:17.999Z</time></trkpt><trkpt lat="43.82658267660279" lon="10.719744543001651"><ele>17.285714285714285</ele><time>2026-04-25T08:24:18.999Z</time></trkpt><trkpt lat="43.82658314428072" lon="10.719640041383977"><ele>17.0</ele><time>2026-04-25T08:24:19.999Z</time></trkpt><trkpt lat="43.826580552142005" lon="10.71953772503964"><ele>17.0</ele><time>2026-04-25T08:24:20.999Z</time></trkpt><trkpt lat="43.82658150399182" lon="10.719434279728965"><ele>17.0</ele><time>2026-04-25T08:24:21.999Z</time></trkpt><trkpt lat="43.82657999981348" lon="10.719327858884284"><ele>17.0</ele><time>2026-04-25T08:24:22.999Z</time></trkpt><trkpt lat="43.826580988760924" lon="10.719221066742772"><ele>17.0</ele><time>2026-04-25T08:24:23.999Z</time></trkpt><trkpt lat="43.82658095078576" lon="10.719116123815056"><ele>17.0</ele><time>2026-04-25T08:24:24.999Z</time></trkpt><trkpt lat="43.82658072065256" lon="10.719009046037748"><ele>17.0</ele><time>2026-04-25T08:24:25.999Z</time></trkpt><trkpt lat="43.82658224513928" lon="10.718903704237059"><ele>17.0</ele><time>2026-04-25T08:24:26.999Z</time></trkpt><trkpt lat="43.826579151890776" lon="10.718797469975025"><ele>17.0</ele><time>2026-04-25T08:24:27.999Z</time></trkpt><trkpt lat="43.826578423107314" lon="10.718693890380246"><ele>17.0</ele><time>2026-04-25T08:24:28.999Z</time></trkpt><trkpt lat="43.82657636528905" lon="10.7185846564337"><ele>17.0</ele><time>2026-04-25T08:24:29.999Z</time></trkpt><trkpt lat="43.82657572491812" lon="10.718479606109094"><ele>17.0</ele><time>2026-04-25T08:24:30.999Z</time></trkpt><trkpt lat="43.82657271096448" lon="10.718377813982437"><ele>17.0</ele><time>2026-04-25T08:24:31.999Z</time></trkpt><trkpt lat="43.8265749524977" lon="10.71826730629023"><ele>17.0</ele><time>2026-04-25T08:24:32.999Z</time></trkpt><trkpt lat="43.826575279756064" lon="10.718165197736482"><ele>17.0</ele><time>2026-04-25T08:24:33.999Z</time></trkpt><trkpt lat="43.82657440985288" lon="10.718056017435934"><ele>17.0</ele><time>2026-04-25T08:24:34.999Z</time></trkpt><trkpt lat="43.82657461641094" lon="10.717951470359223"><ele>17.0</ele><time>2026-04-25T08:24:35.999Z</time></trkpt><trkpt lat="43.82657678382936" lon="10.717840869338016"><ele>17.0</ele><time>2026-04-25T08:24:36.999Z</time></trkpt><trkpt lat="43.82657650271391" lon="10.717733486775524"><ele>17.0</ele><time>2026-04-25T08:24:37.998Z</time></trkpt><trkpt lat="43.82657812010854" lon="10.717630093293405"><ele>17.0</ele><time>2026-04-25T08:24:38.998Z</time></trkpt><trkpt lat="43.82657548386006" lon="10.71752172444354"><ele>17.0</ele><time>2026-04-25T08:24:39.998Z</time></trkpt><trkpt lat="43.826572827428265" lon="10.717419367298158"><ele>17.0</ele><time>2026-04-25T08:24:40.998Z</time></trkpt><trkpt lat="43.82657259962632" lon="10.717316345644056"><ele>17.0</ele><time>2026-04-25T08:24:41.998Z</time></trkpt><trkpt lat="43.82657266233636" lon="10.717207401754115"><ele>17.0</ele><time>2026-04-25T08:24:42.998Z</time></trkpt><trkpt lat="43.826574127875524" lon="10.717101313435927"><ele>17.0</ele><time>2026-04-25T08:24:43.998Z</time></trkpt><trkpt lat="43.82657098330343" lon="10.716998469216968"><ele>17.0</ele><time>2026-04-25T08:24:44.998Z</time></trkpt><trkpt lat="43.82656820839435" lon="10.716893090042582"><ele>17.0</ele><time>2026-04-25T08:24:45.998Z</time></trkpt><trkpt lat="43.82656810178795" lon="10.716787728609809"><ele>17.0</ele><time>2026-04-25T08:24:46.998Z</time></trkpt><trkpt lat="43.826569630894284" lon="10.716683742514086"><ele>17.0</ele><time>2026-04-25T08:24:47.998Z</time></trkpt><trkpt lat="43.82657089076553" lon="10.716575695433365"><ele>17.0</ele><time>2026-04-25T08:24:48.998Z</time></trkpt><trkpt lat="43.826571090849804" lon="10.716471910844694"><ele>17.0</ele><time>2026-04-25T08:24:49.998Z</time></trkpt><trkpt lat="43.82657093310841" lon="10.716367300064299"><ele>17.0</ele><time>2026-04-25T08:24:50.998Z</time></trkpt><trkpt lat="43.826567793412515" lon="10.716263569070538"><ele>17.0</ele><time>2026-04-25T08:24:51.998Z</time></trkpt><trkpt lat="43.826568191879275" lon="10.716164902048847"><ele>17.0</ele><time>2026-04-25T08:24:52.998Z</time></trkpt><trkpt lat="43.82656944711218" lon="10.716053611636637"><ele>17.0</ele><time>2026-04-25T08:24:53.998Z</time></trkpt><trkpt lat="43.82656560342118" lon="10.715953416095733"><ele>17.0</ele><time>2026-04-25T08:24:54.998Z</time></trkpt><trkpt lat="43.82656266900885" lon="10.715845630465555"><ele>17.0</ele><time>2026-04-25T08:24:55.998Z</time></trkpt><trkpt lat="43.8265615507065" lon="10.715739221248764"><ele>17.0</ele><time>2026-04-25T08:24:56.998Z</time></trkpt><trkpt lat="43.82656325924482" lon="10.715635669725408"><ele>17.0</ele><time>2026-04-25T08:24:57.998Z</time></trkpt><trkpt lat="43.82656758879063" lon="10.715528713811452"><ele>17.0</ele><time>2026-04-25T08:24:58.998Z</time></trkpt><trkpt lat="43.82656670998731" lon="10.71542404946792"><ele>17.0</ele><time>2026-04-25T08:24:59.998Z</time></trkpt><trkpt lat="43.826561894607465" lon="10.715316834470316"><ele>17.0</ele><time>2026-04-25T08:25:00.998Z</time></trkpt><trkpt lat="43.82655782150982" lon="10.715211104987246"><ele>17.0</ele><time>2026-04-25T08:25:01.998Z</time></trkpt><trkpt lat="43.826560015909656" lon="10.715103719064475"><ele>17.0</ele><time>2026-04-25T08:25:02.998Z</time></trkpt><trkpt lat="43.82656096188742" lon="10.714994330912285"><ele>17.0</ele><time>2026-04-25T08:25:03.998Z</time></trkpt><trkpt lat="43.82656155419202" lon="10.714888127465217"><ele>17.0</ele><time>2026-04-25T08:25:05Z</time></trkpt><trkpt lat="43.82656299828543" lon="10.71478142705798"><ele>17.0</ele><time>2026-04-25T08:25:06Z</time></trkpt><trkpt lat="43.82656174702138" lon="10.714674577216842"><ele>17.0</ele><time>2026-04-25T08:25:07Z</time></trkpt><trkpt lat="43.82656278596232" lon="10.714573878368594"><ele>17.0</ele><time>2026-04-25T08:25:08Z</time></trkpt><trkpt lat="43.82656294596504" lon="10.714470881664512"><ele>17.166666666666668</ele><time>2026-04-25T08:25:09Z</time></trkpt><trkpt lat="43.82655864674148" lon="10.714363222343371"><ele>17.333333333333336</ele><time>2026-04-25T08:25:10Z</time></trkpt><trkpt lat="43.82655848055189" lon="10.714259566994139"><ele>17.5</ele><time>2026-04-25T08:25:11Z</time></trkpt><trkpt lat="43.82655777382294" lon="10.714151181169925"><ele>17.666666666666668</ele><time>2026-04-25T08:25:12Z</time></trkpt><trkpt lat="43.826554530554375" lon="10.714044817208338"><ele>17.833333333333332</ele><time>2026-04-25T08:25:13Z</time></trkpt><trkpt lat="43.82655633862052" lon="10.713940281199259"><ele>18.0</ele><time>2026-04-25T08:25:14Z</time></trkpt><trkpt lat="43.826561769669375" lon="10.713838032917655"><ele>18.0</ele><time>2026-04-25T08:25:15Z</time></trkpt><trkpt lat="43.82656745418305" lon="10.713728643198277"><ele>18.0</ele><time>2026-04-25T08:25:16Z</time></trkpt><trkpt lat="43.826569812090234" lon="10.713627156627144"><ele>18.0</ele><time>2026-04-25T08:25:17Z</time></trkpt><trkpt lat="43.82657157315744" lon="10.713522987339134"><ele>18.0</ele><time>2026-04-25T08:25:18Z</time></trkpt><trkpt lat="43.82656540376021" lon="10.713423005786948"><ele>18.0</ele><time>2026-04-25T08:25:19Z</time></trkpt><trkpt lat="43.82655759400514" lon="10.713316826498689"><ele>18.0</ele><time>2026-04-25T08:25:20Z</time></trkpt><trkpt lat="43.82655334658143" lon="10.713212388675052"><ele>18.000000000000004</ele><time>2026-04-25T08:25:21Z</time></trkpt><trkpt lat="43.82655368026391" lon="10.713110561515608"><ele>18.0</ele><time>2026-04-25T08:25:22Z</time></trkpt><trkpt lat="43.82655487862887" lon="10.713009007999968"><ele>18.0</ele><time>2026-04-25T08:25:23Z</time></trkpt><trkpt lat="43.826557821140874" lon="10.712903923193876"><ele>18.0</ele><time>2026-04-25T08:25:24Z</time></trkpt><trkpt lat="43.82655906976808" lon="10.712800172618913"><ele>18.0</ele><time>2026-04-25T08:25:25Z</time></trkpt><trkpt lat="43.826559259611884" lon="10.712692982149727"><ele>18.000000000000004</ele><time>2026-04-25T08:25:26Z</time></trkpt><trkpt lat="43.82656009883718" lon="10.712593513771104"><ele>18.0</ele><time>2026-04-25T08:25:27Z</time></trkpt><trkpt lat="43.82655810234651" lon="10.712489730123208"><ele>18.000000000000004</ele><time>2026-04-25T08:25:28Z</time></trkpt><trkpt lat="43.826555914301125" lon="10.712387799782862"><ele>18.0</ele><time>2026-04-25T08:25:29Z</time></trkpt><trkpt lat="43.82655770198047" lon="10.712286039131593"><ele>18.0</ele><time>2026-04-25T08:25:30Z</time></trkpt><trkpt lat="43.826554642084005" lon="10.71218683609193"><ele>18.0</ele><time>2026-04-25T08:25:31Z</time></trkpt><trkpt lat="43.826555260504044" lon="10.712083450305379"><ele>18.0</ele><time>2026-04-25T08:25:32Z</time></trkpt><trkpt lat="43.82655550958095" lon="10.711982569126086"><ele>18.000000000000004</ele><time>2026-04-25T08:25:33Z</time></trkpt><trkpt lat="43.82655725675888" lon="10.711883445280638"><ele>18.0</ele><time>2026-04-25T08:25:34Z</time></trkpt><trkpt lat="43.826555673060945" lon="10.71178556326787"><ele>17.857142857142858</ele><time>2026-04-25T08:25:35Z</time></trkpt><trkpt lat="43.826555692680266" lon="10.71169095536752"><ele>17.714285714285715</ele><time>2026-04-25T08:25:36Z</time></trkpt><trkpt lat="43.82655531461651" lon="10.711598684048699"><ele>17.57142857142857</ele><time>2026-04-25T08:25:37Z</time></trkpt><trkpt lat="43.826556493472054" lon="10.711506453836774"><ele>17.42857142857143</ele><time>2026-04-25T08:25:38Z</time></trkpt><trkpt lat="43.826555888650695" lon="10.711416389731706"><ele>17.285714285714285</ele><time>2026-04-25T08:25:39Z</time></trkpt><trkpt lat="43.82655180952273" lon="10.711325118650608"><ele>17.142857142857142</ele><time>2026-04-25T08:25:40Z</time></trkpt><trkpt lat="43.82654538001748" lon="10.711237199953024"><ele>17.0</ele><time>2026-04-25T08:25:41Z</time></trkpt><trkpt lat="43.826541171315725" lon="10.711147462211057"><ele>17.2</ele><time>2026-04-25T08:25:42Z</time></trkpt><trkpt lat="43.82652836913648" lon="10.71097702793106"><ele>17.4</ele><time>2026-04-25T08:25:44Z</time></trkpt><trkpt lat="43.8264873277845" lon="10.710818091416082"><ele>17.6</ele><time>2026-04-25T08:25:46Z</time></trkpt><trkpt lat="43.826458383306985" lon="10.7107402318458"><ele>17.8</ele><time>2026-04-25T08:25:46.999Z</time></trkpt><trkpt lat="43.82642829865056" lon="10.710653062031602"><ele>18.0</ele><time>2026-04-25T08:25:47.999Z</time></trkpt><trkpt lat="43.82639586477705" lon="10.710554239844956"><ele>18.0</ele><time>2026-04-25T08:25:48.999Z</time></trkpt><trkpt lat="43.82636726852409" lon="10.710457290407824"><ele>18.0</ele><time>2026-04-25T08:25:49.999Z</time></trkpt><trkpt lat="43.82635081277955" lon="10.710352855570749"><ele>18.0</ele><time>2026-04-25T08:25:50.999Z</time></trkpt><trkpt lat="43.82634063542409" lon="10.710242447324475"><ele>18.0</ele><time>2026-04-25T08:25:51.999Z</time></trkpt><trkpt lat="43.82632840987924" lon="10.71013012448143"><ele>18.0</ele><time>2026-04-25T08:25:52.999Z</time></trkpt><trkpt lat="43.82632369404236" lon="10.710019351374836"><ele>18.0</ele><time>2026-04-25T08:25:53.999Z</time></trkpt><trkpt lat="43.826329840558465" lon="10.70990760587684"><ele>18.0</ele><time>2026-04-25T08:25:54.999Z</time></trkpt><trkpt lat="43.82634202734541" lon="10.709795804074378"><ele>18.0</ele><time>2026-04-25T08:25:55.999Z</time></trkpt><trkpt lat="43.82636318526388" lon="10.709681660020225"><ele>18.0</ele><time>2026-04-25T08:25:56.999Z</time></trkpt><trkpt lat="43.82638470115293" lon="10.709578774311536"><ele>18.0</ele><time>2026-04-25T08:25:57.999Z</time></trkpt><trkpt lat="43.826408766647376" lon="10.709468208267676"><ele>18.0</ele><time>2026-04-25T08:25:58.999Z</time></trkpt><trkpt lat="43.82642964955728" lon="10.709359058429236"><ele>18.0</ele><time>2026-04-25T08:25:59.999Z</time></trkpt><trkpt lat="43.826444287802595" lon="10.709249062082176"><ele>18.0</ele><time>2026-04-25T08:26:00.999Z</time></trkpt><trkpt lat="43.826458954566206" lon="10.70914182720076"><ele>18.0</ele><time>2026-04-25T08:26:01.999Z</time></trkpt><trkpt lat="43.82648164130823" lon="10.709037831131981"><ele>18.0</ele><time>2026-04-25T08:26:02.999Z</time></trkpt><trkpt lat="43.82650469378032" lon="10.70893017821296"><ele>18.0</ele><time>2026-04-25T08:26:03.999Z</time></trkpt><trkpt lat="43.82651696663498" lon="10.708821566775715"><ele>18.0</ele><time>2026-04-25T08:26:04.999Z</time></trkpt><trkpt lat="43.82653266221466" lon="10.708713088837767"><ele>18.0</ele><time>2026-04-25T08:26:05.999Z</time></trkpt><trkpt lat="43.826555525016985" lon="10.70860971037115"><ele>18.166666666666668</ele><time>2026-04-25T08:26:06.999Z</time></trkpt><trkpt lat="43.82658590757417" lon="10.70850992929864"><ele>18.333333333333332</ele><time>2026-04-25T08:26:07.999Z</time></trkpt><trkpt lat="43.826617364792085" lon="10.70840971323982"><ele>18.5</ele><time>2026-04-25T08:26:08.999Z</time></trkpt><trkpt lat="43.826649833265684" lon="10.708310761754035"><ele>18.666666666666664</ele><time>2026-04-25T08:26:09.999Z</time></trkpt><trkpt lat="43.82669133350705" lon="10.708224182018078"><ele>18.833333333333332</ele><time>2026-04-25T08:26:10.999Z</time></trkpt><trkpt lat="43.82674503877922" lon="10.708147757424372"><ele>19.0</ele><time>2026-04-25T08:26:11.999Z</time></trkpt><trkpt lat="43.82680187640104" lon="10.70807694064344"><ele>19.285714285714285</ele><time>2026-04-25T08:26:12.999Z</time></trkpt><trkpt lat="43.826859958773284" lon="10.708010909324978"><ele>19.571428571428573</ele><time>2026-04-25T08:26:13.999Z</time></trkpt><trkpt lat="43.8269114319854" lon="10.707941053833972"><ele>19.857142857142858</ele><time>2026-04-25T08:26:14.999Z</time></trkpt><trkpt lat="43.82696599806845" lon="10.70787065684559"><ele>20.142857142857142</ele><time>2026-04-25T08:26:15.999Z</time></trkpt><trkpt lat="43.827020369509064" lon="10.70780236412097"><ele>20.42857142857143</ele><time>2026-04-25T08:26:16.999Z</time></trkpt><trkpt lat="43.82707691587755" lon="10.707735083787085"><ele>20.714285714285715</ele><time>2026-04-25T08:26:17.999Z</time></trkpt><trkpt lat="43.82713125981608" lon="10.707665520001024"><ele>21.0</ele><time>2026-04-25T08:26:18.999Z</time></trkpt><trkpt lat="43.82718605020484" lon="10.707602880441605"><ele>21.142857142857142</ele><time>2026-04-25T08:26:19.999Z</time></trkpt><trkpt lat="43.82724486561818" lon="10.707537119572821"><ele>21.285714285714285</ele><time>2026-04-25T08:26:20.999Z</time></trkpt><trkpt lat="43.82729793558804" lon="10.707472222136987"><ele>21.42857142857143</ele><time>2026-04-25T08:26:21.999Z</time></trkpt><trkpt lat="43.82735410680931" lon="10.707410786743823"><ele>21.57142857142857</ele><time>2026-04-25T08:26:22.999Z</time></trkpt><trkpt lat="43.827408967181086" lon="10.707348632090305"><ele>21.714285714285715</ele><time>2026-04-25T08:26:23.999Z</time></trkpt><trkpt lat="43.82746395893025" lon="10.707287957651337"><ele>21.857142857142858</ele><time>2026-04-25T08:26:24.999Z</time></trkpt><trkpt lat="43.82751803775748" lon="10.707228687312053"><ele>22.0</ele><time>2026-04-25T08:26:25.999Z</time></trkpt><trkpt lat="43.82757069840725" lon="10.707164781657907"><ele>22.0</ele><time>2026-04-25T08:26:26.999Z</time></trkpt><trkpt lat="43.827620605574666" lon="10.70710085638146"><ele>22.0</ele><time>2026-04-25T08:26:27.999Z</time></trkpt><trkpt lat="43.82767133806413" lon="10.707039680842424"><ele>22.0</ele><time>2026-04-25T08:26:28.999Z</time></trkpt><trkpt lat="43.827725189295144" lon="10.70698124983541"><ele>22.0</ele><time>2026-04-25T08:26:29.999Z</time></trkpt><trkpt lat="43.82777574352211" lon="10.706916804813279"><ele>22.0</ele><time>2026-04-25T08:26:30.999Z</time></trkpt><trkpt lat="43.82782474532411" lon="10.706850729773933"><ele>22.0</ele><time>2026-04-25T08:26:31.999Z</time></trkpt><trkpt lat="43.82787967729895" lon="10.706794087285168"><ele>22.0</ele><time>2026-04-25T08:26:32.999Z</time></trkpt><trkpt lat="43.827941366561475" lon="10.70672275863614"><ele>22.5</ele><time>2026-04-25T08:26:33.999Z</time></trkpt><trkpt lat="43.828035465629675" lon="10.706611489209573"><ele>23.0</ele><time>2026-04-25T08:26:35.999Z</time></trkpt><trkpt lat="43.82809040484666" lon="10.706556542763265"><ele>23.5</ele><time>2026-04-25T08:26:36.999Z</time></trkpt><trkpt lat="43.8281478142014" lon="10.706501211102582"><ele>24.0</ele><time>2026-04-25T08:26:37.999Z</time></trkpt><trkpt lat="43.828208158676475" lon="10.706447635643519"><ele>24.500000000000004</ele><time>2026-04-25T08:26:38.999Z</time></trkpt><trkpt lat="43.82826633270179" lon="10.706394040619578"><ele>25.0</ele><time>2026-04-25T08:26:39.999Z</time></trkpt><trkpt lat="43.82832809986217" lon="10.706340521110407"><ele>25.000000000000004</ele><time>2026-04-25T08:26:40.999Z</time></trkpt><trkpt lat="43.82838935253627" lon="10.70628742919571"><ele>25.0</ele><time>2026-04-25T08:26:41.999Z</time></trkpt><trkpt lat="43.828452273831914" lon="10.706238558352712"><ele>25.0</ele><time>2026-04-25T08:26:42.999Z</time></trkpt><trkpt lat="43.82851673415137" lon="10.706190103455478"><ele>25.0</ele><time>2026-04-25T08:26:43.999Z</time></trkpt><trkpt lat="43.82857947165838" lon="10.706144168825366"><ele>25.0</ele><time>2026-04-25T08:26:44.999Z</time></trkpt><trkpt lat="43.82864660758771" lon="10.70609765206282"><ele>25.000000000000004</ele><time>2026-04-25T08:26:45.999Z</time></trkpt><trkpt lat="43.82871167495781" lon="10.706053559533844"><ele>25.0</ele><time>2026-04-25T08:26:46.999Z</time></trkpt><trkpt lat="43.82877924875269" lon="10.70601077132388"><ele>24.42857142857143</ele><time>2026-04-25T08:26:47.999Z</time></trkpt><trkpt lat="43.82884719467382" lon="10.705968647382706"><ele>23.857142857142858</ele><time>2026-04-25T08:26:48.999Z</time></trkpt><trkpt lat="43.828916683749036" lon="10.705926886288784"><ele>23.285714285714285</ele><time>2026-04-25T08:26:49.998Z</time></trkpt><trkpt lat="43.828985912325955" lon="10.705887908265222"><ele>22.714285714285715</ele><time>2026-04-25T08:26:50.998Z</time></trkpt><trkpt lat="43.82905607007914" lon="10.705854019226473"><ele>22.142857142857142</ele><time>2026-04-25T08:26:51.998Z</time></trkpt><trkpt lat="43.82912831943118" lon="10.705823982915058"><ele>21.571428571428573</ele><time>2026-04-25T08:26:52.998Z</time></trkpt><trkpt lat="43.829199008907544" lon="10.705793207952274"><ele>21.0</ele><time>2026-04-25T08:26:53.998Z</time></trkpt><trkpt lat="43.82927242512307" lon="10.705762949559466"><ele>21.333333333333332</ele><time>2026-04-25T08:26:54.998Z</time></trkpt><trkpt lat="43.82934542977446" lon="10.705728435034292"><ele>21.666666666666668</ele><time>2026-04-25T08:26:55.998Z</time></trkpt><trkpt lat="43.829416736554144" lon="10.705694162879437"><ele>22.0</ele><time>2026-04-25T08:26:56.998Z</time></trkpt><trkpt lat="43.82948815092255" lon="10.705656547705576"><ele>22.333333333333336</ele><time>2026-04-25T08:26:57.998Z</time></trkpt><trkpt lat="43.82955446294091" lon="10.705611518238376"><ele>22.666666666666668</ele><time>2026-04-25T08:26:58.998Z</time></trkpt><trkpt lat="43.82961805461609" lon="10.705559426216123"><ele>23.0</ele><time>2026-04-25T08:26:59.998Z</time></trkpt><trkpt lat="43.82968022236275" lon="10.70550007070994"><ele>23.0</ele><time>2026-04-25T08:27:00.998Z</time></trkpt><trkpt lat="43.829736782257434" lon="10.705431182298359"><ele>23.0</ele><time>2026-04-25T08:27:01.998Z</time></trkpt><trkpt lat="43.82978807270792" lon="10.705356600008558"><ele>23.0</ele><time>2026-04-25T08:27:02.998Z</time></trkpt><trkpt lat="43.829835496284886" lon="10.705277865282229"><ele>23.0</ele><time>2026-04-25T08:27:03.998Z</time></trkpt><trkpt lat="43.82988455675456" lon="10.705198724468344"><ele>23.0</ele><time>2026-04-25T08:27:04.998Z</time></trkpt><trkpt lat="43.82992711540988" lon="10.705114456789651"><ele>23.0</ele><time>2026-04-25T08:27:05.998Z</time></trkpt><trkpt lat="43.82996626654936" lon="10.705029063088775"><ele>23.0</ele><time>2026-04-25T08:27:06.998Z</time></trkpt><trkpt lat="43.830003051553355" lon="10.704942763859718"><ele>23.0</ele><time>2026-04-25T08:27:07.998Z</time></trkpt><trkpt lat="43.83003892448821" lon="10.704857161231953"><ele>23.0</ele><time>2026-04-25T08:27:08.998Z</time></trkpt><trkpt lat="43.83007556110696" lon="10.704769208501219"><ele>23.0</ele><time>2026-04-25T08:27:09.998Z</time></trkpt><trkpt lat="43.83011729669637" lon="10.704685151751738"><ele>23.0</ele><time>2026-04-25T08:27:11Z</time></trkpt><trkpt lat="43.83015327799358" lon="10.704598757821879"><ele>23.0</ele><time>2026-04-25T08:27:12Z</time></trkpt><trkpt lat="43.83018752054599" lon="10.704508083927516"><ele>23.0</ele><time>2026-04-25T08:27:13Z</time></trkpt><trkpt lat="43.8302240094336" lon="10.704421214876925"><ele>23.0</ele><time>2026-04-25T08:27:14Z</time></trkpt><trkpt lat="43.83025917588342" lon="10.70433113476955"><ele>23.333333333333336</ele><time>2026-04-25T08:27:15Z</time></trkpt><trkpt lat="43.83032342204766" lon="10.704223638307111"><ele>23.666666666666668</ele><time>2026-04-25T08:27:16Z</time></trkpt><trkpt lat="43.83035515456313" lon="10.704131669091524"><ele>24.0</ele><time>2026-04-25T08:27:17Z</time></trkpt><trkpt lat="43.83038991972938" lon="10.704052347755196"><ele>24.333333333333336</ele><time>2026-04-25T08:27:18Z</time></trkpt><trkpt lat="43.83042948685328" lon="10.703967964021992"><ele>24.666666666666668</ele><time>2026-04-25T08:27:19Z</time></trkpt><trkpt lat="43.830472516833126" lon="10.703889313022934"><ele>25.0</ele><time>2026-04-25T08:27:20Z</time></trkpt><trkpt lat="43.830516387303476" lon="10.703811441495395"><ele>25.000000000000004</ele><time>2026-04-25T08:27:21Z</time></trkpt><trkpt lat="43.83056372351754" lon="10.703734673897142"><ele>25.0</ele><time>2026-04-25T08:27:22Z</time></trkpt><trkpt lat="43.830609430653" lon="10.703653927995262"><ele>25.0</ele><time>2026-04-25T08:27:23Z</time></trkpt><trkpt lat="43.83065487722771" lon="10.703579329693367"><ele>25.0</ele><time>2026-04-25T08:27:24Z</time></trkpt><trkpt lat="43.83070118236455" lon="10.703501647605968"><ele>25.0</ele><time>2026-04-25T08:27:25Z</time></trkpt><trkpt lat="43.83075151376434" lon="10.703427160493078"><ele>25.000000000000004</ele><time>2026-04-25T08:27:26Z</time></trkpt><trkpt lat="43.830798840096094" lon="10.703363123500695"><ele>25.0</ele><time>2026-04-25T08:27:27Z</time></trkpt><trkpt lat="43.83084856878676" lon="10.703299841393713"><ele>24.857142857142858</ele><time>2026-04-25T08:27:28Z</time></trkpt><trkpt lat="43.830902272939866" lon="10.703245036568136"><ele>24.714285714285715</ele><time>2026-04-25T08:27:29Z</time></trkpt><trkpt lat="43.83095667988595" lon="10.703186282360285"><ele>24.57142857142857</ele><time>2026-04-25T08:27:30Z</time></trkpt><trkpt lat="43.83100591514695" lon="10.70312555418296"><ele>24.42857142857143</ele><time>2026-04-25T08:27:31Z</time></trkpt><trkpt lat="43.8310557084568" lon="10.70306515228418"><ele>24.285714285714285</ele><time>2026-04-25T08:27:32Z</time></trkpt><trkpt lat="43.83110492377064" lon="10.7030082163306"><ele>24.142857142857142</ele><time>2026-04-25T08:27:33Z</time></trkpt><trkpt lat="43.831152861975994" lon="10.702944830782402"><ele>24.0</ele><time>2026-04-25T08:27:34Z</time></trkpt><trkpt lat="43.83119994512986" lon="10.70288650880283"><ele>23.75</ele><time>2026-04-25T08:27:35Z</time></trkpt><trkpt lat="43.831292427903506" lon="10.702773639760165"><ele>23.5</ele><time>2026-04-25T08:27:37Z</time></trkpt><trkpt lat="43.831383014035694" lon="10.702656702442694"><ele>23.25</ele><time>2026-04-25T08:27:39Z</time></trkpt><trkpt lat="43.83147674488444" lon="10.702541641711232"><ele>23.0</ele><time>2026-04-25T08:27:41Z</time></trkpt><trkpt lat="43.831552684517874" lon="10.702436630964428"><ele>23.0</ele><time>2026-04-25T08:27:43Z</time></trkpt><trkpt lat="43.83159971958461" lon="10.702371488102482"><ele>23.0</ele><time>2026-04-25T08:27:44Z</time></trkpt><trkpt lat="43.83165570230967" lon="10.70231534226171"><ele>23.0</ele><time>2026-04-25T08:27:45Z</time></trkpt><trkpt lat="43.831707021610626" lon="10.702253854717151"><ele>23.0</ele><time>2026-04-25T08:27:46Z</time></trkpt><trkpt lat="43.83179960345285" lon="10.702151296310584"><ele>23.0</ele><time>2026-04-25T08:27:48Z</time></trkpt><trkpt lat="43.831887106495046" lon="10.702044457760538"><ele>23.0</ele><time>2026-04-25T08:27:50Z</time></trkpt><trkpt lat="43.8319883224982" lon="10.70193561817787"><ele>23.571428571428573</ele><time>2026-04-25T08:27:52Z</time></trkpt><trkpt lat="43.83204663282267" lon="10.701890312180424"><ele>24.142857142857142</ele><time>2026-04-25T08:27:53Z</time></trkpt><trkpt lat="43.83210428626675" lon="10.701847766747688"><ele>24.714285714285715</ele><time>2026-04-25T08:27:54Z</time></trkpt><trkpt lat="43.83216809076565" lon="10.701806592701475"><ele>25.285714285714285</ele><time>2026-04-25T08:27:55Z</time></trkpt><trkpt lat="43.83223160857382" lon="10.701761333211214"><ele>25.857142857142854</ele><time>2026-04-25T08:27:55.999Z</time></trkpt><trkpt lat="43.832297021526315" lon="10.701720210867817"><ele>26.428571428571427</ele><time>2026-04-25T08:27:56.999Z</time></trkpt><trkpt lat="43.83236348280505" lon="10.70167482697012"><ele>27.0</ele><time>2026-04-25T08:27:57.999Z</time></trkpt><trkpt lat="43.83243172672081" lon="10.701631678633861"><ele>27.0</ele><time>2026-04-25T08:27:58.999Z</time></trkpt><trkpt lat="43.832493200212056" lon="10.701588506813916"><ele>27.0</ele><time>2026-04-25T08:27:59.999Z</time></trkpt><trkpt lat="43.83255499658773" lon="10.701548563998815"><ele>27.0</ele><time>2026-04-25T08:28:00.999Z</time></trkpt><trkpt lat="43.832614389283016" lon="10.701505834806868"><ele>27.0</ele><time>2026-04-25T08:28:01.999Z</time></trkpt><trkpt lat="43.8326689509808" lon="10.701460365184236"><ele>27.0</ele><time>2026-04-25T08:28:02.999Z</time></trkpt><trkpt lat="43.832723533638266" lon="10.7014142762131"><ele>27.0</ele><time>2026-04-25T08:28:03.999Z</time></trkpt><trkpt lat="43.83281921557619" lon="10.701301162157728"><ele>26.8</ele><time>2026-04-25T08:28:05.999Z</time></trkpt><trkpt lat="43.83291240611739" lon="10.70118432232745"><ele>26.6</ele><time>2026-04-25T08:28:07.999Z</time></trkpt><trkpt lat="43.83296043312561" lon="10.701124512159335"><ele>26.400000000000002</ele><time>2026-04-25T08:28:08.999Z</time></trkpt><trkpt lat="43.83305364458975" lon="10.700995530944745"><ele>26.200000000000003</ele><time>2026-04-25T08:28:10.999Z</time></trkpt><trkpt lat="43.83310718812173" lon="10.700942418098101"><ele>26.0</ele><time>2026-04-25T08:28:11.999Z</time></trkpt><trkpt lat="43.83316117707043" lon="10.700883725621166"><ele>25.999999999999996</ele><time>2026-04-25T08:28:12.999Z</time></trkpt><trkpt lat="43.83322226329989" lon="10.7008283951868"><ele>26.0</ele><time>2026-04-25T08:28:13.999Z</time></trkpt><trkpt lat="43.833271743089654" lon="10.700759375992822"><ele>26.0</ele><time>2026-04-25T08:28:14.999Z</time></trkpt><trkpt lat="43.83333512996995" lon="10.700697868742882"><ele>26.0</ele><time>2026-04-25T08:28:15.999Z</time></trkpt><trkpt lat="43.833392622010706" lon="10.700628262712101"><ele>25.999999999999996</ele><time>2026-04-25T08:28:16.999Z</time></trkpt><trkpt lat="43.833456377936756" lon="10.700552135079821"><ele>26.0</ele><time>2026-04-25T08:28:17.999Z</time></trkpt><trkpt lat="43.83351890619765" lon="10.700492403494064"><ele>25.666666666666664</ele><time>2026-04-25T08:28:18.999Z</time></trkpt><trkpt lat="43.833582072509195" lon="10.70044218574092"><ele>25.333333333333332</ele><time>2026-04-25T08:28:19.999Z</time></trkpt><trkpt lat="43.83365365747228" lon="10.700404119696007"><ele>25.0</ele><time>2026-04-25T08:28:20.999Z</time></trkpt><trkpt lat="43.833706249003455" lon="10.700320153689592"><ele>24.666666666666664</ele><time>2026-04-25T08:28:21.999Z</time></trkpt><trkpt lat="43.83377559230301" lon="10.700256273739042"><ele>24.333333333333332</ele><time>2026-04-25T08:28:22.999Z</time></trkpt><trkpt lat="43.83384372329635" lon="10.700211976074982"><ele>24.0</ele><time>2026-04-25T08:28:23.999Z</time></trkpt><trkpt lat="43.83391139320053" lon="10.700157390602234"><ele>23.2</ele><time>2026-04-25T08:28:24.999Z</time></trkpt><trkpt lat="43.83397248443557" lon="10.700102515101916"><ele>22.4</ele><time>2026-04-25T08:28:25.999Z</time></trkpt><trkpt lat="43.8340597614621" lon="10.700036181042512"><ele>21.6</ele><time>2026-04-25T08:28:27.999Z</time></trkpt><trkpt lat="43.8340851476329" lon="10.699904331472553"><ele>20.8</ele><time>2026-04-25T08:28:29.999Z</time></trkpt><trkpt lat="43.83409160470252" lon="10.69975123834666"><ele>20.0</ele><time>2026-04-25T08:28:31.999Z</time></trkpt><trkpt lat="43.834085552125366" lon="10.69957721502687"><ele>20.0</ele><time>2026-04-25T08:28:33.999Z</time></trkpt><trkpt lat="43.83407568712687" lon="10.699489354290453"><ele>20.0</ele><time>2026-04-25T08:28:34.999Z</time></trkpt><trkpt lat="43.834067523361576" lon="10.699390691968155"><ele>20.0</ele><time>2026-04-25T08:28:35.999Z</time></trkpt><trkpt lat="43.834062605151985" lon="10.699291276351707"><ele>20.0</ele><time>2026-04-25T08:28:36.999Z</time></trkpt><trkpt lat="43.8340581046207" lon="10.6991936012997"><ele>20.0</ele><time>2026-04-25T08:28:37.999Z</time></trkpt><trkpt lat="43.83405682970735" lon="10.699095436259864"><ele>20.0</ele><time>2026-04-25T08:28:38.999Z</time></trkpt><trkpt lat="43.834063473987776" lon="10.698997459367723"><ele>20.0</ele><time>2026-04-25T08:28:39.999Z</time></trkpt><trkpt lat="43.834070832742746" lon="10.698900594537877"><ele>20.0</ele><time>2026-04-25T08:28:40.999Z</time></trkpt><trkpt lat="43.834079063294396" lon="10.698799781432058"><ele>20.0</ele><time>2026-04-25T08:28:41.999Z</time></trkpt><trkpt lat="43.83408999219646" lon="10.69870236582059"><ele>20.0</ele><time>2026-04-25T08:28:42.999Z</time></trkpt><trkpt lat="43.83410874864956" lon="10.698611657995412"><ele>20.0</ele><time>2026-04-25T08:28:43.999Z</time></trkpt><trkpt lat="43.83412696755053" lon="10.698513301191987"><ele>20.0</ele><time>2026-04-25T08:28:44.999Z</time></trkpt><trkpt lat="43.834142478220684" lon="10.698419597484515"><ele>20.0</ele><time>2026-04-25T08:28:45.999Z</time></trkpt><trkpt lat="43.834157259032885" lon="10.698323344016687"><ele>20.0</ele><time>2026-04-25T08:28:46.999Z</time></trkpt><trkpt lat="43.8341680118149" lon="10.698227341187442"><ele>19.857142857142858</ele><time>2026-04-25T08:28:47.999Z</time></trkpt><trkpt lat="43.83418278095499" lon="10.698131970343224"><ele>19.714285714285715</ele><time>2026-04-25T08:28:48.999Z</time></trkpt><trkpt lat="43.83419298873803" lon="10.698032431424146"><ele>19.57142857142857</ele><time>2026-04-25T08:28:49.999Z</time></trkpt><trkpt lat="43.83420857942317" lon="10.697943564254832"><ele>19.42857142857143</ele><time>2026-04-25T08:28:50.999Z</time></trkpt><trkpt lat="43.83422736595344" lon="10.697845991623996"><ele>19.28571428571429</ele><time>2026-04-25T08:28:51.999Z</time></trkpt><trkpt lat="43.834242712025436" lon="10.697751725844078"><ele>19.142857142857142</ele><time>2026-04-25T08:28:52.999Z</time></trkpt><trkpt lat="43.83425928875643" lon="10.697654807605142"><ele>19.0</ele><time>2026-04-25T08:28:53.999Z</time></trkpt><trkpt lat="43.834280905150585" lon="10.69756203140816"><ele>19.428571428571427</ele><time>2026-04-25T08:28:54.999Z</time></trkpt><trkpt lat="43.83430697218823" lon="10.697472344238479"><ele>19.857142857142858</ele><time>2026-04-25T08:28:55.999Z</time></trkpt><trkpt lat="43.83432838986549" lon="10.697377745853716"><ele>20.285714285714285</ele><time>2026-04-25T08:28:56.999Z</time></trkpt><trkpt lat="43.834344745917065" lon="10.697284373868552"><ele>20.714285714285715</ele><time>2026-04-25T08:28:57.999Z</time></trkpt><trkpt lat="43.834362804907286" lon="10.69718609847542"><ele>21.142857142857142</ele><time>2026-04-25T08:28:58.999Z</time></trkpt><trkpt lat="43.83438405301443" lon="10.697092017136614"><ele>21.571428571428573</ele><time>2026-04-25T08:28:59.998Z</time></trkpt><trkpt lat="43.83440765691037" lon="10.697002624132065"><ele>22.0</ele><time>2026-04-25T08:29:00.998Z</time></trkpt><trkpt lat="43.83443257288369" lon="10.696906163036234"><ele>22.285714285714285</ele><time>2026-04-25T08:29:01.998Z</time></trkpt><trkpt lat="43.834453670339556" lon="10.696814365627695"><ele>22.57142857142857</ele><time>2026-04-25T08:29:02.998Z</time></trkpt><trkpt lat="43.83447518712386" lon="10.696723488183498"><ele>22.857142857142854</ele><time>2026-04-25T08:29:03.998Z</time></trkpt><trkpt lat="43.83449535968528" lon="10.696629383300554"><ele>23.142857142857142</ele><time>2026-04-25T08:29:04.998Z</time></trkpt><trkpt lat="43.8345212387301" lon="10.696535480489208"><ele>23.428571428571427</ele><time>2026-04-25T08:29:05.998Z</time></trkpt><trkpt lat="43.834547560228934" lon="10.696443426570287"><ele>23.71428571428571</ele><time>2026-04-25T08:29:06.998Z</time></trkpt><trkpt lat="43.834570418579396" lon="10.696350248933124"><ele>24.0</ele><time>2026-04-25T08:29:07.998Z</time></trkpt><trkpt lat="43.83460021072602" lon="10.696258319294303"><ele>23.999999999999996</ele><time>2026-04-25T08:29:08.998Z</time></trkpt><trkpt lat="43.83462933673419" lon="10.696166535379442"><ele>24.0</ele><time>2026-04-25T08:29:09.998Z</time></trkpt><trkpt lat="43.834652714109936" lon="10.696076649447503"><ele>24.0</ele><time>2026-04-25T08:29:10.998Z</time></trkpt><trkpt lat="43.834677055976236" lon="10.69598404993578"><ele>24.0</ele><time>2026-04-25T08:29:11.998Z</time></trkpt><trkpt lat="43.83470109939769" lon="10.69590022564282"><ele>24.0</ele><time>2026-04-25T08:29:12.998Z</time></trkpt><trkpt lat="43.83472377867745" lon="10.695814408102853"><ele>23.999999999999996</ele><time>2026-04-25T08:29:13.998Z</time></trkpt><trkpt lat="43.83474741804754" lon="10.695730074749914"><ele>24.0</ele><time>2026-04-25T08:29:14.998Z</time></trkpt><trkpt lat="43.83477195853131" lon="10.69564567725947"><ele>24.142857142857142</ele><time>2026-04-25T08:29:15.998Z</time></trkpt><trkpt lat="43.83479250324986" lon="10.695562445523786"><ele>24.285714285714285</ele><time>2026-04-25T08:29:17Z</time></trkpt><trkpt lat="43.834812579540724" lon="10.695467553339693"><ele>24.42857142857143</ele><time>2026-04-25T08:29:18Z</time></trkpt><trkpt lat="43.83483523700854" lon="10.695382057182215"><ele>24.57142857142857</ele><time>2026-04-25T08:29:19Z</time></trkpt><trkpt lat="43.83485784938297" lon="10.695293423078564"><ele>24.714285714285715</ele><time>2026-04-25T08:29:20Z</time></trkpt><trkpt lat="43.83488194101762" lon="10.695206924728758"><ele>24.857142857142858</ele><time>2026-04-25T08:29:21Z</time></trkpt><trkpt lat="43.83491210524756" lon="10.695120314279533"><ele>25.0</ele><time>2026-04-25T08:29:22Z</time></trkpt><trkpt lat="43.83493633611706" lon="10.695031178715869"><ele>25.000000000000004</ele><time>2026-04-25T08:29:23Z</time></trkpt><trkpt lat="43.83495475089578" lon="10.694934287215101"><ele>25.0</ele><time>2026-04-25T08:29:24Z</time></trkpt><trkpt lat="43.83500129105605" lon="10.694756477211556"><ele>25.0</ele><time>2026-04-25T08:29:26Z</time></trkpt><trkpt lat="43.835022336930855" lon="10.694666713525141"><ele>25.0</ele><time>2026-04-25T08:29:27Z</time></trkpt><trkpt lat="43.83504322283297" lon="10.694576265799403"><ele>25.000000000000004</ele><time>2026-04-25T08:29:28Z</time></trkpt><trkpt lat="43.83506962101225" lon="10.694486915459477"><ele>25.0</ele><time>2026-04-25T08:29:29Z</time></trkpt><trkpt lat="43.83509265630277" lon="10.694393940879165"><ele>25.142857142857146</ele><time>2026-04-25T08:29:30Z</time></trkpt><trkpt lat="43.83511548857551" lon="10.694307169037552"><ele>25.285714285714285</ele><time>2026-04-25T08:29:31Z</time></trkpt><trkpt lat="43.835141608455984" lon="10.694221647809592"><ele>25.42857142857143</ele><time>2026-04-25T08:29:32Z</time></trkpt><trkpt lat="43.8351677380976" lon="10.694132329985655"><ele>25.571428571428573</ele><time>2026-04-25T08:29:33Z</time></trkpt><trkpt lat="43.83519192680076" lon="10.694045296479679"><ele>25.714285714285715</ele><time>2026-04-25T08:29:34Z</time></trkpt><trkpt lat="43.83521716204799" lon="10.693957308060275"><ele>25.857142857142858</ele><time>2026-04-25T08:29:35Z</time></trkpt><trkpt lat="43.83524178212758" lon="10.693867934692339"><ele>26.0</ele><time>2026-04-25T08:29:36Z</time></trkpt><trkpt lat="43.83526217486642" lon="10.693779085158416"><ele>26.0</ele><time>2026-04-25T08:29:37Z</time></trkpt><trkpt lat="43.835287719931955" lon="10.693691184457187"><ele>26.0</ele><time>2026-04-25T08:29:38Z</time></trkpt><trkpt lat="43.83531286620441" lon="10.693603297647673"><ele>26.0</ele><time>2026-04-25T08:29:39Z</time></trkpt><trkpt lat="43.8353436240446" lon="10.693516935214856"><ele>26.0</ele><time>2026-04-25T08:29:40Z</time></trkpt><trkpt lat="43.835376730249195" lon="10.693430164143544"><ele>26.0</ele><time>2026-04-25T08:29:41Z</time></trkpt><trkpt lat="43.83541054295875" lon="10.693345803394276"><ele>26.0</ele><time>2026-04-25T08:29:42Z</time></trkpt><trkpt lat="43.835445059840495" lon="10.693262318676696"><ele>26.0</ele><time>2026-04-25T08:29:43Z</time></trkpt><trkpt lat="43.83548396360796" lon="10.693182445105094"><ele>26.166666666666664</ele><time>2026-04-25T08:29:44Z</time></trkpt><trkpt lat="43.835525311857324" lon="10.693104945512463"><ele>26.333333333333332</ele><time>2026-04-25T08:29:45Z</time></trkpt><trkpt lat="43.83556683045748" lon="10.693029754049478"><ele>26.5</ele><time>2026-04-25T08:29:46Z</time></trkpt><trkpt lat="43.83560924227087" lon="10.692963905732205"><ele>26.666666666666664</ele><time>2026-04-25T08:29:47Z</time></trkpt><trkpt lat="43.835670197293936" lon="10.692888928764642"><ele>26.833333333333332</ele><time>2026-04-25T08:29:48Z</time></trkpt><trkpt lat="43.83573320353734" lon="10.692744962436633"><ele>27.0</ele><time>2026-04-25T08:29:50Z</time></trkpt><trkpt lat="43.835771235946616" lon="10.69267259727541"><ele>27.0</ele><time>2026-04-25T08:29:51Z</time></trkpt><trkpt lat="43.83580847134695" lon="10.692595893146786"><ele>27.0</ele><time>2026-04-25T08:29:52Z</time></trkpt><trkpt lat="43.835828926918104" lon="10.692506165107424"><ele>27.0</ele><time>2026-04-25T08:29:53Z</time></trkpt><trkpt lat="43.83583355846219" lon="10.692415171898874"><ele>27.0</ele><time>2026-04-25T08:29:54Z</time></trkpt><trkpt lat="43.8358209902551" lon="10.692311547463083"><ele>27.0</ele><time>2026-04-25T08:29:55Z</time></trkpt><trkpt lat="43.83580544892834" lon="10.692221776976996"><ele>27.0</ele><time>2026-04-25T08:29:55.999Z</time></trkpt><trkpt lat="43.83578572829268" lon="10.69212396846846"><ele>27.0</ele><time>2026-04-25T08:29:56.999Z</time></trkpt><trkpt lat="43.83576603112012" lon="10.692028605372622"><ele>27.0</ele><time>2026-04-25T08:29:57.999Z</time></trkpt><trkpt lat="43.835744372223516" lon="10.6919350984105"><ele>27.0</ele><time>2026-04-25T08:29:58.999Z</time></trkpt><trkpt lat="43.83571594355324" lon="10.691840717408853"><ele>27.0</ele><time>2026-04-25T08:29:59.999Z</time></trkpt><trkpt lat="43.83568232469406" lon="10.691753722458294"><ele>27.0</ele><time>2026-04-25T08:30:00.999Z</time></trkpt><trkpt lat="43.835647083020454" lon="10.691663689988394"><ele>27.0</ele><time>2026-04-25T08:30:01.999Z</time></trkpt><trkpt lat="43.835599752326395" lon="10.691580392613721"><ele>27.0</ele><time>2026-04-25T08:30:02.999Z</time></trkpt><trkpt lat="43.83555417800446" lon="10.691498170767328"><ele>27.0</ele><time>2026-04-25T08:30:03.999Z</time></trkpt><trkpt lat="43.83550345116786" lon="10.691424556943087"><ele>27.0</ele><time>2026-04-25T08:30:04.999Z</time></trkpt><trkpt lat="43.83544930848736" lon="10.691354451095723"><ele>27.0</ele><time>2026-04-25T08:30:05.999Z</time></trkpt><trkpt lat="43.835392915132886" lon="10.691284237423956"><ele>27.0</ele><time>2026-04-25T08:30:06.999Z</time></trkpt><trkpt lat="43.83533378572186" lon="10.691213448229371"><ele>27.0</ele><time>2026-04-25T08:30:07.999Z</time></trkpt><trkpt lat="43.835276058233376" lon="10.69114602140804"><ele>27.0</ele><time>2026-04-25T08:30:08.999Z</time></trkpt><trkpt lat="43.83521987005891" lon="10.691080907338298"><ele>27.0</ele><time>2026-04-25T08:30:09.999Z</time></trkpt><trkpt lat="43.83516226232658" lon="10.691011532009679"><ele>26.5</ele><time>2026-04-25T08:30:10.999Z</time></trkpt><trkpt lat="43.835105310617855" lon="10.69093959248781"><ele>26.0</ele><time>2026-04-25T08:30:11.999Z</time></trkpt><trkpt lat="43.835045256272586" lon="10.69087255451404"><ele>25.5</ele><time>2026-04-25T08:30:12.999Z</time></trkpt><trkpt lat="43.83498715430211" lon="10.690803732727934"><ele>25.0</ele><time>2026-04-25T08:30:13.999Z</time></trkpt><trkpt lat="43.83492964171771" lon="10.690732173065413"><ele>24.5</ele><time>2026-04-25T08:30:14.999Z</time></trkpt><trkpt lat="43.83487301141999" lon="10.690662648279037"><ele>24.0</ele><time>2026-04-25T08:30:15.999Z</time></trkpt><trkpt lat="43.8348136258303" lon="10.690597002867223"><ele>24.0</ele><time>2026-04-25T08:30:16.999Z</time></trkpt><trkpt lat="43.834756691686636" lon="10.690530483787624"><ele>24.0</ele><time>2026-04-25T08:30:17.999Z</time></trkpt><trkpt lat="43.83469764774098" lon="10.690460545664312"><ele>24.0</ele><time>2026-04-25T08:30:18.999Z</time></trkpt><trkpt lat="43.834641954066285" lon="10.690392937223983"><ele>24.0</ele><time>2026-04-25T08:30:19.999Z</time></trkpt><trkpt lat="43.83458621115986" lon="10.690324297679679"><ele>24.0</ele><time>2026-04-25T08:30:20.999Z</time></trkpt><trkpt lat="43.83452785456467" lon="10.690255858273364"><ele>24.0</ele><time>2026-04-25T08:30:21.999Z</time></trkpt><trkpt lat="43.83446935619248" lon="10.690190968629981"><ele>24.333333333333332</ele><time>2026-04-25T08:30:22.999Z</time></trkpt><trkpt lat="43.834408672398126" lon="10.690130981478807"><ele>24.666666666666664</ele><time>2026-04-25T08:30:23.999Z</time></trkpt><trkpt lat="43.83434627051527" lon="10.690075172721723"><ele>25.0</ele><time>2026-04-25T08:30:24.999Z</time></trkpt><trkpt lat="43.83428078601936" lon="10.690024117634886"><ele>25.333333333333332</ele><time>2026-04-25T08:30:25.999Z</time></trkpt><trkpt lat="43.834211568576144" lon="10.689978808440356"><ele>25.666666666666664</ele><time>2026-04-25T08:30:26.999Z</time></trkpt><trkpt lat="43.834141299893346" lon="10.689941361086147"><ele>26.0</ele><time>2026-04-25T08:30:27.999Z</time></trkpt><trkpt lat="43.83407169126933" lon="10.689906235119924"><ele>25.999999999999996</ele><time>2026-04-25T08:30:28.999Z</time></trkpt><trkpt lat="43.834000193438705" lon="10.689871549953075"><ele>26.0</ele><time>2026-04-25T08:30:29.999Z</time></trkpt><trkpt lat="43.833932015535105" lon="10.689836832914812"><ele>26.0</ele><time>2026-04-25T08:30:30.999Z</time></trkpt><trkpt lat="43.83386100499" lon="10.689800654508067"><ele>26.0</ele><time>2026-04-25T08:30:31.999Z</time></trkpt><trkpt lat="43.833790553384404" lon="10.68976553256481"><ele>25.999999999999996</ele><time>2026-04-25T08:30:32.999Z</time></trkpt><trkpt lat="43.833719012859156" lon="10.689734450013301"><ele>26.0</ele><time>2026-04-25T08:30:33.999Z</time></trkpt><trkpt lat="43.83364521780393" lon="10.68970440250589"><ele>26.0</ele><time>2026-04-25T08:30:34.999Z</time></trkpt><trkpt lat="43.83356878639042" lon="10.68968277786197"><ele>26.0</ele><time>2026-04-25T08:30:35.999Z</time></trkpt><trkpt lat="43.83349599563651" lon="10.689654241243066"><ele>26.0</ele><time>2026-04-25T08:30:36.999Z</time></trkpt><trkpt lat="43.833428997070676" lon="10.68963267983934"><ele>26.0</ele><time>2026-04-25T08:30:37.999Z</time></trkpt><trkpt lat="43.833353714835575" lon="10.689618973265889"><ele>26.0</ele><time>2026-04-25T08:30:38.999Z</time></trkpt><trkpt lat="43.833280080333836" lon="10.689596899992464"><ele>26.0</ele><time>2026-04-25T08:30:39.999Z</time></trkpt><trkpt lat="43.833208063079745" lon="10.689575017495898"><ele>26.0</ele><time>2026-04-25T08:30:40.999Z</time></trkpt><trkpt lat="43.833136577033834" lon="10.689558724768718"><ele>26.0</ele><time>2026-04-25T08:30:41.999Z</time></trkpt><trkpt lat="43.833060945006444" lon="10.689538411880656"><ele>26.0</ele><time>2026-04-25T08:30:42.999Z</time></trkpt><trkpt lat="43.83298662590177" lon="10.689529536960617"><ele>26.0</ele><time>2026-04-25T08:30:43.999Z</time></trkpt><trkpt lat="43.83291542158646" lon="10.689520508008647"><ele>26.0</ele><time>2026-04-25T08:30:44.999Z</time></trkpt><trkpt lat="43.83283998179386" lon="10.689497228973044"><ele>26.0</ele><time>2026-04-25T08:30:45.999Z</time></trkpt><trkpt lat="43.832773306236426" lon="10.689471226289374"><ele>26.0</ele><time>2026-04-25T08:30:46.999Z</time></trkpt><trkpt lat="43.83270193804864" lon="10.689445379216584"><ele>26.0</ele><time>2026-04-25T08:30:47.999Z</time></trkpt><trkpt lat="43.832633718450936" lon="10.689413854426876"><ele>25.999999999999996</ele><time>2026-04-25T08:30:48.999Z</time></trkpt><trkpt lat="43.83258040305324" lon="10.689341633187482"><ele>26.0</ele><time>2026-04-25T08:30:49.999Z</time></trkpt><trkpt lat="43.832571696428644" lon="10.689241172745207"><ele>26.0</ele><time>2026-04-25T08:30:50.999Z</time></trkpt><trkpt lat="43.8325705056289" lon="10.689146980275098"><ele>26.0</ele><time>2026-04-25T08:30:51.999Z</time></trkpt><trkpt lat="43.83262046903006" lon="10.68899014214528"><ele>25.999999999999996</ele><time>2026-04-25T08:30:53.999Z</time></trkpt><trkpt lat="43.83266840952359" lon="10.688867724810734"><ele>26.0</ele><time>2026-04-25T08:30:55.999Z</time></trkpt><trkpt lat="43.83271655382811" lon="10.688777557153633"><ele>25.999999999999996</ele><time>2026-04-25T08:30:57.999Z</time></trkpt><trkpt lat="43.832776784777415" lon="10.68870550209874"><ele>26.0</ele><time>2026-04-25T08:30:59.999Z</time></trkpt><trkpt lat="43.83284840951004" lon="10.688647340588007"><ele>26.0</ele><time>2026-04-25T08:31:01.998Z</time></trkpt><trkpt lat="43.83291657838457" lon="10.688587560700464"><ele>26.0</ele><time>2026-04-25T08:31:03.998Z</time></trkpt><trkpt lat="43.832981374692174" lon="10.688531296031595"><ele>25.999999999999996</ele><time>2026-04-25T08:31:05.998Z</time></trkpt><trkpt lat="43.83304763619468" lon="10.688465361475274"><ele>26.0</ele><time>2026-04-25T08:31:07.998Z</time></trkpt><trkpt lat="43.83311938218949" lon="10.688408500505565"><ele>26.0</ele><time>2026-04-25T08:31:09.998Z</time></trkpt><trkpt lat="43.833200623123524" lon="10.688345788264586"><ele>26.0</ele><time>2026-04-25T08:31:11.998Z</time></trkpt><trkpt lat="43.83329577515404" lon="10.68827406785903"><ele>26.0</ele><time>2026-04-25T08:31:13.998Z</time></trkpt><trkpt lat="43.833399270264415" lon="10.688198069926521"><ele>26.0</ele><time>2026-04-25T08:31:15.998Z</time></trkpt><trkpt lat="43.8334583500238" lon="10.688157495693524"><ele>26.0</ele><time>2026-04-25T08:31:16.998Z</time></trkpt><trkpt lat="43.833524674607894" lon="10.688118708744314"><ele>26.333333333333332</ele><time>2026-04-25T08:31:17.998Z</time></trkpt><trkpt lat="43.83359490418509" lon="10.688082590073359"><ele>26.666666666666664</ele><time>2026-04-25T08:31:18.998Z</time></trkpt><trkpt lat="43.83366912729913" lon="10.688049320821682"><ele>27.0</ele><time>2026-04-25T08:31:19.998Z</time></trkpt><trkpt lat="43.83374671715347" lon="10.688017433314725"><ele>27.333333333333336</ele><time>2026-04-25T08:31:20.998Z</time></trkpt><trkpt lat="43.833828596229395" lon="10.687991048571083"><ele>27.666666666666668</ele><time>2026-04-25T08:31:21.998Z</time></trkpt><trkpt lat="43.83391302782547" lon="10.687969065847723"><ele>28.0</ele><time>2026-04-25T08:31:23Z</time></trkpt><trkpt lat="43.83400079486767" lon="10.687953276214762"><ele>28.0</ele><time>2026-04-25T08:31:24Z</time></trkpt><trkpt lat="43.83409016833543" lon="10.687947681872224"><ele>27.999999999999996</ele><time>2026-04-25T08:31:25Z</time></trkpt><trkpt lat="43.834182580398426" lon="10.687943746470596"><ele>27.999999999999996</ele><time>2026-04-25T08:31:26Z</time></trkpt><trkpt lat="43.83427258983592" lon="10.687952564752441"><ele>28.0</ele><time>2026-04-25T08:31:27Z</time></trkpt><trkpt lat="43.83436221255074" lon="10.687980338506383"><ele>28.0</ele><time>2026-04-25T08:31:28Z</time></trkpt><trkpt lat="43.83444720723549" lon="10.688023679732497"><ele>27.833333333333336</ele><time>2026-04-25T08:31:29Z</time></trkpt><trkpt lat="43.83452692742774" lon="10.688081977575603"><ele>27.666666666666668</ele><time>2026-04-25T08:31:30Z</time></trkpt><trkpt lat="43.83459924320216" lon="10.688155397959608"><ele>27.5</ele><time>2026-04-25T08:31:31Z</time></trkpt><trkpt lat="43.83466419860495" lon="10.688239514884332"><ele>27.333333333333336</ele><time>2026-04-25T08:31:32Z</time></trkpt><trkpt lat="43.83471604262106" lon="10.688345792376806"><ele>27.166666666666668</ele><time>2026-04-25T08:31:33Z</time></trkpt><trkpt lat="43.83475569828766" lon="10.688450060501609"><ele>27.0</ele><time>2026-04-25T08:31:34Z</time></trkpt><trkpt lat="43.83479031934548" lon="10.688564230979614"><ele>27.0</ele><time>2026-04-25T08:31:35Z</time></trkpt><trkpt lat="43.83482509728889" lon="10.688670845480166"><ele>27.0</ele><time>2026-04-25T08:31:36Z</time></trkpt><trkpt lat="43.83485903574567" lon="10.68878245179291"><ele>27.0</ele><time>2026-04-25T08:31:37Z</time></trkpt><trkpt lat="43.8348904905191" lon="10.688888109761344"><ele>27.0</ele><time>2026-04-25T08:31:38Z</time></trkpt><trkpt lat="43.83491828863585" lon="10.688999373506398"><ele>27.0</ele><time>2026-04-25T08:31:39Z</time></trkpt><trkpt lat="43.834952009016206" lon="10.6891070678385"><ele>27.0</ele><time>2026-04-25T08:31:40Z</time></trkpt><trkpt lat="43.83497987119151" lon="10.689212163232124"><ele>27.0</ele><time>2026-04-25T08:31:41Z</time></trkpt><trkpt lat="43.83501004044197" lon="10.689323496431227"><ele>27.0</ele><time>2026-04-25T08:31:42Z</time></trkpt><trkpt lat="43.83502978083569" lon="10.6894320257653"><ele>27.0</ele><time>2026-04-25T08:31:43Z</time></trkpt><trkpt lat="43.835058624324446" lon="10.689545370297967"><ele>27.0</ele><time>2026-04-25T08:31:44Z</time></trkpt><trkpt lat="43.835093940183455" lon="10.689648295418102"><ele>27.0</ele><time>2026-04-25T08:31:45Z</time></trkpt><trkpt lat="43.83513696574144" lon="10.689742907866425"><ele>27.0</ele><time>2026-04-25T08:31:46Z</time></trkpt><trkpt lat="43.83519052795915" lon="10.689830783605135"><ele>27.333333333333332</ele><time>2026-04-25T08:31:47Z</time></trkpt><trkpt lat="43.83524750468293" lon="10.689914924468416"><ele>27.666666666666664</ele><time>2026-04-25T08:31:48Z</time></trkpt><trkpt lat="43.83530731383253" lon="10.689988046108315"><ele>28.0</ele><time>2026-04-25T08:31:49Z</time></trkpt><trkpt lat="43.83537888078969" lon="10.690049375319578"><ele>28.333333333333332</ele><time>2026-04-25T08:31:50Z</time></trkpt><trkpt lat="43.83545185343526" lon="10.690103628538923"><ele>28.666666666666664</ele><time>2026-04-25T08:31:51Z</time></trkpt><trkpt lat="43.83552058320853" lon="10.69015718499145"><ele>29.0</ele><time>2026-04-25T08:31:52Z</time></trkpt><trkpt lat="43.835586260140026" lon="10.690217792839425"><ele>28.999999999999996</ele><time>2026-04-25T08:31:53Z</time></trkpt><trkpt lat="43.83565700653656" lon="10.690264321738452"><ele>29.0</ele><time>2026-04-25T08:31:54Z</time></trkpt><trkpt lat="43.83573089237352" lon="10.690302168631078"><ele>29.0</ele><time>2026-04-25T08:31:55Z</time></trkpt><trkpt lat="43.83579824684901" lon="10.690349456497275"><ele>29.0</ele><time>2026-04-25T08:31:56Z</time></trkpt><trkpt lat="43.83586612171125" lon="10.69039693466512"><ele>28.999999999999996</ele><time>2026-04-25T08:31:57Z</time></trkpt><trkpt lat="43.83593231824155" lon="10.690448182242708"><ele>29.0</ele><time>2026-04-25T08:31:58Z</time></trkpt><trkpt lat="43.83599621294313" lon="10.690493304047553"><ele>29.142857142857146</ele><time>2026-04-25T08:31:59Z</time></trkpt><trkpt lat="43.83606622759099" lon="10.690528196701743"><ele>29.285714285714285</ele><time>2026-04-25T08:32:00Z</time></trkpt><trkpt lat="43.83613429014119" lon="10.69056778304829"><ele>29.42857142857143</ele><time>2026-04-25T08:32:01Z</time></trkpt><trkpt lat="43.83619699000602" lon="10.690615049691514"><ele>29.571428571428573</ele><time>2026-04-25T08:32:02Z</time></trkpt><trkpt lat="43.83626041881291" lon="10.690662242533941"><ele>29.714285714285715</ele><time>2026-04-25T08:32:03Z</time></trkpt><trkpt lat="43.83632153623544" lon="10.690712582082796"><ele>29.857142857142858</ele><time>2026-04-25T08:32:04Z</time></trkpt><trkpt lat="43.836385643141824" lon="10.690752346384933"><ele>30.0</ele><time>2026-04-25T08:32:04.999Z</time></trkpt><trkpt lat="43.83644962884925" lon="10.690789039205283"><ele>30.0</ele><time>2026-04-25T08:32:05.999Z</time></trkpt><trkpt lat="43.83651017397105" lon="10.690830837185517"><ele>30.0</ele><time>2026-04-25T08:32:06.999Z</time></trkpt><trkpt lat="43.83657193351491" lon="10.690877298522885"><ele>30.0</ele><time>2026-04-25T08:32:07.999Z</time></trkpt><trkpt lat="43.83663454584949" lon="10.690916202524534"><ele>30.0</ele><time>2026-04-25T08:32:08.999Z</time></trkpt><trkpt lat="43.83669539941863" lon="10.69095439238954"><ele>30.0</ele><time>2026-04-25T08:32:09.999Z</time></trkpt><trkpt lat="43.83675514930971" lon="10.690997317819534"><ele>30.0</ele><time>2026-04-25T08:32:10.999Z</time></trkpt><trkpt lat="43.83681798873898" lon="10.69104224658345"><ele>30.0</ele><time>2026-04-25T08:32:11.999Z</time></trkpt><trkpt lat="43.836880847626134" lon="10.691082206115528"><ele>30.142857142857146</ele><time>2026-04-25T08:32:12.999Z</time></trkpt><trkpt lat="43.83694298070569" lon="10.691121245094239"><ele>30.285714285714285</ele><time>2026-04-25T08:32:13.999Z</time></trkpt><trkpt lat="43.83700694578345" lon="10.691164014790752"><ele>30.42857142857143</ele><time>2026-04-25T08:32:14.999Z</time></trkpt><trkpt lat="43.83707270915784" lon="10.69119292412"><ele>30.571428571428573</ele><time>2026-04-25T08:32:15.999Z</time></trkpt><trkpt lat="43.837142572421634" lon="10.691203879863538"><ele>30.714285714285715</ele><time>2026-04-25T08:32:16.999Z</time></trkpt><trkpt lat="43.83721427754639" lon="10.691172090893554"><ele>30.857142857142858</ele><time>2026-04-25T08:32:17.999Z</time></trkpt><trkpt lat="43.83727349731292" lon="10.691107464545123"><ele>31.0</ele><time>2026-04-25T08:32:18.999Z</time></trkpt><trkpt lat="43.83730919155629" lon="10.6910164003347"><ele>31.0</ele><time>2026-04-25T08:32:19.999Z</time></trkpt><trkpt lat="43.8373200697946" lon="10.690927576839364"><ele>31.0</ele><time>2026-04-25T08:32:20.999Z</time></trkpt><trkpt lat="43.83738948274834" lon="10.690807927746809"><ele>31.0</ele><time>2026-04-25T08:32:22.999Z</time></trkpt><trkpt lat="43.83746942781858" lon="10.690691923328925"><ele>31.0</ele><time>2026-04-25T08:32:24.999Z</time></trkpt><trkpt lat="43.83754941969484" lon="10.69058997595029"><ele>31.0</ele><time>2026-04-25T08:32:26.999Z</time></trkpt><trkpt lat="43.837621758037976" lon="10.690486173631816"><ele>31.166666666666668</ele><time>2026-04-25T08:32:28.999Z</time></trkpt><trkpt lat="43.83769268714816" lon="10.690393639252788"><ele>31.333333333333336</ele><time>2026-04-25T08:32:30.999Z</time></trkpt><trkpt lat="43.83775751751641" lon="10.690313538482412"><ele>31.5</ele><time>2026-04-25T08:32:32.999Z</time></trkpt><trkpt lat="43.837804546388256" lon="10.69024439266602"><ele>31.666666666666664</ele><time>2026-04-25T08:32:34.999Z</time></trkpt><trkpt lat="43.8378738261735" lon="10.690165588577331"><ele>31.833333333333332</ele><time>2026-04-25T08:32:37.999Z</time></trkpt><trkpt lat="43.83793078126855" lon="10.690071137850424"><ele>32.0</ele><time>2026-04-25T08:32:40.999Z</time></trkpt><trkpt lat="43.83798903407558" lon="10.689977637556108"><ele>32.83333333333333</ele><time>2026-04-25T08:32:43.999Z</time></trkpt><trkpt lat="43.83802847710046" lon="10.689909433496638"><ele>33.666666666666664</ele><time>2026-04-25T08:32:45.999Z</time></trkpt><trkpt lat="43.838095938174796" lon="10.689822252974182"><ele>34.5</ele><time>2026-04-25T08:32:48.999Z</time></trkpt><trkpt lat="43.8381653151412" lon="10.689735830294318"><ele>35.333333333333336</ele><time>2026-04-25T08:32:51.999Z</time></trkpt><trkpt lat="43.83822844016514" lon="10.689647891313996"><ele>36.16666666666667</ele><time>2026-04-25T08:32:54.999Z</time></trkpt><trkpt lat="43.838294522887004" lon="10.689563058972228"><ele>37.0</ele><time>2026-04-25T08:32:57.999Z</time></trkpt><trkpt lat="43.83836296892177" lon="10.689475310984163"><ele>37.333333333333336</ele><time>2026-04-25T08:33:00.999Z</time></trkpt><trkpt lat="43.838406529053664" lon="10.689410953068823"><ele>37.66666666666667</ele><time>2026-04-25T08:33:02.999Z</time></trkpt><trkpt lat="43.83846981016868" lon="10.689327164246187"><ele>38.0</ele><time>2026-04-25T08:33:05.999Z</time></trkpt><trkpt lat="43.83853055198821" lon="10.689237222109702"><ele>38.333333333333336</ele><time>2026-04-25T08:33:08.999Z</time></trkpt><trkpt lat="43.838592566666996" lon="10.68914760525539"><ele>38.666666666666664</ele><time>2026-04-25T08:33:11.998Z</time></trkpt><trkpt lat="43.83865274470255" lon="10.689056684116442"><ele>39.0</ele><time>2026-04-25T08:33:14.998Z</time></trkpt><trkpt lat="43.83870975486451" lon="10.688973396351422"><ele>39.833333333333336</ele><time>2026-04-25T08:33:17.998Z</time></trkpt><trkpt lat="43.83875609385282" lon="10.688914031167847"><ele>40.666666666666664</ele><time>2026-04-25T08:33:19.998Z</time></trkpt><trkpt lat="43.83881956273869" lon="10.688838071643863"><ele>41.5</ele><time>2026-04-25T08:33:22.998Z</time></trkpt><trkpt lat="43.83888098418712" lon="10.688752991964327"><ele>42.33333333333333</ele><time>2026-04-25T08:33:25.998Z</time></trkpt><trkpt lat="43.838940565780184" lon="10.688660722992326"><ele>43.166666666666664</ele><time>2026-04-25T08:33:29Z</time></trkpt><trkpt lat="43.839002254272685" lon="10.688568702600435"><ele>44.0</ele><time>2026-04-25T08:33:32Z</time></trkpt><trkpt lat="43.83904323255951" lon="10.688494051443934"><ele>44.83333333333333</ele><time>2026-04-25T08:33:34Z</time></trkpt><trkpt lat="43.839086385609036" lon="10.688425034929825"><ele>45.666666666666664</ele><time>2026-04-25T08:33:36Z</time></trkpt><trkpt lat="43.83913216907148" lon="10.688357399932821"><ele>46.5</ele><time>2026-04-25T08:33:38Z</time></trkpt><trkpt lat="43.839183919517346" lon="10.688287834914588"><ele>47.33333333333333</ele><time>2026-04-25T08:33:40Z</time></trkpt><trkpt lat="43.839236336734835" lon="10.688225296162345"><ele>48.166666666666664</ele><time>2026-04-25T08:33:42Z</time></trkpt><trkpt lat="43.83929965370301" lon="10.688131487739899"><ele>49.0</ele><time>2026-04-25T08:33:45Z</time></trkpt><trkpt lat="43.83936523063137" lon="10.688048447882487"><ele>49.142857142857146</ele><time>2026-04-25T08:33:48Z</time></trkpt><trkpt lat="43.83940666776785" lon="10.687978373436518"><ele>49.285714285714285</ele><time>2026-04-25T08:33:50Z</time></trkpt><trkpt lat="43.83944858789963" lon="10.687908017203005"><ele>49.42857142857143</ele><time>2026-04-25T08:33:52Z</time></trkpt><trkpt lat="43.83949638643018" lon="10.68784748477838"><ele>49.57142857142857</ele><time>2026-04-25T08:33:54Z</time></trkpt><trkpt lat="43.83954587270573" lon="10.687784701988521"><ele>49.714285714285715</ele><time>2026-04-25T08:33:56Z</time></trkpt><trkpt lat="43.83958856720812" lon="10.687710296762193"><ele>49.85714285714286</ele><time>2026-04-25T08:33:58Z</time></trkpt><trkpt lat="43.83963373706624" lon="10.687642060152283"><ele>50.0</ele><time>2026-04-25T08:34:00Z</time></trkpt><trkpt lat="43.839672477830206" lon="10.687557984942291"><ele>50.57142857142858</ele><time>2026-04-25T08:34:02Z</time></trkpt><trkpt lat="43.83971334488694" lon="10.687473173155377"><ele>51.142857142857146</ele><time>2026-04-25T08:34:04Z</time></trkpt><trkpt lat="43.83975978897283" lon="10.687391720206675"><ele>51.714285714285715</ele><time>2026-04-25T08:34:06Z</time></trkpt><trkpt lat="43.83980477209097" lon="10.687315951231108"><ele>52.28571428571429</ele><time>2026-04-25T08:34:08Z</time></trkpt><trkpt lat="43.839844916115375" lon="10.687236217328895"><ele>52.857142857142854</ele><time>2026-04-25T08:34:10Z</time></trkpt><trkpt lat="43.83988107831304" lon="10.68715465643823"><ele>53.42857142857143</ele><time>2026-04-25T08:34:12Z</time></trkpt><trkpt lat="43.83992042076882" lon="10.687074096272529"><ele>54.0</ele><time>2026-04-25T08:34:14Z</time></trkpt><trkpt lat="43.839964155270174" lon="10.686990653188666"><ele>54.714285714285715</ele><time>2026-04-25T08:34:15.999Z</time></trkpt><trkpt lat="43.840010156267645" lon="10.686913335011594"><ele>55.42857142857143</ele><time>2026-04-25T08:34:17.999Z</time></trkpt><trkpt lat="43.840045060167526" lon="10.686822427795509"><ele>56.14285714285714</ele><time>2026-04-25T08:34:19.999Z</time></trkpt><trkpt lat="43.84008477910295" lon="10.686745567812228"><ele>56.85714285714286</ele><time>2026-04-25T08:34:21.999Z</time></trkpt><trkpt lat="43.84012760627664" lon="10.686665077487534"><ele>57.57142857142858</ele><time>2026-04-25T08:34:23.999Z</time></trkpt><trkpt lat="43.840174051149276" lon="10.6865892126865"><ele>58.285714285714285</ele><time>2026-04-25T08:34:25.999Z</time></trkpt><trkpt lat="43.84021105167604" lon="10.686504638247898"><ele>59.0</ele><time>2026-04-25T08:34:27.999Z</time></trkpt><trkpt lat="43.84025596772392" lon="10.686415992765433"><ele>59.14285714285714</ele><time>2026-04-25T08:34:29.999Z</time></trkpt><trkpt lat="43.84029883082567" lon="10.686340318420507"><ele>59.28571428571429</ele><time>2026-04-25T08:34:31.999Z</time></trkpt><trkpt lat="43.84034017462621" lon="10.686266109547157"><ele>59.42857142857143</ele><time>2026-04-25T08:34:33.999Z</time></trkpt><trkpt lat="43.84038099497232" lon="10.6861883836412"><ele>59.57142857142857</ele><time>2026-04-25T08:34:35.999Z</time></trkpt><trkpt lat="43.840423629833545" lon="10.686107762521862"><ele>59.71428571428571</ele><time>2026-04-25T08:34:37.999Z</time></trkpt><trkpt lat="43.840464829887246" lon="10.686029554409064"><ele>59.85714285714286</ele><time>2026-04-25T08:34:39.999Z</time></trkpt><trkpt lat="43.840509481076005" lon="10.685963365241575"><ele>60.0</ele><time>2026-04-25T08:34:41.999Z</time></trkpt><trkpt lat="43.84055505272527" lon="10.685894037806454"><ele>61.0</ele><time>2026-04-25T08:34:43.999Z</time></trkpt><trkpt lat="43.840610622956405" lon="10.685787855537034"><ele>62.0</ele><time>2026-04-25T08:34:46.999Z</time></trkpt><trkpt lat="43.84067200624807" lon="10.685686691482147"><ele>63.0</ele><time>2026-04-25T08:34:49.999Z</time></trkpt><trkpt lat="43.84072239534021" lon="10.685623292348657"><ele>64.0</ele><time>2026-04-25T08:34:51.999Z</time></trkpt><trkpt lat="43.84077360306083" lon="10.685557921910933"><ele>65.0</ele><time>2026-04-25T08:34:53.999Z</time></trkpt><trkpt lat="43.84084490896973" lon="10.685469238251486"><ele>66.0</ele><time>2026-04-25T08:34:56.999Z</time></trkpt><trkpt lat="43.84091690434014" lon="10.68538395896787"><ele>66.0</ele><time>2026-04-25T08:34:59.999Z</time></trkpt><trkpt lat="43.84098135697467" lon="10.685289151710094"><ele>66.0</ele><time>2026-04-25T08:35:02.999Z</time></trkpt><trkpt lat="43.84103035001876" lon="10.685233751452962"><ele>66.0</ele><time>2026-04-25T08:35:04.999Z</time></trkpt><trkpt lat="43.84109699147699" lon="10.685138075964284"><ele>66.0</ele><time>2026-04-25T08:35:07.999Z</time></trkpt><trkpt lat="43.84114204842994" lon="10.685074910719647"><ele>66.0</ele><time>2026-04-25T08:35:09.999Z</time></trkpt><trkpt lat="43.84118906537196" lon="10.685012475737746"><ele>66.0</ele><time>2026-04-25T08:35:11.999Z</time></trkpt><trkpt lat="43.84126305951532" lon="10.684939257244121"><ele>67.66666666666667</ele><time>2026-04-25T08:35:14.999Z</time></trkpt><trkpt lat="43.84131320424651" lon="10.684883430700184"><ele>69.33333333333333</ele><time>2026-04-25T08:35:16.999Z</time></trkpt><trkpt lat="43.84135568048848" lon="10.684811005763148"><ele>71.0</ele><time>2026-04-25T08:35:18.999Z</time></trkpt><trkpt lat="43.841420935671415" lon="10.684722646456137"><ele>72.66666666666666</ele><time>2026-04-25T08:35:21.998Z</time></trkpt><trkpt lat="43.841473195604955" lon="10.684673815120128"><ele>74.33333333333333</ele><time>2026-04-25T08:35:23.998Z</time></trkpt><trkpt lat="43.84153299437359" lon="10.684574305367036"><ele>76.0</ele><time>2026-04-25T08:35:26.998Z</time></trkpt><trkpt lat="43.841603438494204" lon="10.684497143875793"><ele>76.66666666666666</ele><time>2026-04-25T08:35:29.998Z</time></trkpt><trkpt lat="43.841657075715005" lon="10.68440509066965"><ele>77.33333333333333</ele><time>2026-04-25T08:35:32.998Z</time></trkpt><trkpt lat="43.84171777020688" lon="10.684325078131328"><ele>78.0</ele><time>2026-04-25T08:35:36Z</time></trkpt><trkpt lat="43.84177799517682" lon="10.684238143399368"><ele>78.66666666666667</ele><time>2026-04-25T08:35:39Z</time></trkpt><trkpt lat="43.841839496528564" lon="10.684154085239536"><ele>79.33333333333334</ele><time>2026-04-25T08:35:42Z</time></trkpt><trkpt lat="43.84189392105465" lon="10.684060854031475"><ele>80.0</ele><time>2026-04-25T08:35:45Z</time></trkpt><trkpt lat="43.841949158614995" lon="10.683958830175634"><ele>80.16666666666667</ele><time>2026-04-25T08:35:48Z</time></trkpt><trkpt lat="43.84200524611534" lon="10.683859439279113"><ele>80.33333333333334</ele><time>2026-04-25T08:35:51Z</time></trkpt><trkpt lat="43.84206556938334" lon="10.683767471630174"><ele>80.5</ele><time>2026-04-25T08:35:54Z</time></trkpt><trkpt lat="43.842115653823754" lon="10.683660108493836"><ele>80.66666666666667</ele><time>2026-04-25T08:35:57Z</time></trkpt><trkpt lat="43.842158807256965" lon="10.683592698972742"><ele>80.83333333333333</ele><time>2026-04-25T08:35:59Z</time></trkpt><trkpt lat="43.84221863822438" lon="10.68349551032337"><ele>81.0</ele><time>2026-04-25T08:36:02Z</time></trkpt><trkpt lat="43.84227686885542" lon="10.68339266119532"><ele>81.42857142857143</ele><time>2026-04-25T08:36:05Z</time></trkpt><trkpt lat="43.84231440036285" lon="10.683313106161721"><ele>81.85714285714286</ele><time>2026-04-25T08:36:07Z</time></trkpt><trkpt lat="43.84236179141134" lon="10.68324915761427"><ele>82.28571428571428</ele><time>2026-04-25T08:36:09Z</time></trkpt><trkpt lat="43.842412958074654" lon="10.683188725984566"><ele>82.71428571428572</ele><time>2026-04-25T08:36:11Z</time></trkpt><trkpt lat="43.84246070342831" lon="10.683121825229401"><ele>83.14285714285714</ele><time>2026-04-25T08:36:13Z</time></trkpt><trkpt lat="43.842509675433" lon="10.683058029448098"><ele>83.57142857142857</ele><time>2026-04-25T08:36:15Z</time></trkpt><trkpt lat="43.842567632750296" lon="10.683013189708904"><ele>84.0</ele><time>2026-04-25T08:36:17Z</time></trkpt><trkpt lat="43.84262600811204" lon="10.682961054690375"><ele>84.42857142857143</ele><time>2026-04-25T08:36:18.999Z</time></trkpt><trkpt lat="43.84268829747204" lon="10.682912574468373"><ele>84.85714285714286</ele><time>2026-04-25T08:36:20.999Z</time></trkpt><trkpt lat="43.842758847204756" lon="10.682864222358221"><ele>85.28571428571428</ele><time>2026-04-25T08:36:22.999Z</time></trkpt><trkpt lat="43.84282461592368" lon="10.682811472920301"><ele>85.71428571428572</ele><time>2026-04-25T08:36:24.999Z</time></trkpt><trkpt lat="43.84288850655464" lon="10.68276196159369"><ele>86.14285714285714</ele><time>2026-04-25T08:36:26.999Z</time></trkpt><trkpt lat="43.84294997217641" lon="10.682705676274809"><ele>86.57142857142857</ele><time>2026-04-25T08:36:28.999Z</time></trkpt><trkpt lat="43.843017009061505" lon="10.682657879214945"><ele>87.0</ele><time>2026-04-25T08:36:30.999Z</time></trkpt><trkpt lat="43.84308105505371" lon="10.68260593622166"><ele>87.0</ele><time>2026-04-25T08:36:32.999Z</time></trkpt><trkpt lat="43.84314431474055" lon="10.682558324620206"><ele>87.0</ele><time>2026-04-25T08:36:34.999Z</time></trkpt><trkpt lat="43.84320699974213" lon="10.682496636259367"><ele>87.0</ele><time>2026-04-25T08:36:36.999Z</time></trkpt><trkpt lat="43.84326990969875" lon="10.682430550315326"><ele>87.0</ele><time>2026-04-25T08:36:38.999Z</time></trkpt><trkpt lat="43.843334994520276" lon="10.682362005207557"><ele>87.0</ele><time>2026-04-25T08:36:40.999Z</time></trkpt><trkpt lat="43.84339078009034" lon="10.6822837469548"><ele>87.0</ele><time>2026-04-25T08:36:42.999Z</time></trkpt><trkpt lat="43.84344860936586" lon="10.682207298254546"><ele>87.5</ele><time>2026-04-25T08:36:44.999Z</time></trkpt><trkpt lat="43.8435116077411" lon="10.682138012030327"><ele>88.0</ele><time>2026-04-25T08:36:46.999Z</time></trkpt><trkpt lat="43.843573289325256" lon="10.682066369083982"><ele>88.5</ele><time>2026-04-25T08:36:48.999Z</time></trkpt><trkpt lat="43.84363198265165" lon="10.681986554830875"><ele>89.0</ele><time>2026-04-25T08:36:50.999Z</time></trkpt><trkpt lat="43.84368313881554" lon="10.681909783078522"><ele>89.5</ele><time>2026-04-25T08:36:52.999Z</time></trkpt><trkpt lat="43.84375189297492" lon="10.681839010579642"><ele>90.0</ele><time>2026-04-25T08:36:54.999Z</time></trkpt><trkpt lat="43.84380684278712" lon="10.681757269292499"><ele>90.28571428571428</ele><time>2026-04-25T08:36:56.999Z</time></trkpt><trkpt lat="43.84386243743282" lon="10.681695472074441"><ele>90.57142857142858</ele><time>2026-04-25T08:36:58.999Z</time></trkpt><trkpt lat="43.843914126356026" lon="10.681628560685215"><ele>90.85714285714286</ele><time>2026-04-25T08:37:00.999Z</time></trkpt><trkpt lat="43.843965076161126" lon="10.68156917593586"><ele>91.14285714285714</ele><time>2026-04-25T08:37:02.999Z</time></trkpt><trkpt lat="43.84401012738064" lon="10.68149567376753"><ele>91.42857142857142</ele><time>2026-04-25T08:37:04.999Z</time></trkpt><trkpt lat="43.84405511441786" lon="10.68141599786557"><ele>91.71428571428572</ele><time>2026-04-25T08:37:06.999Z</time></trkpt><trkpt lat="43.844107503004224" lon="10.681344625888821"><ele>92.0</ele><time>2026-04-25T08:37:08.999Z</time></trkpt><trkpt lat="43.84416459416756" lon="10.681276376866487"><ele>92.0</ele><time>2026-04-25T08:37:10.999Z</time></trkpt><trkpt lat="43.84421103007636" lon="10.68119047669228"><ele>92.0</ele><time>2026-04-25T08:37:12.999Z</time></trkpt><trkpt lat="43.84426475376098" lon="10.681108443074011"><ele>92.0</ele><time>2026-04-25T08:37:14.999Z</time></trkpt><trkpt lat="43.844315031101" lon="10.681027803144396"><ele>92.0</ele><time>2026-04-25T08:37:16.999Z</time></trkpt><trkpt lat="43.844367316846416" lon="10.680949840651861"><ele>92.0</ele><time>2026-04-25T08:37:18.999Z</time></trkpt><trkpt lat="43.84441924251511" lon="10.680873317707617"><ele>92.0</ele><time>2026-04-25T08:37:20.999Z</time></trkpt><trkpt lat="43.84447240860376" lon="10.68079606063513"><ele>92.5</ele><time>2026-04-25T08:37:22.999Z</time></trkpt><trkpt lat="43.84452690141034" lon="10.680722072257055"><ele>93.0</ele><time>2026-04-25T08:37:24.998Z</time></trkpt><trkpt lat="43.844579396086736" lon="10.680641643665625"><ele>93.5</ele><time>2026-04-25T08:37:26.998Z</time></trkpt><trkpt lat="43.84461983670246" lon="10.680573078962286"><ele>94.0</ele><time>2026-04-25T08:37:28.998Z</time></trkpt><trkpt lat="43.84467391046098" lon="10.68048165884236"><ele>94.5</ele><time>2026-04-25T08:37:30.998Z</time></trkpt><trkpt lat="43.8447161290659" lon="10.680387526869827"><ele>95.0</ele><time>2026-04-25T08:37:32.998Z</time></trkpt><trkpt lat="43.84476758077876" lon="10.680302546112019"><ele>95.33333333333334</ele><time>2026-04-25T08:37:34.998Z</time></trkpt><trkpt lat="43.84482398703135" lon="10.680218428699845"><ele>95.66666666666667</ele><time>2026-04-25T08:37:36.998Z</time></trkpt><trkpt lat="43.84487373629392" lon="10.680130598219812"><ele>96.0</ele><time>2026-04-25T08:37:38.998Z</time></trkpt><trkpt lat="43.84491006038136" lon="10.680019185382434"><ele>96.33333333333334</ele><time>2026-04-25T08:37:41Z</time></trkpt><trkpt lat="43.84495097788666" lon="10.679919448915221"><ele>96.66666666666667</ele><time>2026-04-25T08:37:43Z</time></trkpt><trkpt lat="43.84499100818155" lon="10.679814414416395"><ele>97.0</ele><time>2026-04-25T08:37:45Z</time></trkpt><trkpt lat="43.84502740486936" lon="10.679716959422564"><ele>97.00000000000001</ele><time>2026-04-25T08:37:47Z</time></trkpt><trkpt lat="43.84506717798158" lon="10.679616891111312"><ele>97.0</ele><time>2026-04-25T08:37:49Z</time></trkpt><trkpt lat="43.84510776031757" lon="10.679519790242432"><ele>97.0</ele><time>2026-04-25T08:37:51Z</time></trkpt><trkpt lat="43.845145084182946" lon="10.679424441528772"><ele>97.0</ele><time>2026-04-25T08:37:53Z</time></trkpt><trkpt lat="43.845173300635004" lon="10.679319192908341"><ele>97.00000000000001</ele><time>2026-04-25T08:37:55Z</time></trkpt><trkpt lat="43.84520457876017" lon="10.679215059649856"><ele>97.0</ele><time>2026-04-25T08:37:57Z</time></trkpt><trkpt lat="43.84523671551896" lon="10.679112767057518"><ele>98.33333333333334</ele><time>2026-04-25T08:37:59Z</time></trkpt><trkpt lat="43.845271618334735" lon="10.67901193992409"><ele>99.66666666666667</ele><time>2026-04-25T08:38:01Z</time></trkpt><trkpt lat="43.84531302481068" lon="10.67891428674799"><ele>101.0</ele><time>2026-04-25T08:38:03Z</time></trkpt><trkpt lat="43.84535436627302" lon="10.678818957122244"><ele>102.33333333333334</ele><time>2026-04-25T08:38:05Z</time></trkpt><trkpt lat="43.84538170804813" lon="10.678718748345274"><ele>103.66666666666667</ele><time>2026-04-25T08:38:07Z</time></trkpt><trkpt lat="43.845423778908945" lon="10.678617227758583"><ele>105.0</ele><time>2026-04-25T08:38:09Z</time></trkpt><trkpt lat="43.84545979959709" lon="10.678520512243903"><ele>105.0</ele><time>2026-04-25T08:38:11Z</time></trkpt><trkpt lat="43.8455017677983" lon="10.678433749148208"><ele>105.0</ele><time>2026-04-25T08:38:13Z</time></trkpt><trkpt lat="43.84554522866117" lon="10.678344068266542"><ele>105.0</ele><time>2026-04-25T08:38:14.999Z</time></trkpt><trkpt lat="43.845588358046626" lon="10.678259217371433"><ele>105.0</ele><time>2026-04-25T08:38:16.999Z</time></trkpt><trkpt lat="43.845633735600934" lon="10.678172143426881"><ele>105.0</ele><time>2026-04-25T08:38:18.999Z</time></trkpt><trkpt lat="43.845679799775745" lon="10.67809768264239"><ele>105.0</ele><time>2026-04-25T08:38:20.999Z</time></trkpt><trkpt lat="43.84572406885113" lon="10.678020879919403"><ele>105.0</ele><time>2026-04-25T08:38:22.999Z</time></trkpt><trkpt lat="43.84577721772243" lon="10.677953802373928"><ele>105.0</ele><time>2026-04-25T08:38:24.999Z</time></trkpt><trkpt lat="43.84583080796064" lon="10.67788328439433"><ele>105.0</ele><time>2026-04-25T08:38:26.999Z</time></trkpt><trkpt lat="43.84588234172643" lon="10.677818357926197"><ele>105.0</ele><time>2026-04-25T08:38:28.999Z</time></trkpt><trkpt lat="43.845924318503776" lon="10.677742407300684"><ele>105.0</ele><time>2026-04-25T08:38:30.999Z</time></trkpt><trkpt lat="43.84596548780021" lon="10.67766931959033"><ele>105.0</ele><time>2026-04-25T08:38:32.999Z</time></trkpt><trkpt lat="43.84601257196957" lon="10.67760423389817"><ele>105.0</ele><time>2026-04-25T08:38:34.999Z</time></trkpt><trkpt lat="43.846067168023616" lon="10.677543322738156"><ele>105.0</ele><time>2026-04-25T08:38:36.999Z</time></trkpt><trkpt lat="43.84611722824638" lon="10.677474355096026"><ele>105.57142857142857</ele><time>2026-04-25T08:38:38.999Z</time></trkpt><trkpt lat="43.8461704837352" lon="10.677410790941638"><ele>106.14285714285714</ele><time>2026-04-25T08:38:40.999Z</time></trkpt><trkpt lat="43.846222982621875" lon="10.67734890478792"><ele>106.71428571428572</ele><time>2026-04-25T08:38:42.999Z</time></trkpt><trkpt lat="43.84627282730435" lon="10.677281686766891"><ele>107.28571428571428</ele><time>2026-04-25T08:38:44.999Z</time></trkpt><trkpt lat="43.84632114618959" lon="10.67721326749835"><ele>107.85714285714286</ele><time>2026-04-25T08:38:46.999Z</time></trkpt><trkpt lat="43.84637222120624" lon="10.677143257769716"><ele>108.42857142857143</ele><time>2026-04-25T08:38:48.999Z</time></trkpt><trkpt lat="43.84642531293422" lon="10.677081641463005"><ele>109.0</ele><time>2026-04-25T08:38:50.999Z</time></trkpt><trkpt lat="43.846468889661764" lon="10.67701492642874"><ele>109.0</ele><time>2026-04-25T08:38:52.999Z</time></trkpt><trkpt lat="43.84651434935356" lon="10.676944776349485"><ele>109.0</ele><time>2026-04-25T08:38:54.999Z</time></trkpt><trkpt lat="43.84655774466064" lon="10.67686081237371"><ele>109.0</ele><time>2026-04-25T08:38:56.999Z</time></trkpt><trkpt lat="43.846590875900475" lon="10.676767517673797"><ele>109.0</ele><time>2026-04-25T08:38:58.999Z</time></trkpt><trkpt lat="43.84663515214021" lon="10.676687745530215"><ele>109.0</ele><time>2026-04-25T08:39:00.999Z</time></trkpt><trkpt lat="43.846679806687234" lon="10.676599603186991"><ele>109.0</ele><time>2026-04-25T08:39:02.999Z</time></trkpt><trkpt lat="43.84672305429896" lon="10.676514916090735"><ele>109.0</ele><time>2026-04-25T08:39:04.999Z</time></trkpt><trkpt lat="43.846772176063226" lon="10.676434312368386"><ele>109.66666666666667</ele><time>2026-04-25T08:39:06.999Z</time></trkpt><trkpt lat="43.846819348048996" lon="10.676348185499643"><ele>110.33333333333334</ele><time>2026-04-25T08:39:08.999Z</time></trkpt><trkpt lat="43.846866112084655" lon="10.67625818346761"><ele>111.0</ele><time>2026-04-25T08:39:10.999Z</time></trkpt><trkpt lat="43.846909949847124" lon="10.676173037612271"><ele>111.66666666666666</ele><time>2026-04-25T08:39:12.999Z</time></trkpt><trkpt lat="43.84695523611642" lon="10.676082622688053"><ele>112.33333333333333</ele><time>2026-04-25T08:39:14.999Z</time></trkpt><trkpt lat="43.84700303171362" lon="10.67599756710935"><ele>113.0</ele><time>2026-04-25T08:39:16.999Z</time></trkpt><trkpt lat="43.84704911023371" lon="10.67590458474962"><ele>113.83333333333333</ele><time>2026-04-25T08:39:18.999Z</time></trkpt><trkpt lat="43.84709574679824" lon="10.675809418441947"><ele>114.66666666666666</ele><time>2026-04-25T08:39:20.999Z</time></trkpt><trkpt lat="43.84714009907898" lon="10.675718418555482"><ele>115.5</ele><time>2026-04-25T08:39:22.999Z</time></trkpt><trkpt lat="43.84719118737554" lon="10.675634345097974"><ele>116.33333333333334</ele><time>2026-04-25T08:39:24.999Z</time></trkpt><trkpt lat="43.84723503309024" lon="10.675544379712097"><ele>117.16666666666667</ele><time>2026-04-25T08:39:26.998Z</time></trkpt><trkpt lat="43.84728187731297" lon="10.67544714529899"><ele>118.0</ele><time>2026-04-25T08:39:28.998Z</time></trkpt><trkpt lat="43.847327554884174" lon="10.67535202769595"><ele>117.83333333333334</ele><time>2026-04-25T08:39:30.998Z</time></trkpt><trkpt lat="43.84737662773604" lon="10.675256629308754"><ele>117.66666666666667</ele><time>2026-04-25T08:39:32.998Z</time></trkpt><trkpt lat="43.84742230470746" lon="10.675161216129476"><ele>117.5</ele><time>2026-04-25T08:39:34.998Z</time></trkpt><trkpt lat="43.847471187772676" lon="10.675069583683804"><ele>117.33333333333334</ele><time>2026-04-25T08:39:36.998Z</time></trkpt><trkpt lat="43.8475164225376" lon="10.6749821105035"><ele>117.16666666666667</ele><time>2026-04-25T08:39:38.998Z</time></trkpt><trkpt lat="43.847563428099726" lon="10.674891656061181"><ele>117.0</ele><time>2026-04-25T08:39:40.998Z</time></trkpt><trkpt lat="43.84760800454395" lon="10.674794331885028"><ele>116.8</ele><time>2026-04-25T08:39:42.998Z</time></trkpt><trkpt lat="43.84766560981089" lon="10.67470699869066"><ele>116.6</ele><time>2026-04-25T08:39:44.998Z</time></trkpt><trkpt lat="43.84772966387485" lon="10.67461321275419"><ele>116.39999999999999</ele><time>2026-04-25T08:39:47Z</time></trkpt><trkpt lat="43.84779661741823" lon="10.67452358139967"><ele>116.19999999999999</ele><time>2026-04-25T08:39:49Z</time></trkpt><trkpt lat="43.84787132237395" lon="10.674438009465087"><ele>116.0</ele><time>2026-04-25T08:39:51Z</time></trkpt><trkpt lat="43.847948082637934" lon="10.674353406199495"><ele>116.8</ele><time>2026-04-25T08:39:53Z</time></trkpt><trkpt lat="43.84802361169555" lon="10.674264983394508"><ele>117.6</ele><time>2026-04-25T08:39:55Z</time></trkpt><trkpt lat="43.848094212282824" lon="10.674175816091276"><ele>118.4</ele><time>2026-04-25T08:39:57Z</time></trkpt><trkpt lat="43.84816488248126" lon="10.674095036473119"><ele>119.2</ele><time>2026-04-25T08:39:59Z</time></trkpt><trkpt lat="43.848236290253986" lon="10.67400693615286"><ele>120.0</ele><time>2026-04-25T08:40:01Z</time></trkpt><trkpt lat="43.848305902763" lon="10.673920632419785"><ele>120.0</ele><time>2026-04-25T08:40:03Z</time></trkpt><trkpt lat="43.84837246825513" lon="10.673836805970549"><ele>120.0</ele><time>2026-04-25T08:40:05Z</time></trkpt><trkpt lat="43.8484441220026" lon="10.673760457569493"><ele>120.0</ele><time>2026-04-25T08:40:07Z</time></trkpt><trkpt lat="43.8485218071509" lon="10.673685036955408"><ele>120.0</ele><time>2026-04-25T08:40:09Z</time></trkpt><trkpt lat="43.84859664340941" lon="10.673605365785539"><ele>120.0</ele><time>2026-04-25T08:40:11Z</time></trkpt><trkpt lat="43.84867517292866" lon="10.673518235399444"><ele>121.6</ele><time>2026-04-25T08:40:13Z</time></trkpt><trkpt lat="43.84875208945863" lon="10.673429631723652"><ele>123.2</ele><time>2026-04-25T08:40:15Z</time></trkpt><trkpt lat="43.84883659413152" lon="10.673343462426528"><ele>124.80000000000001</ele><time>2026-04-25T08:40:17Z</time></trkpt><trkpt lat="43.84891649671579" lon="10.673247530056887"><ele>126.4</ele><time>2026-04-25T08:40:19Z</time></trkpt><trkpt lat="43.84900816853603" lon="10.673159320140211"><ele>128.0</ele><time>2026-04-25T08:40:21Z</time></trkpt><trkpt lat="43.849095685509084" lon="10.673070245825073"><ele>128.0</ele><time>2026-04-25T08:40:22.999Z</time></trkpt><trkpt lat="43.84917304221319" lon="10.672976135649458"><ele>128.0</ele><time>2026-04-25T08:40:24.999Z</time></trkpt><trkpt lat="43.84926178591819" lon="10.672904238011697"><ele>128.0</ele><time>2026-04-25T08:40:26.999Z</time></trkpt><trkpt lat="43.84933355713518" lon="10.672819435010522"><ele>128.0</ele><time>2026-04-25T08:40:28.999Z</time></trkpt><trkpt lat="43.849404644689365" lon="10.672741867381047"><ele>128.0</ele><time>2026-04-25T08:40:30.999Z</time></trkpt><trkpt lat="43.84946886819402" lon="10.672669115012832"><ele>127.99999999999999</ele><time>2026-04-25T08:40:32.999Z</time></trkpt><trkpt lat="43.849536892110564" lon="10.672607262906725"><ele>128.0</ele><time>2026-04-25T08:40:34.999Z</time></trkpt><trkpt lat="43.84960017586859" lon="10.67254354854816"><ele>128.0</ele><time>2026-04-25T08:40:36.999Z</time></trkpt><trkpt lat="43.84966498677684" lon="10.672478896054153"><ele>128.0</ele><time>2026-04-25T08:40:38.999Z</time></trkpt><trkpt lat="43.84972515760828" lon="10.672420895273847"><ele>127.99999999999999</ele><time>2026-04-25T08:40:40.999Z</time></trkpt><trkpt lat="43.84979201283108" lon="10.672355943366494"><ele>128.0</ele><time>2026-04-25T08:40:42.999Z</time></trkpt><trkpt lat="43.849848298102685" lon="10.672292306072293"><ele>127.99999999999999</ele><time>2026-04-25T08:40:44.999Z</time></trkpt><trkpt lat="43.84991240665912" lon="10.672235409229664"><ele>128.0</ele><time>2026-04-25T08:40:46.999Z</time></trkpt><trkpt lat="43.84997527436569" lon="10.672172043024332"><ele>128.0</ele><time>2026-04-25T08:40:48.999Z</time></trkpt><trkpt lat="43.85004891549641" lon="10.672098178741651"><ele>128.0</ele><time>2026-04-25T08:40:50.999Z</time></trkpt><trkpt lat="43.85011115980403" lon="10.672001302841462"><ele>127.99999999999999</ele><time>2026-04-25T08:40:52.999Z</time></trkpt><trkpt lat="43.85017711827559" lon="10.671917053307975"><ele>128.0</ele><time>2026-04-25T08:40:54.999Z</time></trkpt><trkpt lat="43.85023680971239" lon="10.671818391437963"><ele>126.80000000000001</ele><time>2026-04-25T08:40:56.999Z</time></trkpt><trkpt lat="43.85030003262954" lon="10.671713092240383"><ele>125.60000000000001</ele><time>2026-04-25T08:40:58.999Z</time></trkpt><trkpt lat="43.85037664587625" lon="10.671607120526769"><ele>124.39999999999999</ele><time>2026-04-25T08:41:00.999Z</time></trkpt><trkpt lat="43.850423934036876" lon="10.671544886117172"><ele>123.19999999999999</ele><time>2026-04-25T08:41:01.999Z</time></trkpt><trkpt lat="43.85051020022605" lon="10.67140598154768"><ele>122.0</ele><time>2026-04-25T08:41:03.999Z</time></trkpt><trkpt lat="43.85055810315033" lon="10.671339394086557"><ele>121.99999999999999</ele><time>2026-04-25T08:41:04.999Z</time></trkpt><trkpt lat="43.85060324067043" lon="10.671266628869644"><ele>122.0</ele><time>2026-04-25T08:41:05.999Z</time></trkpt><trkpt lat="43.85065245659611" lon="10.671196471874662"><ele>121.99999999999999</ele><time>2026-04-25T08:41:06.999Z</time></trkpt><trkpt lat="43.850695288305324" lon="10.671124797061188"><ele>121.99999999999999</ele><time>2026-04-25T08:41:07.999Z</time></trkpt><trkpt lat="43.85073332682652" lon="10.671053018517977"><ele>122.0</ele><time>2026-04-25T08:41:08.999Z</time></trkpt><trkpt lat="43.8507731204684" lon="10.670974519694132"><ele>121.99999999999999</ele><time>2026-04-25T08:41:09.999Z</time></trkpt><trkpt lat="43.85080481491622" lon="10.670892737923731"><ele>121.99999999999999</ele><time>2026-04-25T08:41:10.999Z</time></trkpt><trkpt lat="43.85086445710449" lon="10.670739033388942"><ele>123.19999999999999</ele><time>2026-04-25T08:41:12.999Z</time></trkpt><trkpt lat="43.8509011278491" lon="10.670582640974198"><ele>124.39999999999999</ele><time>2026-04-25T08:41:14.999Z</time></trkpt><trkpt lat="43.85081988795896" lon="10.67046894850132"><ele>125.60000000000001</ele><time>2026-04-25T08:41:16.999Z</time></trkpt><trkpt lat="43.85075570104231" lon="10.670488444760107"><ele>126.80000000000001</ele><time>2026-04-25T08:41:17.999Z</time></trkpt><trkpt lat="43.85069941654426" lon="10.670528159068084"><ele>128.0</ele><time>2026-04-25T08:41:18.999Z</time></trkpt><trkpt lat="43.850604899968914" lon="10.67052966395881"><ele>127.99999999999999</ele><time>2026-04-25T08:41:20.999Z</time></trkpt><trkpt lat="43.85051652836874" lon="10.670554788167454"><ele>128.0</ele><time>2026-04-25T08:41:22.999Z</time></trkpt><trkpt lat="43.850433786912106" lon="10.670565176869845"><ele>128.0</ele><time>2026-04-25T08:41:24.999Z</time></trkpt><trkpt lat="43.85035127433618" lon="10.670573433279527"><ele>128.0</ele><time>2026-04-25T08:41:26.999Z</time></trkpt><trkpt lat="43.850273687276484" lon="10.670588495159093"><ele>127.99999999999999</ele><time>2026-04-25T08:41:28.999Z</time></trkpt><trkpt lat="43.85019544696526" lon="10.670590626416608"><ele>128.0</ele><time>2026-04-25T08:41:30.999Z</time></trkpt><trkpt lat="43.850116683058594" lon="10.670603573545987"><ele>128.5</ele><time>2026-04-25T08:41:32.999Z</time></trkpt><trkpt lat="43.850037295852566" lon="10.67061363514507"><ele>129.0</ele><time>2026-04-25T08:41:34.999Z</time></trkpt><trkpt lat="43.849956028676" lon="10.670621621403745"><ele>129.5</ele><time>2026-04-25T08:41:36.999Z</time></trkpt><trkpt lat="43.84987505030772" lon="10.670630114105483"><ele>130.0</ele><time>2026-04-25T08:41:38.998Z</time></trkpt><trkpt lat="43.849798292595345" lon="10.670639265602416"><ele>130.5</ele><time>2026-04-25T08:41:40.998Z</time></trkpt><trkpt lat="43.849718833063726" lon="10.670654034729429"><ele>131.0</ele><time>2026-04-25T08:41:42.998Z</time></trkpt><trkpt lat="43.84964233841622" lon="10.670654581034098"><ele>131.0</ele><time>2026-04-25T08:41:44.998Z</time></trkpt><trkpt lat="43.849566850175805" lon="10.67066977771015"><ele>131.0</ele><time>2026-04-25T08:41:46.998Z</time></trkpt><trkpt lat="43.84948783372081" lon="10.670669827398902"><ele>131.0</ele><time>2026-04-25T08:41:48.998Z</time></trkpt><trkpt lat="43.84941531476608" lon="10.670627419208243"><ele>131.0</ele><time>2026-04-25T08:41:50.998Z</time></trkpt><trkpt lat="43.84937441904689" lon="10.67053131036512"><ele>131.0</ele><time>2026-04-25T08:41:53Z</time></trkpt><trkpt lat="43.849428552177855" lon="10.670426571329791"><ele>131.0</ele><time>2026-04-25T08:41:55Z</time></trkpt><trkpt lat="43.849515430181874" lon="10.670382854507672"><ele>131.0</ele><time>2026-04-25T08:41:57Z</time></trkpt><trkpt lat="43.84959946045505" lon="10.67035962718309"><ele>131.0</ele><time>2026-04-25T08:41:59Z</time></trkpt><trkpt lat="43.849675619117" lon="10.67033260538053"><ele>131.0</ele><time>2026-04-25T08:42:01Z</time></trkpt><trkpt lat="43.84976109486668" lon="10.670301547048735"><ele>131.0</ele><time>2026-04-25T08:42:03Z</time></trkpt><trkpt lat="43.84983506225811" lon="10.670289637692798"><ele>131.0</ele><time>2026-04-25T08:42:05Z</time></trkpt><trkpt lat="43.84991136626127" lon="10.670268360629635"><ele>131.0</ele><time>2026-04-25T08:42:07Z</time></trkpt><trkpt lat="43.84998768608573" lon="10.670255489033863"><ele>132.5</ele><time>2026-04-25T08:42:09Z</time></trkpt><trkpt lat="43.85006423630297" lon="10.670236781866505"><ele>134.0</ele><time>2026-04-25T08:42:11Z</time></trkpt><trkpt lat="43.85013663663038" lon="10.67022068907547"><ele>135.5</ele><time>2026-04-25T08:42:13Z</time></trkpt><trkpt lat="43.850215554296355" lon="10.670187057188548"><ele>137.0</ele><time>2026-04-25T08:42:15Z</time></trkpt><trkpt lat="43.850284681673756" lon="10.670133035488332"><ele>138.5</ele><time>2026-04-25T08:42:17Z</time></trkpt><trkpt lat="43.85034934572551" lon="10.670076056088046"><ele>140.0</ele><time>2026-04-25T08:42:19Z</time></trkpt><trkpt lat="43.85040220849779" lon="10.670002563093446"><ele>140.0</ele><time>2026-04-25T08:42:21Z</time></trkpt><trkpt lat="43.85044966847904" lon="10.669933372704183"><ele>140.0</ele><time>2026-04-25T08:42:23Z</time></trkpt><trkpt lat="43.850502398137316" lon="10.669856298567675"><ele>140.0</ele><time>2026-04-25T08:42:25Z</time></trkpt><trkpt lat="43.85055488164603" lon="10.669789836697262"><ele>140.0</ele><time>2026-04-25T08:42:27Z</time></trkpt><trkpt lat="43.850603341477765" lon="10.669712649536171"><ele>140.0</ele><time>2026-04-25T08:42:29Z</time></trkpt><trkpt lat="43.85065213684462" lon="10.669633247012813"><ele>140.0</ele><time>2026-04-25T08:42:31Z</time></trkpt><trkpt lat="43.85070205869787" lon="10.669558611369121"><ele>140.0</ele><time>2026-04-25T08:42:33Z</time></trkpt><trkpt lat="43.85075860323371" lon="10.66947900981885"><ele>141.16666666666666</ele><time>2026-04-25T08:42:35Z</time></trkpt><trkpt lat="43.85080866575323" lon="10.669397277190372"><ele>142.33333333333331</ele><time>2026-04-25T08:42:37Z</time></trkpt><trkpt lat="43.85085849191696" lon="10.669314360954406"><ele>143.5</ele><time>2026-04-25T08:42:39Z</time></trkpt><trkpt lat="43.850911884983624" lon="10.669238499122141"><ele>144.66666666666666</ele><time>2026-04-25T08:42:40.999Z</time></trkpt><trkpt lat="43.8509660877083" lon="10.669159209351204"><ele>145.83333333333334</ele><time>2026-04-25T08:42:42.999Z</time></trkpt><trkpt lat="43.85101691957294" lon="10.669075487101853"><ele>147.0</ele><time>2026-04-25T08:42:44.999Z</time></trkpt><trkpt lat="43.8510454193753" lon="10.66898487838354"><ele>147.0</ele><time>2026-04-25T08:42:46.999Z</time></trkpt><trkpt lat="43.851037484994926" lon="10.668885255012922"><ele>147.0</ele><time>2026-04-25T08:42:48.999Z</time></trkpt><trkpt lat="43.85094113712169" lon="10.66890064611215"><ele>147.0</ele><time>2026-04-25T08:42:51.999Z</time></trkpt><trkpt lat="43.85087122143841" lon="10.668949222897814"><ele>147.0</ele><time>2026-04-25T08:42:53.999Z</time></trkpt><trkpt lat="43.85079915327369" lon="10.668985223393111"><ele>147.0</ele><time>2026-04-25T08:42:55.999Z</time></trkpt><trkpt lat="43.85073177229413" lon="10.66905216156147"><ele>147.0</ele><time>2026-04-25T08:42:57.999Z</time></trkpt><trkpt lat="43.85066843243115" lon="10.669101953410086"><ele>147.57142857142858</ele><time>2026-04-25T08:42:59.999Z</time></trkpt><trkpt lat="43.85059752016945" lon="10.669137725965372"><ele>148.14285714285714</ele><time>2026-04-25T08:43:01.999Z</time></trkpt><trkpt lat="43.85053758312049" lon="10.669166683540512"><ele>148.71428571428572</ele><time>2026-04-25T08:43:03.999Z</time></trkpt><trkpt lat="43.85047321679734" lon="10.669185424488761"><ele>149.28571428571428</ele><time>2026-04-25T08:43:06.999Z</time></trkpt><trkpt lat="43.85040900730238" lon="10.669206035318451"><ele>149.85714285714286</ele><time>2026-04-25T08:43:10.999Z</time></trkpt><trkpt lat="43.850333636242866" lon="10.66923674030829"><ele>150.42857142857144</ele><time>2026-04-25T08:43:13.999Z</time></trkpt><trkpt lat="43.85026903228385" lon="10.669259583521416"><ele>151.0</ele><time>2026-04-25T08:43:15.999Z</time></trkpt><trkpt lat="43.850202601692054" lon="10.669273627433391"><ele>151.00000000000003</ele><time>2026-04-25T08:43:17.999Z</time></trkpt><trkpt lat="43.85012653152738" lon="10.669306461792715"><ele>151.0</ele><time>2026-04-25T08:43:19.999Z</time></trkpt><trkpt lat="43.85006314215884" lon="10.669335309895867"><ele>151.0</ele><time>2026-04-25T08:43:21.999Z</time></trkpt><trkpt lat="43.84999545740667" lon="10.669324174307324"><ele>151.0</ele><time>2026-04-25T08:43:23.999Z</time></trkpt><trkpt lat="43.84995054088374" lon="10.669257871536862"><ele>151.0</ele><time>2026-04-25T08:43:25.999Z</time></trkpt><trkpt lat="43.849905843425304" lon="10.669187087953622"><ele>151.00000000000003</ele><time>2026-04-25T08:43:27.999Z</time></trkpt><trkpt lat="43.84986374717544" lon="10.66909043421311"><ele>151.0</ele><time>2026-04-25T08:43:30.999Z</time></trkpt><trkpt lat="43.8499334639334" lon="10.669024927354858"><ele>151.00000000000003</ele><time>2026-04-25T08:43:33.999Z</time></trkpt><trkpt lat="43.849996695130436" lon="10.668966924526366"><ele>151.0</ele><time>2026-04-25T08:43:35.999Z</time></trkpt><trkpt lat="43.85005879627025" lon="10.668913944332703"><ele>151.0</ele><time>2026-04-25T08:43:37.999Z</time></trkpt><trkpt lat="43.850121545107086" lon="10.668855604029964"><ele>151.0</ele><time>2026-04-25T08:43:39.999Z</time></trkpt><trkpt lat="43.8501804899916" lon="10.668805696658314"><ele>151.0</ele><time>2026-04-25T08:43:41.999Z</time></trkpt><trkpt lat="43.850235672322086" lon="10.66873456019216"><ele>151.00000000000003</ele><time>2026-04-25T08:43:43.999Z</time></trkpt><trkpt lat="43.85028086359046" lon="10.66865993100607"><ele>151.0</ele><time>2026-04-25T08:43:45.999Z</time></trkpt><trkpt lat="43.85034097388694" lon="10.668608350141186"><ele>152.57142857142858</ele><time>2026-04-25T08:43:47.999Z</time></trkpt><trkpt lat="43.850396771863046" lon="10.66854487756205"><ele>154.14285714285714</ele><time>2026-04-25T08:43:49.999Z</time></trkpt><trkpt lat="43.85045176156045" lon="10.668483912015006"><ele>155.71428571428572</ele><time>2026-04-25T08:43:51.999Z</time></trkpt><trkpt lat="43.850512816697105" lon="10.668432695011653"><ele>157.28571428571428</ele><time>2026-04-25T08:43:53.999Z</time></trkpt><trkpt lat="43.85057288849984" lon="10.66837847262684"><ele>158.85714285714286</ele><time>2026-04-25T08:43:55.999Z</time></trkpt><trkpt lat="43.85063295854802" lon="10.668316629561774"><ele>160.42857142857144</ele><time>2026-04-25T08:43:57.999Z</time></trkpt><trkpt lat="43.85069197975739" lon="10.668266037356243"><ele>162.0</ele><time>2026-04-25T08:44:00Z</time></trkpt><trkpt lat="43.85075519685744" lon="10.668202858701758"><ele>162.0</ele><time>2026-04-25T08:44:02Z</time></trkpt><trkpt lat="43.85081572495708" lon="10.668147023526478"><ele>162.0</ele><time>2026-04-25T08:44:04Z</time></trkpt><trkpt lat="43.85087160712675" lon="10.668099442266476"><ele>162.0</ele><time>2026-04-25T08:44:06Z</time></trkpt><trkpt lat="43.850927824282756" lon="10.66804891176772"><ele>162.0</ele><time>2026-04-25T08:44:08Z</time></trkpt><trkpt lat="43.85097810530107" lon="10.66799333677353"><ele>162.0</ele><time>2026-04-25T08:44:10Z</time></trkpt><trkpt lat="43.85103704163645" lon="10.667911944507638"><ele>162.0</ele><time>2026-04-25T08:44:13Z</time></trkpt><trkpt lat="43.8510993632305" lon="10.667858834938835"><ele>162.0</ele><time>2026-04-25T08:44:17Z</time></trkpt><trkpt lat="43.851147223728674" lon="10.667796666739209"><ele>162.42857142857144</ele><time>2026-04-25T08:44:29Z</time></trkpt><trkpt lat="43.851205566573405" lon="10.667728793664983"><ele>162.85714285714286</ele><time>2026-04-25T08:44:34Z</time></trkpt><trkpt lat="43.85127131530581" lon="10.667677738418517"><ele>163.28571428571428</ele><time>2026-04-25T08:44:38Z</time></trkpt><trkpt lat="43.851334230388254" lon="10.667621456950188"><ele>163.71428571428572</ele><time>2026-04-25T08:44:41Z</time></trkpt><trkpt lat="43.8513819544557" lon="10.667561537720484"><ele>164.14285714285714</ele><time>2026-04-25T08:44:43Z</time></trkpt><trkpt lat="43.85144192418753" lon="10.667510197282537"><ele>164.57142857142858</ele><time>2026-04-25T08:44:45Z</time></trkpt><trkpt lat="43.851498426094444" lon="10.667453801718024"><ele>165.0</ele><time>2026-04-25T08:44:47Z</time></trkpt><trkpt lat="43.85155514728676" lon="10.66740096078117"><ele>165.00000000000003</ele><time>2026-04-25T08:44:49Z</time></trkpt><trkpt lat="43.85161052031081" lon="10.667345891345416"><ele>165.0</ele><time>2026-04-25T08:44:51Z</time></trkpt><trkpt lat="43.85166735030721" lon="10.66728690502889"><ele>165.0</ele><time>2026-04-25T08:44:52.999Z</time></trkpt><trkpt lat="43.85171268315846" lon="10.667207756842553"><ele>165.0</ele><time>2026-04-25T08:44:54.999Z</time></trkpt><trkpt lat="43.85171867681074" lon="10.667105009116225"><ele>165.0</ele><time>2026-04-25T08:44:56.999Z</time></trkpt><trkpt lat="43.85175771723186" lon="10.667032218103989"><ele>165.00000000000003</ele><time>2026-04-25T08:44:58.999Z</time></trkpt><trkpt lat="43.85178756389259" lon="10.666913080327994"><ele>165.0</ele><time>2026-04-25T08:45:00.999Z</time></trkpt><trkpt lat="43.85183066171979" lon="10.666772347157618"><ele>164.33333333333334</ele><time>2026-04-25T08:45:02.999Z</time></trkpt><trkpt lat="43.851875770566785" lon="10.666622506977344"><ele>163.66666666666666</ele><time>2026-04-25T08:45:04.999Z</time></trkpt><trkpt lat="43.85192706759885" lon="10.666559463796311"><ele>163.0</ele><time>2026-04-25T08:45:05.999Z</time></trkpt><trkpt lat="43.851983057216486" lon="10.666491706775133"><ele>162.33333333333331</ele><time>2026-04-25T08:45:06.999Z</time></trkpt><trkpt lat="43.85203378666798" lon="10.666411685055019"><ele>161.66666666666666</ele><time>2026-04-25T08:45:07.999Z</time></trkpt><trkpt lat="43.852086950423136" lon="10.66632645951598"><ele>161.0</ele><time>2026-04-25T08:45:08.999Z</time></trkpt><trkpt lat="43.85213456721266" lon="10.666247405952504"><ele>161.0</ele><time>2026-04-25T08:45:09.999Z</time></trkpt><trkpt lat="43.852183971748715" lon="10.666167573659665"><ele>161.0</ele><time>2026-04-25T08:45:10.999Z</time></trkpt><trkpt lat="43.852239942284484" lon="10.666093731141068"><ele>161.0</ele><time>2026-04-25T08:45:11.999Z</time></trkpt><trkpt lat="43.852291945216685" lon="10.666016821076084"><ele>161.0</ele><time>2026-04-25T08:45:12.999Z</time></trkpt><trkpt lat="43.85234431884356" lon="10.665939994558384"><ele>161.0</ele><time>2026-04-25T08:45:13.999Z</time></trkpt><trkpt lat="43.852388439080066" lon="10.665861230909318"><ele>161.0</ele><time>2026-04-25T08:45:14.999Z</time></trkpt><trkpt lat="43.852438165028865" lon="10.665786341891506"><ele>159.60000000000002</ele><time>2026-04-25T08:45:15.999Z</time></trkpt><trkpt lat="43.85248118747019" lon="10.665717252052277"><ele>158.20000000000002</ele><time>2026-04-25T08:45:16.999Z</time></trkpt><trkpt lat="43.85252147896505" lon="10.665638531312291"><ele>156.8</ele><time>2026-04-25T08:45:17.999Z</time></trkpt><trkpt lat="43.85258065242097" lon="10.665498011302317"><ele>155.4</ele><time>2026-04-25T08:45:19.999Z</time></trkpt><trkpt lat="43.85267185948119" lon="10.665450554438168"><ele>154.0</ele><time>2026-04-25T08:45:21.999Z</time></trkpt><trkpt lat="43.8527533875143" lon="10.665559813355586"><ele>152.5</ele><time>2026-04-25T08:45:23.999Z</time></trkpt><trkpt lat="43.852835386043516" lon="10.665659643138683"><ele>151.0</ele><time>2026-04-25T08:45:25.999Z</time></trkpt><trkpt lat="43.852922071112715" lon="10.665756629659981"><ele>149.5</ele><time>2026-04-25T08:45:27.999Z</time></trkpt><trkpt lat="43.8530208904698" lon="10.665853622847523"><ele>148.0</ele><time>2026-04-25T08:45:29.999Z</time></trkpt><trkpt lat="43.85311453376456" lon="10.665947535742282"><ele>148.0</ele><time>2026-04-25T08:45:31.999Z</time></trkpt><trkpt lat="43.853168305998565" lon="10.665998858236623"><ele>148.0</ele><time>2026-04-25T08:45:32.999Z</time></trkpt><trkpt lat="43.85324847082732" lon="10.666061752521006"><ele>148.0</ele><time>2026-04-25T08:45:34.999Z</time></trkpt><trkpt lat="43.8533319132922" lon="10.66613514075653"><ele>148.0</ele><time>2026-04-25T08:45:36.999Z</time></trkpt><trkpt lat="43.85335125816447" lon="10.666222630875394"><ele>148.0</ele><time>2026-04-25T08:45:37.999Z</time></trkpt><trkpt lat="43.853346648703614" lon="10.666323030438408"><ele>148.0</ele><time>2026-04-25T08:45:38.999Z</time></trkpt><trkpt lat="43.85332862792582" lon="10.66643432099252"><ele>147.8</ele><time>2026-04-25T08:45:39.999Z</time></trkpt><trkpt lat="43.85328725105852" lon="10.666539216775284"><ele>147.60000000000002</ele><time>2026-04-25T08:45:40.999Z</time></trkpt><trkpt lat="43.85323368952132" lon="10.666635998192316"><ele>147.39999999999998</ele><time>2026-04-25T08:45:41.999Z</time></trkpt><trkpt lat="43.85316977230866" lon="10.666728037420878"><ele>147.2</ele><time>2026-04-25T08:45:42.999Z</time></trkpt><trkpt lat="43.853106921465326" lon="10.666825890224667"><ele>147.0</ele><time>2026-04-25T08:45:43.999Z</time></trkpt><trkpt lat="43.853042318604786" lon="10.666928879630982"><ele>144.6</ele><time>2026-04-25T08:45:44.999Z</time></trkpt><trkpt lat="43.852975880311604" lon="10.667035932962294"><ele>142.2</ele><time>2026-04-25T08:45:45.999Z</time></trkpt><trkpt lat="43.85291288386319" lon="10.667149581095911"><ele>139.8</ele><time>2026-04-25T08:45:46.999Z</time></trkpt><trkpt lat="43.85285196171508" lon="10.667276148607625"><ele>137.4</ele><time>2026-04-25T08:45:47.999Z</time></trkpt><trkpt lat="43.85279393857526" lon="10.667402525552484"><ele>135.0</ele><time>2026-04-25T08:45:48.999Z</time></trkpt><trkpt lat="43.85274724696343" lon="10.667547428530362"><ele>135.0</ele><time>2026-04-25T08:45:49.999Z</time></trkpt><trkpt lat="43.852716427941495" lon="10.66770401335982"><ele>135.0</ele><time>2026-04-25T08:45:50.999Z</time></trkpt><trkpt lat="43.85268714305874" lon="10.667857890314338"><ele>135.0</ele><time>2026-04-25T08:45:51.999Z</time></trkpt><trkpt lat="43.85266150228604" lon="10.668023219898084"><ele>135.0</ele><time>2026-04-25T08:45:52.999Z</time></trkpt><trkpt lat="43.852641841851685" lon="10.668190276212714"><ele>134.0</ele><time>2026-04-25T08:45:53.999Z</time></trkpt><trkpt lat="43.85261780753654" lon="10.66835861351916"><ele>133.0</ele><time>2026-04-25T08:45:54.999Z</time></trkpt><trkpt lat="43.85259452068378" lon="10.668527551866166"><ele>132.0</ele><time>2026-04-25T08:45:55.999Z</time></trkpt><trkpt lat="43.85258046732366" lon="10.66870119587325"><ele>131.0</ele><time>2026-04-25T08:45:56.999Z</time></trkpt><trkpt lat="43.8525710001787" lon="10.66887779482471"><ele>131.0</ele><time>2026-04-25T08:45:57.999Z</time></trkpt><trkpt lat="43.85256391906607" lon="10.669053915993711"><ele>131.0</ele><time>2026-04-25T08:45:58.999Z</time></trkpt><trkpt lat="43.852554213089405" lon="10.669217064939176"><ele>131.0</ele><time>2026-04-25T08:45:59.999Z</time></trkpt><trkpt lat="43.8525450372009" lon="10.66939924400711"><ele>131.0</ele><time>2026-04-25T08:46:00.999Z</time></trkpt><trkpt lat="43.85252659868198" lon="10.669567952778996"><ele>129.4</ele><time>2026-04-25T08:46:01.999Z</time></trkpt><trkpt lat="43.85251662057303" lon="10.669735896121802"><ele>127.8</ele><time>2026-04-25T08:46:02.999Z</time></trkpt><trkpt lat="43.852516758382976" lon="10.66989111455091"><ele>126.20000000000002</ele><time>2026-04-25T08:46:03.999Z</time></trkpt><trkpt lat="43.85252263949496" lon="10.670034966499196"><ele>124.60000000000001</ele><time>2026-04-25T08:46:05Z</time></trkpt><trkpt lat="43.85254119070724" lon="10.67016530420509"><ele>123.0</ele><time>2026-04-25T08:46:06Z</time></trkpt><trkpt lat="43.85256689890854" lon="10.670281756173535"><ele>121.60000000000001</ele><time>2026-04-25T08:46:07Z</time></trkpt><trkpt lat="43.85259205400782" lon="10.670392145257553"><ele>120.20000000000002</ele><time>2026-04-25T08:46:08Z</time></trkpt><trkpt lat="43.85260782932702" lon="10.670494190475205"><ele>118.8</ele><time>2026-04-25T08:46:09Z</time></trkpt><trkpt lat="43.85263126098836" lon="10.6706145648786"><ele>117.4</ele><time>2026-04-25T08:46:11Z</time></trkpt><trkpt lat="43.85272730470511" lon="10.670748795028093"><ele>116.0</ele><time>2026-04-25T08:46:13Z</time></trkpt><trkpt lat="43.852790340768586" lon="10.670824988921867"><ele>113.4</ele><time>2026-04-25T08:46:14Z</time></trkpt><trkpt lat="43.85285008349216" lon="10.670922059374782"><ele>110.8</ele><time>2026-04-25T08:46:15Z</time></trkpt><trkpt lat="43.85291219697197" lon="10.67102765499146"><ele>108.2</ele><time>2026-04-25T08:46:16Z</time></trkpt><trkpt lat="43.85297298786584" lon="10.671144311118548"><ele>105.60000000000001</ele><time>2026-04-25T08:46:17Z</time></trkpt><trkpt lat="43.85303659796108" lon="10.6712647180644"><ele>103.0</ele><time>2026-04-25T08:46:18Z</time></trkpt><trkpt lat="43.85310464251016" lon="10.671387961922187"><ele>103.0</ele><time>2026-04-25T08:46:19Z</time></trkpt><trkpt lat="43.85316634617527" lon="10.671526810208887"><ele>103.0</ele><time>2026-04-25T08:46:20Z</time></trkpt><trkpt lat="43.8532193004258" lon="10.671675457119026"><ele>103.0</ele><time>2026-04-25T08:46:21Z</time></trkpt><trkpt lat="43.85326106106518" lon="10.671839416939262"><ele>103.0</ele><time>2026-04-25T08:46:22Z</time></trkpt><trkpt lat="43.85328677845967" lon="10.672012568361565"><ele>100.75</ele><time>2026-04-25T08:46:23Z</time></trkpt><trkpt lat="43.85330471224644" lon="10.672198099991574"><ele>98.5</ele><time>2026-04-25T08:46:24Z</time></trkpt><trkpt lat="43.853322438140154" lon="10.672382762917398"><ele>96.25</ele><time>2026-04-25T08:46:25Z</time></trkpt><trkpt lat="43.853345029772065" lon="10.672569291974822"><ele>94.0</ele><time>2026-04-25T08:46:26Z</time></trkpt><trkpt lat="43.85337959980825" lon="10.67275159217429"><ele>91.5</ele><time>2026-04-25T08:46:27Z</time></trkpt><trkpt lat="43.85345094288323" lon="10.672914746041"><ele>89.0</ele><time>2026-04-25T08:46:28Z</time></trkpt><trkpt lat="43.85355718875096" lon="10.673054092097034"><ele>86.5</ele><time>2026-04-25T08:46:29Z</time></trkpt><trkpt lat="43.85367318762815" lon="10.673177071158335"><ele>84.0</ele><time>2026-04-25T08:46:30Z</time></trkpt><trkpt lat="43.853786626161366" lon="10.673295092031083"><ele>83.75</ele><time>2026-04-25T08:46:31Z</time></trkpt><trkpt lat="43.85389955432532" lon="10.673422077638158"><ele>83.5</ele><time>2026-04-25T08:46:32Z</time></trkpt><trkpt lat="43.85401038527121" lon="10.673546675164973"><ele>83.25</ele><time>2026-04-25T08:46:33Z</time></trkpt><trkpt lat="43.85412256116225" lon="10.673677525181587"><ele>83.0</ele><time>2026-04-25T08:46:34Z</time></trkpt><trkpt lat="43.854235279414496" lon="10.673815426047524"><ele>82.0</ele><time>2026-04-25T08:46:35Z</time></trkpt><trkpt lat="43.8543459445615" lon="10.673946746572387"><ele>81.0</ele><time>2026-04-25T08:46:36Z</time></trkpt><trkpt lat="43.85445204483419" lon="10.674068627778738"><ele>80.0</ele><time>2026-04-25T08:46:37Z</time></trkpt><trkpt lat="43.85455454993019" lon="10.674189263316068"><ele>79.0</ele><time>2026-04-25T08:46:38Z</time></trkpt><trkpt lat="43.85465658970105" lon="10.674291262620379"><ele>79.0</ele><time>2026-04-25T08:46:39Z</time></trkpt><trkpt lat="43.85477098250341" lon="10.67436965812046"><ele>79.0</ele><time>2026-04-25T08:46:40Z</time></trkpt><trkpt lat="43.85489944271016" lon="10.674413878589023"><ele>79.0</ele><time>2026-04-25T08:46:41Z</time></trkpt><trkpt lat="43.85503430618654" lon="10.674423618500034"><ele>79.0</ele><time>2026-04-25T08:46:42Z</time></trkpt><trkpt lat="43.855180893676284" lon="10.674391275739579"><ele>75.25</ele><time>2026-04-25T08:46:43Z</time></trkpt><trkpt lat="43.855320231075254" lon="10.674353940569253"><ele>71.5</ele><time>2026-04-25T08:46:44Z</time></trkpt><trkpt lat="43.855459810713576" lon="10.674330652049779"><ele>67.75</ele><time>2026-04-25T08:46:45Z</time></trkpt><trkpt lat="43.855604822539945" lon="10.67432007274944"><ele>64.0</ele><time>2026-04-25T08:46:46Z</time></trkpt><trkpt lat="43.85575040188025" lon="10.674305228152637"><ele>64.0</ele><time>2026-04-25T08:46:47Z</time></trkpt><trkpt lat="43.855901833165476" lon="10.67429195497694"><ele>64.0</ele><time>2026-04-25T08:46:48Z</time></trkpt><trkpt lat="43.8560510047761" lon="10.674272493939647"><ele>64.0</ele><time>2026-04-25T08:46:49Z</time></trkpt><trkpt lat="43.856198199539094" lon="10.6742623108909"><ele>64.0</ele><time>2026-04-25T08:46:50Z</time></trkpt><trkpt lat="43.856342956220374" lon="10.6742668206194"><ele>60.666666666666664</ele><time>2026-04-25T08:46:51Z</time></trkpt><trkpt lat="43.856490481545556" lon="10.674302355286342"><ele>57.33333333333333</ele><time>2026-04-25T08:46:52Z</time></trkpt><trkpt lat="43.85663700456061" lon="10.674374548780506"><ele>54.0</ele><time>2026-04-25T08:46:53Z</time></trkpt><trkpt lat="43.856778855921235" lon="10.674461240862001"><ele>51.666666666666664</ele><time>2026-04-25T08:46:54Z</time></trkpt><trkpt lat="43.856915572267695" lon="10.674546748800761"><ele>49.33333333333333</ele><time>2026-04-25T08:46:55Z</time></trkpt><trkpt lat="43.857061269528586" lon="10.674620480938529"><ele>47.0</ele><time>2026-04-25T08:46:56Z</time></trkpt><trkpt lat="43.85720509595919" lon="10.67470477868988"><ele>47.0</ele><time>2026-04-25T08:46:57Z</time></trkpt><trkpt lat="43.857348230779145" lon="10.674798970889315"><ele>47.0</ele><time>2026-04-25T08:46:58Z</time></trkpt><trkpt lat="43.85748033125522" lon="10.6749162237731"><ele>47.0</ele><time>2026-04-25T08:46:59Z</time></trkpt><trkpt lat="43.857602937517015" lon="10.675064966293778"><ele>45.666666666666664</ele><time>2026-04-25T08:47:00Z</time></trkpt><trkpt lat="43.85771084107912" lon="10.675221631328414"><ele>44.333333333333336</ele><time>2026-04-25T08:47:01Z</time></trkpt><trkpt lat="43.85781102765916" lon="10.675388611369126"><ele>43.0</ele><time>2026-04-25T08:47:01.999Z</time></trkpt><trkpt lat="43.85790593155726" lon="10.675551699625807"><ele>42.5</ele><time>2026-04-25T08:47:02.999Z</time></trkpt><trkpt lat="43.85800412317189" lon="10.675704006290362"><ele>42.0</ele><time>2026-04-25T08:47:03.999Z</time></trkpt><trkpt lat="43.858102109630025" lon="10.675858022829766"><ele>41.5</ele><time>2026-04-25T08:47:04.999Z</time></trkpt><trkpt lat="43.85820401626116" lon="10.676000504574574"><ele>41.0</ele><time>2026-04-25T08:47:05.999Z</time></trkpt><trkpt lat="43.85830438424582" lon="10.676137744032454"><ele>40.25</ele><time>2026-04-25T08:47:06.999Z</time></trkpt><trkpt lat="43.85840146445425" lon="10.676273401211455"><ele>39.5</ele><time>2026-04-25T08:47:07.999Z</time></trkpt><trkpt lat="43.858505124230874" lon="10.676405088990542"><ele>38.75</ele><time>2026-04-25T08:47:08.999Z</time></trkpt><trkpt lat="43.858611789791055" lon="10.676525604718188"><ele>38.0</ele><time>2026-04-25T08:47:09.999Z</time></trkpt><trkpt lat="43.85872541082393" lon="10.676631935234903"><ele>37.25</ele><time>2026-04-25T08:47:10.999Z</time></trkpt><trkpt lat="43.85883998780158" lon="10.67673266565848"><ele>36.5</ele><time>2026-04-25T08:47:11.999Z</time></trkpt><trkpt lat="43.85894973598144" lon="10.676827933031637"><ele>35.75</ele><time>2026-04-25T08:47:12.999Z</time></trkpt><trkpt lat="43.859056841914715" lon="10.676927539368522"><ele>35.0</ele><time>2026-04-25T08:47:13.999Z</time></trkpt><trkpt lat="43.85915968928397" lon="10.677031590455467"><ele>34.75</ele><time>2026-04-25T08:47:14.999Z</time></trkpt><trkpt lat="43.85926601452051" lon="10.67713323551316"><ele>34.5</ele><time>2026-04-25T08:47:15.999Z</time></trkpt><trkpt lat="43.85937060231394" lon="10.677229763314969"><ele>34.25</ele><time>2026-04-25T08:47:16.999Z</time></trkpt><trkpt lat="43.859481933130816" lon="10.677313859030306"><ele>34.0</ele><time>2026-04-25T08:47:17.999Z</time></trkpt><trkpt lat="43.85958669341835" lon="10.677403320407603"><ele>33.75</ele><time>2026-04-25T08:47:18.999Z</time></trkpt><trkpt lat="43.859690650402065" lon="10.677497082400674"><ele>33.5</ele><time>2026-04-25T08:47:19.999Z</time></trkpt><trkpt lat="43.859792323815256" lon="10.677591212344545"><ele>33.25</ele><time>2026-04-25T08:47:20.999Z</time></trkpt><trkpt lat="43.859894131553354" lon="10.677671090798883"><ele>33.0</ele><time>2026-04-25T08:47:21.999Z</time></trkpt><trkpt lat="43.859999069449124" lon="10.677752124435683"><ele>33.0</ele><time>2026-04-25T08:47:22.999Z</time></trkpt><trkpt lat="43.86010521763494" lon="10.677829639001912"><ele>33.0</ele><time>2026-04-25T08:47:23.999Z</time></trkpt><trkpt lat="43.860207105260706" lon="10.677914463789373"><ele>33.0</ele><time>2026-04-25T08:47:24.999Z</time></trkpt><trkpt lat="43.860309303685035" lon="10.677992238844704"><ele>33.0</ele><time>2026-04-25T08:47:25.999Z</time></trkpt><trkpt lat="43.86041278269885" lon="10.678062939320528"><ele>32.4</ele><time>2026-04-25T08:47:26.999Z</time></trkpt><trkpt lat="43.860516357857776" lon="10.678129702407652"><ele>31.799999999999997</ele><time>2026-04-25T08:47:27.999Z</time></trkpt><trkpt lat="43.86061165962896" lon="10.678197644820951"><ele>31.2</ele><time>2026-04-25T08:47:28.999Z</time></trkpt><trkpt lat="43.86070539187427" lon="10.67827133125072"><ele>30.6</ele><time>2026-04-25T08:47:29.999Z</time></trkpt><trkpt lat="43.86079763000333" lon="10.678336165917017"><ele>30.0</ele><time>2026-04-25T08:47:30.999Z</time></trkpt><trkpt lat="43.86088900719719" lon="10.678398622923284"><ele>30.2</ele><time>2026-04-25T08:47:31.999Z</time></trkpt><trkpt lat="43.86097650857268" lon="10.678459636852887"><ele>30.4</ele><time>2026-04-25T08:47:32.999Z</time></trkpt><trkpt lat="43.86106532969042" lon="10.678507959906376"><ele>30.6</ele><time>2026-04-25T08:47:33.999Z</time></trkpt><trkpt lat="43.86115378236403" lon="10.67855904257157"><ele>30.8</ele><time>2026-04-25T08:47:34.999Z</time></trkpt><trkpt lat="43.86124085695644" lon="10.678607317888272"><ele>31.0</ele><time>2026-04-25T08:47:35.999Z</time></trkpt><trkpt lat="43.86132955809441" lon="10.678648809157345"><ele>30.6</ele><time>2026-04-25T08:47:36.999Z</time></trkpt><trkpt lat="43.86142076699151" lon="10.6786878446464"><ele>30.200000000000003</ele><time>2026-04-25T08:47:37.999Z</time></trkpt><trkpt lat="43.86150820478759" lon="10.678723974335604"><ele>29.799999999999997</ele><time>2026-04-25T08:47:38.999Z</time></trkpt><trkpt lat="43.86159623889613" lon="10.678760296490728"><ele>29.4</ele><time>2026-04-25T08:47:39.999Z</time></trkpt><trkpt lat="43.861691956701115" lon="10.678794437565886"><ele>29.0</ele><time>2026-04-25T08:47:40.999Z</time></trkpt><trkpt lat="43.86179070502557" lon="10.678838827986828"><ele>29.0</ele><time>2026-04-25T08:47:41.999Z</time></trkpt><trkpt lat="43.86188823479665" lon="10.678880262694832"><ele>29.0</ele><time>2026-04-25T08:47:42.999Z</time></trkpt><trkpt lat="43.86198629372092" lon="10.678914621439366"><ele>29.0</ele><time>2026-04-25T08:47:43.999Z</time></trkpt><trkpt lat="43.86208201851145" lon="10.678951696638693"><ele>29.0</ele><time>2026-04-25T08:47:44.999Z</time></trkpt><trkpt lat="43.862176798861746" lon="10.678993581175574"><ele>29.0</ele><time>2026-04-25T08:47:45.999Z</time></trkpt><trkpt lat="43.86227120504189" lon="10.679036487313036"><ele>29.0</ele><time>2026-04-25T08:47:46.999Z</time></trkpt><trkpt lat="43.862366640436534" lon="10.679079264137423"><ele>29.0</ele><time>2026-04-25T08:47:47.999Z</time></trkpt><trkpt lat="43.86245918311313" lon="10.679127461077734"><ele>29.0</ele><time>2026-04-25T08:47:48.999Z</time></trkpt><trkpt lat="43.86254711032967" lon="10.679187764873008"><ele>29.0</ele><time>2026-04-25T08:47:49.999Z</time></trkpt><trkpt lat="43.86262324588523" lon="10.679277755380054"><ele>29.0</ele><time>2026-04-25T08:47:50.999Z</time></trkpt><trkpt lat="43.86268152402018" lon="10.679378246512155"><ele>28.6</ele><time>2026-04-25T08:47:51.999Z</time></trkpt><trkpt lat="43.86276731997521" lon="10.679455286729967"><ele>28.2</ele><time>2026-04-25T08:47:52.999Z</time></trkpt><trkpt lat="43.86285819613265" lon="10.679500045825405"><ele>27.800000000000004</ele><time>2026-04-25T08:47:53.999Z</time></trkpt><trkpt lat="43.86294838886476" lon="10.679556121331588"><ele>27.400000000000002</ele><time>2026-04-25T08:47:54.999Z</time></trkpt><trkpt lat="43.86303701638557" lon="10.679599460424178"><ele>27.0</ele><time>2026-04-25T08:47:55.999Z</time></trkpt><trkpt lat="43.86312788538915" lon="10.679648519042665"><ele>27.0</ele><time>2026-04-25T08:47:56.999Z</time></trkpt><trkpt lat="43.86321451827831" lon="10.67969045097868"><ele>27.000000000000004</ele><time>2026-04-25T08:47:57.999Z</time></trkpt><trkpt lat="43.86330931715554" lon="10.679727612842465"><ele>27.000000000000004</ele><time>2026-04-25T08:47:58.999Z</time></trkpt><trkpt lat="43.8633903327542" lon="10.679769803498237"><ele>27.0</ele><time>2026-04-25T08:47:59.999Z</time></trkpt><trkpt lat="43.86347436241864" lon="10.679812229191054"><ele>27.0</ele><time>2026-04-25T08:48:00.999Z</time></trkpt><trkpt lat="43.863558538320554" lon="10.679860122074194"><ele>26.833333333333332</ele><time>2026-04-25T08:48:01.999Z</time></trkpt><trkpt lat="43.863642619508" lon="10.679905986140241"><ele>26.666666666666664</ele><time>2026-04-25T08:48:02.999Z</time></trkpt><trkpt lat="43.86372693420489" lon="10.6799400683053"><ele>26.5</ele><time>2026-04-25T08:48:03.999Z</time></trkpt><trkpt lat="43.863807327502485" lon="10.679974693352376"><ele>26.333333333333332</ele><time>2026-04-25T08:48:04.999Z</time></trkpt><trkpt lat="43.86388922384844" lon="10.680013619021606"><ele>26.166666666666664</ele><time>2026-04-25T08:48:05.999Z</time></trkpt><trkpt lat="43.863966880269125" lon="10.680053872251072"><ele>26.0</ele><time>2026-04-25T08:48:06.999Z</time></trkpt><trkpt lat="43.86404622361943" lon="10.680094796470481"><ele>25.999999999999996</ele><time>2026-04-25T08:48:07.999Z</time></trkpt><trkpt lat="43.864127166604725" lon="10.680131364249021"><ele>26.0</ele><time>2026-04-25T08:48:08.999Z</time></trkpt><trkpt lat="43.864205844994736" lon="10.680168172842645"><ele>26.0</ele><time>2026-04-25T08:48:09.999Z</time></trkpt><trkpt lat="43.8642854242441" lon="10.680200379763649"><ele>26.0</ele><time>2026-04-25T08:48:11Z</time></trkpt><trkpt lat="43.86436155244313" lon="10.680243238899191"><ele>25.999999999999996</ele><time>2026-04-25T08:48:12Z</time></trkpt><trkpt lat="43.86443837190905" lon="10.680281684114728"><ele>26.0</ele><time>2026-04-25T08:48:13Z</time></trkpt><trkpt lat="43.864515656621705" lon="10.680319176309556"><ele>25.999999999999996</ele><time>2026-04-25T08:48:14Z</time></trkpt><trkpt lat="43.86459101394351" lon="10.68035676870832"><ele>26.0</ele><time>2026-04-25T08:48:15Z</time></trkpt><trkpt lat="43.86466779593449" lon="10.68039555899471"><ele>26.0</ele><time>2026-04-25T08:48:16Z</time></trkpt><trkpt lat="43.86474517801164" lon="10.680431304144891"><ele>26.0</ele><time>2026-04-25T08:48:17Z</time></trkpt><trkpt lat="43.864821390326426" lon="10.680470273810652"><ele>25.999999999999996</ele><time>2026-04-25T08:48:18Z</time></trkpt><trkpt lat="43.86489655079631" lon="10.680505340038811"><ele>26.0</ele><time>2026-04-25T08:48:19Z</time></trkpt><trkpt lat="43.86497182948881" lon="10.68054018031874"><ele>25.999999999999996</ele><time>2026-04-25T08:48:20Z</time></trkpt><trkpt lat="43.86504459575223" lon="10.680576342423299"><ele>26.0</ele><time>2026-04-25T08:48:21Z</time></trkpt><trkpt lat="43.865117983143215" lon="10.68061030992147"><ele>26.0</ele><time>2026-04-25T08:48:22Z</time></trkpt><trkpt lat="43.86518981517666" lon="10.680647583599628"><ele>26.0</ele><time>2026-04-25T08:48:23Z</time></trkpt><trkpt lat="43.86526460969052" lon="10.680682727378075"><ele>25.999999999999996</ele><time>2026-04-25T08:48:24Z</time></trkpt><trkpt lat="43.86533971218341" lon="10.680707659551583"><ele>26.0</ele><time>2026-04-25T08:48:25Z</time></trkpt><trkpt lat="43.86541688412549" lon="10.680735260471465"><ele>26.166666666666664</ele><time>2026-04-25T08:48:26Z</time></trkpt><trkpt lat="43.86549272235476" lon="10.68076142454803"><ele>26.333333333333332</ele><time>2026-04-25T08:48:27Z</time></trkpt><trkpt lat="43.865569896575835" lon="10.680778787031224"><ele>26.5</ele><time>2026-04-25T08:48:28Z</time></trkpt><trkpt lat="43.86564824613686" lon="10.680784907423039"><ele>26.666666666666664</ele><time>2026-04-25T08:48:29Z</time></trkpt><trkpt lat="43.865725145408646" lon="10.680790477775739"><ele>26.833333333333332</ele><time>2026-04-25T08:48:30Z</time></trkpt><trkpt lat="43.8658007457229" lon="10.680788414473845"><ele>27.0</ele><time>2026-04-25T08:48:31Z</time></trkpt><trkpt lat="43.86587365338173" lon="10.680786817270006"><ele>27.142857142857142</ele><time>2026-04-25T08:48:32Z</time></trkpt><trkpt lat="43.86594723743349" lon="10.680790326965266"><ele>27.285714285714285</ele><time>2026-04-25T08:48:33Z</time></trkpt><trkpt lat="43.86602040464542" lon="10.680797432333172"><ele>27.42857142857143</ele><time>2026-04-25T08:48:34Z</time></trkpt><trkpt lat="43.86609542328885" lon="10.680792589745892"><ele>27.57142857142857</ele><time>2026-04-25T08:48:35Z</time></trkpt><trkpt lat="43.86616897725516" lon="10.68077977401693"><ele>27.714285714285715</ele><time>2026-04-25T08:48:36Z</time></trkpt><trkpt lat="43.86624117506242" lon="10.680774422554686"><ele>27.857142857142858</ele><time>2026-04-25T08:48:37Z</time></trkpt><trkpt lat="43.86631483686352" lon="10.680782522596063"><ele>28.0</ele><time>2026-04-25T08:48:38Z</time></trkpt><trkpt lat="43.8663885365333" lon="10.68078782112604"><ele>28.0</ele><time>2026-04-25T08:48:39Z</time></trkpt><trkpt lat="43.86646076141257" lon="10.680790275258511"><ele>28.0</ele><time>2026-04-25T08:48:40Z</time></trkpt><trkpt lat="43.8665332765758" lon="10.680791726580182"><ele>28.0</ele><time>2026-04-25T08:48:41Z</time></trkpt><trkpt lat="43.86660874713417" lon="10.680793184565857"><ele>28.0</ele><time>2026-04-25T08:48:42Z</time></trkpt><trkpt lat="43.86668212696344" lon="10.68079235738532"><ele>28.0</ele><time>2026-04-25T08:48:43Z</time></trkpt><trkpt lat="43.86675642418243" lon="10.680789562061108"><ele>28.0</ele><time>2026-04-25T08:48:44Z</time></trkpt><trkpt lat="43.86683031087742" lon="10.680784664972032"><ele>28.0</ele><time>2026-04-25T08:48:45Z</time></trkpt><trkpt lat="43.866905825144066" lon="10.680787807693827"><ele>28.142857142857142</ele><time>2026-04-25T08:48:46Z</time></trkpt><trkpt lat="43.866976373428706" lon="10.68078925739271"><ele>28.285714285714285</ele><time>2026-04-25T08:48:47Z</time></trkpt><trkpt lat="43.86704709525771" lon="10.680784885292429"><ele>28.42857142857143</ele><time>2026-04-25T08:48:48Z</time></trkpt><trkpt lat="43.86711673326576" lon="10.680787942569019"><ele>28.571428571428573</ele><time>2026-04-25T08:48:49Z</time></trkpt><trkpt lat="43.86718879702315" lon="10.680788017405815"><ele>28.714285714285715</ele><time>2026-04-25T08:48:50Z</time></trkpt><trkpt lat="43.867256277421475" lon="10.680793719739636"><ele>28.85714285714286</ele><time>2026-04-25T08:48:51Z</time></trkpt><trkpt lat="43.867323505530344" lon="10.680804658886297"><ele>29.000000000000004</ele><time>2026-04-25T08:48:52Z</time></trkpt><trkpt lat="43.867391015113895" lon="10.68080190056927"><ele>29.000000000000004</ele><time>2026-04-25T08:48:53Z</time></trkpt><trkpt lat="43.86745657820753" lon="10.680794187810823"><ele>29.0</ele><time>2026-04-25T08:48:54Z</time></trkpt><trkpt lat="43.86752280313538" lon="10.680790575530489"><ele>29.000000000000004</ele><time>2026-04-25T08:48:55Z</time></trkpt><trkpt lat="43.86759014358825" lon="10.680795576273283"><ele>29.000000000000004</ele><time>2026-04-25T08:48:56Z</time></trkpt><trkpt lat="43.867657907492045" lon="10.680792775710925"><ele>29.0</ele><time>2026-04-25T08:48:57Z</time></trkpt><trkpt lat="43.86772747022351" lon="10.680787041519391"><ele>29.000000000000004</ele><time>2026-04-25T08:48:58Z</time></trkpt><trkpt lat="43.867798634093845" lon="10.680779472895336"><ele>29.000000000000004</ele><time>2026-04-25T08:48:59Z</time></trkpt><trkpt lat="43.86786811833198" lon="10.680777807505956"><ele>28.85714285714286</ele><time>2026-04-25T08:49:00Z</time></trkpt><trkpt lat="43.867939123391125" lon="10.680782280981095"><ele>28.714285714285715</ele><time>2026-04-25T08:49:01Z</time></trkpt><trkpt lat="43.86801124589492" lon="10.680786579370208"><ele>28.571428571428573</ele><time>2026-04-25T08:49:02Z</time></trkpt><trkpt lat="43.868079761332304" lon="10.680783990604903"><ele>28.42857142857143</ele><time>2026-04-25T08:49:03Z</time></trkpt><trkpt lat="43.86815207975007" lon="10.68078222651863"><ele>28.285714285714285</ele><time>2026-04-25T08:49:04Z</time></trkpt><trkpt lat="43.86822273122291" lon="10.680781645553688"><ele>28.142857142857142</ele><time>2026-04-25T08:49:05Z</time></trkpt><trkpt lat="43.868289968458555" lon="10.68078515269381"><ele>28.0</ele><time>2026-04-25T08:49:06Z</time></trkpt><trkpt lat="43.86835821611969" lon="10.68079203636659"><ele>28.0</ele><time>2026-04-25T08:49:07Z</time></trkpt><trkpt lat="43.8684231501121" lon="10.680798583311738"><ele>28.0</ele><time>2026-04-25T08:49:08Z</time></trkpt><trkpt lat="43.86849418876211" lon="10.680797300551747"><ele>28.0</ele><time>2026-04-25T08:49:09Z</time></trkpt><trkpt lat="43.86856121175397" lon="10.680794076721574"><ele>28.0</ele><time>2026-04-25T08:49:09.999Z</time></trkpt><trkpt lat="43.86862728364647" lon="10.68078854355794"><ele>28.0</ele><time>2026-04-25T08:49:10.999Z</time></trkpt><trkpt lat="43.86869227186761" lon="10.680786166419583"><ele>28.0</ele><time>2026-04-25T08:49:11.999Z</time></trkpt><trkpt lat="43.86875962238104" lon="10.68078513337234"><ele>28.0</ele><time>2026-04-25T08:49:12.999Z</time></trkpt><trkpt lat="43.86882506775766" lon="10.680783325273923"><ele>28.285714285714285</ele><time>2026-04-25T08:49:13.999Z</time></trkpt><trkpt lat="43.868888820979095" lon="10.68078151336706"><ele>28.57142857142857</ele><time>2026-04-25T08:49:14.999Z</time></trkpt><trkpt lat="43.8689530683558" lon="10.68078065962478"><ele>28.857142857142858</ele><time>2026-04-25T08:49:15.999Z</time></trkpt><trkpt lat="43.86901588253369" lon="10.680786987314406"><ele>29.142857142857142</ele><time>2026-04-25T08:49:16.999Z</time></trkpt><trkpt lat="43.869079499754285" lon="10.680815584586068"><ele>29.428571428571427</ele><time>2026-04-25T08:49:17.999Z</time></trkpt><trkpt lat="43.86914081077801" lon="10.680850436663512"><ele>29.714285714285715</ele><time>2026-04-25T08:49:18.999Z</time></trkpt><trkpt lat="43.8691952563217" lon="10.680900533283644"><ele>30.0</ele><time>2026-04-25T08:49:19.999Z</time></trkpt><trkpt lat="43.86923910780342" lon="10.680970793392591"><ele>30.0</ele><time>2026-04-25T08:49:20.999Z</time></trkpt><trkpt lat="43.869276513974555" lon="10.68105328031898"><ele>30.0</ele><time>2026-04-25T08:49:21.999Z</time></trkpt><trkpt lat="43.86930420585952" lon="10.681145720446215"><ele>30.0</ele><time>2026-04-25T08:49:22.999Z</time></trkpt><trkpt lat="43.86932896465783" lon="10.681234760936283"><ele>30.0</ele><time>2026-04-25T08:49:23.999Z</time></trkpt><trkpt lat="43.86935612117164" lon="10.681326462076925"><ele>30.0</ele><time>2026-04-25T08:49:24.999Z</time></trkpt><trkpt lat="43.86938305842686" lon="10.68142059498501"><ele>30.0</ele><time>2026-04-25T08:49:25.999Z</time></trkpt><trkpt lat="43.86940898709132" lon="10.681518010313768"><ele>30.0</ele><time>2026-04-25T08:49:26.999Z</time></trkpt><trkpt lat="43.86944163294791" lon="10.681615391400454"><ele>30.0</ele><time>2026-04-25T08:49:27.999Z</time></trkpt><trkpt lat="43.869474921501485" lon="10.681711742896452"><ele>30.0</ele><time>2026-04-25T08:49:28.999Z</time></trkpt><trkpt lat="43.86950543669146" lon="10.681812087230266"><ele>30.0</ele><time>2026-04-25T08:49:29.999Z</time></trkpt><trkpt lat="43.8695302746629" lon="10.681918153532008"><ele>30.0</ele><time>2026-04-25T08:49:30.999Z</time></trkpt><trkpt lat="43.86955300701452" lon="10.682022131615213"><ele>30.0</ele><time>2026-04-25T08:49:31.999Z</time></trkpt><trkpt lat="43.86958260860445" lon="10.682130048049018"><ele>30.0</ele><time>2026-04-25T08:49:32.999Z</time></trkpt><trkpt lat="43.86961637652607" lon="10.682227791649266"><ele>30.166666666666668</ele><time>2026-04-25T08:49:33.999Z</time></trkpt><trkpt lat="43.86965363136222" lon="10.682324614072494"><ele>30.333333333333336</ele><time>2026-04-25T08:49:34.999Z</time></trkpt><trkpt lat="43.86969574919204" lon="10.682419759777925"><ele>30.5</ele><time>2026-04-25T08:49:35.999Z</time></trkpt><trkpt lat="43.869748679177306" lon="10.68250085823917"><ele>30.666666666666668</ele><time>2026-04-25T08:49:36.999Z</time></trkpt><trkpt lat="43.86981645387766" lon="10.682564264547386"><ele>30.833333333333336</ele><time>2026-04-25T08:49:37.999Z</time></trkpt><trkpt lat="43.869895181325894" lon="10.6826063018051"><ele>31.0</ele><time>2026-04-25T08:49:38.999Z</time></trkpt><trkpt lat="43.869975315142796" lon="10.682627890146653"><ele>31.000000000000004</ele><time>2026-04-25T08:49:39.999Z</time></trkpt><trkpt lat="43.87005808207663" lon="10.682639123768036"><ele>31.0</ele><time>2026-04-25T08:49:40.999Z</time></trkpt><trkpt lat="43.87013762292868" lon="10.682623785405138"><ele>31.0</ele><time>2026-04-25T08:49:41.999Z</time></trkpt><trkpt lat="43.87021322348274" lon="10.68260690254164"><ele>31.0</ele><time>2026-04-25T08:49:42.999Z</time></trkpt><trkpt lat="43.87029238096382" lon="10.682596082072848"><ele>31.000000000000004</ele><time>2026-04-25T08:49:43.999Z</time></trkpt><trkpt lat="43.87036618032105" lon="10.682607132976276"><ele>31.0</ele><time>2026-04-25T08:49:44.999Z</time></trkpt><trkpt lat="43.870441547873504" lon="10.68260318355137"><ele>31.142857142857146</ele><time>2026-04-25T08:49:45.999Z</time></trkpt><trkpt lat="43.8705150794597" lon="10.682599255226615"><ele>31.28571428571429</ele><time>2026-04-25T08:49:46.999Z</time></trkpt><trkpt lat="43.87058525861878" lon="10.682601321256268"><ele>31.42857142857143</ele><time>2026-04-25T08:49:47.999Z</time></trkpt><trkpt lat="43.87065472976411" lon="10.682600948803312"><ele>31.57142857142857</ele><time>2026-04-25T08:49:48.999Z</time></trkpt><trkpt lat="43.87072707956453" lon="10.682596671499724"><ele>31.71428571428571</ele><time>2026-04-25T08:49:49.999Z</time></trkpt><trkpt lat="43.87079472063254" lon="10.68259408472906"><ele>31.857142857142854</ele><time>2026-04-25T08:49:50.999Z</time></trkpt><trkpt lat="43.87085849860685" lon="10.682594150145635"><ele>32.0</ele><time>2026-04-25T08:49:51.999Z</time></trkpt><trkpt lat="43.87092561583698" lon="10.682611494892608"><ele>32.166666666666664</ele><time>2026-04-25T08:49:52.999Z</time></trkpt><trkpt lat="43.87098832796593" lon="10.68264497214338"><ele>32.33333333333333</ele><time>2026-04-25T08:49:53.999Z</time></trkpt><trkpt lat="43.87104760478636" lon="10.68268735116015"><ele>32.5</ele><time>2026-04-25T08:49:54.999Z</time></trkpt><trkpt lat="43.8711026591289" lon="10.682734370529566"><ele>32.666666666666664</ele><time>2026-04-25T08:49:55.999Z</time></trkpt><trkpt lat="43.871151759898254" lon="10.682789221103452"><ele>32.833333333333336</ele><time>2026-04-25T08:49:56.999Z</time></trkpt><trkpt lat="43.871220599840754" lon="10.682936715078839"><ele>33.0</ele><time>2026-04-25T08:49:58.999Z</time></trkpt><trkpt lat="43.871276394236254" lon="10.683087164386636"><ele>33.0</ele><time>2026-04-25T08:50:00.999Z</time></trkpt><trkpt lat="43.87130650563741" lon="10.68316816795617"><ele>33.0</ele><time>2026-04-25T08:50:01.999Z</time></trkpt><trkpt lat="43.87134713034399" lon="10.683330166193953"><ele>33.0</ele><time>2026-04-25T08:50:03.999Z</time></trkpt><trkpt lat="43.87136252208674" lon="10.683414930195635"><ele>33.0</ele><time>2026-04-25T08:50:04.999Z</time></trkpt><trkpt lat="43.87137567385473" lon="10.683505160314342"><ele>33.0</ele><time>2026-04-25T08:50:05.999Z</time></trkpt><trkpt lat="43.87139714588326" lon="10.683587822933724"><ele>33.0</ele><time>2026-04-25T08:50:06.999Z</time></trkpt><trkpt lat="43.871433380703174" lon="10.683740845082832"><ele>33.0</ele><time>2026-04-25T08:50:08.999Z</time></trkpt><trkpt lat="43.8714650285052" lon="10.683876820684944"><ele>33.0</ele><time>2026-04-25T08:50:10.999Z</time></trkpt><trkpt lat="43.87148989433701" lon="10.684009494848201"><ele>33.0</ele><time>2026-04-25T08:50:12.999Z</time></trkpt><trkpt lat="43.871517149118404" lon="10.684139398317955"><ele>33.0</ele><time>2026-04-25T08:50:14.999Z</time></trkpt><trkpt lat="43.87154417844738" lon="10.684267390325529"><ele>33.0</ele><time>2026-04-25T08:50:17Z</time></trkpt><trkpt lat="43.871567161919295" lon="10.684395673235342"><ele>33.4</ele><time>2026-04-25T08:50:19Z</time></trkpt><trkpt lat="43.87159711969092" lon="10.684521115283085"><ele>33.8</ele><time>2026-04-25T08:50:21Z</time></trkpt><trkpt lat="43.87162266043269" lon="10.68464856852088"><ele>34.2</ele><time>2026-04-25T08:50:23Z</time></trkpt><trkpt lat="43.87164935112455" lon="10.684770249596792"><ele>34.6</ele><time>2026-04-25T08:50:25Z</time></trkpt><trkpt lat="43.87169060238913" lon="10.684896714948156"><ele>35.0</ele><time>2026-04-25T08:50:27Z</time></trkpt><trkpt lat="43.87174517710113" lon="10.684998105867749"><ele>35.0</ele><time>2026-04-25T08:50:29Z</time></trkpt><trkpt lat="43.87180935598709" lon="10.685087219497337"><ele>35.0</ele><time>2026-04-25T08:50:31Z</time></trkpt><trkpt lat="43.87188728411363" lon="10.685166587820502"><ele>35.0</ele><time>2026-04-25T08:50:33Z</time></trkpt><trkpt lat="43.87196919931159" lon="10.685243411347463"><ele>35.0</ele><time>2026-04-25T08:50:35Z</time></trkpt><trkpt lat="43.87204364715323" lon="10.685313811008326"><ele>35.0</ele><time>2026-04-25T08:50:37Z</time></trkpt><trkpt lat="43.87212821071346" lon="10.68536450952839"><ele>34.8</ele><time>2026-04-25T08:50:39Z</time></trkpt><trkpt lat="43.87222908919847" lon="10.685436821789528"><ele>34.6</ele><time>2026-04-25T08:50:41Z</time></trkpt><trkpt lat="43.87235251804279" lon="10.685481378141422"><ele>34.4</ele><time>2026-04-25T08:50:43Z</time></trkpt><trkpt lat="43.872420451272866" lon="10.68549945610034"><ele>34.2</ele><time>2026-04-25T08:50:44Z</time></trkpt><trkpt lat="43.872492314864814" lon="10.68551493301988"><ele>34.0</ele><time>2026-04-25T08:50:45Z</time></trkpt><trkpt lat="43.87256777545146" lon="10.685524212959223"><ele>33.833333333333336</ele><time>2026-04-25T08:50:46Z</time></trkpt><trkpt lat="43.872646395540315" lon="10.685532668684845"><ele>33.66666666666667</ele><time>2026-04-25T08:50:47Z</time></trkpt><trkpt lat="43.87272730236255" lon="10.685527600139041"><ele>33.5</ele><time>2026-04-25T08:50:48Z</time></trkpt><trkpt lat="43.87281193202162" lon="10.685526076210959"><ele>33.333333333333336</ele><time>2026-04-25T08:50:49Z</time></trkpt><trkpt lat="43.87289567030761" lon="10.685531689645751"><ele>33.166666666666664</ele><time>2026-04-25T08:50:50Z</time></trkpt><trkpt lat="43.872974579339356" lon="10.68557931790668"><ele>33.0</ele><time>2026-04-25T08:50:51Z</time></trkpt><trkpt lat="43.873039627212826" lon="10.685673143147616"><ele>33.0</ele><time>2026-04-25T08:50:52Z</time></trkpt><trkpt lat="43.87306838355627" lon="10.685796250068408"><ele>33.0</ele><time>2026-04-25T08:50:53Z</time></trkpt><trkpt lat="43.87306861633375" lon="10.685918284361014"><ele>33.0</ele><time>2026-04-25T08:50:54Z</time></trkpt><trkpt lat="43.87308275469049" lon="10.686031891645221"><ele>33.0</ele><time>2026-04-25T08:50:55Z</time></trkpt><trkpt lat="43.87311124700788" lon="10.686138928783096"><ele>33.0</ele><time>2026-04-25T08:50:56Z</time></trkpt><trkpt lat="43.87314527446006" lon="10.686243960003452"><ele>33.0</ele><time>2026-04-25T08:50:57Z</time></trkpt><trkpt lat="43.873177334874754" lon="10.686349176323237"><ele>32.833333333333336</ele><time>2026-04-25T08:50:58Z</time></trkpt><trkpt lat="43.873218013811844" lon="10.686443076097838"><ele>32.666666666666664</ele><time>2026-04-25T08:50:59Z</time></trkpt><trkpt lat="43.87327565309723" lon="10.686521718943133"><ele>32.5</ele><time>2026-04-25T08:51:00Z</time></trkpt><trkpt lat="43.87334541786323" lon="10.686579579300702"><ele>32.33333333333333</ele><time>2026-04-25T08:51:01Z</time></trkpt><trkpt lat="43.87342207914096" lon="10.686618982854592"><ele>32.166666666666664</ele><time>2026-04-25T08:51:02Z</time></trkpt><trkpt lat="43.87350289203099" lon="10.686634918830434"><ele>32.0</ele><time>2026-04-25T08:51:03Z</time></trkpt><trkpt lat="43.87358096236459" lon="10.686628316514135"><ele>32.33333333333333</ele><time>2026-04-25T08:51:04Z</time></trkpt><trkpt lat="43.8736575426931" lon="10.686599076167761"><ele>32.666666666666664</ele><time>2026-04-25T08:51:05Z</time></trkpt><trkpt lat="43.87372994623288" lon="10.6865573476136"><ele>33.0</ele><time>2026-04-25T08:51:06Z</time></trkpt><trkpt lat="43.873796003876095" lon="10.68650104834376"><ele>33.333333333333336</ele><time>2026-04-25T08:51:07Z</time></trkpt><trkpt lat="43.873849214175245" lon="10.686424346223333"><ele>33.66666666666667</ele><time>2026-04-25T08:51:08Z</time></trkpt><trkpt lat="43.87389480002627" lon="10.686333552213343"><ele>34.0</ele><time>2026-04-25T08:51:09Z</time></trkpt><trkpt lat="43.873935863128885" lon="10.686257094948148"><ele>34.0</ele><time>2026-04-25T08:51:10Z</time></trkpt><trkpt lat="43.873995167463114" lon="10.68619944801888"><ele>34.0</ele><time>2026-04-25T08:51:11Z</time></trkpt><trkpt lat="43.874065868508794" lon="10.686171991102778"><ele>34.0</ele><time>2026-04-25T08:51:11.999Z</time></trkpt><trkpt lat="43.87414345250767" lon="10.686169684271325"><ele>34.0</ele><time>2026-04-25T08:51:12.999Z</time></trkpt><trkpt lat="43.87422041817496" lon="10.68619754438885"><ele>34.0</ele><time>2026-04-25T08:51:13.999Z</time></trkpt><trkpt lat="43.87429149427782" lon="10.68623953453002"><ele>34.0</ele><time>2026-04-25T08:51:14.999Z</time></trkpt><trkpt lat="43.87436130688631" lon="10.686284038495076"><ele>33.6</ele><time>2026-04-25T08:51:15.999Z</time></trkpt><trkpt lat="43.87444309253037" lon="10.686375755218654"><ele>33.2</ele><time>2026-04-25T08:51:16.999Z</time></trkpt><trkpt lat="43.87456177701737" lon="10.686463120416528"><ele>32.800000000000004</ele><time>2026-04-25T08:51:18.999Z</time></trkpt><trkpt lat="43.87462642608902" lon="10.686525871019562"><ele>32.4</ele><time>2026-04-25T08:51:19.999Z</time></trkpt><trkpt lat="43.87468796814795" lon="10.686594456014529"><ele>32.0</ele><time>2026-04-25T08:51:20.999Z</time></trkpt><trkpt lat="43.87475109102984" lon="10.686660584035517"><ele>31.999999999999996</ele><time>2026-04-25T08:51:21.999Z</time></trkpt><trkpt lat="43.874815660268695" lon="10.686719695516526"><ele>32.0</ele><time>2026-04-25T08:51:22.999Z</time></trkpt><trkpt lat="43.87488531514178" lon="10.686776959138221"><ele>32.0</ele><time>2026-04-25T08:51:23.999Z</time></trkpt><trkpt lat="43.87495236682671" lon="10.686833225807444"><ele>32.0</ele><time>2026-04-25T08:51:24.999Z</time></trkpt><trkpt lat="43.87501500929876" lon="10.686897149544762"><ele>31.999999999999996</ele><time>2026-04-25T08:51:25.999Z</time></trkpt><trkpt lat="43.8750730116764" lon="10.686969920560363"><ele>32.0</ele><time>2026-04-25T08:51:26.999Z</time></trkpt><trkpt lat="43.8751330174174" lon="10.687042679204026"><ele>31.999999999999996</ele><time>2026-04-25T08:51:27.999Z</time></trkpt><trkpt lat="43.875193495803266" lon="10.687110606778598"><ele>32.0</ele><time>2026-04-25T08:51:28.999Z</time></trkpt><trkpt lat="43.875250124000765" lon="10.687186673195711"><ele>32.0</ele><time>2026-04-25T08:51:29.999Z</time></trkpt><trkpt lat="43.875309789747824" lon="10.687262606511577"><ele>32.0</ele><time>2026-04-25T08:51:30.999Z</time></trkpt><trkpt lat="43.875364248587154" lon="10.687344052499906"><ele>31.999999999999996</ele><time>2026-04-25T08:51:31.999Z</time></trkpt><trkpt lat="43.875417823897024" lon="10.687431248845938"><ele>32.0</ele><time>2026-04-25T08:51:32.999Z</time></trkpt><trkpt lat="43.8754735198398" lon="10.687512032108415"><ele>31.999999999999996</ele><time>2026-04-25T08:51:33.999Z</time></trkpt><trkpt lat="43.875534739653936" lon="10.687586956760018"><ele>32.0</ele><time>2026-04-25T08:51:34.999Z</time></trkpt><trkpt lat="43.87559792484887" lon="10.6876621313639"><ele>32.0</ele><time>2026-04-25T08:51:35.999Z</time></trkpt><trkpt lat="43.87565820489799" lon="10.687734473235402"><ele>32.0</ele><time>2026-04-25T08:51:36.999Z</time></trkpt><trkpt lat="43.87571740380204" lon="10.687810621089564"><ele>31.999999999999996</ele><time>2026-04-25T08:51:37.999Z</time></trkpt><trkpt lat="43.875775778348796" lon="10.687881864869036"><ele>32.0</ele><time>2026-04-25T08:51:38.999Z</time></trkpt><trkpt lat="43.87583213995788" lon="10.687962231979222"><ele>31.833333333333332</ele><time>2026-04-25T08:51:39.999Z</time></trkpt><trkpt lat="43.87588820217285" lon="10.688037530025268"><ele>31.666666666666664</ele><time>2026-04-25T08:51:40.999Z</time></trkpt><trkpt lat="43.87594410334459" lon="10.688122529583916"><ele>31.5</ele><time>2026-04-25T08:51:41.999Z</time></trkpt><trkpt lat="43.875996714108425" lon="10.688205176639906"><ele>31.333333333333336</ele><time>2026-04-25T08:51:42.999Z</time></trkpt><trkpt lat="43.87605374778249" lon="10.688289491617155"><ele>31.166666666666668</ele><time>2026-04-25T08:51:43.999Z</time></trkpt><trkpt lat="43.876111851937274" lon="10.688370920702669"><ele>31.0</ele><time>2026-04-25T08:51:44.999Z</time></trkpt><trkpt lat="43.87616883174709" lon="10.68845362521161"><ele>30.833333333333336</ele><time>2026-04-25T08:51:45.999Z</time></trkpt><trkpt lat="43.87622171197532" lon="10.688539690941015"><ele>30.666666666666668</ele><time>2026-04-25T08:51:46.999Z</time></trkpt><trkpt lat="43.87627267347637" lon="10.688625022088763"><ele>30.5</ele><time>2026-04-25T08:51:47.999Z</time></trkpt><trkpt lat="43.87632330781783" lon="10.688698635794548"><ele>30.333333333333336</ele><time>2026-04-25T08:51:48.999Z</time></trkpt><trkpt lat="43.876362463028435" lon="10.688816084540377"><ele>30.166666666666668</ele><time>2026-04-25T08:51:49.999Z</time></trkpt><trkpt lat="43.87642280209867" lon="10.688876573048828"><ele>30.0</ele><time>2026-04-25T08:51:50.999Z</time></trkpt><trkpt lat="43.8764716056262" lon="10.688954561662465"><ele>30.0</ele><time>2026-04-25T08:51:51.999Z</time></trkpt><trkpt lat="43.87652097557167" lon="10.689024316921895"><ele>30.0</ele><time>2026-04-25T08:51:52.999Z</time></trkpt><trkpt lat="43.876567732164524" lon="10.689094105697032"><ele>30.0</ele><time>2026-04-25T08:51:53.999Z</time></trkpt><trkpt lat="43.87662312824012" lon="10.689158986370343"><ele>30.0</ele><time>2026-04-25T08:51:54.999Z</time></trkpt><trkpt lat="43.876667655084226" lon="10.68923629514487"><ele>30.0</ele><time>2026-04-25T08:51:55.999Z</time></trkpt><trkpt lat="43.8767163543815" lon="10.68929541241801"><ele>30.0</ele><time>2026-04-25T08:51:56.999Z</time></trkpt><trkpt lat="43.87677063094128" lon="10.689363044303388"><ele>30.0</ele><time>2026-04-25T08:51:57.999Z</time></trkpt><trkpt lat="43.87681647155751" lon="10.689426213058956"><ele>30.0</ele><time>2026-04-25T08:51:58.999Z</time></trkpt><trkpt lat="43.87685448694246" lon="10.689504698009927"><ele>30.0</ele><time>2026-04-25T08:51:59.999Z</time></trkpt><trkpt lat="43.87693690003655" lon="10.689594931580904"><ele>30.0</ele><time>2026-04-25T08:52:01.999Z</time></trkpt><trkpt lat="43.877024924339224" lon="10.689575815611278"><ele>30.0</ele><time>2026-04-25T08:52:03.999Z</time></trkpt><trkpt lat="43.877115633390666" lon="10.689527707363785"><ele>30.0</ele><time>2026-04-25T08:52:05.999Z</time></trkpt><trkpt lat="43.87722129038912" lon="10.689482401935576"><ele>30.0</ele><time>2026-04-25T08:52:07.999Z</time></trkpt><trkpt lat="43.87732857992779" lon="10.689422177841948"><ele>30.0</ele><time>2026-04-25T08:52:09.999Z</time></trkpt><trkpt lat="43.87743740382011" lon="10.689337047148127"><ele>30.0</ele><time>2026-04-25T08:52:11.999Z</time></trkpt><trkpt lat="43.87749616164656" lon="10.689296339482256"><ele>30.0</ele><time>2026-04-25T08:52:12.999Z</time></trkpt><trkpt lat="43.87755543134361" lon="10.689253980694142"><ele>30.0</ele><time>2026-04-25T08:52:13.999Z</time></trkpt><trkpt lat="43.87761344953133" lon="10.689210565938513"><ele>30.0</ele><time>2026-04-25T08:52:14.999Z</time></trkpt><trkpt lat="43.87766875210549" lon="10.68916168097418"><ele>30.333333333333332</ele><time>2026-04-25T08:52:15.999Z</time></trkpt><trkpt lat="43.877725971604775" lon="10.689120205675005"><ele>30.666666666666664</ele><time>2026-04-25T08:52:16.999Z</time></trkpt><trkpt lat="43.87778196513021" lon="10.68907308682275"><ele>31.0</ele><time>2026-04-25T08:52:17.999Z</time></trkpt><trkpt lat="43.87783869547609" lon="10.689028479531556"><ele>31.333333333333332</ele><time>2026-04-25T08:52:18.999Z</time></trkpt><trkpt lat="43.87789516166148" lon="10.688986636252805"><ele>31.666666666666664</ele><time>2026-04-25T08:52:19.999Z</time></trkpt><trkpt lat="43.87795873290338" lon="10.688934805049048"><ele>32.0</ele><time>2026-04-25T08:52:20.999Z</time></trkpt><trkpt lat="43.87807611690159" lon="10.688863603146538"><ele>32.0</ele><time>2026-04-25T08:52:23Z</time></trkpt><trkpt lat="43.87813747998354" lon="10.6888180533331"><ele>31.999999999999996</ele><time>2026-04-25T08:52:24Z</time></trkpt><trkpt lat="43.87819927129091" lon="10.688777177359711"><ele>32.0</ele><time>2026-04-25T08:52:25Z</time></trkpt><trkpt lat="43.8782642542545" lon="10.688742424362525"><ele>32.0</ele><time>2026-04-25T08:52:26Z</time></trkpt><trkpt lat="43.87832398599422" lon="10.688699625411434"><ele>31.999999999999996</ele><time>2026-04-25T08:52:27Z</time></trkpt><trkpt lat="43.8783873329593" lon="10.688661080849453"><ele>32.0</ele><time>2026-04-25T08:52:28Z</time></trkpt><trkpt lat="43.87845100275296" lon="10.68862674853645"><ele>32.0</ele><time>2026-04-25T08:52:29Z</time></trkpt><trkpt lat="43.87851820521446" lon="10.688590609356524"><ele>32.285714285714285</ele><time>2026-04-25T08:52:30Z</time></trkpt><trkpt lat="43.87858664862983" lon="10.688553947403063"><ele>32.57142857142857</ele><time>2026-04-25T08:52:31Z</time></trkpt><trkpt lat="43.87865346063898" lon="10.688519098750126"><ele>32.857142857142854</ele><time>2026-04-25T08:52:32Z</time></trkpt><trkpt lat="43.87872297704795" lon="10.688487703230878"><ele>33.14285714285714</ele><time>2026-04-25T08:52:33Z</time></trkpt><trkpt lat="43.87878988800638" lon="10.688458098891008"><ele>33.42857142857143</ele><time>2026-04-25T08:52:34Z</time></trkpt><trkpt lat="43.878857061403906" lon="10.688428945071053"><ele>33.71428571428571</ele><time>2026-04-25T08:52:35Z</time></trkpt><trkpt lat="43.87892556951329" lon="10.688403616975283"><ele>34.0</ele><time>2026-04-25T08:52:36Z</time></trkpt><trkpt lat="43.87899012343801" lon="10.688371986671646"><ele>34.0</ele><time>2026-04-25T08:52:37Z</time></trkpt><trkpt lat="43.879050040009275" lon="10.688341425817333"><ele>34.0</ele><time>2026-04-25T08:52:38Z</time></trkpt><trkpt lat="43.8791126081434" lon="10.688316151361489"><ele>34.0</ele><time>2026-04-25T08:52:39Z</time></trkpt><trkpt lat="43.879222635843206" lon="10.688262248428934"><ele>34.0</ele><time>2026-04-25T08:52:41Z</time></trkpt><trkpt lat="43.879329807266274" lon="10.68824042159668"><ele>34.0</ele><time>2026-04-25T08:52:43Z</time></trkpt><trkpt lat="43.879412847770915" lon="10.6883300890651"><ele>34.0</ele><time>2026-04-25T08:52:45Z</time></trkpt><trkpt lat="43.87940519161396" lon="10.688433186824955"><ele>34.0</ele><time>2026-04-25T08:52:46Z</time></trkpt><trkpt lat="43.879393994919006" lon="10.688525509278172"><ele>34.0</ele><time>2026-04-25T08:52:47Z</time></trkpt><trkpt lat="43.87936552703004" lon="10.688697197939351"><ele>34.0</ele><time>2026-04-25T08:52:49Z</time></trkpt><trkpt lat="43.87935306058944" lon="10.688787601172267"><ele>34.0</ele><time>2026-04-25T08:52:50Z</time></trkpt><trkpt lat="43.87933166487223" lon="10.688903352512355"><ele>34.0</ele><time>2026-04-25T08:52:51Z</time></trkpt><trkpt lat="43.87932486411483" lon="10.689002796705177"><ele>33.99999999999999</ele><time>2026-04-25T08:52:52Z</time></trkpt><trkpt lat="43.87931196834353" lon="10.689102983494562"><ele>34.0</ele><time>2026-04-25T08:52:53Z</time></trkpt><trkpt lat="43.87929523720261" lon="10.689202273890924"><ele>34.0</ele><time>2026-04-25T08:52:54Z</time></trkpt><trkpt lat="43.87928261913359" lon="10.689303857758775"><ele>34.0</ele><time>2026-04-25T08:52:55Z</time></trkpt><trkpt lat="43.87926702397001" lon="10.689399870425085"><ele>34.0</ele><time>2026-04-25T08:52:56Z</time></trkpt><trkpt lat="43.87924477218318" lon="10.689497607289857"><ele>33.99999999999999</ele><time>2026-04-25T08:52:57Z</time></trkpt><trkpt lat="43.8792152913933" lon="10.689593555157781"><ele>34.0</ele><time>2026-04-25T08:52:58Z</time></trkpt><trkpt lat="43.87919789011982" lon="10.689699788064031"><ele>33.66666666666667</ele><time>2026-04-25T08:52:59Z</time></trkpt><trkpt lat="43.87917410611475" lon="10.689802485945972"><ele>33.333333333333336</ele><time>2026-04-25T08:53:00Z</time></trkpt><trkpt lat="43.87915087519714" lon="10.689903963436006"><ele>33.0</ele><time>2026-04-25T08:53:01Z</time></trkpt><trkpt lat="43.8791198484209" lon="10.690008833747275"><ele>32.666666666666664</ele><time>2026-04-25T08:53:02Z</time></trkpt><trkpt lat="43.87909005937041" lon="10.690108664505756"><ele>32.33333333333333</ele><time>2026-04-25T08:53:03Z</time></trkpt><trkpt lat="43.87905356603225" lon="10.690208624928582"><ele>32.0</ele><time>2026-04-25T08:53:04Z</time></trkpt><trkpt lat="43.879014593436764" lon="10.690300356012923"><ele>31.666666666666664</ele><time>2026-04-25T08:53:05Z</time></trkpt><trkpt lat="43.87898012338811" lon="10.69040452697127"><ele>31.333333333333332</ele><time>2026-04-25T08:53:06Z</time></trkpt><trkpt lat="43.87894748370469" lon="10.690502577480027"><ele>31.0</ele><time>2026-04-25T08:53:07Z</time></trkpt><trkpt lat="43.87891140470335" lon="10.69059712041128"><ele>30.666666666666664</ele><time>2026-04-25T08:53:08Z</time></trkpt><trkpt lat="43.87887210751896" lon="10.690693302879756"><ele>30.333333333333332</ele><time>2026-04-25T08:53:09Z</time></trkpt><trkpt lat="43.87883566549224" lon="10.69079010506439"><ele>30.0</ele><time>2026-04-25T08:53:10Z</time></trkpt><trkpt lat="43.87879828615014" lon="10.690883233306518"><ele>30.0</ele><time>2026-04-25T08:53:10.999Z</time></trkpt><trkpt lat="43.87876332779972" lon="10.690982427015257"><ele>30.0</ele><time>2026-04-25T08:53:11.999Z</time></trkpt><trkpt lat="43.87873299445387" lon="10.691076734280466"><ele>30.0</ele><time>2026-04-25T08:53:12.999Z</time></trkpt><trkpt lat="43.878701983761474" lon="10.691175316731377"><ele>30.0</ele><time>2026-04-25T08:53:13.999Z</time></trkpt><trkpt lat="43.878668201135504" lon="10.691267575956733"><ele>30.0</ele><time>2026-04-25T08:53:14.999Z</time></trkpt><trkpt lat="43.87863729145515" lon="10.69136911710988"><ele>30.0</ele><time>2026-04-25T08:53:15.999Z</time></trkpt><trkpt lat="43.87860667406602" lon="10.691464761658246"><ele>30.0</ele><time>2026-04-25T08:53:16.999Z</time></trkpt><trkpt lat="43.87857419115566" lon="10.691558491849236"><ele>30.0</ele><time>2026-04-25T08:53:17.999Z</time></trkpt><trkpt lat="43.87854196200258" lon="10.691649472017668"><ele>30.0</ele><time>2026-04-25T08:53:18.999Z</time></trkpt><trkpt lat="43.8785078432275" lon="10.69174201410588"><ele>30.0</ele><time>2026-04-25T08:53:19.999Z</time></trkpt><trkpt lat="43.878474963347806" lon="10.691836240138908"><ele>30.0</ele><time>2026-04-25T08:53:20.999Z</time></trkpt><trkpt lat="43.878440976725884" lon="10.691922637215956"><ele>30.0</ele><time>2026-04-25T08:53:21.999Z</time></trkpt><trkpt lat="43.87840827390829" lon="10.692009990779656"><ele>30.0</ele><time>2026-04-25T08:53:22.999Z</time></trkpt><trkpt lat="43.878372274930506" lon="10.69209939563891"><ele>29.857142857142858</ele><time>2026-04-25T08:53:23.999Z</time></trkpt><trkpt lat="43.8783418499469" lon="10.692185707218739"><ele>29.714285714285715</ele><time>2026-04-25T08:53:24.999Z</time></trkpt><trkpt lat="43.878306715662376" lon="10.692271957647776"><ele>29.571428571428573</ele><time>2026-04-25T08:53:25.999Z</time></trkpt><trkpt lat="43.878273774311474" lon="10.692359125197058"><ele>29.42857142857143</ele><time>2026-04-25T08:53:26.999Z</time></trkpt><trkpt lat="43.87824095211526" lon="10.692442860188669"><ele>29.285714285714285</ele><time>2026-04-25T08:53:27.999Z</time></trkpt><trkpt lat="43.87820723532569" lon="10.69253396660747"><ele>29.142857142857146</ele><time>2026-04-25T08:53:28.999Z</time></trkpt><trkpt lat="43.87817605347353" lon="10.69262625861663"><ele>29.000000000000004</ele><time>2026-04-25T08:53:29.999Z</time></trkpt><trkpt lat="43.87814555818509" lon="10.692712549484156"><ele>28.71428571428572</ele><time>2026-04-25T08:53:30.999Z</time></trkpt><trkpt lat="43.878112639783765" lon="10.692801196468903"><ele>28.42857142857143</ele><time>2026-04-25T08:53:31.999Z</time></trkpt><trkpt lat="43.87808373005596" lon="10.692895046711502"><ele>28.142857142857146</ele><time>2026-04-25T08:53:32.999Z</time></trkpt><trkpt lat="43.87806477881413" lon="10.692989791643875"><ele>27.85714285714286</ele><time>2026-04-25T08:53:33.999Z</time></trkpt><trkpt lat="43.878047453628795" lon="10.693082272131777"><ele>27.57142857142857</ele><time>2026-04-25T08:53:34.999Z</time></trkpt><trkpt lat="43.87802960341812" lon="10.693178102802605"><ele>27.285714285714285</ele><time>2026-04-25T08:53:35.999Z</time></trkpt><trkpt lat="43.87801795666382" lon="10.693276199525089"><ele>27.0</ele><time>2026-04-25T08:53:36.999Z</time></trkpt><trkpt lat="43.87801119784906" lon="10.693371022975956"><ele>27.0</ele><time>2026-04-25T08:53:37.999Z</time></trkpt><trkpt lat="43.878012521218" lon="10.693470743097212"><ele>27.0</ele><time>2026-04-25T08:53:38.999Z</time></trkpt><trkpt lat="43.87801617692908" lon="10.693566828875836"><ele>27.0</ele><time>2026-04-25T08:53:39.999Z</time></trkpt><trkpt lat="43.87802426336891" lon="10.693664415487707"><ele>27.0</ele><time>2026-04-25T08:53:40.999Z</time></trkpt><trkpt lat="43.8780336997819" lon="10.6937586158461"><ele>27.0</ele><time>2026-04-25T08:53:41.999Z</time></trkpt><trkpt lat="43.87804520611569" lon="10.693856510783219"><ele>27.0</ele><time>2026-04-25T08:53:42.999Z</time></trkpt><trkpt lat="43.87806262098472" lon="10.69395077433456"><ele>27.0</ele><time>2026-04-25T08:53:43.999Z</time></trkpt><trkpt lat="43.87808955720053" lon="10.694038764627138"><ele>27.333333333333332</ele><time>2026-04-25T08:53:44.999Z</time></trkpt><trkpt lat="43.878120843272214" lon="10.694129075979616"><ele>27.666666666666664</ele><time>2026-04-25T08:53:45.999Z</time></trkpt><trkpt lat="43.8781558759916" lon="10.694209107258587"><ele>28.0</ele><time>2026-04-25T08:53:46.999Z</time></trkpt><trkpt lat="43.878187196154784" lon="10.694288953278095"><ele>28.333333333333332</ele><time>2026-04-25T08:53:47.999Z</time></trkpt><trkpt lat="43.87821935727282" lon="10.694365387006096"><ele>28.666666666666664</ele><time>2026-04-25T08:53:48.999Z</time></trkpt><trkpt lat="43.87827973294212" lon="10.694510658667966"><ele>29.0</ele><time>2026-04-25T08:53:50.999Z</time></trkpt><trkpt lat="43.87833428142781" lon="10.69465662628881"><ele>29.2</ele><time>2026-04-25T08:53:52.999Z</time></trkpt><trkpt lat="43.87838854604973" lon="10.694793462270113"><ele>29.4</ele><time>2026-04-25T08:53:54.999Z</time></trkpt><trkpt lat="43.87843618810756" lon="10.694928181289376"><ele>29.6</ele><time>2026-04-25T08:53:56.999Z</time></trkpt><trkpt lat="43.87848894267971" lon="10.695059428181619"><ele>29.8</ele><time>2026-04-25T08:53:58.999Z</time></trkpt><trkpt lat="43.878533220619886" lon="10.695190028698876"><ele>30.0</ele><time>2026-04-25T08:54:00.999Z</time></trkpt><trkpt lat="43.878587425812505" lon="10.695315394534768"><ele>30.0</ele><time>2026-04-25T08:54:02.999Z</time></trkpt><trkpt lat="43.878635179841396" lon="10.695442733995405"><ele>30.0</ele><time>2026-04-25T08:54:04.999Z</time></trkpt><trkpt lat="43.87868067387891" lon="10.695574470466294"><ele>30.0</ele><time>2026-04-25T08:54:06.999Z</time></trkpt><trkpt lat="43.878731821671856" lon="10.69569650417114"><ele>30.0</ele><time>2026-04-25T08:54:08.999Z</time></trkpt><trkpt lat="43.87877938180754" lon="10.695813603830336"><ele>30.0</ele><time>2026-04-25T08:54:10.999Z</time></trkpt><trkpt lat="43.87881907712916" lon="10.695927965115054"><ele>30.0</ele><time>2026-04-25T08:54:12.999Z</time></trkpt><trkpt lat="43.8788646769102" lon="10.69605672380194"><ele>30.0</ele><time>2026-04-25T08:54:14.999Z</time></trkpt><trkpt lat="43.878918530196756" lon="10.696192626691712"><ele>30.0</ele><time>2026-04-25T08:54:16.999Z</time></trkpt><trkpt lat="43.878977714053725" lon="10.69634119138921"><ele>30.0</ele><time>2026-04-25T08:54:18.998Z</time></trkpt><trkpt lat="43.879009338411294" lon="10.696428160014488"><ele>30.0</ele><time>2026-04-25T08:54:19.998Z</time></trkpt><trkpt lat="43.879038337383" lon="10.696512926130522"><ele>30.0</ele><time>2026-04-25T08:54:20.998Z</time></trkpt><trkpt lat="43.879071552743085" lon="10.696597335748574"><ele>30.0</ele><time>2026-04-25T08:54:21.998Z</time></trkpt><trkpt lat="43.87910729896158" lon="10.69669004802001"><ele>30.0</ele><time>2026-04-25T08:54:22.998Z</time></trkpt><trkpt lat="43.87913790238105" lon="10.69678327473461"><ele>30.0</ele><time>2026-04-25T08:54:23.998Z</time></trkpt><trkpt lat="43.87916315143686" lon="10.696885146342964"><ele>30.0</ele><time>2026-04-25T08:54:24.998Z</time></trkpt><trkpt lat="43.879184873650836" lon="10.696993926077713"><ele>30.0</ele><time>2026-04-25T08:54:25.998Z</time></trkpt><trkpt lat="43.87919271059815" lon="10.69710541488161"><ele>30.0</ele><time>2026-04-25T08:54:26.998Z</time></trkpt><trkpt lat="43.879193929455624" lon="10.697220721721433"><ele>30.0</ele><time>2026-04-25T08:54:27.998Z</time></trkpt><trkpt lat="43.879188616742425" lon="10.697339083430597"><ele>30.0</ele><time>2026-04-25T08:54:29Z</time></trkpt><trkpt lat="43.87917433247626" lon="10.697457773732568"><ele>30.0</ele><time>2026-04-25T08:54:30Z</time></trkpt><trkpt lat="43.87915652535694" lon="10.697576208675999"><ele>30.0</ele><time>2026-04-25T08:54:31Z</time></trkpt><trkpt lat="43.879133467017645" lon="10.697698787987854"><ele>30.0</ele><time>2026-04-25T08:54:32Z</time></trkpt><trkpt lat="43.8791036879937" lon="10.697816735655026"><ele>29.8</ele><time>2026-04-25T08:54:33Z</time></trkpt><trkpt lat="43.87907109827288" lon="10.697937536367384"><ele>29.6</ele><time>2026-04-25T08:54:34Z</time></trkpt><trkpt lat="43.87903810808528" lon="10.698058657481857"><ele>29.4</ele><time>2026-04-25T08:54:35Z</time></trkpt><trkpt lat="43.87900917860384" lon="10.698180942240786"><ele>29.2</ele><time>2026-04-25T08:54:36Z</time></trkpt><trkpt lat="43.878985006213554" lon="10.698305764929076"><ele>29.0</ele><time>2026-04-25T08:54:37Z</time></trkpt><trkpt lat="43.878964802649676" lon="10.698434145525919"><ele>29.0</ele><time>2026-04-25T08:54:38Z</time></trkpt><trkpt lat="43.87895126952488" lon="10.698566444883555"><ele>29.0</ele><time>2026-04-25T08:54:39Z</time></trkpt><trkpt lat="43.87895248171705" lon="10.698699479854275"><ele>29.0</ele><time>2026-04-25T08:54:40Z</time></trkpt><trkpt lat="43.87894450709437" lon="10.69883005657574"><ele>29.0</ele><time>2026-04-25T08:54:41Z</time></trkpt><trkpt lat="43.878930978965364" lon="10.698955221156073"><ele>29.0</ele><time>2026-04-25T08:54:42Z</time></trkpt><trkpt lat="43.878921010278034" lon="10.699079001928151"><ele>28.999999999999996</ele><time>2026-04-25T08:54:43Z</time></trkpt><trkpt lat="43.87891742748543" lon="10.699198164095364"><ele>29.0</ele><time>2026-04-25T08:54:44Z</time></trkpt><trkpt lat="43.8789197869599" lon="10.699317262484861"><ele>29.0</ele><time>2026-04-25T08:54:45Z</time></trkpt><trkpt lat="43.87891126882662" lon="10.699429944513701"><ele>29.0</ele><time>2026-04-25T08:54:46Z</time></trkpt><trkpt lat="43.878893101883456" lon="10.699533859334792"><ele>28.999999999999996</ele><time>2026-04-25T08:54:47Z</time></trkpt><trkpt lat="43.878879624753765" lon="10.69964176497887"><ele>29.0</ele><time>2026-04-25T08:54:48Z</time></trkpt><trkpt lat="43.878872561930734" lon="10.699746784390728"><ele>29.166666666666664</ele><time>2026-04-25T08:54:49Z</time></trkpt><trkpt lat="43.87886952627023" lon="10.69984964730456"><ele>29.333333333333332</ele><time>2026-04-25T08:54:50Z</time></trkpt><trkpt lat="43.87886866753633" lon="10.699952058089663"><ele>29.5</ele><time>2026-04-25T08:54:51Z</time></trkpt><trkpt lat="43.8788904006048" lon="10.70005820221105"><ele>29.666666666666664</ele><time>2026-04-25T08:54:52Z</time></trkpt><trkpt lat="43.87890900627411" lon="10.700164950554145"><ele>29.833333333333332</ele><time>2026-04-25T08:54:53Z</time></trkpt><trkpt lat="43.878927394130045" lon="10.700262590295843"><ele>30.0</ele><time>2026-04-25T08:54:54Z</time></trkpt><trkpt lat="43.87894303611475" lon="10.700361740160373"><ele>30.0</ele><time>2026-04-25T08:54:55Z</time></trkpt><trkpt lat="43.87895155410131" lon="10.700466571069265"><ele>30.0</ele><time>2026-04-25T08:54:56Z</time></trkpt><trkpt lat="43.878949593239355" lon="10.700563385557054"><ele>30.0</ele><time>2026-04-25T08:54:57Z</time></trkpt><trkpt lat="43.87894107834278" lon="10.70066340409143"><ele>30.0</ele><time>2026-04-25T08:54:58Z</time></trkpt><trkpt lat="43.878942032329036" lon="10.700768061103743"><ele>30.0</ele><time>2026-04-25T08:54:59Z</time></trkpt><trkpt lat="43.87891739741674" lon="10.700957132103856"><ele>30.0</ele><time>2026-04-25T08:55:01Z</time></trkpt><trkpt lat="43.87890419301269" lon="10.701048495182253"><ele>29.857142857142858</ele><time>2026-04-25T08:55:02Z</time></trkpt><trkpt lat="43.878895165630446" lon="10.70114823124422"><ele>29.714285714285715</ele><time>2026-04-25T08:55:03Z</time></trkpt><trkpt lat="43.87888550135835" lon="10.701241363485925"><ele>29.571428571428573</ele><time>2026-04-25T08:55:04Z</time></trkpt><trkpt lat="43.87888158022788" lon="10.701335659152416"><ele>29.42857142857143</ele><time>2026-04-25T08:55:05Z</time></trkpt><trkpt lat="43.87887619598094" lon="10.701429389471704"><ele>29.285714285714285</ele><time>2026-04-25T08:55:06Z</time></trkpt><trkpt lat="43.8788719966564" lon="10.701523045717655"><ele>29.142857142857146</ele><time>2026-04-25T08:55:07Z</time></trkpt><trkpt lat="43.87887150529935" lon="10.701615347542358"><ele>29.000000000000004</ele><time>2026-04-25T08:55:08Z</time></trkpt><trkpt lat="43.87887249856625" lon="10.701708782736153"><ele>29.000000000000004</ele><time>2026-04-25T08:55:09Z</time></trkpt><trkpt lat="43.87887000506045" lon="10.701796168428878"><ele>29.0</ele><time>2026-04-25T08:55:10Z</time></trkpt><trkpt lat="43.87886767890256" lon="10.701894853423287"><ele>29.000000000000004</ele><time>2026-04-25T08:55:11Z</time></trkpt><trkpt lat="43.878872506871204" lon="10.701994729653176"><ele>29.000000000000004</ele><time>2026-04-25T08:55:11.999Z</time></trkpt><trkpt lat="43.87888771429226" lon="10.702086199846118"><ele>29.0</ele><time>2026-04-25T08:55:12.999Z</time></trkpt><trkpt lat="43.87889823406137" lon="10.70218678502307"><ele>29.000000000000004</ele><time>2026-04-25T08:55:13.999Z</time></trkpt><trkpt lat="43.8789100099636" lon="10.702281073051013"><ele>29.000000000000004</ele><time>2026-04-25T08:55:14.999Z</time></trkpt><trkpt lat="43.878925442926025" lon="10.702377773286639"><ele>29.166666666666664</ele><time>2026-04-25T08:55:15.999Z</time></trkpt><trkpt lat="43.87894088291708" lon="10.702477576398293"><ele>29.333333333333332</ele><time>2026-04-25T08:55:16.999Z</time></trkpt><trkpt lat="43.8789872981679" lon="10.702635436128988"><ele>29.5</ele><time>2026-04-25T08:55:18.999Z</time></trkpt><trkpt lat="43.879011661582396" lon="10.702724458976002"><ele>29.666666666666664</ele><time>2026-04-25T08:55:19.999Z</time></trkpt><trkpt lat="43.87903846454864" lon="10.702812726553262"><ele>29.833333333333332</ele><time>2026-04-25T08:55:20.999Z</time></trkpt><trkpt lat="43.87906752444864" lon="10.702899617089416"><ele>30.0</ele><time>2026-04-25T08:55:21.999Z</time></trkpt><trkpt lat="43.879099662843444" lon="10.702983069576195"><ele>30.0</ele><time>2026-04-25T08:55:22.999Z</time></trkpt><trkpt lat="43.87913570765876" lon="10.703060301600654"><ele>30.0</ele><time>2026-04-25T08:55:23.999Z</time></trkpt><trkpt lat="43.879176274323314" lon="10.703141885094547"><ele>30.0</ele><time>2026-04-25T08:55:24.999Z</time></trkpt><trkpt lat="43.879216681254604" lon="10.703215334086353"><ele>30.0</ele><time>2026-04-25T08:55:25.999Z</time></trkpt><trkpt lat="43.8792434644913" lon="10.7033089757638"><ele>30.0</ele><time>2026-04-25T08:55:26.999Z</time></trkpt><trkpt lat="43.879279277102285" lon="10.703393460107767"><ele>30.0</ele><time>2026-04-25T08:55:27.999Z</time></trkpt><trkpt lat="43.8793182345984" lon="10.703475959462333"><ele>30.0</ele><time>2026-04-25T08:55:28.999Z</time></trkpt><trkpt lat="43.879354973839256" lon="10.703559746174395"><ele>30.142857142857146</ele><time>2026-04-25T08:55:29.999Z</time></trkpt><trkpt lat="43.87939309894245" lon="10.70364816907132"><ele>30.285714285714285</ele><time>2026-04-25T08:55:30.999Z</time></trkpt><trkpt lat="43.879426076102604" lon="10.70373632752828"><ele>30.42857142857143</ele><time>2026-04-25T08:55:31.999Z</time></trkpt><trkpt lat="43.87945874986148" lon="10.703823941090798"><ele>30.571428571428573</ele><time>2026-04-25T08:55:32.999Z</time></trkpt><trkpt lat="43.8794873813974" lon="10.703913270285002"><ele>30.714285714285715</ele><time>2026-04-25T08:55:33.999Z</time></trkpt><trkpt lat="43.879515352467074" lon="10.704002636398078"><ele>30.857142857142858</ele><time>2026-04-25T08:55:34.999Z</time></trkpt><trkpt lat="43.879550695282504" lon="10.704088020546251"><ele>31.0</ele><time>2026-04-25T08:55:35.999Z</time></trkpt><trkpt lat="43.879575428249034" lon="10.70417775865179"><ele>31.000000000000004</ele><time>2026-04-25T08:55:36.999Z</time></trkpt><trkpt lat="43.879600411500405" lon="10.704267638002433"><ele>31.0</ele><time>2026-04-25T08:55:37.999Z</time></trkpt><trkpt lat="43.879626006857116" lon="10.704356525374298"><ele>31.0</ele><time>2026-04-25T08:55:38.999Z</time></trkpt><trkpt lat="43.87965339450093" lon="10.704438694565097"><ele>31.0</ele><time>2026-04-25T08:55:39.999Z</time></trkpt><trkpt lat="43.87968302137301" lon="10.704521848358333"><ele>31.000000000000004</ele><time>2026-04-25T08:55:40.999Z</time></trkpt><trkpt lat="43.8797269769016" lon="10.704679421184697"><ele>31.0</ele><time>2026-04-25T08:55:42.999Z</time></trkpt><trkpt lat="43.87977861032367" lon="10.704828801127992"><ele>31.5</ele><time>2026-04-25T08:55:44.999Z</time></trkpt><trkpt lat="43.87982464478867" lon="10.704971457155706"><ele>32.0</ele><time>2026-04-25T08:55:46.999Z</time></trkpt><trkpt lat="43.87984530284374" lon="10.705122611950559"><ele>32.5</ele><time>2026-04-25T08:55:48.999Z</time></trkpt><trkpt lat="43.87986511643194" lon="10.705279169653044"><ele>33.0</ele><time>2026-04-25T08:55:50.999Z</time></trkpt><trkpt lat="43.87988667906503" lon="10.705431504454355"><ele>33.75</ele><time>2026-04-25T08:55:52.999Z</time></trkpt><trkpt lat="43.87990006729408" lon="10.705588981003121"><ele>34.5</ele><time>2026-04-25T08:55:54.999Z</time></trkpt><trkpt lat="43.879917361255565" lon="10.705747947317132"><ele>35.25</ele><time>2026-04-25T08:55:56.999Z</time></trkpt><trkpt lat="43.879930020365585" lon="10.705907849117919"><ele>36.0</ele><time>2026-04-25T08:55:58.999Z</time></trkpt><trkpt lat="43.87994607160357" lon="10.706068545525383"><ele>37.0</ele><time>2026-04-25T08:56:00.999Z</time></trkpt><trkpt lat="43.87996561114733" lon="10.706235558655855"><ele>38.0</ele><time>2026-04-25T08:56:02.999Z</time></trkpt><trkpt lat="43.879983208697034" lon="10.706398974777406"><ele>39.0</ele><time>2026-04-25T08:56:04.999Z</time></trkpt><trkpt lat="43.88000762987112" lon="10.70656952789746"><ele>40.0</ele><time>2026-04-25T08:56:06.999Z</time></trkpt><trkpt lat="43.88002801915173" lon="10.706738665227238"><ele>40.0</ele><time>2026-04-25T08:56:08.999Z</time></trkpt><trkpt lat="43.88003488156963" lon="10.706826468883195"><ele>40.0</ele><time>2026-04-25T08:56:09.999Z</time></trkpt><trkpt lat="43.88004605537274" lon="10.706998040062862"><ele>40.0</ele><time>2026-04-25T08:56:11.999Z</time></trkpt><trkpt lat="43.880066973455435" lon="10.707161298720703"><ele>40.0</ele><time>2026-04-25T08:56:13.999Z</time></trkpt><trkpt lat="43.880089818642645" lon="10.707326345103484"><ele>40.0</ele><time>2026-04-25T08:56:15.999Z</time></trkpt><trkpt lat="43.88010419458754" lon="10.707491676580075"><ele>40.5</ele><time>2026-04-25T08:56:17.999Z</time></trkpt><trkpt lat="43.880123387333384" lon="10.707654996357483"><ele>41.0</ele><time>2026-04-25T08:56:19.998Z</time></trkpt><trkpt lat="43.880137791417845" lon="10.707818314406449"><ele>41.5</ele><time>2026-04-25T08:56:21.998Z</time></trkpt><trkpt lat="43.880163115104075" lon="10.707979944408704"><ele>42.0</ele><time>2026-04-25T08:56:23.998Z</time></trkpt><trkpt lat="43.8801784507834" lon="10.708141426487545"><ele>42.0</ele><time>2026-04-25T08:56:25.998Z</time></trkpt><trkpt lat="43.88019772474596" lon="10.70830382376388"><ele>42.0</ele><time>2026-04-25T08:56:27.998Z</time></trkpt><trkpt lat="43.88021447498178" lon="10.708474509585908"><ele>42.0</ele><time>2026-04-25T08:56:29.998Z</time></trkpt><trkpt lat="43.88023020978091" lon="10.708645169948047"><ele>42.0</ele><time>2026-04-25T08:56:31.998Z</time></trkpt><trkpt lat="43.88025208562202" lon="10.708811060627452"><ele>42.5</ele><time>2026-04-25T08:56:33.998Z</time></trkpt><trkpt lat="43.8802766703944" lon="10.70897837062469"><ele>43.0</ele><time>2026-04-25T08:56:36Z</time></trkpt><trkpt lat="43.88029520278046" lon="10.709146640764073"><ele>43.5</ele><time>2026-04-25T08:56:38Z</time></trkpt><trkpt lat="43.880318633497524" lon="10.70930869948748"><ele>44.0</ele><time>2026-04-25T08:56:40Z</time></trkpt><trkpt lat="43.88033747890199" lon="10.709477394826253"><ele>44.0</ele><time>2026-04-25T08:56:42Z</time></trkpt><trkpt lat="43.88034611966613" lon="10.709564677039111"><ele>44.0</ele><time>2026-04-25T08:56:43Z</time></trkpt><trkpt lat="43.8803467621283" lon="10.709655931766761"><ele>44.0</ele><time>2026-04-25T08:56:44Z</time></trkpt><trkpt lat="43.880363247692614" lon="10.709835185158477"><ele>44.0</ele><time>2026-04-25T08:56:46Z</time></trkpt><trkpt lat="43.88037576263837" lon="10.7099253594301"><ele>44.0</ele><time>2026-04-25T08:56:47Z</time></trkpt><trkpt lat="43.880388657526076" lon="10.710016353388749"><ele>44.0</ele><time>2026-04-25T08:56:48Z</time></trkpt><trkpt lat="43.880400355689225" lon="10.710108516868448"><ele>44.0</ele><time>2026-04-25T08:56:49Z</time></trkpt><trkpt lat="43.880406927058914" lon="10.710204393038277"><ele>44.0</ele><time>2026-04-25T08:56:50Z</time></trkpt><trkpt lat="43.88041288324367" lon="10.71029616890523"><ele>44.0</ele><time>2026-04-25T08:56:51Z</time></trkpt><trkpt lat="43.880421677458486" lon="10.71039295490325"><ele>44.0</ele><time>2026-04-25T08:56:52Z</time></trkpt><trkpt lat="43.88043383020131" lon="10.710488810290503"><ele>44.0</ele><time>2026-04-25T08:56:53Z</time></trkpt><trkpt lat="43.880445264799164" lon="10.710585990111365"><ele>44.0</ele><time>2026-04-25T08:56:54Z</time></trkpt><trkpt lat="43.880456664764225" lon="10.71068527466585"><ele>44.0</ele><time>2026-04-25T08:56:55Z</time></trkpt><trkpt lat="43.8804692810326" lon="10.710782423967757"><ele>44.0</ele><time>2026-04-25T08:56:56Z</time></trkpt><trkpt lat="43.88048525710552" lon="10.710878705487263"><ele>44.0</ele><time>2026-04-25T08:56:57Z</time></trkpt><trkpt lat="43.88049876176191" lon="10.71097518278942"><ele>44.0</ele><time>2026-04-25T08:56:58Z</time></trkpt><trkpt lat="43.880508549224395" lon="10.711072890925642"><ele>44.0</ele><time>2026-04-25T08:56:59Z</time></trkpt><trkpt lat="43.88052024169299" lon="10.711172525994538"><ele>44.0</ele><time>2026-04-25T08:57:00Z</time></trkpt><trkpt lat="43.88053382829073" lon="10.711270191800457"><ele>44.0</ele><time>2026-04-25T08:57:01Z</time></trkpt><trkpt lat="43.88054482917708" lon="10.711367341871254"><ele>44.0</ele><time>2026-04-25T08:57:02Z</time></trkpt><trkpt lat="43.88055393102927" lon="10.711470373883216"><ele>43.666666666666664</ele><time>2026-04-25T08:57:03Z</time></trkpt><trkpt lat="43.88056222993966" lon="10.711574129379299"><ele>43.33333333333333</ele><time>2026-04-25T08:57:04Z</time></trkpt><trkpt lat="43.88057084010681" lon="10.711677460124966"><ele>43.0</ele><time>2026-04-25T08:57:05Z</time></trkpt><trkpt lat="43.880579125905584" lon="10.711786452581743"><ele>42.666666666666664</ele><time>2026-04-25T08:57:06Z</time></trkpt><trkpt lat="43.88059466885655" lon="10.711885740853361"><ele>42.333333333333336</ele><time>2026-04-25T08:57:07Z</time></trkpt><trkpt lat="43.88060529583864" lon="10.711993038087032"><ele>42.0</ele><time>2026-04-25T08:57:08Z</time></trkpt><trkpt lat="43.880615752507246" lon="10.712099808715923"><ele>41.833333333333336</ele><time>2026-04-25T08:57:09Z</time></trkpt><trkpt lat="43.88061596115376" lon="10.712207884826896"><ele>41.666666666666664</ele><time>2026-04-25T08:57:10Z</time></trkpt><trkpt lat="43.88059916066187" lon="10.712313673825683"><ele>41.5</ele><time>2026-04-25T08:57:11Z</time></trkpt><trkpt lat="43.88057066834419" lon="10.712414377020796"><ele>41.33333333333333</ele><time>2026-04-25T08:57:12Z</time></trkpt><trkpt lat="43.88053928622908" lon="10.712512225027087"><ele>41.166666666666664</ele><time>2026-04-25T08:57:13Z</time></trkpt><trkpt lat="43.88051039997407" lon="10.712608614538004"><ele>41.0</ele><time>2026-04-25T08:57:14Z</time></trkpt><trkpt lat="43.880481824283294" lon="10.712710767387833"><ele>41.0</ele><time>2026-04-25T08:57:15Z</time></trkpt><trkpt lat="43.880459842699004" lon="10.712814578982242"><ele>41.0</ele><time>2026-04-25T08:57:16Z</time></trkpt><trkpt lat="43.8804320419812" lon="10.712911863817382"><ele>41.0</ele><time>2026-04-25T08:57:17Z</time></trkpt><trkpt lat="43.880413703458714" lon="10.713011852132453"><ele>41.0</ele><time>2026-04-25T08:57:18Z</time></trkpt><trkpt lat="43.88039155259853" lon="10.713117905939121"><ele>41.0</ele><time>2026-04-25T08:57:19Z</time></trkpt><trkpt lat="43.880391391504205" lon="10.713221254931877"><ele>41.0</ele><time>2026-04-25T08:57:20Z</time></trkpt><trkpt lat="43.88041810122566" lon="10.713321591080794"><ele>41.0</ele><time>2026-04-25T08:57:21Z</time></trkpt><trkpt lat="43.88047496574405" lon="10.71340412850657"><ele>41.0</ele><time>2026-04-25T08:57:22Z</time></trkpt><trkpt lat="43.88053839000859" lon="10.713465575932387"><ele>41.0</ele><time>2026-04-25T08:57:23Z</time></trkpt><trkpt lat="43.88058967101421" lon="10.713545640603625"><ele>41.0</ele><time>2026-04-25T08:57:24Z</time></trkpt><trkpt lat="43.88061960396029" lon="10.713642318356552"><ele>41.0</ele><time>2026-04-25T08:57:24.999Z</time></trkpt><trkpt lat="43.880641485979446" lon="10.713746943964354"><ele>41.0</ele><time>2026-04-25T08:57:25.999Z</time></trkpt><trkpt lat="43.880653391997534" lon="10.713854550124893"><ele>40.666666666666664</ele><time>2026-04-25T08:57:26.999Z</time></trkpt><trkpt lat="43.880653406713584" lon="10.713962886710293"><ele>40.33333333333333</ele><time>2026-04-25T08:57:27.999Z</time></trkpt><trkpt lat="43.88064575130963" lon="10.714068166916402"><ele>40.0</ele><time>2026-04-25T08:57:28.999Z</time></trkpt><trkpt lat="43.88063417256897" lon="10.714175383088435"><ele>39.666666666666664</ele><time>2026-04-25T08:57:29.999Z</time></trkpt><trkpt lat="43.880616392427136" lon="10.714280450193863"><ele>39.333333333333336</ele><time>2026-04-25T08:57:30.999Z</time></trkpt><trkpt lat="43.88059785457481" lon="10.714388184819404"><ele>39.0</ele><time>2026-04-25T08:57:31.999Z</time></trkpt><trkpt lat="43.880580444186045" lon="10.714494982579865"><ele>39.0</ele><time>2026-04-25T08:57:32.999Z</time></trkpt><trkpt lat="43.88056301409703" lon="10.714605004897797"><ele>39.0</ele><time>2026-04-25T08:57:33.999Z</time></trkpt><trkpt lat="43.88054526909516" lon="10.714710037234456"><ele>39.0</ele><time>2026-04-25T08:57:34.999Z</time></trkpt><trkpt lat="43.88052871118406" lon="10.71482443504751"><ele>39.0</ele><time>2026-04-25T08:57:35.999Z</time></trkpt><trkpt lat="43.880512144706636" lon="10.714933130029333"><ele>39.0</ele><time>2026-04-25T08:57:36.999Z</time></trkpt><trkpt lat="43.88049460633091" lon="10.715046129636471"><ele>39.0</ele><time>2026-04-25T08:57:37.999Z</time></trkpt><trkpt lat="43.88048180259726" lon="10.715157578800154"><ele>38.666666666666664</ele><time>2026-04-25T08:57:38.999Z</time></trkpt><trkpt lat="43.88046389103219" lon="10.715271620088116"><ele>38.333333333333336</ele><time>2026-04-25T08:57:39.999Z</time></trkpt><trkpt lat="43.88044628674482" lon="10.715385623634523"><ele>38.0</ele><time>2026-04-25T08:57:40.999Z</time></trkpt><trkpt lat="43.880426238174" lon="10.715498685398988"><ele>37.66666666666667</ele><time>2026-04-25T08:57:41.999Z</time></trkpt><trkpt lat="43.880406118907075" lon="10.715614341687449"><ele>37.333333333333336</ele><time>2026-04-25T08:57:42.999Z</time></trkpt><trkpt lat="43.88039014457573" lon="10.715725936006955"><ele>37.0</ele><time>2026-04-25T08:57:43.999Z</time></trkpt><trkpt lat="43.88037832968423" lon="10.715838786485923"><ele>37.0</ele><time>2026-04-25T08:57:44.999Z</time></trkpt><trkpt lat="43.880364908873524" lon="10.715955701154295"><ele>37.0</ele><time>2026-04-25T08:57:45.999Z</time></trkpt><trkpt lat="43.88034609011829" lon="10.716067125213533"><ele>37.0</ele><time>2026-04-25T08:57:46.999Z</time></trkpt><trkpt lat="43.88032071522287" lon="10.716181913210281"><ele>37.0</ele><time>2026-04-25T08:57:47.999Z</time></trkpt><trkpt lat="43.880300057495774" lon="10.716288383415028"><ele>37.0</ele><time>2026-04-25T08:57:48.999Z</time></trkpt><trkpt lat="43.88028078137" lon="10.716400963433008"><ele>37.0</ele><time>2026-04-25T08:57:49.999Z</time></trkpt><trkpt lat="43.88026303936202" lon="10.716512398450906"><ele>36.833333333333336</ele><time>2026-04-25T08:57:50.999Z</time></trkpt><trkpt lat="43.880246988012686" lon="10.71662512270051"><ele>36.66666666666667</ele><time>2026-04-25T08:57:51.999Z</time></trkpt><trkpt lat="43.880234021832955" lon="10.716735229926263"><ele>36.5</ele><time>2026-04-25T08:57:52.999Z</time></trkpt><trkpt lat="43.88021504211071" lon="10.716847065478278"><ele>36.333333333333336</ele><time>2026-04-25T08:57:53.999Z</time></trkpt><trkpt lat="43.880196609868804" lon="10.716956086245094"><ele>36.166666666666664</ele><time>2026-04-25T08:57:54.999Z</time></trkpt><trkpt lat="43.880180541442314" lon="10.71706342412241"><ele>36.0</ele><time>2026-04-25T08:57:55.999Z</time></trkpt><trkpt lat="43.8801676871306" lon="10.717175591837435"><ele>36.0</ele><time>2026-04-25T08:57:56.999Z</time></trkpt><trkpt lat="43.880147926194226" lon="10.717284125098208"><ele>36.0</ele><time>2026-04-25T08:57:57.999Z</time></trkpt><trkpt lat="43.880132010705225" lon="10.71739384184386"><ele>36.0</ele><time>2026-04-25T08:57:58.999Z</time></trkpt><trkpt lat="43.880117113754835" lon="10.717502203257201"><ele>36.0</ele><time>2026-04-25T08:57:59.999Z</time></trkpt><trkpt lat="43.880100213083644" lon="10.717611144030988"><ele>36.0</ele><time>2026-04-25T08:58:00.999Z</time></trkpt><trkpt lat="43.88008371190818" lon="10.717716281320389"><ele>36.0</ele><time>2026-04-25T08:58:01.999Z</time></trkpt><trkpt lat="43.88007112165318" lon="10.717827840672335"><ele>35.833333333333336</ele><time>2026-04-25T08:58:02.999Z</time></trkpt><trkpt lat="43.88005818149213" lon="10.717938923562661"><ele>35.666666666666664</ele><time>2026-04-25T08:58:03.999Z</time></trkpt><trkpt lat="43.88004222657779" lon="10.718047403518549"><ele>35.5</ele><time>2026-04-25T08:58:04.999Z</time></trkpt><trkpt lat="43.88002566970956" lon="10.718161348742006"><ele>35.33333333333333</ele><time>2026-04-25T08:58:05.999Z</time></trkpt><trkpt lat="43.88000828259065" lon="10.718270115065797"><ele>35.166666666666664</ele><time>2026-04-25T08:58:06.999Z</time></trkpt><trkpt lat="43.87999075251398" lon="10.718384459729242"><ele>35.0</ele><time>2026-04-25T08:58:07.999Z</time></trkpt><trkpt lat="43.8799724334839" lon="10.718501369800029"><ele>35.166666666666664</ele><time>2026-04-25T08:58:08.999Z</time></trkpt><trkpt lat="43.879954941082836" lon="10.71861451020091"><ele>35.33333333333333</ele><time>2026-04-25T08:58:09.999Z</time></trkpt><trkpt lat="43.879948204159284" lon="10.718730805552795"><ele>35.5</ele><time>2026-04-25T08:58:10.999Z</time></trkpt><trkpt lat="43.87994145949057" lon="10.71884714952394"><ele>35.666666666666664</ele><time>2026-04-25T08:58:11.999Z</time></trkpt><trkpt lat="43.87993400707396" lon="10.718961200435814"><ele>35.833333333333336</ele><time>2026-04-25T08:58:12.999Z</time></trkpt><trkpt lat="43.87992489929238" lon="10.719073491979414"><ele>36.0</ele><time>2026-04-25T08:58:13.999Z</time></trkpt><trkpt lat="43.87991930785488" lon="10.719186636623698"><ele>36.0</ele><time>2026-04-25T08:58:14.999Z</time></trkpt><trkpt lat="43.879912484806084" lon="10.719301501328763"><ele>36.0</ele><time>2026-04-25T08:58:15.999Z</time></trkpt><trkpt lat="43.87990621864649" lon="10.719411258032627"><ele>36.0</ele><time>2026-04-25T08:58:16.999Z</time></trkpt><trkpt lat="43.879901856722945" lon="10.719524062774713"><ele>36.0</ele><time>2026-04-25T08:58:17.999Z</time></trkpt><trkpt lat="43.879899902147756" lon="10.719637424812557"><ele>36.0</ele><time>2026-04-25T08:58:18.999Z</time></trkpt><trkpt lat="43.87989290745406" lon="10.719744638386395"><ele>36.0</ele><time>2026-04-25T08:58:19.999Z</time></trkpt><trkpt lat="43.879887543357874" lon="10.719853784985295"><ele>35.833333333333336</ele><time>2026-04-25T08:58:20.999Z</time></trkpt><trkpt lat="43.879882066218904" lon="10.71996878831735"><ele>35.666666666666664</ele><time>2026-04-25T08:58:21.999Z</time></trkpt><trkpt lat="43.87987324712438" lon="10.72007182021975"><ele>35.5</ele><time>2026-04-25T08:58:22.999Z</time></trkpt><trkpt lat="43.87986529208265" lon="10.720179614022435"><ele>35.33333333333333</ele><time>2026-04-25T08:58:23.999Z</time></trkpt><trkpt lat="43.87985242796763" lon="10.720288311613496"><ele>35.166666666666664</ele><time>2026-04-25T08:58:24.999Z</time></trkpt><trkpt lat="43.87983568321038" lon="10.720397494133342"><ele>35.0</ele><time>2026-04-25T08:58:25.999Z</time></trkpt><trkpt lat="43.87981707728544" lon="10.720503108678272"><ele>35.0</ele><time>2026-04-25T08:58:26.999Z</time></trkpt><trkpt lat="43.87979658263247" lon="10.720603496732101"><ele>35.0</ele><time>2026-04-25T08:58:27.999Z</time></trkpt><trkpt lat="43.87976982959141" lon="10.720710083313854"><ele>35.0</ele><time>2026-04-25T08:58:28.999Z</time></trkpt><trkpt lat="43.87974644473376" lon="10.720807529079186"><ele>35.0</ele><time>2026-04-25T08:58:29.999Z</time></trkpt><trkpt lat="43.879720582252226" lon="10.720912186700232"><ele>35.0</ele><time>2026-04-25T08:58:30.999Z</time></trkpt><trkpt lat="43.879692233370264" lon="10.721019247372983"><ele>35.0</ele><time>2026-04-25T08:58:31.999Z</time></trkpt><trkpt lat="43.87965909522048" lon="10.721109936150407"><ele>35.0</ele><time>2026-04-25T08:58:32.999Z</time></trkpt><trkpt lat="43.879621380452214" lon="10.721198207088904"><ele>35.0</ele><time>2026-04-25T08:58:33.999Z</time></trkpt><trkpt lat="43.87958323409578" lon="10.721295447879564"><ele>35.0</ele><time>2026-04-25T08:58:34.998Z</time></trkpt><trkpt lat="43.879549694671574" lon="10.721392778999022"><ele>35.0</ele><time>2026-04-25T08:58:35.998Z</time></trkpt><trkpt lat="43.87951748934603" lon="10.721485900787469"><ele>35.0</ele><time>2026-04-25T08:58:36.998Z</time></trkpt><trkpt lat="43.87947488618917" lon="10.72157649999943"><ele>35.0</ele><time>2026-04-25T08:58:37.998Z</time></trkpt><trkpt lat="43.87943643480977" lon="10.721669540174378"><ele>35.0</ele><time>2026-04-25T08:58:38.998Z</time></trkpt><trkpt lat="43.87940097763165" lon="10.721760329449758"><ele>35.0</ele><time>2026-04-25T08:58:39.998Z</time></trkpt><trkpt lat="43.879363213369416" lon="10.721854144632351"><ele>35.0</ele><time>2026-04-25T08:58:41Z</time></trkpt><trkpt lat="43.879326264806345" lon="10.721949292187059"><ele>35.0</ele><time>2026-04-25T08:58:42Z</time></trkpt><trkpt lat="43.879290809893014" lon="10.722044001915073"><ele>35.0</ele><time>2026-04-25T08:58:43Z</time></trkpt><trkpt lat="43.87925192879479" lon="10.722131111409945"><ele>35.0</ele><time>2026-04-25T08:58:44Z</time></trkpt><trkpt lat="43.87921461673292" lon="10.722217931030775"><ele>34.857142857142854</ele><time>2026-04-25T08:58:45Z</time></trkpt><trkpt lat="43.87918447692419" lon="10.72230879359762"><ele>34.714285714285715</ele><time>2026-04-25T08:58:46Z</time></trkpt><trkpt lat="43.87914510595505" lon="10.722388532478773"><ele>34.57142857142857</ele><time>2026-04-25T08:58:47Z</time></trkpt><trkpt lat="43.87910851899727" lon="10.722476826859507"><ele>34.42857142857143</ele><time>2026-04-25T08:58:48Z</time></trkpt><trkpt lat="43.87907215052218" lon="10.722562011243461"><ele>34.285714285714285</ele><time>2026-04-25T08:58:49Z</time></trkpt><trkpt lat="43.87903902744933" lon="10.72264791615656"><ele>34.14285714285714</ele><time>2026-04-25T08:58:50Z</time></trkpt><trkpt lat="43.87900403603887" lon="10.722736611613023"><ele>34.0</ele><time>2026-04-25T08:58:51Z</time></trkpt><trkpt lat="43.87896667010606" lon="10.722819736262545"><ele>34.42857142857142</ele><time>2026-04-25T08:58:52Z</time></trkpt><trkpt lat="43.87892780351647" lon="10.72289821294517"><ele>34.857142857142854</ele><time>2026-04-25T08:58:53Z</time></trkpt><trkpt lat="43.87889678378714" lon="10.722985301008357"><ele>35.285714285714285</ele><time>2026-04-25T08:58:54Z</time></trkpt><trkpt lat="43.878862636135395" lon="10.723069589400211"><ele>35.71428571428571</ele><time>2026-04-25T08:58:55Z</time></trkpt><trkpt lat="43.87882983912096" lon="10.723153178954604"><ele>36.14285714285714</ele><time>2026-04-25T08:58:56Z</time></trkpt><trkpt lat="43.878799151071824" lon="10.72323794601132"><ele>36.57142857142857</ele><time>2026-04-25T08:58:57Z</time></trkpt><trkpt lat="43.878770225178144" lon="10.72331974257471"><ele>37.0</ele><time>2026-04-25T08:58:58Z</time></trkpt><trkpt lat="43.87874039568831" lon="10.72340583419086"><ele>37.0</ele><time>2026-04-25T08:58:59Z</time></trkpt><trkpt lat="43.87870356240692" lon="10.723487203017152"><ele>37.0</ele><time>2026-04-25T08:59:00Z</time></trkpt><trkpt lat="43.878668933164995" lon="10.723564062858104"><ele>37.0</ele><time>2026-04-25T08:59:01Z</time></trkpt><trkpt lat="43.87863299040373" lon="10.723642493075953"><ele>37.0</ele><time>2026-04-25T08:59:02Z</time></trkpt><trkpt lat="43.87860447436487" lon="10.723724332315806"><ele>37.0</ele><time>2026-04-25T08:59:03Z</time></trkpt><trkpt lat="43.87857575533723" lon="10.723812467965791"><ele>37.0</ele><time>2026-04-25T08:59:04Z</time></trkpt><trkpt lat="43.878538328797966" lon="10.723891313048266"><ele>37.0</ele><time>2026-04-25T08:59:05Z</time></trkpt><trkpt lat="43.87850659890477" lon="10.723973173854388"><ele>37.5</ele><time>2026-04-25T08:59:06Z</time></trkpt><trkpt lat="43.87845082003506" lon="10.724137037896877"><ele>38.0</ele><time>2026-04-25T08:59:08Z</time></trkpt><trkpt lat="43.87842137609161" lon="10.72421977276398"><ele>38.5</ele><time>2026-04-25T08:59:09Z</time></trkpt><trkpt lat="43.87838549959216" lon="10.724305684955217"><ele>39.0</ele><time>2026-04-25T08:59:10Z</time></trkpt><trkpt lat="43.87835269018522" lon="10.724391956371653"><ele>39.5</ele><time>2026-04-25T08:59:11Z</time></trkpt><trkpt lat="43.878325470526384" lon="10.724475982655342"><ele>40.0</ele><time>2026-04-25T08:59:12Z</time></trkpt><trkpt lat="43.878295050890394" lon="10.724564849416126"><ele>40.714285714285715</ele><time>2026-04-25T08:59:13Z</time></trkpt><trkpt lat="43.87826389760878" lon="10.72464784621321"><ele>41.42857142857143</ele><time>2026-04-25T08:59:14Z</time></trkpt><trkpt lat="43.878236818117685" lon="10.724731626216634"><ele>42.14285714285714</ele><time>2026-04-25T08:59:15Z</time></trkpt><trkpt lat="43.87821480362716" lon="10.724814147405487"><ele>42.85714285714286</ele><time>2026-04-25T08:59:16Z</time></trkpt><trkpt lat="43.878190237716126" lon="10.724896821973646"><ele>43.57142857142858</ele><time>2026-04-25T08:59:17Z</time></trkpt><trkpt lat="43.8781692730489" lon="10.72498490524347"><ele>44.285714285714285</ele><time>2026-04-25T08:59:18Z</time></trkpt><trkpt lat="43.87814801912209" lon="10.725075548466581"><ele>45.0</ele><time>2026-04-25T08:59:19Z</time></trkpt><trkpt lat="43.87812442344814" lon="10.72516238398687"><ele>44.285714285714285</ele><time>2026-04-25T08:59:20Z</time></trkpt><trkpt lat="43.87810745233671" lon="10.725253599619993"><ele>43.57142857142858</ele><time>2026-04-25T08:59:21Z</time></trkpt><trkpt lat="43.87809524568209" lon="10.725354741890149"><ele>42.85714285714286</ele><time>2026-04-25T08:59:22Z</time></trkpt><trkpt lat="43.87808173609228" lon="10.72545244685884"><ele>42.14285714285714</ele><time>2026-04-25T08:59:23Z</time></trkpt><trkpt lat="43.8780644314481" lon="10.725553426582355"><ele>41.42857142857143</ele><time>2026-04-25T08:59:24Z</time></trkpt><trkpt lat="43.878045933651784" lon="10.725657509206268"><ele>40.714285714285715</ele><time>2026-04-25T08:59:25Z</time></trkpt><trkpt lat="43.878028704132795" lon="10.725765811263363"><ele>40.0</ele><time>2026-04-25T08:59:26Z</time></trkpt><trkpt lat="43.878012048211794" lon="10.725874176459069"><ele>40.0</ele><time>2026-04-25T08:59:27Z</time></trkpt><trkpt lat="43.87800485637903" lon="10.725989762971118"><ele>40.0</ele><time>2026-04-25T08:59:28Z</time></trkpt><trkpt lat="43.877987721266" lon="10.726105668164422"><ele>40.0</ele><time>2026-04-25T08:59:29Z</time></trkpt><trkpt lat="43.87797357818079" lon="10.726221810862345"><ele>40.0</ele><time>2026-04-25T08:59:30Z</time></trkpt><trkpt lat="43.877957268548776" lon="10.726337192345847"><ele>40.0</ele><time>2026-04-25T08:59:30.999Z</time></trkpt><trkpt lat="43.87794029817649" lon="10.726455053188692"><ele>40.0</ele><time>2026-04-25T08:59:31.999Z</time></trkpt><trkpt lat="43.877923118355675" lon="10.726570541824419"><ele>39.2</ele><time>2026-04-25T08:59:32.999Z</time></trkpt><trkpt lat="43.87790773319718" lon="10.726690922690585"><ele>38.4</ele><time>2026-04-25T08:59:33.999Z</time></trkpt><trkpt lat="43.87788738861831" lon="10.72681962748568"><ele>37.6</ele><time>2026-04-25T08:59:34.999Z</time></trkpt><trkpt lat="43.877874589442456" lon="10.726943287753953"><ele>36.8</ele><time>2026-04-25T08:59:35.999Z</time></trkpt><trkpt lat="43.877861324324755" lon="10.72706922399493"><ele>36.0</ele><time>2026-04-25T08:59:36.999Z</time></trkpt><trkpt lat="43.877845760759264" lon="10.72719302201481"><ele>36.0</ele><time>2026-04-25T08:59:37.999Z</time></trkpt><trkpt lat="43.8778283228439" lon="10.727315966416178"><ele>36.0</ele><time>2026-04-25T08:59:38.999Z</time></trkpt><trkpt lat="43.877812019757066" lon="10.727438911501373"><ele>36.0</ele><time>2026-04-25T08:59:39.999Z</time></trkpt><trkpt lat="43.87779323916535" lon="10.727556946548335"><ele>36.0</ele><time>2026-04-25T08:59:40.999Z</time></trkpt><trkpt lat="43.8777740697649" lon="10.727679857707354"><ele>36.0</ele><time>2026-04-25T08:59:41.999Z</time></trkpt><trkpt lat="43.87775613954812" lon="10.727794751978443"><ele>36.0</ele><time>2026-04-25T08:59:42.999Z</time></trkpt><trkpt lat="43.87773834638812" lon="10.72791053267839"><ele>35.833333333333336</ele><time>2026-04-25T08:59:43.999Z</time></trkpt><trkpt lat="43.877724484430104" lon="10.728031417704834"><ele>35.666666666666664</ele><time>2026-04-25T08:59:44.999Z</time></trkpt><trkpt lat="43.87770907301956" lon="10.728152017309801"><ele>35.5</ele><time>2026-04-25T08:59:45.999Z</time></trkpt><trkpt lat="43.87769230638475" lon="10.728268278257266"><ele>35.33333333333333</ele><time>2026-04-25T08:59:46.999Z</time></trkpt><trkpt lat="43.87767560792844" lon="10.728384813187745"><ele>35.166666666666664</ele><time>2026-04-25T08:59:47.999Z</time></trkpt><trkpt lat="43.87765928405752" lon="10.72850149173952"><ele>35.0</ele><time>2026-04-25T08:59:48.999Z</time></trkpt><trkpt lat="43.877644490050564" lon="10.728612932643307"><ele>34.666666666666664</ele><time>2026-04-25T08:59:49.999Z</time></trkpt><trkpt lat="43.877634593247734" lon="10.728732113201913"><ele>34.33333333333333</ele><time>2026-04-25T08:59:50.999Z</time></trkpt><trkpt lat="43.877619699336506" lon="10.728853479265842"><ele>34.0</ele><time>2026-04-25T08:59:51.999Z</time></trkpt><trkpt lat="43.877602210241356" lon="10.728958320606266"><ele>33.666666666666664</ele><time>2026-04-25T08:59:52.999Z</time></trkpt><trkpt lat="43.87759215738768" lon="10.729069062498361"><ele>33.333333333333336</ele><time>2026-04-25T08:59:53.999Z</time></trkpt><trkpt lat="43.87757768641087" lon="10.729183188075051"><ele>33.0</ele><time>2026-04-25T08:59:54.999Z</time></trkpt><trkpt lat="43.877558152202916" lon="10.729291143787284"><ele>33.166666666666664</ele><time>2026-04-25T08:59:55.999Z</time></trkpt><trkpt lat="43.87754964547495" lon="10.729400605703479"><ele>33.333333333333336</ele><time>2026-04-25T08:59:56.999Z</time></trkpt><trkpt lat="43.87752768553884" lon="10.729511353248197"><ele>33.5</ele><time>2026-04-25T08:59:57.999Z</time></trkpt><trkpt lat="43.87751755243717" lon="10.729628919545945"><ele>33.66666666666667</ele><time>2026-04-25T08:59:58.999Z</time></trkpt><trkpt lat="43.87750907845246" lon="10.72973522144284"><ele>33.833333333333336</ele><time>2026-04-25T08:59:59.999Z</time></trkpt><trkpt lat="43.8774887233367" lon="10.729835567478565"><ele>34.0</ele><time>2026-04-25T09:00:00.999Z</time></trkpt><trkpt lat="43.87747266242544" lon="10.729949046781112"><ele>34.0</ele><time>2026-04-25T09:00:01.999Z</time></trkpt><trkpt lat="43.877457063940376" lon="10.730057905794101"><ele>34.0</ele><time>2026-04-25T09:00:02.999Z</time></trkpt><trkpt lat="43.87744169313983" lon="10.730157354175015"><ele>34.0</ele><time>2026-04-25T09:00:03.999Z</time></trkpt><trkpt lat="43.87742447912363" lon="10.730265779327636"><ele>34.0</ele><time>2026-04-25T09:00:04.999Z</time></trkpt><trkpt lat="43.877413925230314" lon="10.730370059514149"><ele>34.0</ele><time>2026-04-25T09:00:05.999Z</time></trkpt><trkpt lat="43.87740277374275" lon="10.730469343562191"><ele>34.0</ele><time>2026-04-25T09:00:06.999Z</time></trkpt><trkpt lat="43.877392662781524" lon="10.730566452241153"><ele>34.333333333333336</ele><time>2026-04-25T09:00:07.999Z</time></trkpt><trkpt lat="43.87738316605682" lon="10.730659136034747"><ele>34.66666666666667</ele><time>2026-04-25T09:00:08.999Z</time></trkpt><trkpt lat="43.87736934881811" lon="10.730749954592916"><ele>35.0</ele><time>2026-04-25T09:00:09.999Z</time></trkpt><trkpt lat="43.87735802943216" lon="10.730840544330327"><ele>35.333333333333336</ele><time>2026-04-25T09:00:10.999Z</time></trkpt><trkpt lat="43.877344631614335" lon="10.731000616872667"><ele>35.666666666666664</ele><time>2026-04-25T09:00:12.999Z</time></trkpt><trkpt lat="43.877332377126315" lon="10.731120689964717"><ele>36.0</ele><time>2026-04-25T09:00:14.999Z</time></trkpt><trkpt lat="43.87732342918941" lon="10.731220084934652"><ele>36.0</ele><time>2026-04-25T09:00:26.999Z</time></trkpt><trkpt lat="43.87732295521991" lon="10.731333176135854"><ele>36.0</ele><time>2026-04-25T09:00:29.999Z</time></trkpt><trkpt lat="43.87732805843781" lon="10.731439767860936"><ele>36.0</ele><time>2026-04-25T09:00:31.999Z</time></trkpt><trkpt lat="43.87733499093675" lon="10.731578258545985"><ele>36.0</ele><time>2026-04-25T09:00:33.999Z</time></trkpt><trkpt lat="43.877351744564045" lon="10.731720399164775"><ele>36.0</ele><time>2026-04-25T09:00:35.999Z</time></trkpt><trkpt lat="43.87736048492203" lon="10.731881749686552"><ele>35.833333333333336</ele><time>2026-04-25T09:00:37.998Z</time></trkpt><trkpt lat="43.877376545215874" lon="10.732052697362494"><ele>35.666666666666664</ele><time>2026-04-25T09:00:39.998Z</time></trkpt><trkpt lat="43.87738683788489" lon="10.732139097054969"><ele>35.5</ele><time>2026-04-25T09:00:40.998Z</time></trkpt><trkpt lat="43.87739949768536" lon="10.732232785610377"><ele>35.33333333333333</ele><time>2026-04-25T09:00:41.998Z</time></trkpt><trkpt lat="43.87741600749715" lon="10.732320659104786"><ele>35.166666666666664</ele><time>2026-04-25T09:00:42.998Z</time></trkpt><trkpt lat="43.877432185321254" lon="10.732412251763728"><ele>35.0</ele><time>2026-04-25T09:00:43.998Z</time></trkpt><trkpt lat="43.87745237562741" lon="10.732501954113602"><ele>35.0</ele><time>2026-04-25T09:00:44.998Z</time></trkpt><trkpt lat="43.877473886119795" lon="10.732593102539077"><ele>35.0</ele><time>2026-04-25T09:00:45.998Z</time></trkpt><trkpt lat="43.877500128680715" lon="10.732684258361086"><ele>35.0</ele><time>2026-04-25T09:00:47Z</time></trkpt><trkpt lat="43.877526298549036" lon="10.732772476295866"><ele>35.0</ele><time>2026-04-25T09:00:48Z</time></trkpt><trkpt lat="43.877553546476534" lon="10.732862020428318"><ele>35.0</ele><time>2026-04-25T09:00:49Z</time></trkpt><trkpt lat="43.87758050428421" lon="10.732952244866324"><ele>35.0</ele><time>2026-04-25T09:00:50Z</time></trkpt><trkpt lat="43.877604674067975" lon="10.733045220317692"><ele>35.0</ele><time>2026-04-25T09:00:51Z</time></trkpt><trkpt lat="43.87762811338785" lon="10.733140177867242"><ele>35.0</ele><time>2026-04-25T09:00:52Z</time></trkpt><trkpt lat="43.87765353954226" lon="10.73323250993462"><ele>35.0</ele><time>2026-04-25T09:00:53Z</time></trkpt><trkpt lat="43.87767818722278" lon="10.733326987764324"><ele>35.0</ele><time>2026-04-25T09:00:54Z</time></trkpt><trkpt lat="43.87770123489474" lon="10.733419395645216"><ele>35.0</ele><time>2026-04-25T09:00:55Z</time></trkpt><trkpt lat="43.87771921903701" lon="10.733517646329554"><ele>35.0</ele><time>2026-04-25T09:00:56Z</time></trkpt><trkpt lat="43.8777237553821" lon="10.733619662120766"><ele>35.0</ele><time>2026-04-25T09:00:57Z</time></trkpt><trkpt lat="43.87771811526514" lon="10.733722278067432"><ele>35.0</ele><time>2026-04-25T09:00:58Z</time></trkpt><trkpt lat="43.87770785003277" lon="10.733821853583885"><ele>35.0</ele><time>2026-04-25T09:00:59Z</time></trkpt><trkpt lat="43.877747519358024" lon="10.733989661238265"><ele>35.0</ele><time>2026-04-25T09:01:01Z</time></trkpt><trkpt lat="43.877805916268535" lon="10.734038847228009"><ele>35.0</ele><time>2026-04-25T09:01:02Z</time></trkpt><trkpt lat="43.87787609068281" lon="10.734052397429796"><ele>35.0</ele><time>2026-04-25T09:01:03Z</time></trkpt><trkpt lat="43.8779385335991" lon="10.73402396455806"><ele>35.0</ele><time>2026-04-25T09:01:04Z</time></trkpt><trkpt lat="43.878051029983006" lon="10.734025164123771"><ele>35.0</ele><time>2026-04-25T09:01:06Z</time></trkpt><trkpt lat="43.878145759634904" lon="10.734141825779599"><ele>35.0</ele><time>2026-04-25T09:01:08Z</time></trkpt><trkpt lat="43.87818813445561" lon="10.734212117063818"><ele>35.0</ele><time>2026-04-25T09:01:09Z</time></trkpt><trkpt lat="43.87823564331963" lon="10.734280806904962"><ele>35.0</ele><time>2026-04-25T09:01:10Z</time></trkpt><trkpt lat="43.87828629874656" lon="10.734349557744283"><ele>35.0</ele><time>2026-04-25T09:01:11Z</time></trkpt><trkpt lat="43.87833593742432" lon="10.734422848531786"><ele>35.0</ele><time>2026-04-25T09:01:12Z</time></trkpt><trkpt lat="43.87838761868115" lon="10.734494026809628"><ele>35.0</ele><time>2026-04-25T09:01:13Z</time></trkpt><trkpt lat="43.87844071434541" lon="10.734567639193877"><ele>35.0</ele><time>2026-04-25T09:01:14Z</time></trkpt><trkpt lat="43.87849202168687" lon="10.734644744672789"><ele>34.83333333333333</ele><time>2026-04-25T09:01:15Z</time></trkpt><trkpt lat="43.87854668958447" lon="10.734723456274127"><ele>34.666666666666664</ele><time>2026-04-25T09:01:16Z</time></trkpt><trkpt lat="43.87860481744436" lon="10.734800274328865"><ele>34.5</ele><time>2026-04-25T09:01:17Z</time></trkpt><trkpt lat="43.87866222399078" lon="10.73487944518214"><ele>34.333333333333336</ele><time>2026-04-25T09:01:18Z</time></trkpt><trkpt lat="43.878716207516206" lon="10.7349584082091"><ele>34.16666666666667</ele><time>2026-04-25T09:01:19Z</time></trkpt><trkpt lat="43.878767800815794" lon="10.735048364641365"><ele>34.0</ele><time>2026-04-25T09:01:20Z</time></trkpt><trkpt lat="43.87881463559835" lon="10.73514597429111"><ele>33.66666666666667</ele><time>2026-04-25T09:01:21Z</time></trkpt><trkpt lat="43.87885719878219" lon="10.735247659880946"><ele>33.333333333333336</ele><time>2026-04-25T09:01:22Z</time></trkpt><trkpt lat="43.8788927981653" lon="10.73536256017325"><ele>33.0</ele><time>2026-04-25T09:01:23Z</time></trkpt><trkpt lat="43.8789189574247" lon="10.73548111232015"><ele>32.666666666666664</ele><time>2026-04-25T09:01:24Z</time></trkpt><trkpt lat="43.87893316887408" lon="10.735606402041187"><ele>32.33333333333333</ele><time>2026-04-25T09:01:25Z</time></trkpt><trkpt lat="43.878939809992936" lon="10.735729061360608"><ele>32.0</ele><time>2026-04-25T09:01:26Z</time></trkpt><trkpt lat="43.87894502325599" lon="10.735855334033204"><ele>32.0</ele><time>2026-04-25T09:01:27Z</time></trkpt><trkpt lat="43.87894664685529" lon="10.735984234382288"><ele>32.0</ele><time>2026-04-25T09:01:28Z</time></trkpt><trkpt lat="43.87894818878353" lon="10.736112416481971"><ele>32.0</ele><time>2026-04-25T09:01:29Z</time></trkpt><trkpt lat="43.8789533094053" lon="10.736237876310534"><ele>32.0</ele><time>2026-04-25T09:01:30Z</time></trkpt><trkpt lat="43.878954293024094" lon="10.736362710039216"><ele>32.0</ele><time>2026-04-25T09:01:31Z</time></trkpt><trkpt lat="43.87895358168838" lon="10.736486988469636"><ele>31.999999999999996</ele><time>2026-04-25T09:01:32Z</time></trkpt><trkpt lat="43.8789545423444" lon="10.736609424464206"><ele>32.0</ele><time>2026-04-25T09:01:33Z</time></trkpt><trkpt lat="43.87895521583975" lon="10.736730650357835"><ele>32.0</ele><time>2026-04-25T09:01:34Z</time></trkpt><trkpt lat="43.878958947482595" lon="10.736848263519192"><ele>32.0</ele><time>2026-04-25T09:01:34.999Z</time></trkpt><trkpt lat="43.87895465240546" lon="10.736968201590336"><ele>31.999999999999996</ele><time>2026-04-25T09:01:35.999Z</time></trkpt><trkpt lat="43.878945671929685" lon="10.737083223174412"><ele>32.0</ele><time>2026-04-25T09:01:36.999Z</time></trkpt><trkpt lat="43.87894687722545" lon="10.737200407956058"><ele>31.8</ele><time>2026-04-25T09:01:37.999Z</time></trkpt><trkpt lat="43.878966661155715" lon="10.73733569222002"><ele>31.6</ele><time>2026-04-25T09:01:38.999Z</time></trkpt><trkpt lat="43.878958122464994" lon="10.73745113643764"><ele>31.400000000000002</ele><time>2026-04-25T09:01:39.999Z</time></trkpt><trkpt lat="43.878897131743415" lon="10.737653923876419"><ele>31.200000000000003</ele><time>2026-04-25T09:01:41.999Z</time></trkpt><trkpt lat="43.87882333918809" lon="10.737738098181373"><ele>31.0</ele><time>2026-04-25T09:01:42.999Z</time></trkpt><trkpt lat="43.878780339690564" lon="10.737839879765074"><ele>30.666666666666668</ele><time>2026-04-25T09:01:43.999Z</time></trkpt><trkpt lat="43.87878359453691" lon="10.737959642868098"><ele>30.333333333333336</ele><time>2026-04-25T09:01:44.999Z</time></trkpt><trkpt lat="43.878832346791796" lon="10.738065612497964"><ele>30.0</ele><time>2026-04-25T09:01:45.999Z</time></trkpt><trkpt lat="43.878891445993695" lon="10.73815278715818"><ele>29.666666666666664</ele><time>2026-04-25T09:01:46.999Z</time></trkpt><trkpt lat="43.8789156325498" lon="10.738257761518465"><ele>29.333333333333332</ele><time>2026-04-25T09:01:47.999Z</time></trkpt><trkpt lat="43.878916958849985" lon="10.73838115476512"><ele>29.0</ele><time>2026-04-25T09:01:48.999Z</time></trkpt><trkpt lat="43.87891421739352" lon="10.73850120336327"><ele>28.999999999999996</ele><time>2026-04-25T09:01:49.999Z</time></trkpt><trkpt lat="43.87891349119463" lon="10.738621792342247"><ele>29.0</ele><time>2026-04-25T09:01:50.999Z</time></trkpt><trkpt lat="43.87891651871738" lon="10.738742992226388"><ele>29.0</ele><time>2026-04-25T09:01:51.999Z</time></trkpt><trkpt lat="43.87891589568543" lon="10.738867040392487"><ele>29.0</ele><time>2026-04-25T09:01:52.999Z</time></trkpt><trkpt lat="43.878908445895235" lon="10.738966944491581"><ele>28.999999999999996</ele><time>2026-04-25T09:01:53.999Z</time></trkpt><trkpt lat="43.87891169109173" lon="10.739104171633622"><ele>29.0</ele><time>2026-04-25T09:01:54.999Z</time></trkpt><trkpt lat="43.87890301323305" lon="10.739229981140015"><ele>28.999999999999996</ele><time>2026-04-25T09:01:55.999Z</time></trkpt><trkpt lat="43.87888749450197" lon="10.739350680451748"><ele>29.0</ele><time>2026-04-25T09:01:56.999Z</time></trkpt><trkpt lat="43.878863222945085" lon="10.739475078233964"><ele>29.0</ele><time>2026-04-25T09:01:57.999Z</time></trkpt><trkpt lat="43.87882305433466" lon="10.73959073792412"><ele>29.0</ele><time>2026-04-25T09:01:58.999Z</time></trkpt><trkpt lat="43.878783815628914" lon="10.739697628936403"><ele>28.999999999999996</ele><time>2026-04-25T09:01:59.999Z</time></trkpt><trkpt lat="43.878742318390515" lon="10.739806885483883"><ele>29.0</ele><time>2026-04-25T09:02:00.999Z</time></trkpt><trkpt lat="43.87869698963982" lon="10.739920090731868"><ele>28.833333333333332</ele><time>2026-04-25T09:02:01.999Z</time></trkpt><trkpt lat="43.87866521501161" lon="10.740029862290436"><ele>28.666666666666664</ele><time>2026-04-25T09:02:02.999Z</time></trkpt><trkpt lat="43.878630006371665" lon="10.740142736714699"><ele>28.5</ele><time>2026-04-25T09:02:03.999Z</time></trkpt><trkpt lat="43.87860058985352" lon="10.740257031763353"><ele>28.333333333333336</ele><time>2026-04-25T09:02:04.999Z</time></trkpt><trkpt lat="43.87857123363594" lon="10.740366982563831"><ele>28.166666666666668</ele><time>2026-04-25T09:02:05.999Z</time></trkpt><trkpt lat="43.87854748127697" lon="10.740486149297942"><ele>28.0</ele><time>2026-04-25T09:02:06.999Z</time></trkpt><trkpt lat="43.87852335478685" lon="10.740597132138884"><ele>28.000000000000004</ele><time>2026-04-25T09:02:07.999Z</time></trkpt><trkpt lat="43.87849957659715" lon="10.7407074096866"><ele>28.0</ele><time>2026-04-25T09:02:08.999Z</time></trkpt><trkpt lat="43.87847914445712" lon="10.740824232158875"><ele>28.0</ele><time>2026-04-25T09:02:09.999Z</time></trkpt><trkpt lat="43.87846072895534" lon="10.740929131586606"><ele>28.0</ele><time>2026-04-25T09:02:10.999Z</time></trkpt><trkpt lat="43.87844403405957" lon="10.741035102845292"><ele>28.000000000000004</ele><time>2026-04-25T09:02:11.999Z</time></trkpt><trkpt lat="43.8784346956391" lon="10.741145964836178"><ele>28.0</ele><time>2026-04-25T09:02:12.999Z</time></trkpt><trkpt lat="43.87843190064286" lon="10.74125760805193"><ele>27.500000000000004</ele><time>2026-04-25T09:02:13.999Z</time></trkpt><trkpt lat="43.87842786221096" lon="10.741367151909373"><ele>27.0</ele><time>2026-04-25T09:02:14.999Z</time></trkpt><trkpt lat="43.87841722442552" lon="10.741483008727016"><ele>26.5</ele><time>2026-04-25T09:02:15.999Z</time></trkpt><trkpt lat="43.878407687273835" lon="10.741597034366409"><ele>26.0</ele><time>2026-04-25T09:02:16.999Z</time></trkpt><trkpt lat="43.87839947206053" lon="10.741705451437392"><ele>25.500000000000004</ele><time>2026-04-25T09:02:17.999Z</time></trkpt><trkpt lat="43.87839099360101" lon="10.74182230875265"><ele>25.0</ele><time>2026-04-25T09:02:18.999Z</time></trkpt><trkpt lat="43.87837945972206" lon="10.74193243250346"><ele>24.666666666666668</ele><time>2026-04-25T09:02:19.999Z</time></trkpt><trkpt lat="43.8783714787182" lon="10.742049631327578"><ele>24.333333333333336</ele><time>2026-04-25T09:02:20.999Z</time></trkpt><trkpt lat="43.87836162133893" lon="10.742166688981394"><ele>24.0</ele><time>2026-04-25T09:02:21.999Z</time></trkpt><trkpt lat="43.87834933481586" lon="10.74227716346129"><ele>23.666666666666668</ele><time>2026-04-25T09:02:22.999Z</time></trkpt><trkpt lat="43.878338910392834" lon="10.742388559690763"><ele>23.333333333333336</ele><time>2026-04-25T09:02:23.999Z</time></trkpt><trkpt lat="43.87833368481737" lon="10.74250083539139"><ele>23.0</ele><time>2026-04-25T09:02:24.999Z</time></trkpt><trkpt lat="43.87832875341003" lon="10.7426144522832"><ele>23.166666666666668</ele><time>2026-04-25T09:02:25.999Z</time></trkpt><trkpt lat="43.878340891818176" lon="10.742727395893665"><ele>23.333333333333336</ele><time>2026-04-25T09:02:26.999Z</time></trkpt><trkpt lat="43.87835131800554" lon="10.742835071437046"><ele>23.5</ele><time>2026-04-25T09:02:27.999Z</time></trkpt><trkpt lat="43.87837536087928" lon="10.742940984019253"><ele>23.666666666666668</ele><time>2026-04-25T09:02:28.999Z</time></trkpt><trkpt lat="43.8784092524593" lon="10.74302024452398"><ele>23.833333333333332</ele><time>2026-04-25T09:02:29.999Z</time></trkpt><trkpt lat="43.8784443450234" lon="10.743134610210639"><ele>24.0</ele><time>2026-04-25T09:02:30.999Z</time></trkpt><trkpt lat="43.878483652233896" lon="10.743231867466083"><ele>24.5</ele><time>2026-04-25T09:02:31.999Z</time></trkpt><trkpt lat="43.87851121650493" lon="10.743337999652853"><ele>25.0</ele><time>2026-04-25T09:02:32.999Z</time></trkpt><trkpt lat="43.87854790643484" lon="10.743442826055187"><ele>25.5</ele><time>2026-04-25T09:02:33.999Z</time></trkpt><trkpt lat="43.878581902159176" lon="10.743532569977328"><ele>26.0</ele><time>2026-04-25T09:02:34.999Z</time></trkpt><trkpt lat="43.87863029844459" lon="10.74363385591928"><ele>26.5</ele><time>2026-04-25T09:02:35.999Z</time></trkpt><trkpt lat="43.878681642215035" lon="10.743710603283025"><ele>27.0</ele><time>2026-04-25T09:02:36.999Z</time></trkpt><trkpt lat="43.87873302606001" lon="10.743789476615959"><ele>27.0</ele><time>2026-04-25T09:02:37.999Z</time></trkpt><trkpt lat="43.878781366538114" lon="10.743869693018071"><ele>27.0</ele><time>2026-04-25T09:02:38.999Z</time></trkpt><trkpt lat="43.87882709520949" lon="10.743952954069691"><ele>27.0</ele><time>2026-04-25T09:02:39.998Z</time></trkpt><trkpt lat="43.87887108761291" lon="10.744034625808965"><ele>27.0</ele><time>2026-04-25T09:02:40.998Z</time></trkpt><trkpt lat="43.87892156791703" lon="10.744116970408745"><ele>27.0</ele><time>2026-04-25T09:02:41.998Z</time></trkpt><trkpt lat="43.87897200958804" lon="10.744198539845888"><ele>27.0</ele><time>2026-04-25T09:02:42.998Z</time></trkpt><trkpt lat="43.87901703243916" lon="10.744283132373573"><ele>27.0</ele><time>2026-04-25T09:02:43.998Z</time></trkpt><trkpt lat="43.87906484531028" lon="10.744360646061919"><ele>27.0</ele><time>2026-04-25T09:02:44.998Z</time></trkpt><trkpt lat="43.87911605707581" lon="10.744433460574193"><ele>27.0</ele><time>2026-04-25T09:02:45.998Z</time></trkpt><trkpt lat="43.87916279391372" lon="10.744512940718788"><ele>27.0</ele><time>2026-04-25T09:02:46.998Z</time></trkpt><trkpt lat="43.87920675792257" lon="10.74459153957666"><ele>27.0</ele><time>2026-04-25T09:02:47.998Z</time></trkpt><trkpt lat="43.879254350876316" lon="10.744673381765347"><ele>27.0</ele><time>2026-04-25T09:02:48.998Z</time></trkpt><trkpt lat="43.87930542703685" lon="10.7447472460093"><ele>27.0</ele><time>2026-04-25T09:02:49.998Z</time></trkpt><trkpt lat="43.879357735030865" lon="10.744816171260394"><ele>27.0</ele><time>2026-04-25T09:02:50.998Z</time></trkpt><trkpt lat="43.879410045283315" lon="10.7448852200872"><ele>27.0</ele><time>2026-04-25T09:02:51.998Z</time></trkpt><trkpt lat="43.87945960708285" lon="10.744955797090984"><ele>27.0</ele><time>2026-04-25T09:02:53Z</time></trkpt><trkpt lat="43.8795087908211" lon="10.745026419091076"><ele>27.0</ele><time>2026-04-25T09:02:54Z</time></trkpt><trkpt lat="43.87956287134354" lon="10.745088843383412"><ele>27.0</ele><time>2026-04-25T09:02:55Z</time></trkpt><trkpt lat="43.87961736483597" lon="10.745152073331894"><ele>27.0</ele><time>2026-04-25T09:02:56Z</time></trkpt><trkpt lat="43.87967373098973" lon="10.745221284843861"><ele>27.0</ele><time>2026-04-25T09:02:57Z</time></trkpt><trkpt lat="43.87972712099782" lon="10.745288985923088"><ele>27.0</ele><time>2026-04-25T09:02:58Z</time></trkpt><trkpt lat="43.87978798215719" lon="10.745355690919745"><ele>27.0</ele><time>2026-04-25T09:02:59Z</time></trkpt><trkpt lat="43.879848873750056" lon="10.745420042706062"><ele>27.0</ele><time>2026-04-25T09:03:00Z</time></trkpt><trkpt lat="43.87991073495772" lon="10.745485035293479"><ele>27.0</ele><time>2026-04-25T09:03:01Z</time></trkpt><trkpt lat="43.87997517431861" lon="10.745548927100714"><ele>27.0</ele><time>2026-04-25T09:03:02Z</time></trkpt><trkpt lat="43.88003897672267" lon="10.745619077906222"><ele>27.0</ele><time>2026-04-25T09:03:03Z</time></trkpt><trkpt lat="43.88010224558977" lon="10.745689853180707"><ele>27.0</ele><time>2026-04-25T09:03:04Z</time></trkpt><trkpt lat="43.88016582838147" lon="10.74576064970387"><ele>27.0</ele><time>2026-04-25T09:03:05Z</time></trkpt><trkpt lat="43.880230447692746" lon="10.745829919241466"><ele>27.0</ele><time>2026-04-25T09:03:06Z</time></trkpt><trkpt lat="43.88029439680427" lon="10.745901616708403"><ele>27.0</ele><time>2026-04-25T09:03:07Z</time></trkpt><trkpt lat="43.88035901332547" lon="10.745968653387145"><ele>27.0</ele><time>2026-04-25T09:03:08Z</time></trkpt><trkpt lat="43.88042862274939" lon="10.746033400887264"><ele>27.0</ele><time>2026-04-25T09:03:09Z</time></trkpt><trkpt lat="43.88049892940084" lon="10.746098003263903"><ele>27.0</ele><time>2026-04-25T09:03:10Z</time></trkpt><trkpt lat="43.8805725446728" lon="10.746152640813536"><ele>27.0</ele><time>2026-04-25T09:03:11Z</time></trkpt><trkpt lat="43.88064743125327" lon="10.746202404384114"><ele>27.0</ele><time>2026-04-25T09:03:12Z</time></trkpt><trkpt lat="43.88072672215652" lon="10.746238388194437"><ele>27.0</ele><time>2026-04-25T09:03:13Z</time></trkpt><trkpt lat="43.880808226594084" lon="10.746279170887176"><ele>27.0</ele><time>2026-04-25T09:03:14Z</time></trkpt><trkpt lat="43.8808946779639" lon="10.746315268784281"><ele>27.0</ele><time>2026-04-25T09:03:15Z</time></trkpt><trkpt lat="43.88097310692475" lon="10.746332607059033"><ele>27.0</ele><time>2026-04-25T09:03:16Z</time></trkpt><trkpt lat="43.8810583765116" lon="10.746358029431216"><ele>27.0</ele><time>2026-04-25T09:03:17Z</time></trkpt><trkpt lat="43.88113614484719" lon="10.746383879719192"><ele>27.0</ele><time>2026-04-25T09:03:18Z</time></trkpt><trkpt lat="43.88122485654848" lon="10.746420507460977"><ele>27.0</ele><time>2026-04-25T09:03:19Z</time></trkpt><trkpt lat="43.88129630233401" lon="10.74647191765492"><ele>27.0</ele><time>2026-04-25T09:03:20Z</time></trkpt><trkpt lat="43.88136896786126" lon="10.746524188825651"><ele>27.0</ele><time>2026-04-25T09:03:21Z</time></trkpt><trkpt lat="43.88144213003601" lon="10.746575439326799"><ele>27.0</ele><time>2026-04-25T09:03:22Z</time></trkpt><trkpt lat="43.88150742955218" lon="10.746633963203928"><ele>27.0</ele><time>2026-04-25T09:03:23Z</time></trkpt><trkpt lat="43.8815600790127" lon="10.746696446209654"><ele>27.0</ele><time>2026-04-25T09:03:24Z</time></trkpt><trkpt lat="43.881616781739524" lon="10.74676909539835"><ele>27.0</ele><time>2026-04-25T09:03:25Z</time></trkpt><trkpt lat="43.881665323320846" lon="10.746850788735"><ele>27.0</ele><time>2026-04-25T09:03:26Z</time></trkpt><trkpt lat="43.88172053511079" lon="10.7469127768485"><ele>27.0</ele><time>2026-04-25T09:03:27Z</time></trkpt><trkpt lat="43.88177192617124" lon="10.746964696015187"><ele>27.0</ele><time>2026-04-25T09:03:28Z</time></trkpt><trkpt lat="43.88183051798899" lon="10.747033443172215"><ele>27.285714285714285</ele><time>2026-04-25T09:03:29Z</time></trkpt><trkpt lat="43.881885398882275" lon="10.747093987919378"><ele>27.57142857142857</ele><time>2026-04-25T09:03:30Z</time></trkpt><trkpt lat="43.88194155653877" lon="10.747156026220019"><ele>27.85714285714286</ele><time>2026-04-25T09:03:31Z</time></trkpt><trkpt lat="43.88198981727517" lon="10.747224479996703"><ele>28.142857142857146</ele><time>2026-04-25T09:03:32Z</time></trkpt><trkpt lat="43.88204511508595" lon="10.747287953602237"><ele>28.42857142857143</ele><time>2026-04-25T09:03:33Z</time></trkpt><trkpt lat="43.88209778649169" lon="10.747354016005472"><ele>28.71428571428572</ele><time>2026-04-25T09:03:34Z</time></trkpt><trkpt lat="43.88215356618829" lon="10.747421311814517"><ele>29.000000000000004</ele><time>2026-04-25T09:03:35Z</time></trkpt><trkpt lat="43.88221014074137" lon="10.747491607681644"><ele>28.999999999999996</ele><time>2026-04-25T09:03:36Z</time></trkpt><trkpt lat="43.88226854321282" lon="10.747558262432486"><ele>29.0</ele><time>2026-04-25T09:03:37Z</time></trkpt><trkpt lat="43.882327580472015" lon="10.747634850352107"><ele>29.0</ele><time>2026-04-25T09:03:38Z</time></trkpt><trkpt lat="43.88238444353004" lon="10.74769545610871"><ele>29.0</ele><time>2026-04-25T09:03:39Z</time></trkpt><trkpt lat="43.88244432060193" lon="10.747758642034574"><ele>28.999999999999996</ele><time>2026-04-25T09:03:39.999Z</time></trkpt><trkpt lat="43.88250672230329" lon="10.74782892102348"><ele>29.0</ele><time>2026-04-25T09:03:40.999Z</time></trkpt><trkpt lat="43.88257759647436" lon="10.747887159131675"><ele>29.333333333333332</ele><time>2026-04-25T09:03:41.999Z</time></trkpt><trkpt lat="43.88264360919956" lon="10.747938290884344"><ele>29.666666666666664</ele><time>2026-04-25T09:03:42.999Z</time></trkpt><trkpt lat="43.882698713427104" lon="10.748014003244828"><ele>30.0</ele><time>2026-04-25T09:03:43.999Z</time></trkpt><trkpt lat="43.88274700453866" lon="10.748095288966258"><ele>30.333333333333336</ele><time>2026-04-25T09:03:44.999Z</time></trkpt><trkpt lat="43.882801720458815" lon="10.748167359993463"><ele>30.666666666666668</ele><time>2026-04-25T09:03:45.999Z</time></trkpt><trkpt lat="43.882863362262384" lon="10.748246081505613"><ele>31.0</ele><time>2026-04-25T09:03:46.999Z</time></trkpt><trkpt lat="43.882923721183516" lon="10.748321474172561"><ele>31.000000000000004</ele><time>2026-04-25T09:03:47.999Z</time></trkpt><trkpt lat="43.88297836970348" lon="10.74839732901062"><ele>31.0</ele><time>2026-04-25T09:03:48.999Z</time></trkpt><trkpt lat="43.88303384463142" lon="10.748473775038079"><ele>31.0</ele><time>2026-04-25T09:03:49.999Z</time></trkpt><trkpt lat="43.88309668647594" lon="10.748546853173682"><ele>31.0</ele><time>2026-04-25T09:03:50.999Z</time></trkpt><trkpt lat="43.88315542369325" lon="10.748615840708608"><ele>31.000000000000004</ele><time>2026-04-25T09:03:51.999Z</time></trkpt><trkpt lat="43.883213777309074" lon="10.748691580122665"><ele>31.0</ele><time>2026-04-25T09:03:52.999Z</time></trkpt><trkpt lat="43.88327308686089" lon="10.748767279777976"><ele>31.000000000000004</ele><time>2026-04-25T09:03:53.999Z</time></trkpt><trkpt lat="43.88333242370183" lon="10.748837788513875"><ele>31.0</ele><time>2026-04-25T09:03:54.999Z</time></trkpt><trkpt lat="43.88339748358171" lon="10.748902928935257"><ele>31.0</ele><time>2026-04-25T09:03:55.999Z</time></trkpt><trkpt lat="43.883460743431684" lon="10.748974237923992"><ele>31.0</ele><time>2026-04-25T09:03:56.999Z</time></trkpt><trkpt lat="43.88352398241099" lon="10.749041378054569"><ele>31.000000000000004</ele><time>2026-04-25T09:03:57.999Z</time></trkpt><trkpt lat="43.88358385480442" lon="10.749111413706967"><ele>31.0</ele><time>2026-04-25T09:03:58.999Z</time></trkpt><trkpt lat="43.88364210396598" lon="10.749187008630646"><ele>31.000000000000004</ele><time>2026-04-25T09:03:59.999Z</time></trkpt><trkpt lat="43.88369908284655" lon="10.74926091669632"><ele>31.0</ele><time>2026-04-25T09:04:00.999Z</time></trkpt><trkpt lat="43.88375676094897" lon="10.74933556959285"><ele>31.0</ele><time>2026-04-25T09:04:01.999Z</time></trkpt><trkpt lat="43.88381629398125" lon="10.749414453227969"><ele>31.0</ele><time>2026-04-25T09:04:02.999Z</time></trkpt><trkpt lat="43.88387669525954" lon="10.749484608220154"><ele>31.000000000000004</ele><time>2026-04-25T09:04:03.999Z</time></trkpt><trkpt lat="43.88393592459844" lon="10.749564470997928"><ele>31.0</ele><time>2026-04-25T09:04:04.999Z</time></trkpt><trkpt lat="43.88399057909547" lon="10.7496459500337"><ele>30.666666666666668</ele><time>2026-04-25T09:04:05.999Z</time></trkpt><trkpt lat="43.884040214313785" lon="10.749732637365517"><ele>30.333333333333336</ele><time>2026-04-25T09:04:06.999Z</time></trkpt><trkpt lat="43.88408686994419" lon="10.749820789640188"><ele>30.0</ele><time>2026-04-25T09:04:07.999Z</time></trkpt><trkpt lat="43.88413181370393" lon="10.74991217842932"><ele>29.666666666666664</ele><time>2026-04-25T09:04:08.999Z</time></trkpt><trkpt lat="43.884183060318435" lon="10.74999533631598"><ele>29.333333333333332</ele><time>2026-04-25T09:04:09.999Z</time></trkpt><trkpt lat="43.88423571130187" lon="10.750072632095847"><ele>29.0</ele><time>2026-04-25T09:04:10.999Z</time></trkpt><trkpt lat="43.88428334040621" lon="10.750158011829411"><ele>29.285714285714292</ele><time>2026-04-25T09:04:11.999Z</time></trkpt><trkpt lat="43.8843231751343" lon="10.7502375593339"><ele>29.571428571428573</ele><time>2026-04-25T09:04:12.999Z</time></trkpt><trkpt lat="43.884367289630816" lon="10.750321474627796"><ele>29.85714285714286</ele><time>2026-04-25T09:04:13.999Z</time></trkpt><trkpt lat="43.88440856176589" lon="10.75040920511501"><ele>30.142857142857146</ele><time>2026-04-25T09:04:14.999Z</time></trkpt><trkpt lat="43.884447802418016" lon="10.750495593415646"><ele>30.42857142857143</ele><time>2026-04-25T09:04:15.999Z</time></trkpt><trkpt lat="43.884487396178" lon="10.750578140017463"><ele>30.714285714285715</ele><time>2026-04-25T09:04:16.999Z</time></trkpt><trkpt lat="43.88452305762576" lon="10.750674236534245"><ele>31.0</ele><time>2026-04-25T09:04:17.999Z</time></trkpt><trkpt lat="43.88455496809445" lon="10.750762983083385"><ele>31.0</ele><time>2026-04-25T09:04:18.999Z</time></trkpt><trkpt lat="43.884588636210964" lon="10.750854322113481"><ele>31.000000000000004</ele><time>2026-04-25T09:04:19.999Z</time></trkpt><trkpt lat="43.88461974979596" lon="10.750948551499999"><ele>31.0</ele><time>2026-04-25T09:04:20.999Z</time></trkpt><trkpt lat="43.88465871145812" lon="10.751033501781839"><ele>31.0</ele><time>2026-04-25T09:04:21.999Z</time></trkpt><trkpt lat="43.88469069413093" lon="10.751114111741611"><ele>31.000000000000004</ele><time>2026-04-25T09:04:22.999Z</time></trkpt><trkpt lat="43.88471589464383" lon="10.751207470454188"><ele>31.0</ele><time>2026-04-25T09:04:23.999Z</time></trkpt><trkpt lat="43.88474465905125" lon="10.751293611530702"><ele>31.0</ele><time>2026-04-25T09:04:24.999Z</time></trkpt><trkpt lat="43.88477689470128" lon="10.751377851626035"><ele>30.857142857142858</ele><time>2026-04-25T09:04:25.999Z</time></trkpt><trkpt lat="43.88481458253084" lon="10.75145599543128"><ele>30.714285714285715</ele><time>2026-04-25T09:04:26.999Z</time></trkpt><trkpt lat="43.884859660816865" lon="10.751529715163286"><ele>30.571428571428573</ele><time>2026-04-25T09:04:27.999Z</time></trkpt><trkpt lat="43.88490261611758" lon="10.751615586722355"><ele>30.42857142857143</ele><time>2026-04-25T09:04:28.999Z</time></trkpt><trkpt lat="43.884939681477476" lon="10.751704573641494"><ele>30.285714285714285</ele><time>2026-04-25T09:04:29.999Z</time></trkpt><trkpt lat="43.88498017805338" lon="10.751788297715096"><ele>30.142857142857146</ele><time>2026-04-25T09:04:30.999Z</time></trkpt><trkpt lat="43.88502454402742" lon="10.751874460104505"><ele>30.0</ele><time>2026-04-25T09:04:31.999Z</time></trkpt><trkpt lat="43.88507285471394" lon="10.751960462202097"><ele>30.166666666666668</ele><time>2026-04-25T09:04:32.999Z</time></trkpt><trkpt lat="43.88512214850863" lon="10.75204842575245"><ele>30.333333333333336</ele><time>2026-04-25T09:04:33.999Z</time></trkpt><trkpt lat="43.88516287671996" lon="10.752135355426125"><ele>30.5</ele><time>2026-04-25T09:04:34.999Z</time></trkpt><trkpt lat="43.885210264872015" lon="10.752223326040292"><ele>30.666666666666668</ele><time>2026-04-25T09:04:35.999Z</time></trkpt><trkpt lat="43.885252647170056" lon="10.75231755154908"><ele>30.833333333333336</ele><time>2026-04-25T09:04:36.999Z</time></trkpt><trkpt lat="43.88529298262889" lon="10.752415416540288"><ele>31.0</ele><time>2026-04-25T09:04:37.999Z</time></trkpt><trkpt lat="43.88532971132299" lon="10.752511049864719"><ele>31.000000000000004</ele><time>2026-04-25T09:04:38.999Z</time></trkpt><trkpt lat="43.88536584874458" lon="10.752611321507128"><ele>31.0</ele><time>2026-04-25T09:04:39.999Z</time></trkpt><trkpt lat="43.88539676219953" lon="10.752708880445768"><ele>31.0</ele><time>2026-04-25T09:04:40.999Z</time></trkpt><trkpt lat="43.8854276345902" lon="10.752815042116804"><ele>31.0</ele><time>2026-04-25T09:04:41.999Z</time></trkpt><trkpt lat="43.885455856931934" lon="10.752921140714086"><ele>31.000000000000004</ele><time>2026-04-25T09:04:42.999Z</time></trkpt><trkpt lat="43.885484089337254" lon="10.75302846152533"><ele>31.0</ele><time>2026-04-25T09:04:43.998Z</time></trkpt><trkpt lat="43.8855173086965" lon="10.753131560585565"><ele>30.666666666666668</ele><time>2026-04-25T09:04:44.998Z</time></trkpt><trkpt lat="43.88554732610381" lon="10.753237419693976"><ele>30.333333333333336</ele><time>2026-04-25T09:04:45.998Z</time></trkpt><trkpt lat="43.88557471059328" lon="10.75334446057532"><ele>30.0</ele><time>2026-04-25T09:04:46.998Z</time></trkpt><trkpt lat="43.8856050676398" lon="10.753451772248287"><ele>29.666666666666664</ele><time>2026-04-25T09:04:47.998Z</time></trkpt><trkpt lat="43.88563753912775" lon="10.7535577789524"><ele>29.333333333333332</ele><time>2026-04-25T09:04:48.998Z</time></trkpt><trkpt lat="43.88567310913665" lon="10.753663503574014"><ele>29.0</ele><time>2026-04-25T09:04:49.998Z</time></trkpt><trkpt lat="43.885707366361466" lon="10.753771477034444"><ele>28.999999999999996</ele><time>2026-04-25T09:04:50.998Z</time></trkpt><trkpt lat="43.88573633651587" lon="10.75387797645907"><ele>29.0</ele><time>2026-04-25T09:04:51.998Z</time></trkpt><trkpt lat="43.88576892828766" lon="10.753981192427492"><ele>29.0</ele><time>2026-04-25T09:04:52.998Z</time></trkpt><trkpt lat="43.885797138373015" lon="10.754078001824455"><ele>29.0</ele><time>2026-04-25T09:04:53.998Z</time></trkpt><trkpt lat="43.88583155161177" lon="10.754186244025423"><ele>28.999999999999996</ele><time>2026-04-25T09:04:54.998Z</time></trkpt><trkpt lat="43.88586677234857" lon="10.754288118218067"><ele>29.0</ele><time>2026-04-25T09:04:55.998Z</time></trkpt><trkpt lat="43.88590232648043" lon="10.75439008315524"><ele>28.999999999999996</ele><time>2026-04-25T09:04:56.998Z</time></trkpt><trkpt lat="43.88592004682916" lon="10.75449195331643"><ele>29.0</ele><time>2026-04-25T09:04:57.998Z</time></trkpt><trkpt lat="43.88596025120332" lon="10.754596935312987"><ele>29.0</ele><time>2026-04-25T09:04:59Z</time></trkpt><trkpt lat="43.88599850169018" lon="10.75469497171927"><ele>29.0</ele><time>2026-04-25T09:05:00Z</time></trkpt><trkpt lat="43.886033900615246" lon="10.754796806220385"><ele>28.999999999999996</ele><time>2026-04-25T09:05:01Z</time></trkpt><trkpt lat="43.88606984082415" lon="10.754899498103404"><ele>29.0</ele><time>2026-04-25T09:05:02Z</time></trkpt><trkpt lat="43.88610716063536" lon="10.75499232104243"><ele>28.999999999999996</ele><time>2026-04-25T09:05:03Z</time></trkpt><trkpt lat="43.88613206127041" lon="10.755093866069343"><ele>29.0</ele><time>2026-04-25T09:05:04Z</time></trkpt><trkpt lat="43.886161765944465" lon="10.755193082133356"><ele>29.0</ele><time>2026-04-25T09:05:05Z</time></trkpt><trkpt lat="43.88618663003875" lon="10.755291878627641"><ele>29.0</ele><time>2026-04-25T09:05:06Z</time></trkpt><trkpt lat="43.886209996096945" lon="10.755396698947298"><ele>28.999999999999996</ele><time>2026-04-25T09:05:07Z</time></trkpt><trkpt lat="43.886230112821494" lon="10.755492959663892"><ele>29.0</ele><time>2026-04-25T09:05:08Z</time></trkpt><trkpt lat="43.886243959877376" lon="10.755591946504063"><ele>28.999999999999996</ele><time>2026-04-25T09:05:09Z</time></trkpt><trkpt lat="43.88624032642121" lon="10.755686697970583"><ele>29.0</ele><time>2026-04-25T09:05:10Z</time></trkpt><trkpt lat="43.8862544245379" lon="10.755789090924164"><ele>29.0</ele><time>2026-04-25T09:05:11Z</time></trkpt><trkpt lat="43.88626792718254" lon="10.755879832628484"><ele>29.0</ele><time>2026-04-25T09:05:12Z</time></trkpt><trkpt lat="43.88628038721182" lon="10.755970449275976"><ele>28.999999999999996</ele><time>2026-04-25T09:05:13Z</time></trkpt><trkpt lat="43.8862837914024" lon="10.756146963635974"><ele>29.0</ele><time>2026-04-25T09:05:15Z</time></trkpt><trkpt lat="43.88627906904231" lon="10.756240312552888"><ele>29.142857142857146</ele><time>2026-04-25T09:05:16Z</time></trkpt><trkpt lat="43.88628471771631" lon="10.75633460988164"><ele>29.285714285714285</ele><time>2026-04-25T09:05:17Z</time></trkpt><trkpt lat="43.886288996258784" lon="10.756429379604173"><ele>29.42857142857143</ele><time>2026-04-25T09:05:18Z</time></trkpt><trkpt lat="43.88628916232885" lon="10.756525835455435"><ele>29.571428571428573</ele><time>2026-04-25T09:05:19Z</time></trkpt><trkpt lat="43.88628016609444" lon="10.756624333100257"><ele>29.714285714285715</ele><time>2026-04-25T09:05:20Z</time></trkpt><trkpt lat="43.88627437289195" lon="10.75672998147755"><ele>29.857142857142858</ele><time>2026-04-25T09:05:21Z</time></trkpt><trkpt lat="43.88627518942896" lon="10.756837235019542"><ele>30.0</ele><time>2026-04-25T09:05:22Z</time></trkpt><trkpt lat="43.886274387634124" lon="10.756944022515256"><ele>29.666666666666668</ele><time>2026-04-25T09:05:23Z</time></trkpt><trkpt lat="43.88626700043349" lon="10.757052390412214"><ele>29.333333333333336</ele><time>2026-04-25T09:05:24Z</time></trkpt><trkpt lat="43.88626964104018" lon="10.757162474925678"><ele>29.0</ele><time>2026-04-25T09:05:25Z</time></trkpt><trkpt lat="43.88626505269129" lon="10.757271586214573"><ele>28.666666666666668</ele><time>2026-04-25T09:05:26Z</time></trkpt><trkpt lat="43.8862625755729" lon="10.757383806401304"><ele>28.333333333333336</ele><time>2026-04-25T09:05:27Z</time></trkpt><trkpt lat="43.886264149578" lon="10.757502184293246"><ele>28.0</ele><time>2026-04-25T09:05:28Z</time></trkpt><trkpt lat="43.88627555603346" lon="10.757622004084036"><ele>28.333333333333336</ele><time>2026-04-25T09:05:29Z</time></trkpt><trkpt lat="43.886275541571585" lon="10.757739873369058"><ele>28.666666666666668</ele><time>2026-04-25T09:05:30Z</time></trkpt><trkpt lat="43.88627422644307" lon="10.757849740398777"><ele>29.0</ele><time>2026-04-25T09:05:31Z</time></trkpt><trkpt lat="43.886277118487065" lon="10.757965211061038"><ele>29.333333333333336</ele><time>2026-04-25T09:05:32Z</time></trkpt><trkpt lat="43.88628158341877" lon="10.758074036424313"><ele>29.666666666666668</ele><time>2026-04-25T09:05:33Z</time></trkpt><trkpt lat="43.886291295189494" lon="10.758179748158215"><ele>30.0</ele><time>2026-04-25T09:05:34Z</time></trkpt><trkpt lat="43.88629438391957" lon="10.758292885425991"><ele>30.0</ele><time>2026-04-25T09:05:35Z</time></trkpt><trkpt lat="43.88629940388588" lon="10.75839836807099"><ele>30.0</ele><time>2026-04-25T09:05:36Z</time></trkpt><trkpt lat="43.8863042698647" lon="10.758499255811712"><ele>30.0</ele><time>2026-04-25T09:05:37Z</time></trkpt><trkpt lat="43.8863112908777" lon="10.75860438869789"><ele>30.0</ele><time>2026-04-25T09:05:38Z</time></trkpt><trkpt lat="43.88630980983742" lon="10.758706584132973"><ele>30.0</ele><time>2026-04-25T09:05:39Z</time></trkpt><trkpt lat="43.886313477540156" lon="10.758798009300957"><ele>30.0</ele><time>2026-04-25T09:05:40Z</time></trkpt><trkpt lat="43.886313845134374" lon="10.758975007934621"><ele>30.8</ele><time>2026-04-25T09:05:42Z</time></trkpt><trkpt lat="43.886313127761916" lon="10.759063266377607"><ele>31.6</ele><time>2026-04-25T09:05:43Z</time></trkpt><trkpt lat="43.88629397628074" lon="10.759227400758919"><ele>32.4</ele><time>2026-04-25T09:05:44.999Z</time></trkpt><trkpt lat="43.88626687213169" lon="10.759375968394805"><ele>33.2</ele><time>2026-04-25T09:05:46.999Z</time></trkpt><trkpt lat="43.886229918616955" lon="10.75952920424901"><ele>34.0</ele><time>2026-04-25T09:05:48.999Z</time></trkpt><trkpt lat="43.88619893240099" lon="10.759683905866728"><ele>34.16666666666667</ele><time>2026-04-25T09:05:50.999Z</time></trkpt><trkpt lat="43.8861802562338" lon="10.759857355752176"><ele>34.333333333333336</ele><time>2026-04-25T09:05:52.999Z</time></trkpt><trkpt lat="43.8861654703775" lon="10.759949140497117"><ele>34.5</ele><time>2026-04-25T09:05:53.999Z</time></trkpt><trkpt lat="43.88615120048523" lon="10.760047554165373"><ele>34.666666666666664</ele><time>2026-04-25T09:05:54.999Z</time></trkpt><trkpt lat="43.88613906632876" lon="10.760141559755597"><ele>34.83333333333333</ele><time>2026-04-25T09:05:55.999Z</time></trkpt><trkpt lat="43.88612812614528" lon="10.760235249712144"><ele>35.0</ele><time>2026-04-25T09:05:56.999Z</time></trkpt><trkpt lat="43.88611288481161" lon="10.760334044142638"><ele>35.42857142857143</ele><time>2026-04-25T09:05:57.999Z</time></trkpt><trkpt lat="43.88609313717836" lon="10.760432522929872"><ele>35.85714285714286</ele><time>2026-04-25T09:05:58.999Z</time></trkpt><trkpt lat="43.886074289779856" lon="10.760524781472387"><ele>36.285714285714285</ele><time>2026-04-25T09:05:59.999Z</time></trkpt><trkpt lat="43.8860537533795" lon="10.760620514409215"><ele>36.714285714285715</ele><time>2026-04-25T09:06:00.999Z</time></trkpt><trkpt lat="43.886038055168555" lon="10.760714176716455"><ele>37.142857142857146</ele><time>2026-04-25T09:06:01.999Z</time></trkpt><trkpt lat="43.88602168163504" lon="10.760809413549014"><ele>37.57142857142857</ele><time>2026-04-25T09:06:02.999Z</time></trkpt><trkpt lat="43.88600654532482" lon="10.76090544934117"><ele>38.0</ele><time>2026-04-25T09:06:03.999Z</time></trkpt><trkpt lat="43.88599232384959" lon="10.760997512470807"><ele>38.285714285714285</ele><time>2026-04-25T09:06:04.999Z</time></trkpt><trkpt lat="43.885978816693054" lon="10.761090266421432"><ele>38.57142857142858</ele><time>2026-04-25T09:06:05.999Z</time></trkpt><trkpt lat="43.88596415033308" lon="10.761182760885227"><ele>38.85714285714286</ele><time>2026-04-25T09:06:06.999Z</time></trkpt><trkpt lat="43.8859507358251" lon="10.761280504879265"><ele>39.14285714285714</ele><time>2026-04-25T09:06:07.999Z</time></trkpt><trkpt lat="43.885936163405184" lon="10.761379065329798"><ele>39.42857142857143</ele><time>2026-04-25T09:06:08.999Z</time></trkpt><trkpt lat="43.88592720040176" lon="10.761475986659793"><ele>39.714285714285715</ele><time>2026-04-25T09:06:09.999Z</time></trkpt><trkpt lat="43.885912728906725" lon="10.76156685581032"><ele>40.0</ele><time>2026-04-25T09:06:10.999Z</time></trkpt><trkpt lat="43.88589708972119" lon="10.761666950927923"><ele>39.714285714285715</ele><time>2026-04-25T09:06:11.999Z</time></trkpt><trkpt lat="43.88588503446612" lon="10.761769365694672"><ele>39.42857142857143</ele><time>2026-04-25T09:06:12.999Z</time></trkpt><trkpt lat="43.885869822028006" lon="10.761869317877625"><ele>39.14285714285714</ele><time>2026-04-25T09:06:13.999Z</time></trkpt><trkpt lat="43.88585745105901" lon="10.761970070718174"><ele>38.85714285714286</ele><time>2026-04-25T09:06:14.999Z</time></trkpt><trkpt lat="43.885850506191716" lon="10.762060891648785"><ele>38.57142857142858</ele><time>2026-04-25T09:06:15.999Z</time></trkpt><trkpt lat="43.885831500230836" lon="10.762171146874902"><ele>38.285714285714285</ele><time>2026-04-25T09:06:16.999Z</time></trkpt><trkpt lat="43.88582045294184" lon="10.762268571800979"><ele>38.0</ele><time>2026-04-25T09:06:17.999Z</time></trkpt><trkpt lat="43.88580907487724" lon="10.762372579273228"><ele>38.0</ele><time>2026-04-25T09:06:18.999Z</time></trkpt><trkpt lat="43.88579715299414" lon="10.762475482230608"><ele>38.0</ele><time>2026-04-25T09:06:19.999Z</time></trkpt><trkpt lat="43.885783209608796" lon="10.762575739870009"><ele>38.0</ele><time>2026-04-25T09:06:20.999Z</time></trkpt><trkpt lat="43.88577009817003" lon="10.762676937679325"><ele>38.0</ele><time>2026-04-25T09:06:21.999Z</time></trkpt><trkpt lat="43.885754310003854" lon="10.762779367847793"><ele>38.0</ele><time>2026-04-25T09:06:22.999Z</time></trkpt><trkpt lat="43.885737135317775" lon="10.762875631547686"><ele>38.0</ele><time>2026-04-25T09:06:23.999Z</time></trkpt><trkpt lat="43.88572262718658" lon="10.762976259421023"><ele>38.0</ele><time>2026-04-25T09:06:24.999Z</time></trkpt><trkpt lat="43.8857073395974" lon="10.763074786416633"><ele>37.666666666666664</ele><time>2026-04-25T09:06:25.999Z</time></trkpt><trkpt lat="43.8856934367383" lon="10.76317483840618"><ele>37.33333333333333</ele><time>2026-04-25T09:06:26.999Z</time></trkpt><trkpt lat="43.88567953378565" lon="10.763264728585261"><ele>37.0</ele><time>2026-04-25T09:06:27.999Z</time></trkpt><trkpt lat="43.88566374581316" lon="10.763358494025306"><ele>36.666666666666664</ele><time>2026-04-25T09:06:28.999Z</time></trkpt><trkpt lat="43.88564943714922" lon="10.763452225838373"><ele>36.333333333333336</ele><time>2026-04-25T09:06:29.999Z</time></trkpt><trkpt lat="43.88561730433452" lon="10.763629548276196"><ele>36.0</ele><time>2026-04-25T09:06:31.999Z</time></trkpt><trkpt lat="43.88560289222326" lon="10.763788948179208"><ele>35.8</ele><time>2026-04-25T09:06:33.999Z</time></trkpt><trkpt lat="43.885590629406195" lon="10.763948299810657"><ele>35.6</ele><time>2026-04-25T09:06:35.999Z</time></trkpt><trkpt lat="43.88557618091286" lon="10.764103085159732"><ele>35.4</ele><time>2026-04-25T09:06:37.999Z</time></trkpt><trkpt lat="43.88555363222609" lon="10.764253201879315"><ele>35.2</ele><time>2026-04-25T09:06:39.999Z</time></trkpt><trkpt lat="43.88551760800815" lon="10.764385939753504"><ele>35.0</ele><time>2026-04-25T09:06:41.999Z</time></trkpt><trkpt lat="43.88548814598965" lon="10.764483254740323"><ele>34.6</ele><time>2026-04-25T09:06:43.999Z</time></trkpt><trkpt lat="43.88545749132887" lon="10.764571825272197"><ele>34.2</ele><time>2026-04-25T09:06:45.999Z</time></trkpt><trkpt lat="43.88545780981992" lon="10.764695871123202"><ele>33.8</ele><time>2026-04-25T09:06:47.998Z</time></trkpt><trkpt lat="43.88544127036778" lon="10.764844312260342"><ele>33.4</ele><time>2026-04-25T09:06:49.998Z</time></trkpt><trkpt lat="43.885400303857985" lon="10.765015150400105"><ele>33.0</ele><time>2026-04-25T09:06:51.998Z</time></trkpt><trkpt lat="43.885378506646816" lon="10.765100211043976"><ele>33.0</ele><time>2026-04-25T09:06:52.998Z</time></trkpt><trkpt lat="43.88535710732661" lon="10.765195595410042"><ele>33.0</ele><time>2026-04-25T09:06:53.998Z</time></trkpt><trkpt lat="43.8853445215828" lon="10.765295277595456"><ele>33.0</ele><time>2026-04-25T09:06:54.998Z</time></trkpt><trkpt lat="43.88532581984455" lon="10.7653963135257"><ele>33.0</ele><time>2026-04-25T09:06:55.998Z</time></trkpt><trkpt lat="43.885299851601914" lon="10.765494923320173"><ele>33.0</ele><time>2026-04-25T09:06:56.998Z</time></trkpt><trkpt lat="43.8852705751561" lon="10.765594845878255"><ele>33.0</ele><time>2026-04-25T09:06:57.998Z</time></trkpt><trkpt lat="43.885248236298196" lon="10.765703563114673"><ele>33.0</ele><time>2026-04-25T09:06:58.998Z</time></trkpt><trkpt lat="43.88522130588934" lon="10.765815742532363"><ele>33.0</ele><time>2026-04-25T09:06:59.998Z</time></trkpt><trkpt lat="43.88519153667061" lon="10.765925925010858"><ele>33.0</ele><time>2026-04-25T09:07:00.998Z</time></trkpt><trkpt lat="43.885160524968924" lon="10.766035036698911"><ele>33.0</ele><time>2026-04-25T09:07:01.998Z</time></trkpt><trkpt lat="43.88512401343775" lon="10.766142555204683"><ele>33.0</ele><time>2026-04-25T09:07:02.998Z</time></trkpt><trkpt lat="43.88509552055203" lon="10.766256234954838"><ele>33.0</ele><time>2026-04-25T09:07:03.998Z</time></trkpt><trkpt lat="43.8850711410992" lon="10.766373404623252"><ele>32.833333333333336</ele><time>2026-04-25T09:07:05Z</time></trkpt><trkpt lat="43.88504520923131" lon="10.766484928086712"><ele>32.666666666666664</ele><time>2026-04-25T09:07:06Z</time></trkpt><trkpt lat="43.885018537319894" lon="10.766592521926412"><ele>32.5</ele><time>2026-04-25T09:07:07Z</time></trkpt><trkpt lat="43.88498585976275" lon="10.766695083807425"><ele>32.33333333333333</ele><time>2026-04-25T09:07:08Z</time></trkpt><trkpt lat="43.88495540245763" lon="10.766802380588011"><ele>32.166666666666664</ele><time>2026-04-25T09:07:09Z</time></trkpt><trkpt lat="43.88491951161087" lon="10.76690319431796"><ele>32.0</ele><time>2026-04-25T09:07:10Z</time></trkpt><trkpt lat="43.88488336132289" lon="10.767002485032167"><ele>31.666666666666664</ele><time>2026-04-25T09:07:11Z</time></trkpt><trkpt lat="43.88484913222292" lon="10.767103923130033"><ele>31.333333333333332</ele><time>2026-04-25T09:07:12Z</time></trkpt><trkpt lat="43.88481347308953" lon="10.767203425395417"><ele>31.0</ele><time>2026-04-25T09:07:13Z</time></trkpt><trkpt lat="43.88476908926545" lon="10.767295240285772"><ele>30.666666666666664</ele><time>2026-04-25T09:07:14Z</time></trkpt><trkpt lat="43.884726048770915" lon="10.767390411588682"><ele>30.333333333333332</ele><time>2026-04-25T09:07:15Z</time></trkpt><trkpt lat="43.88468618235453" lon="10.767481450745457"><ele>30.0</ele><time>2026-04-25T09:07:16Z</time></trkpt><trkpt lat="43.8846448904288" lon="10.767568197922222"><ele>30.0</ele><time>2026-04-25T09:07:17Z</time></trkpt><trkpt lat="43.88460362139903" lon="10.767661505983682"><ele>30.0</ele><time>2026-04-25T09:07:18Z</time></trkpt><trkpt lat="43.88456587904488" lon="10.767749787907638"><ele>30.0</ele><time>2026-04-25T09:07:19Z</time></trkpt><trkpt lat="43.88453211077316" lon="10.767840397447758"><ele>30.0</ele><time>2026-04-25T09:07:20Z</time></trkpt><trkpt lat="43.88449679604839" lon="10.767927203080196"><ele>30.0</ele><time>2026-04-25T09:07:21Z</time></trkpt><trkpt lat="43.88445194688283" lon="10.768006616818736"><ele>30.0</ele><time>2026-04-25T09:07:22Z</time></trkpt><trkpt lat="43.8844282956022" lon="10.76809632082743"><ele>30.0</ele><time>2026-04-25T09:07:23Z</time></trkpt><trkpt lat="43.88439258252292" lon="10.76818647795945"><ele>30.0</ele><time>2026-04-25T09:07:24Z</time></trkpt><trkpt lat="43.884356700577726" lon="10.768271237338787"><ele>30.0</ele><time>2026-04-25T09:07:25Z</time></trkpt><trkpt lat="43.88432482440682" lon="10.768361421951225"><ele>30.0</ele><time>2026-04-25T09:07:26Z</time></trkpt><trkpt lat="43.88428528501355" lon="10.768450715557695"><ele>30.0</ele><time>2026-04-25T09:07:27Z</time></trkpt><trkpt lat="43.88424794615003" lon="10.768534275294188"><ele>30.0</ele><time>2026-04-25T09:07:28Z</time></trkpt><trkpt lat="43.88420107000625" lon="10.768626823875513"><ele>30.0</ele><time>2026-04-25T09:07:29Z</time></trkpt><trkpt lat="43.88417253180323" lon="10.768709944686309"><ele>30.0</ele><time>2026-04-25T09:07:30Z</time></trkpt><trkpt lat="43.88414624596456" lon="10.768803312959184"><ele>30.285714285714285</ele><time>2026-04-25T09:07:31Z</time></trkpt><trkpt lat="43.88410825408145" lon="10.768884999884916"><ele>30.57142857142857</ele><time>2026-04-25T09:07:32Z</time></trkpt><trkpt lat="43.8840666768957" lon="10.768965451748672"><ele>30.857142857142854</ele><time>2026-04-25T09:07:33Z</time></trkpt><trkpt lat="43.884030593804454" lon="10.769048013953508"><ele>31.142857142857142</ele><time>2026-04-25T09:07:34Z</time></trkpt><trkpt lat="43.88399607727995" lon="10.769129933314451"><ele>31.428571428571423</ele><time>2026-04-25T09:07:35Z</time></trkpt><trkpt lat="43.88395830508578" lon="10.769213152325944"><ele>31.71428571428571</ele><time>2026-04-25T09:07:36Z</time></trkpt><trkpt lat="43.88392361968529" lon="10.769296462035118"><ele>32.0</ele><time>2026-04-25T09:07:37Z</time></trkpt><trkpt lat="43.88389077125553" lon="10.76938537560624"><ele>32.42857142857143</ele><time>2026-04-25T09:07:38Z</time></trkpt><trkpt lat="43.883864123072655" lon="10.76947476672315"><ele>32.857142857142854</ele><time>2026-04-25T09:07:39Z</time></trkpt><trkpt lat="43.88383919752957" lon="10.769562146992468"><ele>33.285714285714285</ele><time>2026-04-25T09:07:40Z</time></trkpt><trkpt lat="43.88381253542342" lon="10.76964775998145"><ele>33.714285714285715</ele><time>2026-04-25T09:07:41Z</time></trkpt><trkpt lat="43.88378014830183" lon="10.769729719654181"><ele>34.14285714285714</ele><time>2026-04-25T09:07:42Z</time></trkpt><trkpt lat="43.88374381601594" lon="10.769803491484545"><ele>34.57142857142857</ele><time>2026-04-25T09:07:43Z</time></trkpt><trkpt lat="43.8836999915026" lon="10.769873942220784"><ele>35.0</ele><time>2026-04-25T09:07:44Z</time></trkpt><trkpt lat="43.88366087834628" lon="10.769949750513028"><ele>35.0</ele><time>2026-04-25T09:07:45Z</time></trkpt><trkpt lat="43.88362520703238" lon="10.77002594552736"><ele>35.0</ele><time>2026-04-25T09:07:46Z</time></trkpt><trkpt lat="43.88355245478985" lon="10.770173682662406"><ele>35.0</ele><time>2026-04-25T09:07:48Z</time></trkpt><trkpt lat="43.88348518685657" lon="10.770328949023751"><ele>35.0</ele><time>2026-04-25T09:07:49.999Z</time></trkpt><trkpt lat="43.88345610475828" lon="10.770411068372038"><ele>35.0</ele><time>2026-04-25T09:07:50.999Z</time></trkpt><trkpt lat="43.88341983591477" lon="10.77048914039263"><ele>35.166666666666664</ele><time>2026-04-25T09:07:51.999Z</time></trkpt><trkpt lat="43.88337670864069" lon="10.770558785529667"><ele>35.33333333333333</ele><time>2026-04-25T09:07:52.999Z</time></trkpt><trkpt lat="43.88332714599782" lon="10.77062239098589"><ele>35.5</ele><time>2026-04-25T09:07:53.999Z</time></trkpt><trkpt lat="43.88324921826019" lon="10.770743302648258"><ele>35.666666666666664</ele><time>2026-04-25T09:07:55.999Z</time></trkpt><trkpt lat="43.88315636847899" lon="10.770799685576192"><ele>35.833333333333336</ele><time>2026-04-25T09:07:57.999Z</time></trkpt><trkpt lat="43.8830915687737" lon="10.770869575193906"><ele>36.0</ele><time>2026-04-25T09:07:59.999Z</time></trkpt><trkpt lat="43.88304778795343" lon="10.770970204419166"><ele>35.5</ele><time>2026-04-25T09:08:01.999Z</time></trkpt><trkpt lat="43.88302551844329" lon="10.771085626301875"><ele>35.0</ele><time>2026-04-25T09:08:03.999Z</time></trkpt><trkpt lat="43.883014404585204" lon="10.77120321570257"><ele>34.5</ele><time>2026-04-25T09:08:05.999Z</time></trkpt><trkpt lat="43.88302555556884" lon="10.771320043472253"><ele>34.0</ele><time>2026-04-25T09:08:07.999Z</time></trkpt><trkpt lat="43.88300116533354" lon="10.771434007712623"><ele>33.5</ele><time>2026-04-25T09:08:09.999Z</time></trkpt><trkpt lat="43.88293822820166" lon="10.771529560767304"><ele>33.0</ele><time>2026-04-25T09:08:11.999Z</time></trkpt><trkpt lat="43.882874369436934" lon="10.771627444267757"><ele>33.0</ele><time>2026-04-25T09:08:13.999Z</time></trkpt><trkpt lat="43.882811512588965" lon="10.771717952403721"><ele>33.0</ele><time>2026-04-25T09:08:15.999Z</time></trkpt><trkpt lat="43.88274854088223" lon="10.771799357717414"><ele>33.0</ele><time>2026-04-25T09:08:17.999Z</time></trkpt><trkpt lat="43.88268827259539" lon="10.771863925429049"><ele>33.0</ele><time>2026-04-25T09:08:19.999Z</time></trkpt><trkpt lat="43.88262104566199" lon="10.771929292869364"><ele>33.0</ele><time>2026-04-25T09:08:22.999Z</time></trkpt><trkpt lat="43.882549065566394" lon="10.771922590425694"><ele>33.0</ele><time>2026-04-25T09:08:25.999Z</time></trkpt><trkpt lat="43.88247117959877" lon="10.771906292836903"><ele>33.199999999999996</ele><time>2026-04-25T09:08:27.999Z</time></trkpt><trkpt lat="43.88239622550261" lon="10.771853324916092"><ele>33.4</ele><time>2026-04-25T09:08:29.999Z</time></trkpt><trkpt lat="43.88230018744147" lon="10.771809022717955"><ele>33.599999999999994</ele><time>2026-04-25T09:08:31.999Z</time></trkpt><trkpt lat="43.882194456913545" lon="10.771779763543968"><ele>33.8</ele><time>2026-04-25T09:08:33.999Z</time></trkpt><trkpt lat="43.88210086577972" lon="10.771730477437753"><ele>34.0</ele><time>2026-04-25T09:08:35.999Z</time></trkpt><trkpt lat="43.882010000526165" lon="10.771699880912498"><ele>34.0</ele><time>2026-04-25T09:08:37.999Z</time></trkpt><trkpt lat="43.88191851621272" lon="10.771660344615885"><ele>34.0</ele><time>2026-04-25T09:08:39.999Z</time></trkpt><trkpt lat="43.88183933612509" lon="10.771619790450938"><ele>34.0</ele><time>2026-04-25T09:08:41.999Z</time></trkpt><trkpt lat="43.881733152563655" lon="10.771573448157417"><ele>34.0</ele><time>2026-04-25T09:08:43.999Z</time></trkpt><trkpt lat="43.88163425606945" lon="10.771544593821234"><ele>34.0</ele><time>2026-04-25T09:08:45.999Z</time></trkpt><trkpt lat="43.88156118006406" lon="10.771537937720135"><ele>33.2</ele><time>2026-04-25T09:08:47.999Z</time></trkpt><trkpt lat="43.88149571885034" lon="10.77163274471871"><ele>32.4</ele><time>2026-04-25T09:08:49.999Z</time></trkpt><trkpt lat="43.88149358181248" lon="10.771758989902278"><ele>31.6</ele><time>2026-04-25T09:08:51.998Z</time></trkpt><trkpt lat="43.881444851883856" lon="10.771860310820983"><ele>30.8</ele><time>2026-04-25T09:08:53.998Z</time></trkpt><trkpt lat="43.881414481718856" lon="10.771989519281204"><ele>30.0</ele><time>2026-04-25T09:08:55.998Z</time></trkpt><trkpt lat="43.881354338066224" lon="10.772118403420468"><ele>30.0</ele><time>2026-04-25T09:08:57.998Z</time></trkpt><trkpt lat="43.88131571592996" lon="10.772280054106124"><ele>30.0</ele><time>2026-04-25T09:08:59.998Z</time></trkpt><trkpt lat="43.881300983157814" lon="10.772365644309131"><ele>30.0</ele><time>2026-04-25T09:09:00.998Z</time></trkpt><trkpt lat="43.881283798150456" lon="10.772455937293376"><ele>30.0</ele><time>2026-04-25T09:09:01.998Z</time></trkpt><trkpt lat="43.881265274958515" lon="10.772545531182445"><ele>30.0</ele><time>2026-04-25T09:09:02.998Z</time></trkpt><trkpt lat="43.881248510962415" lon="10.772638029335768"><ele>30.0</ele><time>2026-04-25T09:09:03.998Z</time></trkpt><trkpt lat="43.88123066773649" lon="10.77272812127442"><ele>30.0</ele><time>2026-04-25T09:09:04.998Z</time></trkpt><trkpt lat="43.881216007953" lon="10.772815860253582"><ele>30.0</ele><time>2026-04-25T09:09:05.998Z</time></trkpt><trkpt lat="43.8812034523585" lon="10.772907486432592"><ele>30.0</ele><time>2026-04-25T09:09:06.998Z</time></trkpt><trkpt lat="43.881190355522904" lon="10.772992960857458"><ele>30.0</ele><time>2026-04-25T09:09:07.998Z</time></trkpt><trkpt lat="43.88117700537048" lon="10.773080000979927"><ele>30.0</ele><time>2026-04-25T09:09:08.998Z</time></trkpt><trkpt lat="43.8811484181098" lon="10.773246571755633"><ele>30.0</ele><time>2026-04-25T09:09:11Z</time></trkpt><trkpt lat="43.88112852845558" lon="10.773330623233791"><ele>30.0</ele><time>2026-04-25T09:09:12Z</time></trkpt><trkpt lat="43.881099474374615" lon="10.773491240724328"><ele>30.0</ele><time>2026-04-25T09:09:14Z</time></trkpt><trkpt lat="43.88107511853021" lon="10.77366337884437"><ele>30.0</ele><time>2026-04-25T09:09:16Z</time></trkpt><trkpt lat="43.881061822248206" lon="10.773751657727509"><ele>30.0</ele><time>2026-04-25T09:09:17Z</time></trkpt><trkpt lat="43.881045067317146" lon="10.77383824743466"><ele>30.0</ele><time>2026-04-25T09:09:18Z</time></trkpt><trkpt lat="43.881027672459425" lon="10.77392911579311"><ele>30.0</ele><time>2026-04-25T09:09:19Z</time></trkpt><trkpt lat="43.88101041236886" lon="10.774018740136308"><ele>30.0</ele><time>2026-04-25T09:09:20Z</time></trkpt><trkpt lat="43.8810175007026" lon="10.774116200467146"><ele>30.0</ele><time>2026-04-25T09:09:21Z</time></trkpt><trkpt lat="43.88103267807236" lon="10.774210091953794"><ele>30.0</ele><time>2026-04-25T09:09:22Z</time></trkpt><trkpt lat="43.88106526722275" lon="10.774291786816953"><ele>30.0</ele><time>2026-04-25T09:09:23Z</time></trkpt><trkpt lat="43.88108837860283" lon="10.774381441831906"><ele>30.0</ele><time>2026-04-25T09:09:24Z</time></trkpt><trkpt lat="43.881099074602865" lon="10.77446851302834"><ele>30.0</ele><time>2026-04-25T09:09:25Z</time></trkpt><trkpt lat="43.881084612271444" lon="10.774558928675386"><ele>30.0</ele><time>2026-04-25T09:09:26Z</time></trkpt><trkpt lat="43.88104092561299" lon="10.77463296676479"><ele>30.0</ele><time>2026-04-25T09:09:27Z</time></trkpt><trkpt lat="43.88100007358708" lon="10.774704074267685"><ele>30.0</ele><time>2026-04-25T09:09:28Z</time></trkpt><trkpt lat="43.88094581123958" lon="10.774853807216374"><ele>30.0</ele><time>2026-04-25T09:09:30Z</time></trkpt><trkpt lat="43.88093003502418" lon="10.774941273503588"><ele>30.0</ele><time>2026-04-25T09:09:31Z</time></trkpt><trkpt lat="43.880898865889066" lon="10.775020737905527"><ele>30.0</ele><time>2026-04-25T09:09:32Z</time></trkpt><trkpt lat="43.880884023067125" lon="10.77511023745649"><ele>30.0</ele><time>2026-04-25T09:09:33Z</time></trkpt><trkpt lat="43.880862609890706" lon="10.77519679318635"><ele>30.0</ele><time>2026-04-25T09:09:34Z</time></trkpt><trkpt lat="43.88083468588134" lon="10.77528950383217"><ele>29.714285714285715</ele><time>2026-04-25T09:09:35Z</time></trkpt><trkpt lat="43.880815484030265" lon="10.775385873250178"><ele>29.428571428571427</ele><time>2026-04-25T09:09:36Z</time></trkpt><trkpt lat="43.88079702290732" lon="10.775485854356186"><ele>29.142857142857142</ele><time>2026-04-25T09:09:37Z</time></trkpt><trkpt lat="43.88078317078151" lon="10.775582519131108"><ele>28.857142857142858</ele><time>2026-04-25T09:09:38Z</time></trkpt><trkpt lat="43.88076349260169" lon="10.775678283418081"><ele>28.57142857142857</ele><time>2026-04-25T09:09:39Z</time></trkpt><trkpt lat="43.88075191548038" lon="10.775780738813427"><ele>28.285714285714285</ele><time>2026-04-25T09:09:40Z</time></trkpt><trkpt lat="43.880737665151784" lon="10.775879019347611"><ele>28.0</ele><time>2026-04-25T09:09:41Z</time></trkpt><trkpt lat="43.88073240241634" lon="10.775975991058724"><ele>28.0</ele><time>2026-04-25T09:09:42Z</time></trkpt><trkpt lat="43.88073185664211" lon="10.776074327350399"><ele>28.0</ele><time>2026-04-25T09:09:43Z</time></trkpt><trkpt lat="43.88072866317312" lon="10.776172199961362"><ele>28.0</ele><time>2026-04-25T09:09:44Z</time></trkpt><trkpt lat="43.88071382939465" lon="10.776267130916354"><ele>28.0</ele><time>2026-04-25T09:09:45Z</time></trkpt><trkpt lat="43.880685584743375" lon="10.776360699713788"><ele>28.0</ele><time>2026-04-25T09:09:46Z</time></trkpt><trkpt lat="43.88066405112429" lon="10.776457613868821"><ele>28.0</ele><time>2026-04-25T09:09:47Z</time></trkpt><trkpt lat="43.88066072546817" lon="10.776568077093188"><ele>28.0</ele><time>2026-04-25T09:09:48Z</time></trkpt><trkpt lat="43.88066561823968" lon="10.776670463768204"><ele>28.0</ele><time>2026-04-25T09:09:49Z</time></trkpt><trkpt lat="43.8806652521975" lon="10.776765063442523"><ele>28.0</ele><time>2026-04-25T09:09:50Z</time></trkpt><trkpt lat="43.880659169354686" lon="10.776868589203028"><ele>28.0</ele><time>2026-04-25T09:09:51Z</time></trkpt><trkpt lat="43.8806535325459" lon="10.776967769916991"><ele>28.0</ele><time>2026-04-25T09:09:52Z</time></trkpt><trkpt lat="43.880647683043044" lon="10.777073221663109"><ele>28.0</ele><time>2026-04-25T09:09:53Z</time></trkpt><trkpt lat="43.88063648017494" lon="10.777173442295368"><ele>28.0</ele><time>2026-04-25T09:09:54Z</time></trkpt><trkpt lat="43.880639518090064" lon="10.777281579273032"><ele>28.0</ele><time>2026-04-25T09:09:54.999Z</time></trkpt><trkpt lat="43.88063025259805" lon="10.777387536368323"><ele>27.666666666666668</ele><time>2026-04-25T09:09:55.999Z</time></trkpt><trkpt lat="43.88062318011875" lon="10.77748572144076"><ele>27.333333333333336</ele><time>2026-04-25T09:09:56.999Z</time></trkpt><trkpt lat="43.880613288236354" lon="10.777597726492006"><ele>27.0</ele><time>2026-04-25T09:09:57.999Z</time></trkpt><trkpt lat="43.880603467580535" lon="10.777702672795282"><ele>26.666666666666664</ele><time>2026-04-25T09:09:58.999Z</time></trkpt><trkpt lat="43.88059450945202" lon="10.777806906382883"><ele>26.333333333333332</ele><time>2026-04-25T09:09:59.999Z</time></trkpt><trkpt lat="43.88058064901749" lon="10.777915914734763"><ele>26.0</ele><time>2026-04-25T09:10:00.999Z</time></trkpt><trkpt lat="43.88056888500307" lon="10.778022473490346"><ele>25.999999999999996</ele><time>2026-04-25T09:10:01.999Z</time></trkpt><trkpt lat="43.88056419831747" lon="10.778128887659784"><ele>26.0</ele><time>2026-04-25T09:10:02.999Z</time></trkpt><trkpt lat="43.88055267063339" lon="10.778232920233465"><ele>26.0</ele><time>2026-04-25T09:10:03.999Z</time></trkpt><trkpt lat="43.88053786908132" lon="10.778336449596889"><ele>26.0</ele><time>2026-04-25T09:10:04.999Z</time></trkpt><trkpt lat="43.8805309594453" lon="10.77844509253717"><ele>25.999999999999996</ele><time>2026-04-25T09:10:05.999Z</time></trkpt><trkpt lat="43.88051991725682" lon="10.778552853706637"><ele>26.0</ele><time>2026-04-25T09:10:06.999Z</time></trkpt><trkpt lat="43.88050792484532" lon="10.778658346670095"><ele>25.999999999999996</ele><time>2026-04-25T09:10:07.999Z</time></trkpt><trkpt lat="43.88049585356823" lon="10.778769405879622"><ele>26.0</ele><time>2026-04-25T09:10:08.999Z</time></trkpt><trkpt lat="43.88048528037153" lon="10.778875171341008"><ele>26.0</ele><time>2026-04-25T09:10:09.999Z</time></trkpt><trkpt lat="43.880475355640236" lon="10.778981186689533"><ele>26.0</ele><time>2026-04-25T09:10:10.999Z</time></trkpt><trkpt lat="43.880465144187276" lon="10.779084366229961"><ele>25.999999999999996</ele><time>2026-04-25T09:10:11.999Z</time></trkpt><trkpt lat="43.88045919254862" lon="10.779189288426938"><ele>26.0</ele><time>2026-04-25T09:10:12.999Z</time></trkpt><trkpt lat="43.88044726101957" lon="10.779293032211845"><ele>26.0</ele><time>2026-04-25T09:10:13.999Z</time></trkpt><trkpt lat="43.88043224043173" lon="10.779389988858778"><ele>26.0</ele><time>2026-04-25T09:10:14.999Z</time></trkpt><trkpt lat="43.88041578680666" lon="10.77948988872379"><ele>26.0</ele><time>2026-04-25T09:10:15.999Z</time></trkpt><trkpt lat="43.88039672274112" lon="10.779590879577013"><ele>26.0</ele><time>2026-04-25T09:10:16.999Z</time></trkpt><trkpt lat="43.880383710575664" lon="10.779693648854229"><ele>26.0</ele><time>2026-04-25T09:10:17.999Z</time></trkpt><trkpt lat="43.88036683790033" lon="10.7797900383116"><ele>26.0</ele><time>2026-04-25T09:10:18.999Z</time></trkpt><trkpt lat="43.88035394041883" lon="10.779893490623488"><ele>26.0</ele><time>2026-04-25T09:10:19.999Z</time></trkpt><trkpt lat="43.880339102769184" lon="10.779991395127993"><ele>26.0</ele><time>2026-04-25T09:10:20.999Z</time></trkpt><trkpt lat="43.880324201850584" lon="10.780090893221514"><ele>26.0</ele><time>2026-04-25T09:10:21.999Z</time></trkpt><trkpt lat="43.880305779055355" lon="10.78018629202298"><ele>26.0</ele><time>2026-04-25T09:10:22.999Z</time></trkpt><trkpt lat="43.88028682741826" lon="10.780276833572541"><ele>26.0</ele><time>2026-04-25T09:10:23.999Z</time></trkpt><trkpt lat="43.88027284019773" lon="10.78037611208276"><ele>26.0</ele><time>2026-04-25T09:10:24.999Z</time></trkpt><trkpt lat="43.880252738656914" lon="10.780473982022517"><ele>26.0</ele><time>2026-04-25T09:10:25.999Z</time></trkpt><trkpt lat="43.88023364094831" lon="10.780566359620163"><ele>26.0</ele><time>2026-04-25T09:10:26.999Z</time></trkpt><trkpt lat="43.880213948502764" lon="10.780659509676951"><ele>25.999999999999996</ele><time>2026-04-25T09:10:27.999Z</time></trkpt><trkpt lat="43.880190810657844" lon="10.78075172899993"><ele>26.0</ele><time>2026-04-25T09:10:28.999Z</time></trkpt><trkpt lat="43.88017338110736" lon="10.780854131211813"><ele>26.0</ele><time>2026-04-25T09:10:29.999Z</time></trkpt><trkpt lat="43.88016595467003" lon="10.780947094216973"><ele>26.0</ele><time>2026-04-25T09:10:30.999Z</time></trkpt><trkpt lat="43.880154539018314" lon="10.781042438858917"><ele>25.999999999999996</ele><time>2026-04-25T09:10:31.999Z</time></trkpt><trkpt lat="43.88014403353604" lon="10.781134086227642"><ele>26.0</ele><time>2026-04-25T09:10:32.999Z</time></trkpt><trkpt lat="43.88010116604137" lon="10.781295738964799"><ele>26.200000000000003</ele><time>2026-04-25T09:10:34.999Z</time></trkpt><trkpt lat="43.880051386558236" lon="10.781443848061347"><ele>26.400000000000002</ele><time>2026-04-25T09:10:36.999Z</time></trkpt><trkpt lat="43.87999810047345" lon="10.781573267388222"><ele>26.6</ele><time>2026-04-25T09:10:38.999Z</time></trkpt><trkpt lat="43.87994661520044" lon="10.78169417477451"><ele>26.8</ele><time>2026-04-25T09:10:40.999Z</time></trkpt><trkpt lat="43.87990264221657" lon="10.781833942964914"><ele>27.0</ele><time>2026-04-25T09:10:42.999Z</time></trkpt><trkpt lat="43.879854511581065" lon="10.78199537690753"><ele>27.142857142857142</ele><time>2026-04-25T09:10:44.999Z</time></trkpt><trkpt lat="43.87982212604472" lon="10.78207195282678"><ele>27.285714285714285</ele><time>2026-04-25T09:10:45.999Z</time></trkpt><trkpt lat="43.87979364205902" lon="10.782154602910051"><ele>27.42857142857143</ele><time>2026-04-25T09:10:46.999Z</time></trkpt><trkpt lat="43.879766553635434" lon="10.782244918206908"><ele>27.57142857142857</ele><time>2026-04-25T09:10:47.999Z</time></trkpt><trkpt lat="43.879757952501045" lon="10.782335361560623"><ele>27.714285714285715</ele><time>2026-04-25T09:10:48.999Z</time></trkpt><trkpt lat="43.87978252947716" lon="10.78242633886614"><ele>27.857142857142858</ele><time>2026-04-25T09:10:49.999Z</time></trkpt><trkpt lat="43.87981440485475" lon="10.782508779974567"><ele>28.0</ele><time>2026-04-25T09:10:50.999Z</time></trkpt><trkpt lat="43.8798595779806" lon="10.78266541081803"><ele>27.714285714285715</ele><time>2026-04-25T09:10:52.999Z</time></trkpt><trkpt lat="43.879838972824764" lon="10.78275748656222"><ele>27.42857142857143</ele><time>2026-04-25T09:10:53.999Z</time></trkpt><trkpt lat="43.87980294337248" lon="10.782840921125718"><ele>27.142857142857142</ele><time>2026-04-25T09:10:54.999Z</time></trkpt><trkpt lat="43.87978648412972" lon="10.782926973411788"><ele>26.857142857142858</ele><time>2026-04-25T09:10:55.998Z</time></trkpt><trkpt lat="43.87976197401683" lon="10.78302004222849"><ele>26.571428571428573</ele><time>2026-04-25T09:10:56.998Z</time></trkpt><trkpt lat="43.879736572740235" lon="10.78311326853187"><ele>26.285714285714285</ele><time>2026-04-25T09:10:57.998Z</time></trkpt><trkpt lat="43.87971193643858" lon="10.783204856666313"><ele>26.0</ele><time>2026-04-25T09:10:58.998Z</time></trkpt><trkpt lat="43.87968390135643" lon="10.783289325012195"><ele>26.0</ele><time>2026-04-25T09:10:59.998Z</time></trkpt><trkpt lat="43.87965360046791" lon="10.78337687639977"><ele>26.0</ele><time>2026-04-25T09:11:00.998Z</time></trkpt><trkpt lat="43.87962238131895" lon="10.783463738220934"><ele>26.0</ele><time>2026-04-25T09:11:01.998Z</time></trkpt><trkpt lat="43.879593765465124" lon="10.783554808416927"><ele>26.0</ele><time>2026-04-25T09:11:02.998Z</time></trkpt><trkpt lat="43.87956449144286" lon="10.78364333455974"><ele>26.0</ele><time>2026-04-25T09:11:03.998Z</time></trkpt><trkpt lat="43.87953752965258" lon="10.78373435908686"><ele>26.0</ele><time>2026-04-25T09:11:04.998Z</time></trkpt><trkpt lat="43.87950895332393" lon="10.783823932885415"><ele>26.0</ele><time>2026-04-25T09:11:05.998Z</time></trkpt><trkpt lat="43.8794848082246" lon="10.783916778020098"><ele>25.857142857142858</ele><time>2026-04-25T09:11:06.998Z</time></trkpt><trkpt lat="43.87946510167473" lon="10.784010410245667"><ele>25.714285714285715</ele><time>2026-04-25T09:11:07.998Z</time></trkpt><trkpt lat="43.879438161658804" lon="10.784101780395929"><ele>25.571428571428573</ele><time>2026-04-25T09:11:08.998Z</time></trkpt><trkpt lat="43.879408765104884" lon="10.784191480540208"><ele>25.42857142857143</ele><time>2026-04-25T09:11:09.998Z</time></trkpt><trkpt lat="43.879382347663835" lon="10.78428330370142"><ele>25.285714285714285</ele><time>2026-04-25T09:11:10.998Z</time></trkpt><trkpt lat="43.87935748780053" lon="10.784376015600316"><ele>25.142857142857146</ele><time>2026-04-25T09:11:11.998Z</time></trkpt><trkpt lat="43.879335434960296" lon="10.78446580614075"><ele>25.0</ele><time>2026-04-25T09:11:12.998Z</time></trkpt><trkpt lat="43.879308429663354" lon="10.784555819926744"><ele>25.142857142857146</ele><time>2026-04-25T09:11:13.998Z</time></trkpt><trkpt lat="43.8792838333257" lon="10.78464756213373"><ele>25.285714285714285</ele><time>2026-04-25T09:11:14.998Z</time></trkpt><trkpt lat="43.87925777019297" lon="10.784738523560739"><ele>25.42857142857143</ele><time>2026-04-25T09:11:15.998Z</time></trkpt><trkpt lat="43.879231622613474" lon="10.784829789498136"><ele>25.571428571428573</ele><time>2026-04-25T09:11:17Z</time></trkpt><trkpt lat="43.87920414223292" lon="10.784919192917098"><ele>25.714285714285715</ele><time>2026-04-25T09:11:18Z</time></trkpt><trkpt lat="43.8791790430213" lon="10.785011080165239"><ele>25.857142857142858</ele><time>2026-04-25T09:11:19Z</time></trkpt><trkpt lat="43.87915327639214" lon="10.785102876630173"><ele>26.0</ele><time>2026-04-25T09:11:20Z</time></trkpt><trkpt lat="43.87912842224728" lon="10.785191545273761"><ele>26.0</ele><time>2026-04-25T09:11:21Z</time></trkpt><trkpt lat="43.87909834374674" lon="10.785286637763303"><ele>26.0</ele><time>2026-04-25T09:11:22Z</time></trkpt><trkpt lat="43.87907310558337" lon="10.785375959951665"><ele>26.0</ele><time>2026-04-25T09:11:23Z</time></trkpt><trkpt lat="43.87904770221751" lon="10.785473334130954"><ele>26.0</ele><time>2026-04-25T09:11:24Z</time></trkpt><trkpt lat="43.87902584633987" lon="10.785567012197095"><ele>26.0</ele><time>2026-04-25T09:11:25Z</time></trkpt><trkpt lat="43.87899642131357" lon="10.785662718089549"><ele>26.0</ele><time>2026-04-25T09:11:26Z</time></trkpt><trkpt lat="43.87897144528" lon="10.785753789705142"><ele>26.0</ele><time>2026-04-25T09:11:27Z</time></trkpt><trkpt lat="43.87894832180938" lon="10.785848285796302"><ele>26.0</ele><time>2026-04-25T09:11:28Z</time></trkpt><trkpt lat="43.8789229777314" lon="10.785942930917734"><ele>26.0</ele><time>2026-04-25T09:11:29Z</time></trkpt><trkpt lat="43.878901048241495" lon="10.786039854563219"><ele>26.0</ele><time>2026-04-25T09:11:30Z</time></trkpt><trkpt lat="43.878881215477655" lon="10.78613404802923"><ele>26.0</ele><time>2026-04-25T09:11:31Z</time></trkpt><trkpt lat="43.87886241522361" lon="10.786224001932418"><ele>26.0</ele><time>2026-04-25T09:11:32Z</time></trkpt><trkpt lat="43.87883565678687" lon="10.786315485649856"><ele>26.0</ele><time>2026-04-25T09:11:33Z</time></trkpt><trkpt lat="43.87881583586122" lon="10.786409058026795"><ele>26.0</ele><time>2026-04-25T09:11:34Z</time></trkpt><trkpt lat="43.87879522904442" lon="10.78650361750853"><ele>26.142857142857142</ele><time>2026-04-25T09:11:35Z</time></trkpt><trkpt lat="43.87876918649958" lon="10.786595875502845"><ele>26.28571428571429</ele><time>2026-04-25T09:11:36Z</time></trkpt><trkpt lat="43.878751424441624" lon="10.786691100560631"><ele>26.42857142857143</ele><time>2026-04-25T09:11:37Z</time></trkpt><trkpt lat="43.87872998312679" lon="10.786785929318095"><ele>26.57142857142857</ele><time>2026-04-25T09:11:38Z</time></trkpt><trkpt lat="43.87870304605396" lon="10.786872347033142"><ele>26.714285714285715</ele><time>2026-04-25T09:11:39Z</time></trkpt><trkpt lat="43.87868505119316" lon="10.7869700912609"><ele>26.857142857142858</ele><time>2026-04-25T09:11:40Z</time></trkpt><trkpt lat="43.87866200934778" lon="10.787055449761267"><ele>27.0</ele><time>2026-04-25T09:11:41Z</time></trkpt><trkpt lat="43.87863654649902" lon="10.787154157113482"><ele>27.0</ele><time>2026-04-25T09:11:42Z</time></trkpt><trkpt lat="43.87861720033119" lon="10.787243839365646"><ele>27.0</ele><time>2026-04-25T09:11:43Z</time></trkpt><trkpt lat="43.878592794270894" lon="10.787335983773637"><ele>27.0</ele><time>2026-04-25T09:11:44Z</time></trkpt><trkpt lat="43.87856339398224" lon="10.787430429949655"><ele>27.0</ele><time>2026-04-25T09:11:45Z</time></trkpt><trkpt lat="43.87853914686465" lon="10.787523204552759"><ele>27.0</ele><time>2026-04-25T09:11:46Z</time></trkpt><trkpt lat="43.87851849445108" lon="10.787622469878896"><ele>27.0</ele><time>2026-04-25T09:11:47Z</time></trkpt><trkpt lat="43.87849814553599" lon="10.787720132970877"><ele>27.0</ele><time>2026-04-25T09:11:48Z</time></trkpt><trkpt lat="43.87847743590245" lon="10.787816501797783"><ele>26.714285714285715</ele><time>2026-04-25T09:11:49Z</time></trkpt><trkpt lat="43.878457523853925" lon="10.787910671363461"><ele>26.428571428571427</ele><time>2026-04-25T09:11:50Z</time></trkpt><trkpt lat="43.87843365569421" lon="10.788006312467747"><ele>26.142857142857146</ele><time>2026-04-25T09:11:51Z</time></trkpt><trkpt lat="43.87841706428867" lon="10.788105370036146"><ele>25.857142857142858</ele><time>2026-04-25T09:11:52Z</time></trkpt><trkpt lat="43.87840167771192" lon="10.788203254239402"><ele>25.571428571428573</ele><time>2026-04-25T09:11:53Z</time></trkpt><trkpt lat="43.878383980599736" lon="10.788298545414023"><ele>25.28571428571429</ele><time>2026-04-25T09:11:54Z</time></trkpt><trkpt lat="43.878367368795345" lon="10.788399658636305"><ele>25.0</ele><time>2026-04-25T09:11:55Z</time></trkpt><trkpt lat="43.878354783720106" lon="10.788497921986131"><ele>25.166666666666668</ele><time>2026-04-25T09:11:56Z</time></trkpt><trkpt lat="43.87834313988952" lon="10.788599142349804"><ele>25.333333333333336</ele><time>2026-04-25T09:11:57Z</time></trkpt><trkpt lat="43.8783361463782" lon="10.788699518736921"><ele>25.5</ele><time>2026-04-25T09:11:58Z</time></trkpt><trkpt lat="43.8783247073203" lon="10.788801641192473"><ele>25.666666666666664</ele><time>2026-04-25T09:11:59Z</time></trkpt><trkpt lat="43.87831309783143" lon="10.788908125249257"><ele>25.833333333333332</ele><time>2026-04-25T09:12:00Z</time></trkpt><trkpt lat="43.878303822329656" lon="10.789012882516193"><ele>26.0</ele><time>2026-04-25T09:12:01Z</time></trkpt><trkpt lat="43.87829553866991" lon="10.789116061067386"><ele>25.999999999999996</ele><time>2026-04-25T09:12:01.999Z</time></trkpt><trkpt lat="43.87828417383277" lon="10.789217509717771"><ele>26.0</ele><time>2026-04-25T09:12:02.999Z</time></trkpt><trkpt lat="43.8782692092134" lon="10.789322537411502"><ele>26.0</ele><time>2026-04-25T09:12:03.999Z</time></trkpt><trkpt lat="43.878258625519855" lon="10.789427318283412"><ele>26.0</ele><time>2026-04-25T09:12:04.999Z</time></trkpt><trkpt lat="43.878251403167845" lon="10.789533241431801"><ele>25.999999999999996</ele><time>2026-04-25T09:12:05.999Z</time></trkpt><trkpt lat="43.87824708925315" lon="10.789638084874165"><ele>26.0</ele><time>2026-04-25T09:12:06.999Z</time></trkpt><trkpt lat="43.878239605621374" lon="10.789740104094385"><ele>26.0</ele><time>2026-04-25T09:12:07.999Z</time></trkpt><trkpt lat="43.87822943438551" lon="10.789843341678345"><ele>26.0</ele><time>2026-04-25T09:12:08.999Z</time></trkpt><trkpt lat="43.878220847421424" lon="10.78994193231613"><ele>26.0</ele><time>2026-04-25T09:12:09.999Z</time></trkpt><trkpt lat="43.87822256322429" lon="10.790044490542888"><ele>26.0</ele><time>2026-04-25T09:12:10.999Z</time></trkpt><trkpt lat="43.87821254739023" lon="10.790153567195514"><ele>26.0</ele><time>2026-04-25T09:12:11.999Z</time></trkpt><trkpt lat="43.87820213212073" lon="10.790254249108767"><ele>26.0</ele><time>2026-04-25T09:12:12.999Z</time></trkpt><trkpt lat="43.87819117738628" lon="10.790348131261297"><ele>26.0</ele><time>2026-04-25T09:12:13.999Z</time></trkpt><trkpt lat="43.878174686582945" lon="10.79045623188619"><ele>26.166666666666664</ele><time>2026-04-25T09:12:14.999Z</time></trkpt><trkpt lat="43.878160306161284" lon="10.790565134304435"><ele>26.333333333333332</ele><time>2026-04-25T09:12:15.999Z</time></trkpt><trkpt lat="43.87814815862419" lon="10.790672125551406"><ele>26.5</ele><time>2026-04-25T09:12:16.999Z</time></trkpt><trkpt lat="43.87813808566389" lon="10.790780051167243"><ele>26.666666666666664</ele><time>2026-04-25T09:12:17.999Z</time></trkpt><trkpt lat="43.87812780047645" lon="10.79088564468505"><ele>26.833333333333332</ele><time>2026-04-25T09:12:18.999Z</time></trkpt><trkpt lat="43.878114892742715" lon="10.79099305947309"><ele>27.0</ele><time>2026-04-25T09:12:19.999Z</time></trkpt><trkpt lat="43.878109824982715" lon="10.791100315676513"><ele>27.0</ele><time>2026-04-25T09:12:20.999Z</time></trkpt><trkpt lat="43.87810385725255" lon="10.791205706889546"><ele>27.0</ele><time>2026-04-25T09:12:21.999Z</time></trkpt><trkpt lat="43.87809651371779" lon="10.79131586520536"><ele>27.0</ele><time>2026-04-25T09:12:22.999Z</time></trkpt><trkpt lat="43.878091848549836" lon="10.791426797065897"><ele>27.0</ele><time>2026-04-25T09:12:23.999Z</time></trkpt><trkpt lat="43.87808791283692" lon="10.791535008262995"><ele>27.0</ele><time>2026-04-25T09:12:24.999Z</time></trkpt><trkpt lat="43.87808161333811" lon="10.791644169696955"><ele>27.0</ele><time>2026-04-25T09:12:25.999Z</time></trkpt><trkpt lat="43.87807508902725" lon="10.791752111141081"><ele>26.833333333333332</ele><time>2026-04-25T09:12:26.999Z</time></trkpt><trkpt lat="43.878064985949216" lon="10.79185590585719"><ele>26.666666666666664</ele><time>2026-04-25T09:12:27.999Z</time></trkpt><trkpt lat="43.878063921126376" lon="10.791972467035864"><ele>26.5</ele><time>2026-04-25T09:12:28.999Z</time></trkpt><trkpt lat="43.878057458210684" lon="10.792079399000123"><ele>26.333333333333332</ele><time>2026-04-25T09:12:29.999Z</time></trkpt><trkpt lat="43.87805522124564" lon="10.792187255901714"><ele>26.166666666666664</ele><time>2026-04-25T09:12:30.999Z</time></trkpt><trkpt lat="43.87805278654163" lon="10.792294079554376"><ele>26.0</ele><time>2026-04-25T09:12:31.999Z</time></trkpt><trkpt lat="43.87806685147558" lon="10.792400058775218"><ele>26.0</ele><time>2026-04-25T09:12:32.999Z</time></trkpt><trkpt lat="43.8780736740772" lon="10.792504019641623"><ele>26.0</ele><time>2026-04-25T09:12:33.999Z</time></trkpt><trkpt lat="43.87808908058041" lon="10.79260258746254"><ele>26.0</ele><time>2026-04-25T09:12:34.999Z</time></trkpt><trkpt lat="43.87810355884203" lon="10.792704404752927"><ele>26.0</ele><time>2026-04-25T09:12:35.999Z</time></trkpt><trkpt lat="43.878111385750366" lon="10.792793363230137"><ele>26.0</ele><time>2026-04-25T09:12:36.999Z</time></trkpt><trkpt lat="43.87812717363762" lon="10.792883730912992"><ele>26.0</ele><time>2026-04-25T09:12:37.999Z</time></trkpt><trkpt lat="43.878143954740445" lon="10.792969268499093"><ele>26.0</ele><time>2026-04-25T09:12:38.999Z</time></trkpt><trkpt lat="43.87815962003479" lon="10.793056743477951"><ele>26.166666666666664</ele><time>2026-04-25T09:12:39.999Z</time></trkpt><trkpt lat="43.87819680871578" lon="10.793205643559647"><ele>26.333333333333332</ele><time>2026-04-25T09:12:41.999Z</time></trkpt><trkpt lat="43.87823447519864" lon="10.793325631940533"><ele>26.5</ele><time>2026-04-25T09:12:43.999Z</time></trkpt><trkpt lat="43.878256718514486" lon="10.793415370681766"><ele>26.666666666666664</ele><time>2026-04-25T09:12:45.999Z</time></trkpt><trkpt lat="43.87831324624847" lon="10.793489520927915"><ele>26.833333333333332</ele><time>2026-04-25T09:12:48.999Z</time></trkpt><trkpt lat="43.878359696859924" lon="10.793561180244362"><ele>27.0</ele><time>2026-04-25T09:12:52.999Z</time></trkpt><trkpt lat="43.87834397483602" lon="10.793646123411047"><ele>27.0</ele><time>2026-04-25T09:12:56.999Z</time></trkpt><trkpt lat="43.87835890158853" lon="10.793731271542429"><ele>27.0</ele><time>2026-04-25T09:12:59.999Z</time></trkpt><trkpt lat="43.8783941325628" lon="10.79380999886898"><ele>27.0</ele><time>2026-04-25T09:13:01.998Z</time></trkpt><trkpt lat="43.87839873704401" lon="10.793902538895082"><ele>27.0</ele><time>2026-04-25T09:13:03.998Z</time></trkpt><trkpt lat="43.87837438799767" lon="10.794003298512894"><ele>27.0</ele><time>2026-04-25T09:13:05.998Z</time></trkpt><trkpt lat="43.87839373783375" lon="10.79411296974961"><ele>27.0</ele><time>2026-04-25T09:13:07.998Z</time></trkpt><trkpt lat="43.87842576898639" lon="10.794213216933555"><ele>27.0</ele><time>2026-04-25T09:13:09.998Z</time></trkpt><trkpt lat="43.87842656585984" lon="10.794303932600197"><ele>26.833333333333332</ele><time>2026-04-25T09:13:11.998Z</time></trkpt><trkpt lat="43.87842137841156" lon="10.794402483716848"><ele>26.666666666666664</ele><time>2026-04-25T09:13:27Z</time></trkpt><trkpt lat="43.87836664190351" lon="10.794480259191733"><ele>26.5</ele><time>2026-04-25T09:13:30Z</time></trkpt><trkpt lat="43.87834836731506" lon="10.79459280226274"><ele>26.333333333333332</ele><time>2026-04-25T09:13:32Z</time></trkpt><trkpt lat="43.87837561382483" lon="10.79471989996556"><ele>26.166666666666664</ele><time>2026-04-25T09:13:34Z</time></trkpt><trkpt lat="43.87839699352824" lon="10.794855567124642"><ele>26.0</ele><time>2026-04-25T09:13:36Z</time></trkpt><trkpt lat="43.87842473893169" lon="10.794988570369226"><ele>26.200000000000003</ele><time>2026-04-25T09:13:38Z</time></trkpt><trkpt lat="43.87845607492263" lon="10.795115856243148"><ele>26.400000000000002</ele><time>2026-04-25T09:13:40Z</time></trkpt><trkpt lat="43.87848145878744" lon="10.795245087357145"><ele>26.6</ele><time>2026-04-25T09:13:42Z</time></trkpt><trkpt lat="43.8785012572499" lon="10.795370468239863"><ele>26.8</ele><time>2026-04-25T09:13:44Z</time></trkpt><trkpt lat="43.878519806015575" lon="10.795539538585963"><ele>27.0</ele><time>2026-04-25T09:13:47Z</time></trkpt><trkpt lat="43.87855287132379" lon="10.795663309571005"><ele>27.0</ele><time>2026-04-25T09:13:49Z</time></trkpt><trkpt lat="43.878595302266916" lon="10.795762956306175"><ele>27.0</ele><time>2026-04-25T09:13:51Z</time></trkpt><trkpt lat="43.878678394382646" lon="10.795751220535626"><ele>27.0</ele><time>2026-04-25T09:13:53Z</time></trkpt><trkpt lat="43.87891965256417" lon="10.795758394722293"><ele>27.0</ele><time>2026-04-25T09:14:03Z</time></trkpt><trkpt lat="43.87909958929044" lon="10.795726706881526"><ele>27.0</ele><time>2026-04-25T09:14:07.999Z</time></trkpt><trkpt lat="43.879153658595385" lon="10.795773158447858"><ele>27.0</ele><time>2026-04-25T09:14:10.999Z</time></trkpt><trkpt lat="43.879195829923795" lon="10.795871869665772"><ele>27.0</ele><time>2026-04-25T09:14:13.999Z</time></trkpt><trkpt lat="43.87920649542075" lon="10.79596739314972"><ele>27.0</ele><time>2026-04-25T09:14:16.999Z</time></trkpt><trkpt lat="43.87920897171118" lon="10.796064661163113"><ele>27.0</ele><time>2026-04-25T09:14:19.999Z</time></trkpt><trkpt lat="43.8792271589802" lon="10.796156235920877"><ele>27.0</ele><time>2026-04-25T09:14:22.999Z</time></trkpt><trkpt lat="43.87923241444887" lon="10.796247197138523"><ele>27.0</ele><time>2026-04-25T09:14:24.999Z</time></trkpt><trkpt lat="43.87918336718874" lon="10.796311811193881"><ele>27.0</ele><time>2026-04-25T09:14:26.999Z</time></trkpt><trkpt lat="43.87921691589057" lon="10.796403318774775"><ele>27.000000000000004</ele><time>2026-04-25T09:14:28.999Z</time></trkpt><trkpt lat="43.8792656509222" lon="10.796507490447592"><ele>27.000000000000004</ele><time>2026-04-25T09:14:30.999Z</time></trkpt><trkpt lat="43.87928016674217" lon="10.796638853499642"><ele>27.0</ele><time>2026-04-25T09:14:32.999Z</time></trkpt><trkpt lat="43.879302376049786" lon="10.79677662284639"><ele>27.0</ele><time>2026-04-25T09:14:34.999Z</time></trkpt><trkpt lat="43.87933061596847" lon="10.796929486620707"><ele>27.0</ele><time>2026-04-25T09:14:36.999Z</time></trkpt><trkpt lat="43.87936612685067" lon="10.797096327492854"><ele>27.0</ele><time>2026-04-25T09:14:38.999Z</time></trkpt><trkpt lat="43.879391519600595" lon="10.797182720682118"><ele>27.0</ele><time>2026-04-25T09:14:39.999Z</time></trkpt><trkpt lat="43.87942010579074" lon="10.797268530147521"><ele>27.0</ele><time>2026-04-25T09:14:40.999Z</time></trkpt><trkpt lat="43.87944702317762" lon="10.797354717418564"><ele>27.0</ele><time>2026-04-25T09:14:41.999Z</time></trkpt><trkpt lat="43.879480787717306" lon="10.797447325317593"><ele>27.0</ele><time>2026-04-25T09:14:42.999Z</time></trkpt><trkpt lat="43.87951987010698" lon="10.797538070800211"><ele>27.0</ele><time>2026-04-25T09:14:43.999Z</time></trkpt><trkpt lat="43.879558008009084" lon="10.797627916298415"><ele>27.0</ele><time>2026-04-25T09:14:44.999Z</time></trkpt><trkpt lat="43.879591702221305" lon="10.797712166312252"><ele>27.0</ele><time>2026-04-25T09:14:45.999Z</time></trkpt><trkpt lat="43.879632476402655" lon="10.797802589650901"><ele>27.0</ele><time>2026-04-25T09:14:46.999Z</time></trkpt><trkpt lat="43.879673731403514" lon="10.797884514809475"><ele>27.0</ele><time>2026-04-25T09:14:47.999Z</time></trkpt><trkpt lat="43.879723987345386" lon="10.797965814961861"><ele>27.0</ele><time>2026-04-25T09:14:48.999Z</time></trkpt><trkpt lat="43.87977092225595" lon="10.79803572125576"><ele>27.0</ele><time>2026-04-25T09:14:49.999Z</time></trkpt><trkpt lat="43.87982213409449" lon="10.798111080290957"><ele>27.0</ele><time>2026-04-25T09:14:50.999Z</time></trkpt><trkpt lat="43.8798737453032" lon="10.798189275055588"><ele>27.0</ele><time>2026-04-25T09:14:51.999Z</time></trkpt><trkpt lat="43.87992861989583" lon="10.798259533147348"><ele>27.0</ele><time>2026-04-25T09:14:52.999Z</time></trkpt><trkpt lat="43.879984500750815" lon="10.798326901912203"><ele>27.0</ele><time>2026-04-25T09:14:53.999Z</time></trkpt><trkpt lat="43.880041883629715" lon="10.798388990435948"><ele>27.0</ele><time>2026-04-25T09:14:54.999Z</time></trkpt><trkpt lat="43.8800999496041" lon="10.798454887917899"><ele>27.0</ele><time>2026-04-25T09:14:55.999Z</time></trkpt><trkpt lat="43.880157674726" lon="10.798520850344246"><ele>27.0</ele><time>2026-04-25T09:14:56.999Z</time></trkpt><trkpt lat="43.88021276360138" lon="10.798587015914094"><ele>27.0</ele><time>2026-04-25T09:14:57.999Z</time></trkpt><trkpt lat="43.88027039646331" lon="10.798643875153228"><ele>27.0</ele><time>2026-04-25T09:14:58.999Z</time></trkpt><trkpt lat="43.88033113816125" lon="10.798700713882527"><ele>27.0</ele><time>2026-04-25T09:14:59.999Z</time></trkpt><trkpt lat="43.88038993447688" lon="10.798771903078539"><ele>27.0</ele><time>2026-04-25T09:15:00.999Z</time></trkpt><trkpt lat="43.88044301041916" lon="10.798841737027846"><ele>27.0</ele><time>2026-04-25T09:15:01.999Z</time></trkpt><trkpt lat="43.88050148222069" lon="10.798902159148025"><ele>27.0</ele><time>2026-04-25T09:15:02.999Z</time></trkpt><trkpt lat="43.88055461345461" lon="10.79897383602608"><ele>27.0</ele><time>2026-04-25T09:15:03.999Z</time></trkpt><trkpt lat="43.88060977260277" lon="10.799039127713074"><ele>27.0</ele><time>2026-04-25T09:15:04.999Z</time></trkpt><trkpt lat="43.88066904699347" lon="10.79910453354524"><ele>27.0</ele><time>2026-04-25T09:15:05.998Z</time></trkpt><trkpt lat="43.88072375047313" lon="10.79917171307065"><ele>27.0</ele><time>2026-04-25T09:15:06.998Z</time></trkpt><trkpt lat="43.880777114575054" lon="10.799239264300196"><ele>27.0</ele><time>2026-04-25T09:15:07.998Z</time></trkpt><trkpt lat="43.88082723486502" lon="10.79930762282539"><ele>27.0</ele><time>2026-04-25T09:15:08.998Z</time></trkpt><trkpt lat="43.88087935892089" lon="10.799370398710279"><ele>27.0</ele><time>2026-04-25T09:15:09.998Z</time></trkpt><trkpt lat="43.88094212899999" lon="10.799411881808128"><ele>27.0</ele><time>2026-04-25T09:15:11.998Z</time></trkpt><trkpt lat="43.88093516655925" lon="10.799500158605742"><ele>27.200000000000003</ele><time>2026-04-25T09:15:16.998Z</time></trkpt><trkpt lat="43.88086188157858" lon="10.799556673022247"><ele>27.400000000000002</ele><time>2026-04-25T09:15:18.998Z</time></trkpt><trkpt lat="43.880772026771346" lon="10.799602172085445"><ele>27.599999999999998</ele><time>2026-04-25T09:15:20.998Z</time></trkpt><trkpt lat="43.8806766528905" lon="10.799668526571402"><ele>27.799999999999997</ele><time>2026-04-25T09:15:22.998Z</time></trkpt><trkpt lat="43.8805700374737" lon="10.799746900648534"><ele>28.0</ele><time>2026-04-25T09:15:24.998Z</time></trkpt><trkpt lat="43.88051352351928" lon="10.799787569113121"><ele>28.0</ele><time>2026-04-25T09:15:25.998Z</time></trkpt><trkpt lat="43.88045193794847" lon="10.799823451702904"><ele>28.0</ele><time>2026-04-25T09:15:26.998Z</time></trkpt><trkpt lat="43.880386477230324" lon="10.79986329133583"><ele>28.0</ele><time>2026-04-25T09:15:27.998Z</time></trkpt><trkpt lat="43.88032065239954" lon="10.799894787039333"><ele>28.0</ele><time>2026-04-25T09:15:29Z</time></trkpt><trkpt lat="43.880252944763306" lon="10.799925665404734"><ele>28.0</ele><time>2026-04-25T09:15:30Z</time></trkpt><trkpt lat="43.88018311384081" lon="10.799952000116082"><ele>28.0</ele><time>2026-04-25T09:15:31Z</time></trkpt><trkpt lat="43.88012084613437" lon="10.799967381575698"><ele>28.0</ele><time>2026-04-25T09:15:32Z</time></trkpt><trkpt lat="43.88005651136715" lon="10.799970768091354"><ele>27.599999999999998</ele><time>2026-04-25T09:15:33Z</time></trkpt><trkpt lat="43.879989227467924" lon="10.799957811502933"><ele>27.199999999999996</ele><time>2026-04-25T09:15:34Z</time></trkpt><trkpt lat="43.879926060781585" lon="10.79993101504867"><ele>26.8</ele><time>2026-04-25T09:15:35Z</time></trkpt><trkpt lat="43.8798271619355" lon="10.799852565684178"><ele>26.4</ele><time>2026-04-25T09:15:37Z</time></trkpt><trkpt lat="43.87974808737213" lon="10.79975274255072"><ele>26.0</ele><time>2026-04-25T09:15:39Z</time></trkpt><trkpt lat="43.87969317421553" lon="10.79964287525785"><ele>25.999999999999996</ele><time>2026-04-25T09:15:41Z</time></trkpt><trkpt lat="43.87964740912508" lon="10.799537275672291"><ele>26.0</ele><time>2026-04-25T09:15:43Z</time></trkpt><trkpt lat="43.87961352297301" lon="10.799432666484558"><ele>26.0</ele><time>2026-04-25T09:15:45Z</time></trkpt><trkpt lat="43.8795872725905" lon="10.799327287254899"><ele>26.0</ele><time>2026-04-25T09:15:47Z</time></trkpt><trkpt lat="43.87955990235046" lon="10.799224537033018"><ele>25.999999999999996</ele><time>2026-04-25T09:15:49Z</time></trkpt><trkpt lat="43.87953885127949" lon="10.79912376982476"><ele>26.0</ele><time>2026-04-25T09:15:51Z</time></trkpt><trkpt lat="43.879511244961726" lon="10.799024639957677"><ele>25.999999999999996</ele><time>2026-04-25T09:15:53Z</time></trkpt><trkpt lat="43.87948244604664" lon="10.7989215061041"><ele>26.0</ele><time>2026-04-25T09:15:55Z</time></trkpt><trkpt lat="43.879442008493356" lon="10.798815367721508"><ele>26.0</ele><time>2026-04-25T09:15:57Z</time></trkpt><trkpt lat="43.87940143586357" lon="10.798707910282294"><ele>26.0</ele><time>2026-04-25T09:15:59Z</time></trkpt><trkpt lat="43.87934766002415" lon="10.798601474823458"><ele>25.999999999999996</ele><time>2026-04-25T09:16:01Z</time></trkpt><trkpt lat="43.879280892271964" lon="10.79849514404438"><ele>26.0</ele><time>2026-04-25T09:16:03Z</time></trkpt><trkpt lat="43.879197181911" lon="10.798397959504475"><ele>25.8</ele><time>2026-04-25T09:16:05Z</time></trkpt><trkpt lat="43.87909276838712" lon="10.798324531547726"><ele>25.6</ele><time>2026-04-25T09:16:07Z</time></trkpt><trkpt lat="43.878974524765155" lon="10.798270507299483"><ele>25.4</ele><time>2026-04-25T09:16:09Z</time></trkpt><trkpt lat="43.87884685637285" lon="10.798250316433723"><ele>25.2</ele><time>2026-04-25T09:16:10.999Z</time></trkpt><trkpt lat="43.87877835144003" lon="10.798245584256751"><ele>25.0</ele><time>2026-04-25T09:16:11.999Z</time></trkpt><trkpt lat="43.878706987455715" lon="10.798243363245621"><ele>25.000000000000004</ele><time>2026-04-25T09:16:12.999Z</time></trkpt><trkpt lat="43.8786322322385" lon="10.79824776982497"><ele>25.0</ele><time>2026-04-25T09:16:13.999Z</time></trkpt><trkpt lat="43.87855117543047" lon="10.798259071489227"><ele>25.0</ele><time>2026-04-25T09:16:14.999Z</time></trkpt><trkpt lat="43.87847067476757" lon="10.798261084341382"><ele>25.0</ele><time>2026-04-25T09:16:15.999Z</time></trkpt><trkpt lat="43.878381974299984" lon="10.798267427640145"><ele>25.000000000000004</ele><time>2026-04-25T09:16:16.999Z</time></trkpt><trkpt lat="43.87829531675122" lon="10.798281214602719"><ele>25.0</ele><time>2026-04-25T09:16:17.999Z</time></trkpt><trkpt lat="43.87821165208179" lon="10.798297812668922"><ele>24.4</ele><time>2026-04-25T09:16:18.999Z</time></trkpt><trkpt lat="43.878133433248905" lon="10.798317278261159"><ele>23.8</ele><time>2026-04-25T09:16:19.999Z</time></trkpt><trkpt lat="43.87806475949672" lon="10.798335085431583"><ele>23.200000000000003</ele><time>2026-04-25T09:16:20.999Z</time></trkpt><trkpt lat="43.877944816820715" lon="10.798377806844847"><ele>22.6</ele><time>2026-04-25T09:16:22.999Z</time></trkpt><trkpt lat="43.87784037932584" lon="10.798425049606873"><ele>22.0</ele><time>2026-04-25T09:16:24.999Z</time></trkpt><trkpt lat="43.87773958772363" lon="10.798446600915197"><ele>22.0</ele><time>2026-04-25T09:16:26.999Z</time></trkpt><trkpt lat="43.87763476386244" lon="10.798429178669476"><ele>22.0</ele><time>2026-04-25T09:16:28.999Z</time></trkpt><trkpt lat="43.87757339952299" lon="10.798402308749903"><ele>22.0</ele><time>2026-04-25T09:16:29.999Z</time></trkpt><trkpt lat="43.87751633832729" lon="10.798349792427986"><ele>22.0</ele><time>2026-04-25T09:16:30.999Z</time></trkpt><trkpt lat="43.87744853469737" lon="10.798311207514889"><ele>22.0</ele><time>2026-04-25T09:16:31.999Z</time></trkpt><trkpt lat="43.87737501547821" lon="10.798345150097735"><ele>22.0</ele><time>2026-04-25T09:16:32.999Z</time></trkpt><trkpt lat="43.87732082688445" lon="10.798433475892065"><ele>21.857142857142858</ele><time>2026-04-25T09:16:33.999Z</time></trkpt><trkpt lat="43.877291595279544" lon="10.7985273364485"><ele>21.714285714285715</ele><time>2026-04-25T09:16:34.999Z</time></trkpt><trkpt lat="43.8772586292179" lon="10.798605769973308"><ele>21.57142857142857</ele><time>2026-04-25T09:16:35.999Z</time></trkpt><trkpt lat="43.87721177231026" lon="10.798668830658823"><ele>21.42857142857143</ele><time>2026-04-25T09:16:36.999Z</time></trkpt><trkpt lat="43.87716271470685" lon="10.798728168230356"><ele>21.285714285714285</ele><time>2026-04-25T09:16:37.999Z</time></trkpt><trkpt lat="43.87711367190213" lon="10.798784402646335"><ele>21.142857142857142</ele><time>2026-04-25T09:16:38.999Z</time></trkpt><trkpt lat="43.87707001980774" lon="10.798848927725926"><ele>21.0</ele><time>2026-04-25T09:16:39.999Z</time></trkpt><trkpt lat="43.87698364534009" lon="10.798980887720619"><ele>21.0</ele><time>2026-04-25T09:16:41.999Z</time></trkpt><trkpt lat="43.876896572799204" lon="10.799121810312018"><ele>21.0</ele><time>2026-04-25T09:16:43.999Z</time></trkpt><trkpt lat="43.876840221862366" lon="10.79920475816732"><ele>21.0</ele><time>2026-04-25T09:16:44.999Z</time></trkpt><trkpt lat="43.87677897813914" lon="10.79927417663482"><ele>21.0</ele><time>2026-04-25T09:16:45.999Z</time></trkpt><trkpt lat="43.87671318420814" lon="10.799348873166728"><ele>21.0</ele><time>2026-04-25T09:16:46.999Z</time></trkpt><trkpt lat="43.87663797910325" lon="10.799417221116277"><ele>21.166666666666668</ele><time>2026-04-25T09:16:47.999Z</time></trkpt><trkpt lat="43.87655619143847" lon="10.79947366842882"><ele>21.333333333333332</ele><time>2026-04-25T09:16:48.999Z</time></trkpt><trkpt lat="43.876468846939716" lon="10.799523767699558"><ele>21.5</ele><time>2026-04-25T09:16:49.999Z</time></trkpt><trkpt lat="43.87639177172758" lon="10.799579420033618"><ele>21.666666666666664</ele><time>2026-04-25T09:16:50.999Z</time></trkpt><trkpt lat="43.87631372963842" lon="10.799637257823592"><ele>21.833333333333332</ele><time>2026-04-25T09:16:51.999Z</time></trkpt><trkpt lat="43.876240976420455" lon="10.799700810245817"><ele>22.0</ele><time>2026-04-25T09:16:52.999Z</time></trkpt><trkpt lat="43.87611526995973" lon="10.79977132932917"><ele>22.0</ele><time>2026-04-25T09:16:53.999Z</time></trkpt><trkpt lat="43.87597573289831" lon="10.799830583597767"><ele>22.0</ele><time>2026-04-25T09:16:55.999Z</time></trkpt><trkpt lat="43.8758970409832" lon="10.799869805656778"><ele>22.0</ele><time>2026-04-25T09:16:56.999Z</time></trkpt><trkpt lat="43.87582513179575" lon="10.799927488040014"><ele>22.0</ele><time>2026-04-25T09:16:57.999Z</time></trkpt><trkpt lat="43.87574771299139" lon="10.79997394509761"><ele>22.0</ele><time>2026-04-25T09:16:58.999Z</time></trkpt><trkpt lat="43.87568152392468" lon="10.800034458970423"><ele>22.0</ele><time>2026-04-25T09:16:59.999Z</time></trkpt><trkpt lat="43.875607555820096" lon="10.800078686828819"><ele>22.0</ele><time>2026-04-25T09:17:00.999Z</time></trkpt><trkpt lat="43.875532680518965" lon="10.800126103326091"><ele>22.0</ele><time>2026-04-25T09:17:01.999Z</time></trkpt><trkpt lat="43.87545951545601" lon="10.800173799035205"><ele>22.0</ele><time>2026-04-25T09:17:02.999Z</time></trkpt><trkpt lat="43.87538324945141" lon="10.800220771075612"><ele>22.0</ele><time>2026-04-25T09:17:03.999Z</time></trkpt><trkpt lat="43.875315643644285" lon="10.800267731686795"><ele>22.0</ele><time>2026-04-25T09:17:04.999Z</time></trkpt><trkpt lat="43.875240544231026" lon="10.800323458306533"><ele>22.0</ele><time>2026-04-25T09:17:05.999Z</time></trkpt><trkpt lat="43.87517364431263" lon="10.800383663088263"><ele>22.0</ele><time>2026-04-25T09:17:06.999Z</time></trkpt><trkpt lat="43.87509876060688" lon="10.800443753759218"><ele>22.0</ele><time>2026-04-25T09:17:07.999Z</time></trkpt><trkpt lat="43.87502990686792" lon="10.80050723092631"><ele>22.0</ele><time>2026-04-25T09:17:08.999Z</time></trkpt><trkpt lat="43.87496450263256" lon="10.800569488379438"><ele>22.0</ele><time>2026-04-25T09:17:09.999Z</time></trkpt><trkpt lat="43.874893058278474" lon="10.800639629725595"><ele>22.0</ele><time>2026-04-25T09:17:10.998Z</time></trkpt><trkpt lat="43.874834485207664" lon="10.80073080256265"><ele>22.0</ele><time>2026-04-25T09:17:11.998Z</time></trkpt><trkpt lat="43.87477773979325" lon="10.800821469669893"><ele>22.0</ele><time>2026-04-25T09:17:12.998Z</time></trkpt><trkpt lat="43.874723568050904" lon="10.800912174635425"><ele>22.0</ele><time>2026-04-25T09:17:13.998Z</time></trkpt><trkpt lat="43.87467660934915" lon="10.801007117256574"><ele>22.0</ele><time>2026-04-25T09:17:14.998Z</time></trkpt><trkpt lat="43.87463100806416" lon="10.801102333521625"><ele>22.0</ele><time>2026-04-25T09:17:15.998Z</time></trkpt><trkpt lat="43.874591612259564" lon="10.80120893023771"><ele>22.0</ele><time>2026-04-25T09:17:16.998Z</time></trkpt><trkpt lat="43.874551089617334" lon="10.80130911552696"><ele>22.166666666666664</ele><time>2026-04-25T09:17:17.998Z</time></trkpt><trkpt lat="43.87451155405063" lon="10.801403005447332"><ele>22.333333333333332</ele><time>2026-04-25T09:17:18.998Z</time></trkpt><trkpt lat="43.87447474083212" lon="10.801504396776197"><ele>22.5</ele><time>2026-04-25T09:17:19.998Z</time></trkpt><trkpt lat="43.87444813202828" lon="10.801596388552381"><ele>22.666666666666668</ele><time>2026-04-25T09:17:20.998Z</time></trkpt><trkpt lat="43.87441774787746" lon="10.801694316920377"><ele>22.833333333333336</ele><time>2026-04-25T09:17:21.998Z</time></trkpt><trkpt lat="43.87438383670689" lon="10.801780555829906"><ele>23.0</ele><time>2026-04-25T09:17:22.998Z</time></trkpt><trkpt lat="43.87433396565571" lon="10.801953250845518"><ele>22.857142857142858</ele><time>2026-04-25T09:17:24.998Z</time></trkpt><trkpt lat="43.87430290049095" lon="10.802041342928037"><ele>22.71428571428571</ele><time>2026-04-25T09:17:25.998Z</time></trkpt><trkpt lat="43.87427350280376" lon="10.802129878954089"><ele>22.57142857142857</ele><time>2026-04-25T09:17:26.998Z</time></trkpt><trkpt lat="43.874242948398795" lon="10.802221738553591"><ele>22.42857142857143</ele><time>2026-04-25T09:17:27.998Z</time></trkpt><trkpt lat="43.87420945915965" lon="10.802307733169014"><ele>22.285714285714285</ele><time>2026-04-25T09:17:28.998Z</time></trkpt><trkpt lat="43.87417639439449" lon="10.80239787641233"><ele>22.142857142857142</ele><time>2026-04-25T09:17:29.998Z</time></trkpt><trkpt lat="43.87415253424944" lon="10.802496793009214"><ele>22.0</ele><time>2026-04-25T09:17:30.998Z</time></trkpt><trkpt lat="43.87412035332483" lon="10.802589848318654"><ele>22.0</ele><time>2026-04-25T09:17:31.998Z</time></trkpt><trkpt lat="43.874090928506" lon="10.802687803963616"><ele>22.0</ele><time>2026-04-25T09:17:32.998Z</time></trkpt><trkpt lat="43.874057232189465" lon="10.80278947288521"><ele>22.0</ele><time>2026-04-25T09:17:33.998Z</time></trkpt><trkpt lat="43.874027040664025" lon="10.802894039463954"><ele>22.0</ele><time>2026-04-25T09:17:35Z</time></trkpt><trkpt lat="43.873992882473786" lon="10.80299994796768"><ele>22.0</ele><time>2026-04-25T09:17:36Z</time></trkpt><trkpt lat="43.87395625849917" lon="10.803101472154655"><ele>22.0</ele><time>2026-04-25T09:17:37Z</time></trkpt><trkpt lat="43.87392347006278" lon="10.803204069640056"><ele>22.0</ele><time>2026-04-25T09:17:38Z</time></trkpt><trkpt lat="43.873889640809374" lon="10.80330229277621"><ele>22.0</ele><time>2026-04-25T09:17:39Z</time></trkpt><trkpt lat="43.87385356427002" lon="10.803398190126346"><ele>22.0</ele><time>2026-04-25T09:17:40Z</time></trkpt><trkpt lat="43.87382155979051" lon="10.803491034186377"><ele>22.0</ele><time>2026-04-25T09:17:41Z</time></trkpt><trkpt lat="43.873791297940215" lon="10.80358544756237"><ele>22.0</ele><time>2026-04-25T09:17:42Z</time></trkpt><trkpt lat="43.87376181059423" lon="10.803678989553761"><ele>22.0</ele><time>2026-04-25T09:17:43Z</time></trkpt><trkpt lat="43.873732869625826" lon="10.803770450506082"><ele>22.142857142857142</ele><time>2026-04-25T09:17:44Z</time></trkpt><trkpt lat="43.87370724362854" lon="10.803863739396222"><ele>22.285714285714285</ele><time>2026-04-25T09:17:45Z</time></trkpt><trkpt lat="43.873681375307456" lon="10.803951184241411"><ele>22.42857142857143</ele><time>2026-04-25T09:17:46Z</time></trkpt><trkpt lat="43.87365681050413" lon="10.804039447979175"><ele>22.57142857142857</ele><time>2026-04-25T09:17:47Z</time></trkpt><trkpt lat="43.873627799356015" lon="10.80412450744029"><ele>22.71428571428571</ele><time>2026-04-25T09:17:48Z</time></trkpt><trkpt lat="43.87360041430681" lon="10.80421209601443"><ele>22.857142857142858</ele><time>2026-04-25T09:17:49Z</time></trkpt><trkpt lat="43.87357129211668" lon="10.80430150018526"><ele>23.0</ele><time>2026-04-25T09:17:50Z</time></trkpt><trkpt lat="43.87353983199524" lon="10.80439393436536"><ele>22.833333333333336</ele><time>2026-04-25T09:17:51Z</time></trkpt><trkpt lat="43.87351009212331" lon="10.804485800625732"><ele>22.666666666666668</ele><time>2026-04-25T09:17:52Z</time></trkpt><trkpt lat="43.873475087282564" lon="10.804578301732958"><ele>22.5</ele><time>2026-04-25T09:17:53Z</time></trkpt><trkpt lat="43.87343819990561" lon="10.804675382717067"><ele>22.333333333333332</ele><time>2026-04-25T09:17:54Z</time></trkpt><trkpt lat="43.87340072490954" lon="10.804771609999323"><ele>22.166666666666664</ele><time>2026-04-25T09:17:55Z</time></trkpt><trkpt lat="43.87336373317098" lon="10.804871003759033"><ele>22.0</ele><time>2026-04-25T09:17:56Z</time></trkpt><trkpt lat="43.87333127362371" lon="10.804976813264904"><ele>22.0</ele><time>2026-04-25T09:17:57Z</time></trkpt><trkpt lat="43.87329931739677" lon="10.80507603658217"><ele>22.0</ele><time>2026-04-25T09:17:58Z</time></trkpt><trkpt lat="43.87326712618219" lon="10.805169243064926"><ele>22.0</ele><time>2026-04-25T09:17:59Z</time></trkpt><trkpt lat="43.873239015625145" lon="10.805265635932916"><ele>22.0</ele><time>2026-04-25T09:18:00Z</time></trkpt><trkpt lat="43.87320831180458" lon="10.805356359376516"><ele>22.0</ele><time>2026-04-25T09:18:01Z</time></trkpt><trkpt lat="43.873178424930764" lon="10.805445604578972"><ele>22.0</ele><time>2026-04-25T09:18:02Z</time></trkpt><trkpt lat="43.87315282158853" lon="10.805536156746587"><ele>22.0</ele><time>2026-04-25T09:18:03Z</time></trkpt><trkpt lat="43.87312648097944" lon="10.805623731705818"><ele>22.0</ele><time>2026-04-25T09:18:04Z</time></trkpt><trkpt lat="43.87309945960479" lon="10.805705991558074"><ele>22.0</ele><time>2026-04-25T09:18:05Z</time></trkpt><trkpt lat="43.87306889044486" lon="10.805786466306502"><ele>22.0</ele><time>2026-04-25T09:18:06Z</time></trkpt><trkpt lat="43.87304366872414" lon="10.805871327707733"><ele>22.0</ele><time>2026-04-25T09:18:07Z</time></trkpt><trkpt lat="43.87301498561762" lon="10.8059563474245"><ele>22.0</ele><time>2026-04-25T09:18:08Z</time></trkpt><trkpt lat="43.872987738255" lon="10.806051347084555"><ele>22.0</ele><time>2026-04-25T09:18:09Z</time></trkpt><trkpt lat="43.872956241447305" lon="10.80614103164042"><ele>22.0</ele><time>2026-04-25T09:18:10Z</time></trkpt><trkpt lat="43.87292418764172" lon="10.80624082190631"><ele>22.166666666666664</ele><time>2026-04-25T09:18:11Z</time></trkpt><trkpt lat="43.872890519789316" lon="10.806335862305652"><ele>22.333333333333332</ele><time>2026-04-25T09:18:12Z</time></trkpt><trkpt lat="43.87285968332982" lon="10.806433188596351"><ele>22.5</ele><time>2026-04-25T09:18:13Z</time></trkpt><trkpt lat="43.8728313208699" lon="10.80653316472415"><ele>22.666666666666668</ele><time>2026-04-25T09:18:14Z</time></trkpt><trkpt lat="43.87280527680492" lon="10.806627908953294"><ele>22.833333333333336</ele><time>2026-04-25T09:18:15Z</time></trkpt><trkpt lat="43.87277430986064" lon="10.806726026096575"><ele>23.0</ele><time>2026-04-25T09:18:16Z</time></trkpt><trkpt lat="43.87274163691724" lon="10.806825172690587"><ele>22.833333333333336</ele><time>2026-04-25T09:18:17Z</time></trkpt><trkpt lat="43.87270666624277" lon="10.806923650828487"><ele>22.666666666666668</ele><time>2026-04-25T09:18:17.999Z</time></trkpt><trkpt lat="43.87267191247405" lon="10.807015975923724"><ele>22.5</ele><time>2026-04-25T09:18:18.999Z</time></trkpt><trkpt lat="43.872637459096694" lon="10.807113847476648"><ele>22.333333333333332</ele><time>2026-04-25T09:18:19.999Z</time></trkpt><trkpt lat="43.872606232372135" lon="10.80721193550837"><ele>22.166666666666664</ele><time>2026-04-25T09:18:20.999Z</time></trkpt><trkpt lat="43.87257468674014" lon="10.807309885669245"><ele>22.0</ele><time>2026-04-25T09:18:21.999Z</time></trkpt><trkpt lat="43.87254319946101" lon="10.807408866522543"><ele>22.0</ele><time>2026-04-25T09:18:22.999Z</time></trkpt><trkpt lat="43.87251066606675" lon="10.807507947921938"><ele>22.0</ele><time>2026-04-25T09:18:23.999Z</time></trkpt><trkpt lat="43.872480091753886" lon="10.807608365707981"><ele>22.0</ele><time>2026-04-25T09:18:24.999Z</time></trkpt><trkpt lat="43.872455285865605" lon="10.807715680788565"><ele>22.0</ele><time>2026-04-25T09:18:25.999Z</time></trkpt><trkpt lat="43.87242529425698" lon="10.807817711690937"><ele>22.0</ele><time>2026-04-25T09:18:26.999Z</time></trkpt><trkpt lat="43.872396068842455" lon="10.807917897204204"><ele>22.0</ele><time>2026-04-25T09:18:27.999Z</time></trkpt><trkpt lat="43.8723640171319" lon="10.808020187521246"><ele>22.0</ele><time>2026-04-25T09:18:28.999Z</time></trkpt><trkpt lat="43.87232674333602" lon="10.80811855685317"><ele>22.0</ele><time>2026-04-25T09:18:29.999Z</time></trkpt><trkpt lat="43.872295976262215" lon="10.808211412113662"><ele>22.0</ele><time>2026-04-25T09:18:30.999Z</time></trkpt><trkpt lat="43.87227694750552" lon="10.808314393350155"><ele>22.0</ele><time>2026-04-25T09:18:31.999Z</time></trkpt><trkpt lat="43.8722482224875" lon="10.808403198046458"><ele>22.0</ele><time>2026-04-25T09:18:32.999Z</time></trkpt><trkpt lat="43.872219289775494" lon="10.8084993416035"><ele>22.0</ele><time>2026-04-25T09:18:33.999Z</time></trkpt><trkpt lat="43.872196368361365" lon="10.80859371136259"><ele>22.0</ele><time>2026-04-25T09:18:34.999Z</time></trkpt><trkpt lat="43.87217062883822" lon="10.8086877299119"><ele>22.0</ele><time>2026-04-25T09:18:35.999Z</time></trkpt><trkpt lat="43.87213964826861" lon="10.808774551574047"><ele>22.0</ele><time>2026-04-25T09:18:36.999Z</time></trkpt><trkpt lat="43.872111081328335" lon="10.808867024595022"><ele>22.0</ele><time>2026-04-25T09:18:37.999Z</time></trkpt><trkpt lat="43.872084890004444" lon="10.808950093551601"><ele>22.0</ele><time>2026-04-25T09:18:38.999Z</time></trkpt><trkpt lat="43.872063165788994" lon="10.80904081885038"><ele>22.0</ele><time>2026-04-25T09:18:39.999Z</time></trkpt><trkpt lat="43.87203662556759" lon="10.809129623358793"><ele>22.0</ele><time>2026-04-25T09:18:40.999Z</time></trkpt><trkpt lat="43.87200877695491" lon="10.80922256975409"><ele>22.0</ele><time>2026-04-25T09:18:41.999Z</time></trkpt><trkpt lat="43.8719809102728" lon="10.809313804000373"><ele>21.857142857142858</ele><time>2026-04-25T09:18:42.999Z</time></trkpt><trkpt lat="43.871950581594675" lon="10.809404460032663"><ele>21.714285714285715</ele><time>2026-04-25T09:18:43.999Z</time></trkpt><trkpt lat="43.87191810475029" lon="10.809500266621601"><ele>21.57142857142857</ele><time>2026-04-25T09:18:44.999Z</time></trkpt><trkpt lat="43.8718851751376" lon="10.809597532820678"><ele>21.42857142857143</ele><time>2026-04-25T09:18:45.999Z</time></trkpt><trkpt lat="43.87184893567236" lon="10.809689428762141"><ele>21.285714285714285</ele><time>2026-04-25T09:18:46.999Z</time></trkpt><trkpt lat="43.87181994967094" lon="10.809779424557718"><ele>21.142857142857142</ele><time>2026-04-25T09:18:47.999Z</time></trkpt><trkpt lat="43.87179540984075" lon="10.809871160668049"><ele>21.0</ele><time>2026-04-25T09:18:48.999Z</time></trkpt><trkpt lat="43.87177007508362" lon="10.809959330719158"><ele>21.0</ele><time>2026-04-25T09:18:49.999Z</time></trkpt><trkpt lat="43.871745632132416" lon="10.8100442100317"><ele>21.0</ele><time>2026-04-25T09:18:50.999Z</time></trkpt><trkpt lat="43.87172253864307" lon="10.810128700226818"><ele>21.0</ele><time>2026-04-25T09:18:51.999Z</time></trkpt><trkpt lat="43.87168026338985" lon="10.810293902653807"><ele>21.0</ele><time>2026-04-25T09:18:53.999Z</time></trkpt><trkpt lat="43.87160166146195" lon="10.810402471518984"><ele>21.0</ele><time>2026-04-25T09:18:55.999Z</time></trkpt><trkpt lat="43.87153320192828" lon="10.810388079334704"><ele>21.0</ele><time>2026-04-25T09:18:56.999Z</time></trkpt><trkpt lat="43.87147586248821" lon="10.810340553974084"><ele>21.0</ele><time>2026-04-25T09:18:57.999Z</time></trkpt><trkpt lat="43.871418782309306" lon="10.810287633688088"><ele>21.0</ele><time>2026-04-25T09:18:58.999Z</time></trkpt><trkpt lat="43.87135537867682" lon="10.810259224922357"><ele>21.0</ele><time>2026-04-25T09:18:59.999Z</time></trkpt><trkpt lat="43.871290545309044" lon="10.810238487532319"><ele>21.0</ele><time>2026-04-25T09:19:00.999Z</time></trkpt><trkpt lat="43.87122140400928" lon="10.81021810603716"><ele>21.0</ele><time>2026-04-25T09:19:01.999Z</time></trkpt><trkpt lat="43.8711546167846" lon="10.810212371626283"><ele>21.0</ele><time>2026-04-25T09:19:02.999Z</time></trkpt><trkpt lat="43.87108135900154" lon="10.810184985182993"><ele>21.0</ele><time>2026-04-25T09:19:03.999Z</time></trkpt><trkpt lat="43.87101281854898" lon="10.810150537705914"><ele>21.0</ele><time>2026-04-25T09:19:04.999Z</time></trkpt><trkpt lat="43.87094273966159" lon="10.810124103915102"><ele>21.0</ele><time>2026-04-25T09:19:05.999Z</time></trkpt><trkpt lat="43.87087937620005" lon="10.810098301926065"><ele>21.0</ele><time>2026-04-25T09:19:06.999Z</time></trkpt><trkpt lat="43.870814726083005" lon="10.810065651333776"><ele>21.0</ele><time>2026-04-25T09:19:07.999Z</time></trkpt><trkpt lat="43.87075159273198" lon="10.810028930024872"><ele>21.0</ele><time>2026-04-25T09:19:08.999Z</time></trkpt><trkpt lat="43.87068561956954" lon="10.80999931713945"><ele>21.0</ele><time>2026-04-25T09:19:09.999Z</time></trkpt><trkpt lat="43.87062205571214" lon="10.809883599038352"><ele>21.0</ele><time>2026-04-25T09:19:11.999Z</time></trkpt><trkpt lat="43.87066962872379" lon="10.809740802738313"><ele>21.0</ele><time>2026-04-25T09:19:13.999Z</time></trkpt><trkpt lat="43.87071505072601" lon="10.809650074701477"><ele>21.0</ele><time>2026-04-25T09:19:15.999Z</time></trkpt><trkpt lat="43.87066731268427" lon="10.809724747944683"><ele>21.0</ele><time>2026-04-25T09:19:21.998Z</time></trkpt><trkpt lat="43.87062441241857" lon="10.809820504669384"><ele>21.0</ele><time>2026-04-25T09:20:22Z</time></trkpt><trkpt lat="43.87058569630168" lon="10.809939382976648"><ele>21.0</ele><time>2026-04-25T09:20:25Z</time></trkpt><trkpt lat="43.87049055057489" lon="10.809944575353333"><ele>21.0</ele><time>2026-04-25T09:20:27.999Z</time></trkpt><trkpt lat="43.87039830294219" lon="10.809893410993526"><ele>21.0</ele><time>2026-04-25T09:20:29.999Z</time></trkpt><trkpt lat="43.87029355479908" lon="10.809851957670503"><ele>21.0</ele><time>2026-04-25T09:20:31.999Z</time></trkpt><trkpt lat="43.87018028133481" lon="10.809821113887391"><ele>21.0</ele><time>2026-04-25T09:20:33.999Z</time></trkpt><trkpt lat="43.87011683539656" lon="10.809797767882682"><ele>21.0</ele><time>2026-04-25T09:20:34.999Z</time></trkpt><trkpt lat="43.86999302654145" lon="10.80975553507426"><ele>21.0</ele><time>2026-04-25T09:20:36.999Z</time></trkpt><trkpt lat="43.86993084786732" lon="10.809729660074353"><ele>21.0</ele><time>2026-04-25T09:20:37.999Z</time></trkpt><trkpt lat="43.86986265883118" lon="10.809700202681043"><ele>21.0</ele><time>2026-04-25T09:20:38.999Z</time></trkpt><trkpt lat="43.86979036708992" lon="10.809672044320054"><ele>21.0</ele><time>2026-04-25T09:20:39.999Z</time></trkpt><trkpt lat="43.869717645476484" lon="10.809642260744036"><ele>21.0</ele><time>2026-04-25T09:20:40.999Z</time></trkpt><trkpt lat="43.86964235963516" lon="10.809617727947256"><ele>21.0</ele><time>2026-04-25T09:20:41.999Z</time></trkpt><trkpt lat="43.86957125407363" lon="10.809594228242327"><ele>21.0</ele><time>2026-04-25T09:20:42.999Z</time></trkpt><trkpt lat="43.86950722148743" lon="10.809573926996416"><ele>21.0</ele><time>2026-04-25T09:20:43.999Z</time></trkpt><trkpt lat="43.869439879393646" lon="10.809552799870424"><ele>21.0</ele><time>2026-04-25T09:20:44.999Z</time></trkpt><trkpt lat="43.869378485502985" lon="10.809531066027999"><ele>21.0</ele><time>2026-04-25T09:20:45.999Z</time></trkpt><trkpt lat="43.869315912547414" lon="10.809506226042792"><ele>21.0</ele><time>2026-04-25T09:20:46.999Z</time></trkpt><trkpt lat="43.86919607963906" lon="10.809446276866998"><ele>21.0</ele><time>2026-04-25T09:20:48.999Z</time></trkpt><trkpt lat="43.869129958730824" lon="10.809418717625233"><ele>21.0</ele><time>2026-04-25T09:20:49.999Z</time></trkpt><trkpt lat="43.869065488570854" lon="10.80938514144257"><ele>20.833333333333332</ele><time>2026-04-25T09:20:50.999Z</time></trkpt><trkpt lat="43.86899596149776" lon="10.809362395851577"><ele>20.666666666666668</ele><time>2026-04-25T09:20:51.999Z</time></trkpt><trkpt lat="43.8688671301393" lon="10.809313035082086"><ele>20.5</ele><time>2026-04-25T09:20:53.999Z</time></trkpt><trkpt lat="43.868790047406506" lon="10.80928226789257"><ele>20.333333333333336</ele><time>2026-04-25T09:20:54.999Z</time></trkpt><trkpt lat="43.868723018601415" lon="10.809257519866799"><ele>20.166666666666668</ele><time>2026-04-25T09:20:55.999Z</time></trkpt><trkpt lat="43.86865730053566" lon="10.809229597968596"><ele>20.0</ele><time>2026-04-25T09:20:56.999Z</time></trkpt><trkpt lat="43.86858311750851" lon="10.809200947047175"><ele>19.857142857142858</ele><time>2026-04-25T09:20:57.999Z</time></trkpt><trkpt lat="43.868517091047764" lon="10.809161971428766"><ele>19.714285714285715</ele><time>2026-04-25T09:20:58.999Z</time></trkpt><trkpt lat="43.8684470474946" lon="10.809126880154182"><ele>19.57142857142857</ele><time>2026-04-25T09:20:59.999Z</time></trkpt><trkpt lat="43.86837394849355" lon="10.80910432180782"><ele>19.42857142857143</ele><time>2026-04-25T09:21:00.999Z</time></trkpt><trkpt lat="43.86830275135677" lon="10.809083225240718"><ele>19.28571428571429</ele><time>2026-04-25T09:21:01.999Z</time></trkpt><trkpt lat="43.868231820058774" lon="10.809056042494172"><ele>19.142857142857142</ele><time>2026-04-25T09:21:02.999Z</time></trkpt><trkpt lat="43.868162662757186" lon="10.809025322146406"><ele>19.0</ele><time>2026-04-25T09:21:03.999Z</time></trkpt><trkpt lat="43.86808981373189" lon="10.80899399986139"><ele>19.0</ele><time>2026-04-25T09:21:04.999Z</time></trkpt><trkpt lat="43.86801985208199" lon="10.80897071841046"><ele>19.0</ele><time>2026-04-25T09:21:05.999Z</time></trkpt><trkpt lat="43.86794906392019" lon="10.808946917951339"><ele>19.0</ele><time>2026-04-25T09:21:06.999Z</time></trkpt><trkpt lat="43.86787550542864" lon="10.808918444715246"><ele>19.0</ele><time>2026-04-25T09:21:07.999Z</time></trkpt><trkpt lat="43.8678095041957" lon="10.808893516298244"><ele>19.0</ele><time>2026-04-25T09:21:08.999Z</time></trkpt><trkpt lat="43.867740609915316" lon="10.808861810936975"><ele>19.0</ele><time>2026-04-25T09:21:09.999Z</time></trkpt><trkpt lat="43.86767114830368" lon="10.808829095314856"><ele>19.0</ele><time>2026-04-25T09:21:10.999Z</time></trkpt><trkpt lat="43.86759766791732" lon="10.808797837430792"><ele>19.0</ele><time>2026-04-25T09:21:11.999Z</time></trkpt><trkpt lat="43.86752430703877" lon="10.80877639999972"><ele>19.0</ele><time>2026-04-25T09:21:12.999Z</time></trkpt><trkpt lat="43.86745279589959" lon="10.808751009769903"><ele>19.0</ele><time>2026-04-25T09:21:13.999Z</time></trkpt><trkpt lat="43.86737612385286" lon="10.808727850552469"><ele>19.0</ele><time>2026-04-25T09:21:14.999Z</time></trkpt><trkpt lat="43.86729932479527" lon="10.80872194799712"><ele>19.0</ele><time>2026-04-25T09:21:15.999Z</time></trkpt><trkpt lat="43.867227203722706" lon="10.808723791111309"><ele>19.0</ele><time>2026-04-25T09:21:16.999Z</time></trkpt><trkpt lat="43.86714585225596" lon="10.808708772276901"><ele>19.0</ele><time>2026-04-25T09:21:17.999Z</time></trkpt><trkpt lat="43.86707334046711" lon="10.80867445792217"><ele>19.0</ele><time>2026-04-25T09:21:18.999Z</time></trkpt><trkpt lat="43.86700021746569" lon="10.808639746116361"><ele>19.0</ele><time>2026-04-25T09:21:19.999Z</time></trkpt><trkpt lat="43.86693129121785" lon="10.808603326796987"><ele>19.0</ele><time>2026-04-25T09:21:20.999Z</time></trkpt><trkpt lat="43.866861394486676" lon="10.808558390091259"><ele>19.0</ele><time>2026-04-25T09:21:21.999Z</time></trkpt><trkpt lat="43.86679542019056" lon="10.808512276010264"><ele>19.0</ele><time>2026-04-25T09:21:22.999Z</time></trkpt><trkpt lat="43.866723417803236" lon="10.80847260545158"><ele>18.833333333333332</ele><time>2026-04-25T09:21:23.999Z</time></trkpt><trkpt lat="43.866647207917254" lon="10.808453833968995"><ele>18.666666666666664</ele><time>2026-04-25T09:21:24.999Z</time></trkpt><trkpt lat="43.86657268025288" lon="10.808437763222493"><ele>18.5</ele><time>2026-04-25T09:21:25.999Z</time></trkpt><trkpt lat="43.866505055574514" lon="10.808405950892595"><ele>18.333333333333332</ele><time>2026-04-25T09:21:26.999Z</time></trkpt><trkpt lat="43.8664275786982" lon="10.808373351327624"><ele>18.166666666666668</ele><time>2026-04-25T09:21:27.998Z</time></trkpt><trkpt lat="43.866356218381604" lon="10.808340220749965"><ele>18.0</ele><time>2026-04-25T09:21:28.998Z</time></trkpt><trkpt lat="43.86628188811411" lon="10.808303351448503"><ele>18.0</ele><time>2026-04-25T09:21:29.998Z</time></trkpt><trkpt lat="43.866209551770865" lon="10.8082737451055"><ele>18.0</ele><time>2026-04-25T09:21:30.998Z</time></trkpt><trkpt lat="43.86613977721306" lon="10.808240902400417"><ele>18.0</ele><time>2026-04-25T09:21:31.998Z</time></trkpt><trkpt lat="43.86609095455292" lon="10.80815799738191"><ele>18.0</ele><time>2026-04-25T09:21:32.998Z</time></trkpt><trkpt lat="43.86609097642733" lon="10.808047186466315"><ele>18.0</ele><time>2026-04-25T09:21:33.998Z</time></trkpt><trkpt lat="43.86612661166605" lon="10.80794261812894"><ele>18.0</ele><time>2026-04-25T09:21:34.998Z</time></trkpt><trkpt lat="43.86616554364707" lon="10.80785704627817"><ele>18.0</ele><time>2026-04-25T09:21:35.998Z</time></trkpt><trkpt lat="43.86619797034229" lon="10.807764974013908"><ele>18.0</ele><time>2026-04-25T09:21:36.998Z</time></trkpt><trkpt lat="43.86621610891299" lon="10.807665120919316"><ele>18.0</ele><time>2026-04-25T09:21:37.998Z</time></trkpt><trkpt lat="43.8662284709673" lon="10.807563320811624"><ele>18.0</ele><time>2026-04-25T09:21:38.998Z</time></trkpt><trkpt lat="43.8662445065063" lon="10.807454435671502"><ele>18.0</ele><time>2026-04-25T09:21:39.998Z</time></trkpt><trkpt lat="43.86626328136252" lon="10.807350625407171"><ele>18.0</ele><time>2026-04-25T09:21:40.998Z</time></trkpt><trkpt lat="43.86627995043521" lon="10.807253382144149"><ele>18.000000000000004</ele><time>2026-04-25T09:21:41.998Z</time></trkpt><trkpt lat="43.86629971676492" lon="10.807151119726692"><ele>18.0</ele><time>2026-04-25T09:21:42.998Z</time></trkpt><trkpt lat="43.86631673826151" lon="10.807047409171295"><ele>18.0</ele><time>2026-04-25T09:21:43.998Z</time></trkpt><trkpt lat="43.866330079043266" lon="10.80695249326565"><ele>18.0</ele><time>2026-04-25T09:21:44.998Z</time></trkpt><trkpt lat="43.866348321600924" lon="10.80685491503998"><ele>18.0</ele><time>2026-04-25T09:21:45.998Z</time></trkpt><trkpt lat="43.86636076232725" lon="10.806759035309124"><ele>18.000000000000004</ele><time>2026-04-25T09:21:47Z</time></trkpt><trkpt lat="43.86637247892036" lon="10.806657364413311"><ele>18.0</ele><time>2026-04-25T09:21:48Z</time></trkpt><trkpt lat="43.86639081961182" lon="10.80655865444123"><ele>18.000000000000004</ele><time>2026-04-25T09:21:49Z</time></trkpt><trkpt lat="43.86640868739711" lon="10.806462954674593"><ele>18.0</ele><time>2026-04-25T09:21:50Z</time></trkpt><trkpt lat="43.86642729345031" lon="10.806365456543917"><ele>18.0</ele><time>2026-04-25T09:21:51Z</time></trkpt><trkpt lat="43.86644449574727" lon="10.80626936199805"><ele>18.0</ele><time>2026-04-25T09:21:52Z</time></trkpt><trkpt lat="43.86646516840725" lon="10.806175143575029"><ele>18.0</ele><time>2026-04-25T09:21:53Z</time></trkpt><trkpt lat="43.86647833190509" lon="10.80607287174148"><ele>18.000000000000004</ele><time>2026-04-25T09:21:54Z</time></trkpt><trkpt lat="43.866494443324875" lon="10.80597436034852"><ele>18.0</ele><time>2026-04-25T09:21:55Z</time></trkpt><trkpt lat="43.86651089781297" lon="10.805883864069093"><ele>18.0</ele><time>2026-04-25T09:21:56Z</time></trkpt><trkpt lat="43.86654227715825" lon="10.805790271572738"><ele>18.0</ele><time>2026-04-25T09:21:57Z</time></trkpt><trkpt lat="43.86657490705512" lon="10.805699570732294"><ele>18.0</ele><time>2026-04-25T09:21:58Z</time></trkpt><trkpt lat="43.86657008954453" lon="10.805601779824311"><ele>18.0</ele><time>2026-04-25T09:21:59Z</time></trkpt><trkpt lat="43.866510859183585" lon="10.805524822139354"><ele>18.0</ele><time>2026-04-25T09:22:00Z</time></trkpt><trkpt lat="43.86643134284164" lon="10.805485388568991"><ele>18.0</ele><time>2026-04-25T09:22:01Z</time></trkpt><trkpt lat="43.8663560355005" lon="10.805489603634129"><ele>18.000000000000004</ele><time>2026-04-25T09:22:02Z</time></trkpt><trkpt lat="43.86628038374674" lon="10.805496927013268"><ele>18.0</ele><time>2026-04-25T09:22:03Z</time></trkpt><trkpt lat="43.86621013327074" lon="10.805495863054029"><ele>18.0</ele><time>2026-04-25T09:22:04Z</time></trkpt><trkpt lat="43.86614126917437" lon="10.805481196204779"><ele>18.0</ele><time>2026-04-25T09:22:05Z</time></trkpt><trkpt lat="43.86607051304061" lon="10.805456219741682"><ele>18.0</ele><time>2026-04-25T09:22:06Z</time></trkpt><trkpt lat="43.86600107340304" lon="10.805426931430222"><ele>18.000000000000004</ele><time>2026-04-25T09:22:07Z</time></trkpt><trkpt lat="43.865931965844716" lon="10.805405017781208"><ele>18.0</ele><time>2026-04-25T09:22:08Z</time></trkpt><trkpt lat="43.86585980709407" lon="10.805381192450119"><ele>17.833333333333332</ele><time>2026-04-25T09:22:09Z</time></trkpt><trkpt lat="43.8657885203925" lon="10.80535977200763"><ele>17.666666666666668</ele><time>2026-04-25T09:22:10Z</time></trkpt><trkpt lat="43.8657115168351" lon="10.80534439373065"><ele>17.5</ele><time>2026-04-25T09:22:11Z</time></trkpt><trkpt lat="43.865638616135946" lon="10.805325700163833"><ele>17.333333333333336</ele><time>2026-04-25T09:22:12Z</time></trkpt><trkpt lat="43.86556922028494" lon="10.805297293171716"><ele>17.166666666666668</ele><time>2026-04-25T09:22:13Z</time></trkpt><trkpt lat="43.86549441287206" lon="10.805266070938991"><ele>17.0</ele><time>2026-04-25T09:22:14Z</time></trkpt><trkpt lat="43.86541875294236" lon="10.805252248569204"><ele>17.0</ele><time>2026-04-25T09:22:15Z</time></trkpt><trkpt lat="43.86534431586546" lon="10.805235174099012"><ele>17.0</ele><time>2026-04-25T09:22:16Z</time></trkpt><trkpt lat="43.865265244363215" lon="10.805224086979038"><ele>17.0</ele><time>2026-04-25T09:22:17Z</time></trkpt><trkpt lat="43.8651899475185" lon="10.805207355463805"><ele>17.0</ele><time>2026-04-25T09:22:18Z</time></trkpt><trkpt lat="43.86511486266594" lon="10.805186277789321"><ele>17.0</ele><time>2026-04-25T09:22:19Z</time></trkpt><trkpt lat="43.865039947427675" lon="10.805154071116402"><ele>17.0</ele><time>2026-04-25T09:22:20Z</time></trkpt><trkpt lat="43.86496336808023" lon="10.805136285072496"><ele>17.0</ele><time>2026-04-25T09:22:21Z</time></trkpt><trkpt lat="43.86488624673438" lon="10.805121393653522"><ele>17.0</ele><time>2026-04-25T09:22:22Z</time></trkpt><trkpt lat="43.864810468113426" lon="10.805099686241837"><ele>17.0</ele><time>2026-04-25T09:22:23Z</time></trkpt><trkpt lat="43.86473491589143" lon="10.805076513364533"><ele>17.0</ele><time>2026-04-25T09:22:24Z</time></trkpt><trkpt lat="43.86465640957775" lon="10.805053887234813"><ele>17.0</ele><time>2026-04-25T09:22:25Z</time></trkpt><trkpt lat="43.86458352253356" lon="10.805026725079095"><ele>17.0</ele><time>2026-04-25T09:22:26Z</time></trkpt><trkpt lat="43.86450933297548" lon="10.804993488811704"><ele>17.0</ele><time>2026-04-25T09:22:27Z</time></trkpt><trkpt lat="43.8644369336332" lon="10.804966193783223"><ele>17.0</ele><time>2026-04-25T09:22:28Z</time></trkpt><trkpt lat="43.86436799662916" lon="10.804937295806061"><ele>17.0</ele><time>2026-04-25T09:22:29Z</time></trkpt><trkpt lat="43.8642980087757" lon="10.804910884349322"><ele>17.0</ele><time>2026-04-25T09:22:30Z</time></trkpt><trkpt lat="43.86421653253868" lon="10.804883717249405"><ele>17.0</ele><time>2026-04-25T09:22:31Z</time></trkpt><trkpt lat="43.8641407688425" lon="10.804858245475346"><ele>17.0</ele><time>2026-04-25T09:22:31.999Z</time></trkpt><trkpt lat="43.86406796113121" lon="10.804832310524407"><ele>16.999999999999996</ele><time>2026-04-25T09:22:32.999Z</time></trkpt><trkpt lat="43.86399663495383" lon="10.804809552780242"><ele>17.0</ele><time>2026-04-25T09:22:33.999Z</time></trkpt><trkpt lat="43.86392553320658" lon="10.804778742206786"><ele>17.0</ele><time>2026-04-25T09:22:34.999Z</time></trkpt><trkpt lat="43.86385379452785" lon="10.80474936541769"><ele>17.0</ele><time>2026-04-25T09:22:35.999Z</time></trkpt><trkpt lat="43.86377817900493" lon="10.804732601517024"><ele>17.0</ele><time>2026-04-25T09:22:36.999Z</time></trkpt><trkpt lat="43.86370807621921" lon="10.804715956916978"><ele>16.999999999999996</ele><time>2026-04-25T09:22:37.999Z</time></trkpt><trkpt lat="43.86363052542983" lon="10.804696117285882"><ele>17.0</ele><time>2026-04-25T09:22:38.999Z</time></trkpt><trkpt lat="43.8635563622979" lon="10.80467009937447"><ele>17.0</ele><time>2026-04-25T09:22:39.999Z</time></trkpt><trkpt lat="43.863481498113885" lon="10.804650690948618"><ele>17.0</ele><time>2026-04-25T09:22:40.999Z</time></trkpt><trkpt lat="43.86340563924771" lon="10.804629287385712"><ele>17.0</ele><time>2026-04-25T09:22:41.999Z</time></trkpt><trkpt lat="43.86333219016594" lon="10.804606971325446"><ele>17.0</ele><time>2026-04-25T09:22:42.999Z</time></trkpt><trkpt lat="43.86325766087907" lon="10.804583418732692"><ele>17.0</ele><time>2026-04-25T09:22:43.999Z</time></trkpt><trkpt lat="43.863188071211695" lon="10.804556040457527"><ele>17.0</ele><time>2026-04-25T09:22:44.999Z</time></trkpt><trkpt lat="43.86311133455399" lon="10.80452868643182"><ele>16.833333333333336</ele><time>2026-04-25T09:22:45.999Z</time></trkpt><trkpt lat="43.86303808187969" lon="10.804501938293756"><ele>16.666666666666668</ele><time>2026-04-25T09:22:46.999Z</time></trkpt><trkpt lat="43.86296239625777" lon="10.804472817119825"><ele>16.5</ele><time>2026-04-25T09:22:47.999Z</time></trkpt><trkpt lat="43.86289078282265" lon="10.804440756647503"><ele>16.333333333333332</ele><time>2026-04-25T09:22:48.999Z</time></trkpt><trkpt lat="43.86281909079444" lon="10.804412293834027"><ele>16.166666666666664</ele><time>2026-04-25T09:22:49.999Z</time></trkpt><trkpt lat="43.86274631763989" lon="10.80439044995906"><ele>16.0</ele><time>2026-04-25T09:22:50.999Z</time></trkpt><trkpt lat="43.86267496442859" lon="10.80436407779897"><ele>15.999999999999998</ele><time>2026-04-25T09:22:51.999Z</time></trkpt><trkpt lat="43.86260283792775" lon="10.804335246503168"><ele>16.0</ele><time>2026-04-25T09:22:52.999Z</time></trkpt><trkpt lat="43.86253011361346" lon="10.80430623542666"><ele>16.0</ele><time>2026-04-25T09:22:53.999Z</time></trkpt><trkpt lat="43.862461685501614" lon="10.804279336272801"><ele>16.0</ele><time>2026-04-25T09:22:54.999Z</time></trkpt><trkpt lat="43.86239147960229" lon="10.8042412454426"><ele>15.999999999999998</ele><time>2026-04-25T09:22:55.999Z</time></trkpt><trkpt lat="43.86231832484463" lon="10.804213209616616"><ele>16.0</ele><time>2026-04-25T09:22:56.999Z</time></trkpt><trkpt lat="43.86224401541649" lon="10.804186680805083"><ele>16.166666666666664</ele><time>2026-04-25T09:22:57.999Z</time></trkpt><trkpt lat="43.86217292691526" lon="10.804161771203814"><ele>16.333333333333332</ele><time>2026-04-25T09:22:58.999Z</time></trkpt><trkpt lat="43.86209926146152" lon="10.804132961294073"><ele>16.5</ele><time>2026-04-25T09:22:59.999Z</time></trkpt><trkpt lat="43.86202730041504" lon="10.804106998343201"><ele>16.666666666666668</ele><time>2026-04-25T09:23:00.999Z</time></trkpt><trkpt lat="43.86194717388855" lon="10.804080073919003"><ele>16.833333333333336</ele><time>2026-04-25T09:23:01.999Z</time></trkpt><trkpt lat="43.8618744738379" lon="10.804060242643327"><ele>17.0</ele><time>2026-04-25T09:23:02.999Z</time></trkpt><trkpt lat="43.861797161042155" lon="10.804031975154984"><ele>16.666666666666668</ele><time>2026-04-25T09:23:03.999Z</time></trkpt><trkpt lat="43.86172254153327" lon="10.80400444213164"><ele>16.333333333333336</ele><time>2026-04-25T09:23:04.999Z</time></trkpt><trkpt lat="43.861645284008134" lon="10.803981762821381"><ele>16.0</ele><time>2026-04-25T09:23:05.999Z</time></trkpt><trkpt lat="43.86157533814878" lon="10.80394800807301"><ele>15.666666666666668</ele><time>2026-04-25T09:23:06.999Z</time></trkpt><trkpt lat="43.86149893155897" lon="10.803916252784347"><ele>15.333333333333334</ele><time>2026-04-25T09:23:07.999Z</time></trkpt><trkpt lat="43.8614234594074" lon="10.803890243279586"><ele>15.0</ele><time>2026-04-25T09:23:08.999Z</time></trkpt><trkpt lat="43.86134605050467" lon="10.803856382386593"><ele>15.0</ele><time>2026-04-25T09:23:09.999Z</time></trkpt><trkpt lat="43.861269102538586" lon="10.8038318432031"><ele>15.0</ele><time>2026-04-25T09:23:10.999Z</time></trkpt><trkpt lat="43.86119712158666" lon="10.803804903131569"><ele>15.0</ele><time>2026-04-25T09:23:11.999Z</time></trkpt><trkpt lat="43.861118002946945" lon="10.803775549274745"><ele>15.0</ele><time>2026-04-25T09:23:12.999Z</time></trkpt><trkpt lat="43.861036089405516" lon="10.803744590924214"><ele>15.0</ele><time>2026-04-25T09:23:13.999Z</time></trkpt><trkpt lat="43.860961928377726" lon="10.803716087894466"><ele>15.0</ele><time>2026-04-25T09:23:14.999Z</time></trkpt><trkpt lat="43.86088632695261" lon="10.803688699829916"><ele>15.166666666666666</ele><time>2026-04-25T09:23:15.999Z</time></trkpt><trkpt lat="43.86080550169684" lon="10.803660663906587"><ele>15.333333333333332</ele><time>2026-04-25T09:23:16.999Z</time></trkpt><trkpt lat="43.86072929647446" lon="10.803637686558936"><ele>15.5</ele><time>2026-04-25T09:23:17.999Z</time></trkpt><trkpt lat="43.860654390634714" lon="10.803614776727496"><ele>15.666666666666666</ele><time>2026-04-25T09:23:18.999Z</time></trkpt><trkpt lat="43.860575241743234" lon="10.803583917773782"><ele>15.833333333333332</ele><time>2026-04-25T09:23:19.999Z</time></trkpt><trkpt lat="43.860493943330205" lon="10.803560897154432"><ele>16.0</ele><time>2026-04-25T09:23:20.999Z</time></trkpt><trkpt lat="43.86041926521301" lon="10.803537664377673"><ele>15.999999999999998</ele><time>2026-04-25T09:23:21.999Z</time></trkpt><trkpt lat="43.86034396074555" lon="10.803507082894633"><ele>16.0</ele><time>2026-04-25T09:23:22.999Z</time></trkpt><trkpt lat="43.86026680847327" lon="10.803482168830675"><ele>16.0</ele><time>2026-04-25T09:23:23.999Z</time></trkpt><trkpt lat="43.8601839861521" lon="10.803454483970738"><ele>16.0</ele><time>2026-04-25T09:23:24.999Z</time></trkpt><trkpt lat="43.86011352780889" lon="10.803433847447069"><ele>15.999999999999998</ele><time>2026-04-25T09:23:25.999Z</time></trkpt><trkpt lat="43.86003971023789" lon="10.803408526459192"><ele>16.0</ele><time>2026-04-25T09:23:26.999Z</time></trkpt><trkpt lat="43.85996751357654" lon="10.803381639848105"><ele>16.166666666666664</ele><time>2026-04-25T09:23:27.999Z</time></trkpt><trkpt lat="43.85989399165028" lon="10.803352900900427"><ele>16.333333333333332</ele><time>2026-04-25T09:23:28.999Z</time></trkpt><trkpt lat="43.85981804230449" lon="10.803324758543962"><ele>16.5</ele><time>2026-04-25T09:23:29.999Z</time></trkpt><trkpt lat="43.85974558090422" lon="10.803286542584058"><ele>16.666666666666668</ele><time>2026-04-25T09:23:30.999Z</time></trkpt><trkpt lat="43.85967618158115" lon="10.80323676802175"><ele>16.833333333333336</ele><time>2026-04-25T09:23:31.999Z</time></trkpt><trkpt lat="43.859610460619756" lon="10.803176351140367"><ele>17.0</ele><time>2026-04-25T09:23:32.998Z</time></trkpt><trkpt lat="43.8595545784508" lon="10.8030985143836"><ele>17.0</ele><time>2026-04-25T09:23:33.998Z</time></trkpt><trkpt lat="43.859526114512576" lon="10.802995758592308"><ele>17.0</ele><time>2026-04-25T09:23:34.998Z</time></trkpt><trkpt lat="43.859516553646685" lon="10.802883868970781"><ele>17.0</ele><time>2026-04-25T09:23:35.998Z</time></trkpt><trkpt lat="43.859512101396824" lon="10.802775802537196"><ele>17.0</ele><time>2026-04-25T09:23:36.998Z</time></trkpt><trkpt lat="43.859490277243154" lon="10.802690153936123"><ele>17.0</ele><time>2026-04-25T09:23:37.998Z</time></trkpt><trkpt lat="43.85943024633762" lon="10.802629429944373"><ele>17.0</ele><time>2026-04-25T09:23:38.998Z</time></trkpt><trkpt lat="43.85935241313376" lon="10.802617884776346"><ele>17.0</ele><time>2026-04-25T09:23:39.998Z</time></trkpt><trkpt lat="43.85927280502244" lon="10.80265009891064"><ele>17.0</ele><time>2026-04-25T09:23:40.998Z</time></trkpt><trkpt lat="43.85920393060112" lon="10.80267729986977"><ele>17.0</ele><time>2026-04-25T09:23:41.998Z</time></trkpt><trkpt lat="43.8591283374848" lon="10.802704017903356"><ele>17.0</ele><time>2026-04-25T09:23:42.998Z</time></trkpt><trkpt lat="43.85905392692501" lon="10.80273498675671"><ele>17.0</ele><time>2026-04-25T09:23:43.998Z</time></trkpt><trkpt lat="43.858978736571444" lon="10.802743200022109"><ele>17.0</ele><time>2026-04-25T09:23:44.998Z</time></trkpt><trkpt lat="43.85889756055418" lon="10.802743246334996"><ele>16.999999999999996</ele><time>2026-04-25T09:23:45.998Z</time></trkpt><trkpt lat="43.85881841086121" lon="10.802741140623858"><ele>17.0</ele><time>2026-04-25T09:23:46.998Z</time></trkpt><trkpt lat="43.85874312669975" lon="10.80272950522788"><ele>17.0</ele><time>2026-04-25T09:23:47.998Z</time></trkpt><trkpt lat="43.85866976451834" lon="10.802716393889261"><ele>17.0</ele><time>2026-04-25T09:23:48.998Z</time></trkpt><trkpt lat="43.85859800618059" lon="10.802715978498185"><ele>17.0</ele><time>2026-04-25T09:23:49.998Z</time></trkpt><trkpt lat="43.85852987199811" lon="10.802717226285536"><ele>16.999999999999996</ele><time>2026-04-25T09:23:50.998Z</time></trkpt><trkpt lat="43.85845502326708" lon="10.802706806767969"><ele>17.0</ele><time>2026-04-25T09:23:51.998Z</time></trkpt><trkpt lat="43.85838096044674" lon="10.802704357980959"><ele>16.999999999999996</ele><time>2026-04-25T09:23:53Z</time></trkpt><trkpt lat="43.8583098378053" lon="10.80269894356176"><ele>17.0</ele><time>2026-04-25T09:23:54Z</time></trkpt><trkpt lat="43.85823990656361" lon="10.80268926878042"><ele>17.0</ele><time>2026-04-25T09:23:55Z</time></trkpt><trkpt lat="43.858167628856286" lon="10.802687527248173"><ele>17.0</ele><time>2026-04-25T09:23:56Z</time></trkpt><trkpt lat="43.858097375256456" lon="10.802679556096011"><ele>17.0</ele><time>2026-04-25T09:23:57Z</time></trkpt><trkpt lat="43.858026956382034" lon="10.802674689373378"><ele>16.999999999999996</ele><time>2026-04-25T09:23:58Z</time></trkpt><trkpt lat="43.85795319206561" lon="10.80266687751919"><ele>17.0</ele><time>2026-04-25T09:23:59Z</time></trkpt><trkpt lat="43.85787975625841" lon="10.802661830809813"><ele>16.857142857142854</ele><time>2026-04-25T09:24:00Z</time></trkpt><trkpt lat="43.85780892842824" lon="10.80266231121865"><ele>16.714285714285715</ele><time>2026-04-25T09:24:01Z</time></trkpt><trkpt lat="43.857733261485016" lon="10.802660462807165"><ele>16.57142857142857</ele><time>2026-04-25T09:24:02Z</time></trkpt><trkpt lat="43.85766349786252" lon="10.802656306263259"><ele>16.428571428571427</ele><time>2026-04-25T09:24:03Z</time></trkpt><trkpt lat="43.85759023306703" lon="10.802652320531617"><ele>16.285714285714285</ele><time>2026-04-25T09:24:04Z</time></trkpt><trkpt lat="43.857515307946386" lon="10.802646870798856"><ele>16.142857142857142</ele><time>2026-04-25T09:24:05Z</time></trkpt><trkpt lat="43.85744165192789" lon="10.802647769005828"><ele>16.0</ele><time>2026-04-25T09:24:06Z</time></trkpt><trkpt lat="43.85737318267129" lon="10.802641475657875"><ele>16.0</ele><time>2026-04-25T09:24:07Z</time></trkpt><trkpt lat="43.85730082236601" lon="10.802636943652349"><ele>15.999999999999998</ele><time>2026-04-25T09:24:08Z</time></trkpt><trkpt lat="43.857230082030256" lon="10.802633984439108"><ele>16.0</ele><time>2026-04-25T09:24:09Z</time></trkpt><trkpt lat="43.857156604425555" lon="10.802629580419548"><ele>16.0</ele><time>2026-04-25T09:24:10Z</time></trkpt><trkpt lat="43.857083784584724" lon="10.802623287562303"><ele>15.999999999999998</ele><time>2026-04-25T09:24:11Z</time></trkpt><trkpt lat="43.857010601416384" lon="10.802619925300478"><ele>16.0</ele><time>2026-04-25T09:24:12Z</time></trkpt><trkpt lat="43.85693716050961" lon="10.802618951971573"><ele>16.0</ele><time>2026-04-25T09:24:13Z</time></trkpt><trkpt lat="43.85686059086922" lon="10.80261694598159"><ele>16.0</ele><time>2026-04-25T09:24:14Z</time></trkpt><trkpt lat="43.85678769783683" lon="10.802616406933753"><ele>15.999999999999998</ele><time>2026-04-25T09:24:15Z</time></trkpt><trkpt lat="43.85671287048792" lon="10.802619964434383"><ele>16.0</ele><time>2026-04-25T09:24:16Z</time></trkpt><trkpt lat="43.85663941596218" lon="10.802621507945645"><ele>16.0</ele><time>2026-04-25T09:24:17Z</time></trkpt><trkpt lat="43.85656912507988" lon="10.80262170456043"><ele>15.999999999999998</ele><time>2026-04-25T09:24:18Z</time></trkpt><trkpt lat="43.85649600525398" lon="10.802629398831215"><ele>16.0</ele><time>2026-04-25T09:24:19Z</time></trkpt><trkpt lat="43.85642404787322" lon="10.802648219925787"><ele>16.0</ele><time>2026-04-25T09:24:20Z</time></trkpt><trkpt lat="43.856351076906385" lon="10.802664905256332"><ele>15.833333333333332</ele><time>2026-04-25T09:24:21Z</time></trkpt><trkpt lat="43.85627822958322" lon="10.802694403591168"><ele>15.666666666666666</ele><time>2026-04-25T09:24:22Z</time></trkpt><trkpt lat="43.8562106294973" lon="10.802729080999002"><ele>15.5</ele><time>2026-04-25T09:24:23Z</time></trkpt><trkpt lat="43.85614342242954" lon="10.802771816757025"><ele>15.333333333333332</ele><time>2026-04-25T09:24:24Z</time></trkpt><trkpt lat="43.85608317534965" lon="10.80282948649081"><ele>15.166666666666666</ele><time>2026-04-25T09:24:25Z</time></trkpt><trkpt lat="43.85602026941137" lon="10.802893817773551"><ele>15.0</ele><time>2026-04-25T09:24:26Z</time></trkpt><trkpt lat="43.85596744724345" lon="10.802971107686924"><ele>15.142857142857142</ele><time>2026-04-25T09:24:27Z</time></trkpt><trkpt lat="43.85591807784723" lon="10.803056237273058"><ele>15.285714285714285</ele><time>2026-04-25T09:24:28Z</time></trkpt><trkpt lat="43.85587241259108" lon="10.80313901873008"><ele>15.428571428571427</ele><time>2026-04-25T09:24:29Z</time></trkpt><trkpt lat="43.85583149697073" lon="10.803229028597654"><ele>15.571428571428571</ele><time>2026-04-25T09:24:30Z</time></trkpt><trkpt lat="43.85579950610869" lon="10.803318212960505"><ele>15.714285714285712</ele><time>2026-04-25T09:24:31Z</time></trkpt><trkpt lat="43.85577232315818" lon="10.803404960580812"><ele>15.857142857142856</ele><time>2026-04-25T09:24:32Z</time></trkpt><trkpt lat="43.85575430177129" lon="10.803503494759507"><ele>16.0</ele><time>2026-04-25T09:24:33Z</time></trkpt><trkpt lat="43.85573585870146" lon="10.803598384600173"><ele>15.999999999999998</ele><time>2026-04-25T09:24:34Z</time></trkpt><trkpt lat="43.85571130482891" lon="10.803691527175593"><ele>16.0</ele><time>2026-04-25T09:24:35Z</time></trkpt><trkpt lat="43.85568403835911" lon="10.803788130222545"><ele>16.0</ele><time>2026-04-25T09:24:36Z</time></trkpt><trkpt lat="43.85565731816114" lon="10.80388015830136"><ele>16.0</ele><time>2026-04-25T09:24:37Z</time></trkpt><trkpt lat="43.85562062907435" lon="10.803976569258166"><ele>15.999999999999998</ele><time>2026-04-25T09:24:37.999Z</time></trkpt><trkpt lat="43.85557570369489" lon="10.804066148726044"><ele>16.0</ele><time>2026-04-25T09:24:38.999Z</time></trkpt><trkpt lat="43.855518051158015" lon="10.804144946324787"><ele>15.999999999999998</ele><time>2026-04-25T09:24:39.999Z</time></trkpt><trkpt lat="43.85543785283218" lon="10.804171696967892"><ele>16.0</ele><time>2026-04-25T09:24:40.999Z</time></trkpt><trkpt lat="43.85535507688506" lon="10.804145658548123"><ele>16.0</ele><time>2026-04-25T09:24:41.999Z</time></trkpt><trkpt lat="43.85528121914984" lon="10.80408182329796"><ele>16.0</ele><time>2026-04-25T09:24:42.999Z</time></trkpt><trkpt lat="43.855211045501264" lon="10.804015469575628"><ele>15.999999999999998</ele><time>2026-04-25T09:24:43.999Z</time></trkpt><trkpt lat="43.855141137920924" lon="10.803960379127753"><ele>16.0</ele><time>2026-04-25T09:24:44.999Z</time></trkpt><trkpt lat="43.855065642084654" lon="10.803909858717503"><ele>15.999999999999998</ele><time>2026-04-25T09:24:45.999Z</time></trkpt><trkpt lat="43.854997144523054" lon="10.803863156706027"><ele>16.0</ele><time>2026-04-25T09:24:46.999Z</time></trkpt><trkpt lat="43.85492240220249" lon="10.80380697737191"><ele>16.0</ele><time>2026-04-25T09:24:47.999Z</time></trkpt><trkpt lat="43.85485213537677" lon="10.803761880402671"><ele>16.0</ele><time>2026-04-25T09:24:48.999Z</time></trkpt><trkpt lat="43.85478428293279" lon="10.803714901410533"><ele>15.999999999999998</ele><time>2026-04-25T09:24:49.999Z</time></trkpt><trkpt lat="43.854710605296404" lon="10.803663552473061"><ele>16.0</ele><time>2026-04-25T09:24:50.999Z</time></trkpt><trkpt lat="43.85464423730497" lon="10.803615226990479"><ele>15.999999999999998</ele><time>2026-04-25T09:24:51.999Z</time></trkpt><trkpt lat="43.85458474441485" lon="10.803560503589875"><ele>16.0</ele><time>2026-04-25T09:24:52.999Z</time></trkpt><trkpt lat="43.854517369447855" lon="10.803501583576086"><ele>16.0</ele><time>2026-04-25T09:24:53.999Z</time></trkpt><trkpt lat="43.85445029795324" lon="10.803442100123439"><ele>16.0</ele><time>2026-04-25T09:24:54.999Z</time></trkpt><trkpt lat="43.854383916952536" lon="10.803392382393188"><ele>15.999999999999998</ele><time>2026-04-25T09:24:55.999Z</time></trkpt><trkpt lat="43.85431320448107" lon="10.803349531581414"><ele>16.0</ele><time>2026-04-25T09:24:56.999Z</time></trkpt><trkpt lat="43.85424895249064" lon="10.803301359236032"><ele>15.833333333333332</ele><time>2026-04-25T09:24:57.999Z</time></trkpt><trkpt lat="43.85418452760273" lon="10.803243478856798"><ele>15.666666666666666</ele><time>2026-04-25T09:24:58.999Z</time></trkpt><trkpt lat="43.854118667179755" lon="10.803188006964296"><ele>15.5</ele><time>2026-04-25T09:24:59.999Z</time></trkpt><trkpt lat="43.85404779644447" lon="10.803138759005044"><ele>15.333333333333332</ele><time>2026-04-25T09:25:00.999Z</time></trkpt><trkpt lat="43.853978806228675" lon="10.803095299192574"><ele>15.166666666666666</ele><time>2026-04-25T09:25:01.999Z</time></trkpt><trkpt lat="43.85391318794514" lon="10.803044017536843"><ele>15.0</ele><time>2026-04-25T09:25:02.999Z</time></trkpt><trkpt lat="43.85384971549153" lon="10.802991916334783"><ele>15.0</ele><time>2026-04-25T09:25:03.999Z</time></trkpt><trkpt lat="43.85378403012058" lon="10.802937984323252"><ele>15.0</ele><time>2026-04-25T09:25:04.999Z</time></trkpt><trkpt lat="43.8537183233638" lon="10.802889253218078"><ele>15.0</ele><time>2026-04-25T09:25:05.999Z</time></trkpt><trkpt lat="43.85365194419763" lon="10.802837765745759"><ele>15.0</ele><time>2026-04-25T09:25:06.999Z</time></trkpt><trkpt lat="43.85358694517751" lon="10.802789933774765"><ele>15.0</ele><time>2026-04-25T09:25:07.999Z</time></trkpt><trkpt lat="43.853521127364864" lon="10.802744640195785"><ele>15.0</ele><time>2026-04-25T09:25:08.999Z</time></trkpt><trkpt lat="43.85345545332958" lon="10.802696302176278"><ele>15.0</ele><time>2026-04-25T09:25:09.999Z</time></trkpt><trkpt lat="43.85338491179811" lon="10.80264695762036"><ele>15.166666666666666</ele><time>2026-04-25T09:25:10.999Z</time></trkpt><trkpt lat="43.853320778574286" lon="10.802594019545928"><ele>15.333333333333332</ele><time>2026-04-25T09:25:11.999Z</time></trkpt><trkpt lat="43.85325481289258" lon="10.80254015738519"><ele>15.5</ele><time>2026-04-25T09:25:12.999Z</time></trkpt><trkpt lat="43.85318601539973" lon="10.802491397641775"><ele>15.666666666666666</ele><time>2026-04-25T09:25:13.999Z</time></trkpt><trkpt lat="43.85311694413812" lon="10.802442108959228"><ele>15.833333333333332</ele><time>2026-04-25T09:25:14.999Z</time></trkpt><trkpt lat="43.85305155007807" lon="10.802387009283073"><ele>16.0</ele><time>2026-04-25T09:25:15.999Z</time></trkpt><trkpt lat="43.85298622314382" lon="10.802329442033278"><ele>15.999999999999998</ele><time>2026-04-25T09:25:16.999Z</time></trkpt><trkpt lat="43.85291703212664" lon="10.802281924258502"><ele>16.0</ele><time>2026-04-25T09:25:17.999Z</time></trkpt><trkpt lat="43.852845885604026" lon="10.802225276987953"><ele>16.0</ele><time>2026-04-25T09:25:18.999Z</time></trkpt><trkpt lat="43.852781319755614" lon="10.802173140252307"><ele>16.0</ele><time>2026-04-25T09:25:19.999Z</time></trkpt><trkpt lat="43.85271206228908" lon="10.802118688374163"><ele>15.999999999999998</ele><time>2026-04-25T09:25:20.999Z</time></trkpt><trkpt lat="43.85264681060306" lon="10.802072818096478"><ele>16.0</ele><time>2026-04-25T09:25:21.999Z</time></trkpt><trkpt lat="43.85257592938206" lon="10.802023879214214"><ele>15.999999999999998</ele><time>2026-04-25T09:25:22.999Z</time></trkpt><trkpt lat="43.852510358284086" lon="10.801970741317422"><ele>16.0</ele><time>2026-04-25T09:25:23.999Z</time></trkpt><trkpt lat="43.85244286294886" lon="10.801920496054342"><ele>16.0</ele><time>2026-04-25T09:25:24.999Z</time></trkpt><trkpt lat="43.8523714252866" lon="10.801870976556476"><ele>16.0</ele><time>2026-04-25T09:25:25.999Z</time></trkpt><trkpt lat="43.852302516031614" lon="10.801820505476076"><ele>15.999999999999998</ele><time>2026-04-25T09:25:26.999Z</time></trkpt><trkpt lat="43.852235248543955" lon="10.8017666967156"><ele>16.0</ele><time>2026-04-25T09:25:27.999Z</time></trkpt><trkpt lat="43.85216897999272" lon="10.801710618239941"><ele>15.999999999999998</ele><time>2026-04-25T09:25:28.999Z</time></trkpt><trkpt lat="43.8520991255597" lon="10.801658886186294"><ele>16.0</ele><time>2026-04-25T09:25:29.999Z</time></trkpt><trkpt lat="43.85202895881783" lon="10.801614940878673"><ele>16.0</ele><time>2026-04-25T09:25:30.999Z</time></trkpt><trkpt lat="43.851959109344314" lon="10.80156497179537"><ele>16.0</ele><time>2026-04-25T09:25:31.999Z</time></trkpt><trkpt lat="43.85189005173123" lon="10.801511863997014"><ele>15.999999999999998</ele><time>2026-04-25T09:25:32.999Z</time></trkpt><trkpt lat="43.851828500801886" lon="10.801456463535164"><ele>16.0</ele><time>2026-04-25T09:25:33.999Z</time></trkpt><trkpt lat="43.851762229280425" lon="10.80139798483213"><ele>16.0</ele><time>2026-04-25T09:25:34.999Z</time></trkpt><trkpt lat="43.85169705477726" lon="10.801333431293052"><ele>15.999999999999998</ele><time>2026-04-25T09:25:35.999Z</time></trkpt><trkpt lat="43.85163738498012" lon="10.801280597379638"><ele>16.0</ele><time>2026-04-25T09:25:36.999Z</time></trkpt><trkpt lat="43.85158373918327" lon="10.801225464343192"><ele>16.0</ele><time>2026-04-25T09:25:37.998Z</time></trkpt><trkpt lat="43.85153717272019" lon="10.801161503924408"><ele>15.999999999999998</ele><time>2026-04-25T09:25:38.998Z</time></trkpt><trkpt lat="43.85150801022229" lon="10.8010811164059"><ele>16.0</ele><time>2026-04-25T09:25:39.998Z</time></trkpt><trkpt lat="43.851476492086" lon="10.80100428784179"><ele>16.0</ele><time>2026-04-25T09:25:40.998Z</time></trkpt><trkpt lat="43.85142470035326" lon="10.800939893213608"><ele>15.999999999999998</ele><time>2026-04-25T09:25:41.998Z</time></trkpt><trkpt lat="43.85136104469017" lon="10.800914554976687"><ele>16.0</ele><time>2026-04-25T09:25:42.998Z</time></trkpt><trkpt lat="43.851294871754796" lon="10.800917832332804"><ele>16.0</ele><time>2026-04-25T09:25:43.998Z</time></trkpt><trkpt lat="43.85117448404107" lon="10.800923225646583"><ele>16.0</ele><time>2026-04-25T09:25:45.998Z</time></trkpt><trkpt lat="43.851054789633494" lon="10.800873100540418"><ele>15.999999999999998</ele><time>2026-04-25T09:25:47.998Z</time></trkpt><trkpt lat="43.85099208795302" lon="10.800830854576905"><ele>16.0</ele><time>2026-04-25T09:25:48.998Z</time></trkpt><trkpt lat="43.85092652845921" lon="10.800785856546135"><ele>16.2</ele><time>2026-04-25T09:25:49.998Z</time></trkpt><trkpt lat="43.850863556388994" lon="10.80074610102391"><ele>16.400000000000002</ele><time>2026-04-25T09:25:50.998Z</time></trkpt><trkpt lat="43.85080402459186" lon="10.800708182789355"><ele>16.6</ele><time>2026-04-25T09:25:51.998Z</time></trkpt><trkpt lat="43.850773180197216" lon="10.80063138767243"><ele>16.8</ele><time>2026-04-25T09:25:52.998Z</time></trkpt><trkpt lat="43.85084340744052" lon="10.800456146690077"><ele>17.0</ele><time>2026-04-25T09:25:54.998Z</time></trkpt><trkpt lat="43.850915560771334" lon="10.800323209889442"><ele>16.999999999999996</ele><time>2026-04-25T09:25:56.998Z</time></trkpt><trkpt lat="43.85094657355418" lon="10.800244278789755"><ele>17.0</ele><time>2026-04-25T09:25:57.998Z</time></trkpt><trkpt lat="43.85097596652741" lon="10.800161810200194"><ele>17.0</ele><time>2026-04-25T09:25:59Z</time></trkpt><trkpt lat="43.85100919238007" lon="10.800082174489999"><ele>17.0</ele><time>2026-04-25T09:26:00Z</time></trkpt><trkpt lat="43.85104500703308" lon="10.80000840540021"><ele>17.0</ele><time>2026-04-25T09:26:01Z</time></trkpt><trkpt lat="43.85107780997155" lon="10.799929132624143"><ele>16.999999999999996</ele><time>2026-04-25T09:26:02Z</time></trkpt><trkpt lat="43.85111019115262" lon="10.799849744639895"><ele>17.0</ele><time>2026-04-25T09:26:03Z</time></trkpt><trkpt lat="43.851140556839184" lon="10.799770620155373"><ele>16.8</ele><time>2026-04-25T09:26:04Z</time></trkpt><trkpt lat="43.85121333030667" lon="10.799634633261235"><ele>16.6</ele><time>2026-04-25T09:26:06Z</time></trkpt><trkpt lat="43.851242071134486" lon="10.799555951408335"><ele>16.400000000000002</ele><time>2026-04-25T09:26:07Z</time></trkpt><trkpt lat="43.851268628340236" lon="10.799394595494512"><ele>16.2</ele><time>2026-04-25T09:26:09Z</time></trkpt><trkpt lat="43.85128158218608" lon="10.7992227801106"><ele>16.0</ele><time>2026-04-25T09:26:11Z</time></trkpt><trkpt lat="43.85129890174875" lon="10.799053189033446"><ele>15.999999999999998</ele><time>2026-04-25T09:26:13Z</time></trkpt><trkpt lat="43.85130869210039" lon="10.798964057059601"><ele>16.0</ele><time>2026-04-25T09:26:14Z</time></trkpt><trkpt lat="43.851316202233015" lon="10.798874099185957"><ele>16.0</ele><time>2026-04-25T09:26:15Z</time></trkpt><trkpt lat="43.851326211934726" lon="10.79878429386362"><ele>16.0</ele><time>2026-04-25T09:26:16Z</time></trkpt><trkpt lat="43.85133957397673" lon="10.798692387731826"><ele>15.999999999999998</ele><time>2026-04-25T09:26:17Z</time></trkpt><trkpt lat="43.85135075694957" lon="10.798522253692253"><ele>16.0</ele><time>2026-04-25T09:26:19Z</time></trkpt><trkpt lat="43.8513588363368" lon="10.798435576633452"><ele>16.0</ele><time>2026-04-25T09:26:20Z</time></trkpt><trkpt lat="43.851378568779396" lon="10.79826906681584"><ele>16.0</ele><time>2026-04-25T09:26:22Z</time></trkpt><trkpt lat="43.851392526300145" lon="10.798107024784304"><ele>16.0</ele><time>2026-04-25T09:26:24Z</time></trkpt><trkpt lat="43.85140233324869" lon="10.797956435642693"><ele>16.0</ele><time>2026-04-25T09:26:26Z</time></trkpt><trkpt lat="43.851408673473536" lon="10.797822509989865"><ele>16.0</ele><time>2026-04-25T09:26:28Z</time></trkpt><trkpt lat="43.85134859981743" lon="10.797744545810229"><ele>16.0</ele><time>2026-04-25T09:26:30Z</time></trkpt><trkpt lat="43.851264342815995" lon="10.797722726222315"><ele>16.0</ele><time>2026-04-25T09:26:32Z</time></trkpt><trkpt lat="43.851222834528016" lon="10.797650174110075"><ele>16.0</ele><time>2026-04-25T09:26:34Z</time></trkpt><trkpt lat="43.85124696958483" lon="10.797547830745795"><ele>16.0</ele><time>2026-04-25T09:26:36Z</time></trkpt><trkpt lat="43.85129786182911" lon="10.797493241821792"><ele>16.0</ele><time>2026-04-25T09:26:39Z</time></trkpt></trkseg></trk></gpx>